<?xml version='1.0' encoding='UTF-8'?><gpx version="1.1" creator="JPX - https://github.com/jenetics/jpx" xmlns="http://www.topografix.com/GPX/1/1"><trk><trkseg><trkpt lat="45.6099764" lon="9.4269474"><ele>202.0</ele><time>2026-04-09T13:25:07.545Z</time></trkpt><trkpt lat="45.6099637" lon="9.4268503"><ele>202.0</ele><time>2026-04-09T13:25:09.545Z</time></trkpt><trkpt lat="45.6099011" lon="9.4268234"><ele>202.0</ele><time>2026-04-09T13:25:11.546Z</time></trkpt><trkpt lat="45.6098296" lon="9.4268009"><ele>202.0</ele><time>2026-04-09T13:25:13.546Z</time></trkpt><trkpt lat="45.6097749" lon="9.426753"><ele>202.0</ele><time>2026-04-09T13:25:15.545Z</time></trkpt><trkpt lat="45.6097567" lon="9.4266553"><ele>202.0</ele><time>2026-04-09T13:25:17.545Z</time></trkpt><trkpt lat="45.6097393" lon="9.4265243"><ele>202.0</ele><time>2026-04-09T13:25:19.545Z</time></trkpt><trkpt lat="45.609722" lon="9.4263832"><ele>201.99999999999997</ele><time>2026-04-09T13:25:21.546Z</time></trkpt><trkpt lat="45.6097231" lon="9.4262598"><ele>202.0</ele><time>2026-04-09T13:25:23.545Z</time></trkpt><trkpt lat="45.6096871" lon="9.4261747"><ele>202.0</ele><time>2026-04-09T13:25:25.545Z</time></trkpt><trkpt lat="45.6096358" lon="9.4260825"><ele>202.0</ele><time>2026-04-09T13:25:36.551Z</time></trkpt><trkpt lat="45.6095648" lon="9.4260822"><ele>201.99999999999997</ele><time>2026-04-09T13:25:38.543Z</time></trkpt><trkpt lat="45.6094851" lon="9.4260793"><ele>202.0</ele><time>2026-04-09T13:25:40.545Z</time></trkpt><trkpt lat="45.6093932" lon="9.4260755"><ele>201.39999999999998</ele><time>2026-04-09T13:25:42.542Z</time></trkpt><trkpt lat="45.6092997" lon="9.4260601"><ele>200.79999999999998</ele><time>2026-04-09T13:25:44.542Z</time></trkpt><trkpt lat="45.6092232" lon="9.4260581"><ele>200.2</ele><time>2026-04-09T13:25:46.542Z</time></trkpt><trkpt lat="45.6091264" lon="9.4260588"><ele>199.6</ele><time>2026-04-09T13:25:48.542Z</time></trkpt><trkpt lat="45.6090174" lon="9.4260512"><ele>199.0</ele><time>2026-04-09T13:25:50.541Z</time></trkpt><trkpt lat="45.6089091" lon="9.4260496"><ele>199.0</ele><time>2026-04-09T13:25:52.542Z</time></trkpt><trkpt lat="45.6088027" lon="9.4260522"><ele>199.0</ele><time>2026-04-09T13:25:54.541Z</time></trkpt><trkpt lat="45.608696" lon="9.426051"><ele>199.0</ele><time>2026-04-09T13:25:56.541Z</time></trkpt><trkpt lat="45.6085922" lon="9.4260488"><ele>199.0</ele><time>2026-04-09T13:25:58.541Z</time></trkpt><trkpt lat="45.6084933" lon="9.4260288"><ele>199.0</ele><time>2026-04-09T13:26:00.542Z</time></trkpt><trkpt lat="45.6084254" lon="9.4260269"><ele>198.25</ele><time>2026-04-09T13:26:01.541Z</time></trkpt><trkpt lat="45.6083048" lon="9.4260305"><ele>197.5</ele><time>2026-04-09T13:26:03.541Z</time></trkpt><trkpt lat="45.6081927" lon="9.4260231"><ele>196.75</ele><time>2026-04-09T13:26:05.542Z</time></trkpt><trkpt lat="45.6080818" lon="9.4260235"><ele>196.0</ele><time>2026-04-09T13:26:07.542Z</time></trkpt><trkpt lat="45.6079637" lon="9.4260148"><ele>196.0</ele><time>2026-04-09T13:26:09.541Z</time></trkpt><trkpt lat="45.6078591" lon="9.4260097"><ele>196.0</ele><time>2026-04-09T13:26:11.542Z</time></trkpt><trkpt lat="45.6077543" lon="9.4260095"><ele>196.0</ele><time>2026-04-09T13:26:13.542Z</time></trkpt><trkpt lat="45.6076427" lon="9.4260095"><ele>196.0</ele><time>2026-04-09T13:26:15.542Z</time></trkpt><trkpt lat="45.6075438" lon="9.4260194"><ele>196.0</ele><time>2026-04-09T13:26:17.542Z</time></trkpt><trkpt lat="45.6074657" lon="9.4260788"><ele>195.83333333333331</ele><time>2026-04-09T13:26:19.542Z</time></trkpt><trkpt lat="45.6074268" lon="9.4261672"><ele>195.66666666666666</ele><time>2026-04-09T13:26:21.54Z</time></trkpt><trkpt lat="45.6074166" lon="9.426294"><ele>195.5</ele><time>2026-04-09T13:26:23.542Z</time></trkpt><trkpt lat="45.6074034" lon="9.4264187"><ele>195.33333333333331</ele><time>2026-04-09T13:26:25.541Z</time></trkpt><trkpt lat="45.6074001" lon="9.4265462"><ele>195.16666666666666</ele><time>2026-04-09T13:26:27.542Z</time></trkpt><trkpt lat="45.6073976" lon="9.4266804"><ele>195.0</ele><time>2026-04-09T13:26:29.542Z</time></trkpt><trkpt lat="45.6073968" lon="9.426824"><ele>195.0</ele><time>2026-04-09T13:26:31.542Z</time></trkpt><trkpt lat="45.6073821" lon="9.4269808"><ele>195.0</ele><time>2026-04-09T13:26:33.542Z</time></trkpt><trkpt lat="45.6073837" lon="9.4271173"><ele>195.0</ele><time>2026-04-09T13:26:35.541Z</time></trkpt><trkpt lat="45.6073723" lon="9.4272558"><ele>195.0</ele><time>2026-04-09T13:26:37.541Z</time></trkpt><trkpt lat="45.6073411" lon="9.4274131"><ele>195.0</ele><time>2026-04-09T13:26:39.541Z</time></trkpt><trkpt lat="45.6073167" lon="9.4275659"><ele>195.0</ele><time>2026-04-09T13:26:41.542Z</time></trkpt><trkpt lat="45.6073163" lon="9.4277195"><ele>195.0</ele><time>2026-04-09T13:26:43.541Z</time></trkpt><trkpt lat="45.6073133" lon="9.4278679"><ele>195.0</ele><time>2026-04-09T13:26:45.542Z</time></trkpt><trkpt lat="45.6073075" lon="9.4280205"><ele>195.0</ele><time>2026-04-09T13:26:47.542Z</time></trkpt><trkpt lat="45.6073055" lon="9.4281765"><ele>195.0</ele><time>2026-04-09T13:26:49.542Z</time></trkpt><trkpt lat="45.6073055" lon="9.4283393"><ele>195.0</ele><time>2026-04-09T13:26:51.542Z</time></trkpt><trkpt lat="45.6073126" lon="9.4284776"><ele>195.0</ele><time>2026-04-09T13:26:53.541Z</time></trkpt><trkpt lat="45.6073165" lon="9.4286324"><ele>195.0</ele><time>2026-04-09T13:26:55.542Z</time></trkpt><trkpt lat="45.6073148" lon="9.4287713"><ele>195.0</ele><time>2026-04-09T13:26:57.541Z</time></trkpt><trkpt lat="45.6073147" lon="9.4289302"><ele>195.0</ele><time>2026-04-09T13:26:59.541Z</time></trkpt><trkpt lat="45.6073179" lon="9.429079"><ele>195.0</ele><time>2026-04-09T13:27:01.541Z</time></trkpt><trkpt lat="45.6073092" lon="9.4292419"><ele>195.0</ele><time>2026-04-09T13:27:03.542Z</time></trkpt><trkpt lat="45.6073075" lon="9.4294006"><ele>195.0</ele><time>2026-04-09T13:27:05.542Z</time></trkpt><trkpt lat="45.6073105" lon="9.4294936"><ele>195.0</ele><time>2026-04-09T13:27:06.542Z</time></trkpt><trkpt lat="45.6072992" lon="9.4296395"><ele>195.0</ele><time>2026-04-09T13:27:08.542Z</time></trkpt><trkpt lat="45.6072779" lon="9.4298015"><ele>195.25</ele><time>2026-04-09T13:27:10.542Z</time></trkpt><trkpt lat="45.6072465" lon="9.4299667"><ele>195.5</ele><time>2026-04-09T13:27:12.541Z</time></trkpt><trkpt lat="45.6071945" lon="9.4301302"><ele>195.75</ele><time>2026-04-09T13:27:14.542Z</time></trkpt><trkpt lat="45.607126" lon="9.4302204"><ele>196.0</ele><time>2026-04-09T13:27:16.542Z</time></trkpt><trkpt lat="45.6070559" lon="9.4303465"><ele>195.99999999999997</ele><time>2026-04-09T13:27:18.541Z</time></trkpt><trkpt lat="45.6070618" lon="9.4304411"><ele>196.0</ele><time>2026-04-09T13:27:19.542Z</time></trkpt><trkpt lat="45.6070414" lon="9.4305322"><ele>196.0</ele><time>2026-04-09T13:27:20.542Z</time></trkpt><trkpt lat="45.6070199" lon="9.4306318"><ele>196.0</ele><time>2026-04-09T13:27:21.542Z</time></trkpt><trkpt lat="45.606996" lon="9.4307965"><ele>195.99999999999997</ele><time>2026-04-09T13:27:23.541Z</time></trkpt><trkpt lat="45.6069832" lon="9.4308878"><ele>196.0</ele><time>2026-04-09T13:27:24.542Z</time></trkpt><trkpt lat="45.6069584" lon="9.4310175"><ele>196.16666666666666</ele><time>2026-04-09T13:27:26.542Z</time></trkpt><trkpt lat="45.6069721" lon="9.4311157"><ele>196.33333333333331</ele><time>2026-04-09T13:27:28.541Z</time></trkpt><trkpt lat="45.6070319" lon="9.4312082"><ele>196.5</ele><time>2026-04-09T13:27:30.542Z</time></trkpt><trkpt lat="45.6071091" lon="9.4312558"><ele>196.66666666666669</ele><time>2026-04-09T13:27:32.541Z</time></trkpt><trkpt lat="45.6071999" lon="9.4313053"><ele>196.83333333333334</ele><time>2026-04-09T13:27:34.541Z</time></trkpt><trkpt lat="45.607275" lon="9.4313811"><ele>197.0</ele><time>2026-04-09T13:27:36.541Z</time></trkpt><trkpt lat="45.607302" lon="9.4315047"><ele>197.0</ele><time>2026-04-09T13:27:38.542Z</time></trkpt><trkpt lat="45.6073071" lon="9.4316147"><ele>197.0</ele><time>2026-04-09T13:27:40.541Z</time></trkpt><trkpt lat="45.6073206" lon="9.431742"><ele>197.0</ele><time>2026-04-09T13:27:42.541Z</time></trkpt><trkpt lat="45.6074027" lon="9.4318371"><ele>197.0</ele><time>2026-04-09T13:27:44.542Z</time></trkpt><trkpt lat="45.6074934" lon="9.4318766"><ele>197.0</ele><time>2026-04-09T13:27:46.541Z</time></trkpt><trkpt lat="45.6075889" lon="9.4319102"><ele>197.0</ele><time>2026-04-09T13:27:48.542Z</time></trkpt><trkpt lat="45.607689" lon="9.4319448"><ele>197.0</ele><time>2026-04-09T13:27:50.542Z</time></trkpt><trkpt lat="45.6077921" lon="9.4319876"><ele>197.0</ele><time>2026-04-09T13:27:52.542Z</time></trkpt><trkpt lat="45.6079003" lon="9.4320012"><ele>197.0</ele><time>2026-04-09T13:27:54.542Z</time></trkpt><trkpt lat="45.6079958" lon="9.4319871"><ele>197.0</ele><time>2026-04-09T13:27:56.541Z</time></trkpt><trkpt lat="45.6081078" lon="9.4319241"><ele>197.2</ele><time>2026-04-09T13:27:58.542Z</time></trkpt><trkpt lat="45.6081683" lon="9.4318864"><ele>197.39999999999998</ele><time>2026-04-09T13:27:59.542Z</time></trkpt><trkpt lat="45.6082294" lon="9.4318601"><ele>197.60000000000002</ele><time>2026-04-09T13:28:00.542Z</time></trkpt><trkpt lat="45.6083616" lon="9.4318329"><ele>197.8</ele><time>2026-04-09T13:28:02.541Z</time></trkpt><trkpt lat="45.6084319" lon="9.4318323"><ele>198.0</ele><time>2026-04-09T13:28:03.541Z</time></trkpt><trkpt lat="45.6085552" lon="9.4318329"><ele>197.4</ele><time>2026-04-09T13:28:05.542Z</time></trkpt><trkpt lat="45.6086597" lon="9.4318717"><ele>196.8</ele><time>2026-04-09T13:28:07.541Z</time></trkpt><trkpt lat="45.608771" lon="9.4319157"><ele>196.2</ele><time>2026-04-09T13:28:09.542Z</time></trkpt><trkpt lat="45.6088334" lon="9.4319377"><ele>195.6</ele><time>2026-04-09T13:28:10.542Z</time></trkpt><trkpt lat="45.6089431" lon="9.4319918"><ele>195.0</ele><time>2026-04-09T13:28:12.542Z</time></trkpt><trkpt lat="45.6090564" lon="9.4320432"><ele>195.0</ele><time>2026-04-09T13:28:14.542Z</time></trkpt><trkpt lat="45.6091708" lon="9.4320952"><ele>195.0</ele><time>2026-04-09T13:28:16.542Z</time></trkpt><trkpt lat="45.6092353" lon="9.4321277"><ele>195.0</ele><time>2026-04-09T13:28:17.542Z</time></trkpt><trkpt lat="45.6092985" lon="9.4321545"><ele>195.0</ele><time>2026-04-09T13:28:18.542Z</time></trkpt><trkpt lat="45.6094123" lon="9.4322072"><ele>195.0</ele><time>2026-04-09T13:28:20.541Z</time></trkpt><trkpt lat="45.6095206" lon="9.4322466"><ele>195.25</ele><time>2026-04-09T13:28:22.542Z</time></trkpt><trkpt lat="45.6096446" lon="9.4322917"><ele>195.5</ele><time>2026-04-09T13:28:24.542Z</time></trkpt><trkpt lat="45.6097511" lon="9.4323174"><ele>195.75</ele><time>2026-04-09T13:28:26.542Z</time></trkpt><trkpt lat="45.6098644" lon="9.4323203"><ele>196.0</ele><time>2026-04-09T13:28:28.542Z</time></trkpt><trkpt lat="45.6099736" lon="9.4322739"><ele>196.0</ele><time>2026-04-09T13:28:30.541Z</time></trkpt><trkpt lat="45.6100932" lon="9.4322583"><ele>196.0</ele><time>2026-04-09T13:28:32.542Z</time></trkpt><trkpt lat="45.6102159" lon="9.4322804"><ele>196.0</ele><time>2026-04-09T13:28:34.542Z</time></trkpt><trkpt lat="45.6103094" lon="9.4322338"><ele>196.0</ele><time>2026-04-09T13:28:36.541Z</time></trkpt><trkpt lat="45.610395" lon="9.4321602"><ele>196.0</ele><time>2026-04-09T13:28:38.542Z</time></trkpt><trkpt lat="45.6104933" lon="9.4320927"><ele>196.60000000000002</ele><time>2026-04-09T13:28:40.541Z</time></trkpt><trkpt lat="45.6105849" lon="9.4320278"><ele>197.2</ele><time>2026-04-09T13:28:42.542Z</time></trkpt><trkpt lat="45.6106809" lon="9.4319782"><ele>197.8</ele><time>2026-04-09T13:28:44.542Z</time></trkpt><trkpt lat="45.6107866" lon="9.4319803"><ele>198.39999999999998</ele><time>2026-04-09T13:28:46.542Z</time></trkpt><trkpt lat="45.6108959" lon="9.432002"><ele>199.0</ele><time>2026-04-09T13:28:48.541Z</time></trkpt><trkpt lat="45.610999" lon="9.4320042"><ele>199.0</ele><time>2026-04-09T13:28:50.541Z</time></trkpt><trkpt lat="45.6110894" lon="9.432001"><ele>199.0</ele><time>2026-04-09T13:28:52.542Z</time></trkpt><trkpt lat="45.6111887" lon="9.4319952"><ele>199.0</ele><time>2026-04-09T13:28:54.542Z</time></trkpt><trkpt lat="45.6112866" lon="9.4319831"><ele>199.0</ele><time>2026-04-09T13:28:56.542Z</time></trkpt><trkpt lat="45.6113918" lon="9.4319853"><ele>199.0</ele><time>2026-04-09T13:28:58.542Z</time></trkpt><trkpt lat="45.6115027" lon="9.43201"><ele>199.6</ele><time>2026-04-09T13:29:00.541Z</time></trkpt><trkpt lat="45.6116045" lon="9.4320651"><ele>200.2</ele><time>2026-04-09T13:29:02.541Z</time></trkpt><trkpt lat="45.6116946" lon="9.4321735"><ele>200.79999999999998</ele><time>2026-04-09T13:29:04.541Z</time></trkpt><trkpt lat="45.6117947" lon="9.4322689"><ele>201.39999999999998</ele><time>2026-04-09T13:29:06.541Z</time></trkpt><trkpt lat="45.6118582" lon="9.4322872"><ele>202.0</ele><time>2026-04-09T13:29:07.542Z</time></trkpt><trkpt lat="45.6119764" lon="9.4323022"><ele>202.25</ele><time>2026-04-09T13:29:09.541Z</time></trkpt><trkpt lat="45.6121027" lon="9.4323084"><ele>202.5</ele><time>2026-04-09T13:29:11.542Z</time></trkpt><trkpt lat="45.6122222" lon="9.4323178"><ele>202.75</ele><time>2026-04-09T13:29:13.542Z</time></trkpt><trkpt lat="45.6123424" lon="9.4323409"><ele>203.0</ele><time>2026-04-09T13:29:15.541Z</time></trkpt><trkpt lat="45.6124652" lon="9.4323601"><ele>203.0</ele><time>2026-04-09T13:29:17.542Z</time></trkpt><trkpt lat="45.6125278" lon="9.4323725"><ele>203.0</ele><time>2026-04-09T13:29:18.542Z</time></trkpt><trkpt lat="45.6126463" lon="9.4323926"><ele>203.0</ele><time>2026-04-09T13:29:20.541Z</time></trkpt><trkpt lat="45.6127588" lon="9.4324269"><ele>203.0</ele><time>2026-04-09T13:29:22.541Z</time></trkpt><trkpt lat="45.6128625" lon="9.4324674"><ele>203.0</ele><time>2026-04-09T13:29:24.542Z</time></trkpt><trkpt lat="45.6129748" lon="9.4325233"><ele>203.0</ele><time>2026-04-09T13:29:26.542Z</time></trkpt><trkpt lat="45.6130792" lon="9.4325743"><ele>203.0</ele><time>2026-04-09T13:29:28.542Z</time></trkpt><trkpt lat="45.6131841" lon="9.4326298"><ele>203.0</ele><time>2026-04-09T13:29:30.541Z</time></trkpt><trkpt lat="45.6132895" lon="9.4326953"><ele>203.0</ele><time>2026-04-09T13:29:32.542Z</time></trkpt><trkpt lat="45.6134031" lon="9.4327502"><ele>203.0</ele><time>2026-04-09T13:29:34.542Z</time></trkpt><trkpt lat="45.6135188" lon="9.4328082"><ele>203.0</ele><time>2026-04-09T13:29:36.542Z</time></trkpt><trkpt lat="45.6135859" lon="9.4328367"><ele>203.0</ele><time>2026-04-09T13:29:37.542Z</time></trkpt><trkpt lat="45.6136956" lon="9.4328657"><ele>203.0</ele><time>2026-04-09T13:29:39.541Z</time></trkpt><trkpt lat="45.6138093" lon="9.4328498"><ele>203.0</ele><time>2026-04-09T13:29:41.542Z</time></trkpt><trkpt lat="45.6139094" lon="9.4327999"><ele>203.0</ele><time>2026-04-09T13:29:43.541Z</time></trkpt><trkpt lat="45.6140291" lon="9.4328087"><ele>203.0</ele><time>2026-04-09T13:29:45.542Z</time></trkpt><trkpt lat="45.6141356" lon="9.4328622"><ele>203.0</ele><time>2026-04-09T13:29:47.542Z</time></trkpt><trkpt lat="45.6142367" lon="9.4329163"><ele>203.0</ele><time>2026-04-09T13:29:49.542Z</time></trkpt><trkpt lat="45.6143456" lon="9.4329629"><ele>203.2</ele><time>2026-04-09T13:29:51.541Z</time></trkpt><trkpt lat="45.6144524" lon="9.4330193"><ele>203.4</ele><time>2026-04-09T13:29:53.542Z</time></trkpt><trkpt lat="45.6145535" lon="9.4330725"><ele>203.6</ele><time>2026-04-09T13:29:55.542Z</time></trkpt><trkpt lat="45.614658" lon="9.4331272"><ele>203.79999999999998</ele><time>2026-04-09T13:29:57.541Z</time></trkpt><trkpt lat="45.6147578" lon="9.4331739"><ele>204.0</ele><time>2026-04-09T13:29:59.542Z</time></trkpt><trkpt lat="45.614818" lon="9.433211"><ele>204.25</ele><time>2026-04-09T13:30:00.542Z</time></trkpt><trkpt lat="45.6149179" lon="9.4332618"><ele>204.5</ele><time>2026-04-09T13:30:02.541Z</time></trkpt><trkpt lat="45.6150235" lon="9.4333132"><ele>204.75</ele><time>2026-04-09T13:30:04.542Z</time></trkpt><trkpt lat="45.6151344" lon="9.4333642"><ele>205.0</ele><time>2026-04-09T13:30:06.541Z</time></trkpt><trkpt lat="45.6152462" lon="9.4334145"><ele>204.8</ele><time>2026-04-09T13:30:08.541Z</time></trkpt><trkpt lat="45.6153668" lon="9.4334573"><ele>204.6</ele><time>2026-04-09T13:30:10.541Z</time></trkpt><trkpt lat="45.6154747" lon="9.4334948"><ele>204.39999999999998</ele><time>2026-04-09T13:30:12.542Z</time></trkpt><trkpt lat="45.6155677" lon="9.4335169"><ele>204.2</ele><time>2026-04-09T13:30:14.541Z</time></trkpt><trkpt lat="45.6156085" lon="9.4334464"><ele>204.0</ele><time>2026-04-09T13:30:16.542Z</time></trkpt><trkpt lat="45.6156087" lon="9.4333269"><ele>204.0</ele><time>2026-04-09T13:30:18.541Z</time></trkpt><trkpt lat="45.6156014" lon="9.4331744"><ele>204.0</ele><time>2026-04-09T13:30:20.541Z</time></trkpt><trkpt lat="45.615623" lon="9.4330532"><ele>204.0</ele><time>2026-04-09T13:30:22.541Z</time></trkpt><trkpt lat="45.6156872" lon="9.4329778"><ele>204.0</ele><time>2026-04-09T13:30:24.542Z</time></trkpt><trkpt lat="45.6157473" lon="9.4329289"><ele>204.0</ele><time>2026-04-09T13:30:26.542Z</time></trkpt><trkpt lat="45.6158821" lon="9.4325196"><ele>204.0</ele><time>2026-04-09T13:30:34.549Z</time></trkpt><trkpt lat="45.6159274" lon="9.4323562"><ele>204.0</ele><time>2026-04-09T13:30:36.553Z</time></trkpt><trkpt lat="45.6159765" lon="9.4322663"><ele>204.0</ele><time>2026-04-09T13:30:37.551Z</time></trkpt><trkpt lat="45.6159933" lon="9.4321565"><ele>204.0</ele><time>2026-04-09T13:30:39.548Z</time></trkpt><trkpt lat="45.6160124" lon="9.4320681"><ele>204.0</ele><time>2026-04-09T13:30:41.546Z</time></trkpt><trkpt lat="45.6160896" lon="9.4320399"><ele>204.0</ele><time>2026-04-09T13:30:45.546Z</time></trkpt><trkpt lat="45.6161701" lon="9.4320973"><ele>204.2</ele><time>2026-04-09T13:30:48.546Z</time></trkpt><trkpt lat="45.6161656" lon="9.432224"><ele>204.39999999999998</ele><time>2026-04-09T13:30:50.545Z</time></trkpt><trkpt lat="45.6161676" lon="9.4323339"><ele>204.6</ele><time>2026-04-09T13:30:52.545Z</time></trkpt><trkpt lat="45.6161721" lon="9.4324622"><ele>204.8</ele><time>2026-04-09T13:30:54.546Z</time></trkpt><trkpt lat="45.6161832" lon="9.4325955"><ele>205.0</ele><time>2026-04-09T13:30:56.546Z</time></trkpt><trkpt lat="45.6161973" lon="9.4327481"><ele>205.0</ele><time>2026-04-09T13:30:58.546Z</time></trkpt><trkpt lat="45.6162147" lon="9.4328895"><ele>205.0</ele><time>2026-04-09T13:31:00.546Z</time></trkpt><trkpt lat="45.6162306" lon="9.4330488"><ele>205.0</ele><time>2026-04-09T13:31:02.545Z</time></trkpt><trkpt lat="45.6162562" lon="9.4332081"><ele>205.0</ele><time>2026-04-09T13:31:04.546Z</time></trkpt><trkpt lat="45.6162862" lon="9.433367"><ele>205.0</ele><time>2026-04-09T13:31:06.546Z</time></trkpt><trkpt lat="45.6163066" lon="9.4334524"><ele>205.0</ele><time>2026-04-09T13:31:07.546Z</time></trkpt><trkpt lat="45.6163636" lon="9.4336108"><ele>205.0</ele><time>2026-04-09T13:31:09.545Z</time></trkpt><trkpt lat="45.6163984" lon="9.4336887"><ele>205.0</ele><time>2026-04-09T13:31:10.546Z</time></trkpt><trkpt lat="45.6164348" lon="9.4337692"><ele>205.0</ele><time>2026-04-09T13:31:11.545Z</time></trkpt><trkpt lat="45.6165178" lon="9.4338791"><ele>205.0</ele><time>2026-04-09T13:31:13.545Z</time></trkpt><trkpt lat="45.6166212" lon="9.4339264"><ele>205.0</ele><time>2026-04-09T13:31:15.545Z</time></trkpt><trkpt lat="45.6167231" lon="9.4338833"><ele>205.0</ele><time>2026-04-09T13:31:17.546Z</time></trkpt><trkpt lat="45.6168085" lon="9.4337926"><ele>205.0</ele><time>2026-04-09T13:31:19.545Z</time></trkpt><trkpt lat="45.6168884" lon="9.4336757"><ele>205.0</ele><time>2026-04-09T13:31:21.546Z</time></trkpt><trkpt lat="45.6169742" lon="9.4335464"><ele>205.25</ele><time>2026-04-09T13:31:23.545Z</time></trkpt><trkpt lat="45.6170595" lon="9.4334253"><ele>205.5</ele><time>2026-04-09T13:31:25.546Z</time></trkpt><trkpt lat="45.6171426" lon="9.4332943"><ele>205.75</ele><time>2026-04-09T13:31:27.546Z</time></trkpt><trkpt lat="45.6172242" lon="9.4331613"><ele>206.0</ele><time>2026-04-09T13:31:29.546Z</time></trkpt><trkpt lat="45.6173004" lon="9.433027"><ele>206.00000000000003</ele><time>2026-04-09T13:31:31.546Z</time></trkpt><trkpt lat="45.6173818" lon="9.4328935"><ele>206.0</ele><time>2026-04-09T13:31:33.545Z</time></trkpt><trkpt lat="45.6174683" lon="9.4327579"><ele>206.0</ele><time>2026-04-09T13:31:35.545Z</time></trkpt><trkpt lat="45.6175108" lon="9.4326895"><ele>206.0</ele><time>2026-04-09T13:31:36.546Z</time></trkpt><trkpt lat="45.6175498" lon="9.4326124"><ele>206.00000000000003</ele><time>2026-04-09T13:31:37.546Z</time></trkpt><trkpt lat="45.6175864" lon="9.4325328"><ele>206.0</ele><time>2026-04-09T13:31:38.546Z</time></trkpt><trkpt lat="45.6176417" lon="9.4323695"><ele>206.0</ele><time>2026-04-09T13:31:40.545Z</time></trkpt><trkpt lat="45.6176717" lon="9.4322805"><ele>206.0</ele><time>2026-04-09T13:31:41.545Z</time></trkpt><trkpt lat="45.617733" lon="9.4321219"><ele>206.0</ele><time>2026-04-09T13:31:43.545Z</time></trkpt><trkpt lat="45.6177857" lon="9.4319724"><ele>206.0</ele><time>2026-04-09T13:31:45.546Z</time></trkpt><trkpt lat="45.6178473" lon="9.4318208"><ele>206.0</ele><time>2026-04-09T13:31:47.546Z</time></trkpt><trkpt lat="45.6178776" lon="9.4317379"><ele>206.16666666666669</ele><time>2026-04-09T13:31:48.546Z</time></trkpt><trkpt lat="45.6179112" lon="9.4316436"><ele>206.33333333333334</ele><time>2026-04-09T13:31:49.546Z</time></trkpt><trkpt lat="45.6179389" lon="9.4315613"><ele>206.5</ele><time>2026-04-09T13:31:50.546Z</time></trkpt><trkpt lat="45.6179694" lon="9.4314819"><ele>206.66666666666669</ele><time>2026-04-09T13:31:51.545Z</time></trkpt><trkpt lat="45.6179979" lon="9.4313955"><ele>206.83333333333334</ele><time>2026-04-09T13:31:52.546Z</time></trkpt><trkpt lat="45.6180468" lon="9.4312464"><ele>207.0</ele><time>2026-04-09T13:31:54.545Z</time></trkpt><trkpt lat="45.6181074" lon="9.4310861"><ele>207.2</ele><time>2026-04-09T13:31:56.546Z</time></trkpt><trkpt lat="45.6181773" lon="9.430951"><ele>207.39999999999998</ele><time>2026-04-09T13:31:58.545Z</time></trkpt><trkpt lat="45.6182183" lon="9.4308748"><ele>207.60000000000002</ele><time>2026-04-09T13:31:59.545Z</time></trkpt><trkpt lat="45.6183062" lon="9.4307519"><ele>207.8</ele><time>2026-04-09T13:32:01.545Z</time></trkpt><trkpt lat="45.6183611" lon="9.4307058"><ele>208.0</ele><time>2026-04-09T13:32:02.545Z</time></trkpt><trkpt lat="45.6184763" lon="9.4306375"><ele>208.0</ele><time>2026-04-09T13:32:04.546Z</time></trkpt><trkpt lat="45.6185896" lon="9.4305888"><ele>208.0</ele><time>2026-04-09T13:32:06.545Z</time></trkpt><trkpt lat="45.6186518" lon="9.4305603"><ele>208.0</ele><time>2026-04-09T13:32:07.546Z</time></trkpt><trkpt lat="45.6187641" lon="9.4305057"><ele>208.0</ele><time>2026-04-09T13:32:09.546Z</time></trkpt><trkpt lat="45.6188252" lon="9.4304764"><ele>208.0</ele><time>2026-04-09T13:32:10.546Z</time></trkpt><trkpt lat="45.6189412" lon="9.4304309"><ele>208.0</ele><time>2026-04-09T13:32:12.546Z</time></trkpt><trkpt lat="45.6190515" lon="9.4303817"><ele>208.0</ele><time>2026-04-09T13:32:14.545Z</time></trkpt><trkpt lat="45.6191636" lon="9.4303558"><ele>208.0</ele><time>2026-04-09T13:32:16.546Z</time></trkpt><trkpt lat="45.6192698" lon="9.4303775"><ele>208.0</ele><time>2026-04-09T13:32:18.545Z</time></trkpt><trkpt lat="45.6193839" lon="9.4303981"><ele>208.0</ele><time>2026-04-09T13:32:20.546Z</time></trkpt><trkpt lat="45.6194462" lon="9.4304193"><ele>208.0</ele><time>2026-04-09T13:32:21.546Z</time></trkpt><trkpt lat="45.6195605" lon="9.4304401"><ele>208.0</ele><time>2026-04-09T13:32:23.545Z</time></trkpt><trkpt lat="45.6196753" lon="9.4304631"><ele>208.0</ele><time>2026-04-09T13:32:25.546Z</time></trkpt><trkpt lat="45.6197858" lon="9.430483"><ele>208.0</ele><time>2026-04-09T13:32:27.545Z</time></trkpt><trkpt lat="45.6198958" lon="9.4304977"><ele>208.5</ele><time>2026-04-09T13:32:29.546Z</time></trkpt><trkpt lat="45.6200173" lon="9.4305145"><ele>209.0</ele><time>2026-04-09T13:32:31.546Z</time></trkpt><trkpt lat="45.6201404" lon="9.4305322"><ele>209.5</ele><time>2026-04-09T13:32:33.545Z</time></trkpt><trkpt lat="45.6202642" lon="9.4305525"><ele>210.0</ele><time>2026-04-09T13:32:35.545Z</time></trkpt><trkpt lat="45.6203801" lon="9.4305691"><ele>210.0</ele><time>2026-04-09T13:32:37.546Z</time></trkpt><trkpt lat="45.6204996" lon="9.4305963"><ele>210.0</ele><time>2026-04-09T13:32:39.546Z</time></trkpt><trkpt lat="45.6206222" lon="9.4306233"><ele>210.0</ele><time>2026-04-09T13:32:41.546Z</time></trkpt><trkpt lat="45.6207469" lon="9.4306387"><ele>210.0</ele><time>2026-04-09T13:32:43.545Z</time></trkpt><trkpt lat="45.6208478" lon="9.4306743"><ele>210.0</ele><time>2026-04-09T13:32:45.546Z</time></trkpt><trkpt lat="45.6208994" lon="9.4308039"><ele>210.0</ele><time>2026-04-09T13:32:47.546Z</time></trkpt><trkpt lat="45.620879" lon="9.430956"><ele>210.0</ele><time>2026-04-09T13:32:49.545Z</time></trkpt><trkpt lat="45.6208482" lon="9.4311075"><ele>210.0</ele><time>2026-04-09T13:32:51.546Z</time></trkpt><trkpt lat="45.6208345" lon="9.4312666"><ele>210.0</ele><time>2026-04-09T13:32:53.546Z</time></trkpt><trkpt lat="45.6208077" lon="9.4314351"><ele>210.25</ele><time>2026-04-09T13:32:55.545Z</time></trkpt><trkpt lat="45.6207853" lon="9.4316056"><ele>210.5</ele><time>2026-04-09T13:32:57.545Z</time></trkpt><trkpt lat="45.6207523" lon="9.4317824"><ele>210.75</ele><time>2026-04-09T13:32:59.545Z</time></trkpt><trkpt lat="45.620724" lon="9.431962"><ele>211.0</ele><time>2026-04-09T13:33:01.546Z</time></trkpt><trkpt lat="45.6206956" lon="9.4321321"><ele>211.25</ele><time>2026-04-09T13:33:03.546Z</time></trkpt><trkpt lat="45.6206827" lon="9.4322258"><ele>211.5</ele><time>2026-04-09T13:33:04.546Z</time></trkpt><trkpt lat="45.6206532" lon="9.4324008"><ele>211.75</ele><time>2026-04-09T13:33:06.546Z</time></trkpt><trkpt lat="45.6206238" lon="9.4325727"><ele>212.0</ele><time>2026-04-09T13:33:08.546Z</time></trkpt><trkpt lat="45.6205993" lon="9.4327615"><ele>212.0</ele><time>2026-04-09T13:33:10.546Z</time></trkpt><trkpt lat="45.6205724" lon="9.4329335"><ele>212.0</ele><time>2026-04-09T13:33:12.546Z</time></trkpt><trkpt lat="45.6205601" lon="9.4330302"><ele>212.0</ele><time>2026-04-09T13:33:13.545Z</time></trkpt><trkpt lat="45.6205313" lon="9.4332"><ele>212.0</ele><time>2026-04-09T13:33:15.546Z</time></trkpt><trkpt lat="45.6205168" lon="9.4332953"><ele>212.0</ele><time>2026-04-09T13:33:16.545Z</time></trkpt><trkpt lat="45.6204822" lon="9.4334648"><ele>212.00000000000003</ele><time>2026-04-09T13:33:18.545Z</time></trkpt><trkpt lat="45.6204676" lon="9.4335543"><ele>212.0</ele><time>2026-04-09T13:33:19.546Z</time></trkpt><trkpt lat="45.62045" lon="9.4336437"><ele>212.0</ele><time>2026-04-09T13:33:20.545Z</time></trkpt><trkpt lat="45.62042" lon="9.433826"><ele>212.0</ele><time>2026-04-09T13:33:22.546Z</time></trkpt><trkpt lat="45.6204035" lon="9.4339146"><ele>212.00000000000003</ele><time>2026-04-09T13:33:23.546Z</time></trkpt><trkpt lat="45.6203884" lon="9.4340105"><ele>212.0</ele><time>2026-04-09T13:33:24.545Z</time></trkpt><trkpt lat="45.6203708" lon="9.4340993"><ele>212.0</ele><time>2026-04-09T13:33:25.546Z</time></trkpt><trkpt lat="45.6203591" lon="9.4341948"><ele>212.0</ele><time>2026-04-09T13:33:26.546Z</time></trkpt><trkpt lat="45.6203306" lon="9.4343682"><ele>212.0</ele><time>2026-04-09T13:33:28.545Z</time></trkpt><trkpt lat="45.6203007" lon="9.4345287"><ele>212.0</ele><time>2026-04-09T13:33:30.546Z</time></trkpt><trkpt lat="45.6202896" lon="9.4346856"><ele>212.0</ele><time>2026-04-09T13:33:32.546Z</time></trkpt><trkpt lat="45.6203272" lon="9.4348361"><ele>212.5</ele><time>2026-04-09T13:33:34.546Z</time></trkpt><trkpt lat="45.6204158" lon="9.4349348"><ele>213.0</ele><time>2026-04-09T13:33:36.546Z</time></trkpt><trkpt lat="45.6205362" lon="9.4349842"><ele>213.5</ele><time>2026-04-09T13:33:38.545Z</time></trkpt><trkpt lat="45.6206547" lon="9.4350262"><ele>214.0</ele><time>2026-04-09T13:33:40.545Z</time></trkpt><trkpt lat="45.6207709" lon="9.435066"><ele>213.99999999999997</ele><time>2026-04-09T13:33:42.545Z</time></trkpt><trkpt lat="45.6208877" lon="9.4351012"><ele>214.0</ele><time>2026-04-09T13:33:44.545Z</time></trkpt><trkpt lat="45.620949" lon="9.4351229"><ele>214.0</ele><time>2026-04-09T13:33:45.546Z</time></trkpt><trkpt lat="45.621064" lon="9.4351656"><ele>214.0</ele><time>2026-04-09T13:33:47.545Z</time></trkpt><trkpt lat="45.6211214" lon="9.4352026"><ele>213.99999999999997</ele><time>2026-04-09T13:33:48.545Z</time></trkpt><trkpt lat="45.6211852" lon="9.4352151"><ele>214.0</ele><time>2026-04-09T13:33:49.545Z</time></trkpt><trkpt lat="45.6213034" lon="9.4352432"><ele>213.39999999999998</ele><time>2026-04-09T13:33:51.546Z</time></trkpt><trkpt lat="45.6214198" lon="9.4352845"><ele>212.79999999999998</ele><time>2026-04-09T13:33:53.546Z</time></trkpt><trkpt lat="45.621539" lon="9.4353313"><ele>212.2</ele><time>2026-04-09T13:33:55.545Z</time></trkpt><trkpt lat="45.6216053" lon="9.4353488"><ele>211.60000000000002</ele><time>2026-04-09T13:33:56.546Z</time></trkpt><trkpt lat="45.6217228" lon="9.4353871"><ele>211.0</ele><time>2026-04-09T13:33:58.546Z</time></trkpt><trkpt lat="45.6218419" lon="9.4354209"><ele>211.0</ele><time>2026-04-09T13:34:00.546Z</time></trkpt><trkpt lat="45.6219043" lon="9.4354438"><ele>211.0</ele><time>2026-04-09T13:34:01.546Z</time></trkpt><trkpt lat="45.6220098" lon="9.4354958"><ele>211.0</ele><time>2026-04-09T13:34:03.546Z</time></trkpt><trkpt lat="45.622053" lon="9.4356127"><ele>211.0</ele><time>2026-04-09T13:34:05.546Z</time></trkpt><trkpt lat="45.6220385" lon="9.4357515"><ele>211.0</ele><time>2026-04-09T13:34:07.546Z</time></trkpt><trkpt lat="45.6220157" lon="9.4359"><ele>211.0</ele><time>2026-04-09T13:34:09.546Z</time></trkpt><trkpt lat="45.621988" lon="9.4360539"><ele>211.0</ele><time>2026-04-09T13:34:11.546Z</time></trkpt><trkpt lat="45.6219585" lon="9.4362256"><ele>211.0</ele><time>2026-04-09T13:34:13.546Z</time></trkpt><trkpt lat="45.6219527" lon="9.4363261"><ele>211.0</ele><time>2026-04-09T13:34:14.545Z</time></trkpt><trkpt lat="45.6219221" lon="9.4364957"><ele>211.0</ele><time>2026-04-09T13:34:16.546Z</time></trkpt><trkpt lat="45.6218922" lon="9.4366684"><ele>210.99999999999997</ele><time>2026-04-09T13:34:18.546Z</time></trkpt><trkpt lat="45.6218785" lon="9.4367576"><ele>211.0</ele><time>2026-04-09T13:34:19.546Z</time></trkpt><trkpt lat="45.6218551" lon="9.436932"><ele>211.0</ele><time>2026-04-09T13:34:21.545Z</time></trkpt><trkpt lat="45.6218416" lon="9.4370234"><ele>211.0</ele><time>2026-04-09T13:34:22.546Z</time></trkpt><trkpt lat="45.6218273" lon="9.4371154"><ele>210.99999999999997</ele><time>2026-04-09T13:34:23.545Z</time></trkpt><trkpt lat="45.6218152" lon="9.4372114"><ele>211.0</ele><time>2026-04-09T13:34:24.546Z</time></trkpt><trkpt lat="45.6217825" lon="9.4373794"><ele>211.0</ele><time>2026-04-09T13:34:26.546Z</time></trkpt><trkpt lat="45.6217699" lon="9.4374685"><ele>211.0</ele><time>2026-04-09T13:34:27.546Z</time></trkpt><trkpt lat="45.6217574" lon="9.4375666"><ele>211.0</ele><time>2026-04-09T13:34:28.545Z</time></trkpt><trkpt lat="45.6217284" lon="9.4377367"><ele>211.0</ele><time>2026-04-09T13:34:30.545Z</time></trkpt><trkpt lat="45.6216999" lon="9.4379078"><ele>211.0</ele><time>2026-04-09T13:34:32.545Z</time></trkpt><trkpt lat="45.621677" lon="9.4380762"><ele>211.20000000000002</ele><time>2026-04-09T13:34:34.545Z</time></trkpt><trkpt lat="45.6216425" lon="9.4382494"><ele>211.4</ele><time>2026-04-09T13:34:36.545Z</time></trkpt><trkpt lat="45.6216241" lon="9.4384046"><ele>211.6</ele><time>2026-04-09T13:34:38.545Z</time></trkpt><trkpt lat="45.6216505" lon="9.4385461"><ele>211.8</ele><time>2026-04-09T13:34:40.545Z</time></trkpt><trkpt lat="45.6216792" lon="9.4386849"><ele>212.0</ele><time>2026-04-09T13:34:42.545Z</time></trkpt><trkpt lat="45.6216435" lon="9.4388307"><ele>212.0</ele><time>2026-04-09T13:34:44.545Z</time></trkpt><trkpt lat="45.6216076" lon="9.4389977"><ele>212.0</ele><time>2026-04-09T13:34:46.546Z</time></trkpt><trkpt lat="45.6215739" lon="9.4391761"><ele>212.0</ele><time>2026-04-09T13:34:48.546Z</time></trkpt><trkpt lat="45.62154" lon="9.4393409"><ele>212.0</ele><time>2026-04-09T13:34:50.545Z</time></trkpt><trkpt lat="45.6215107" lon="9.4395138"><ele>212.00000000000003</ele><time>2026-04-09T13:34:52.546Z</time></trkpt><trkpt lat="45.6214937" lon="9.4396021"><ele>212.0</ele><time>2026-04-09T13:34:53.546Z</time></trkpt><trkpt lat="45.6214768" lon="9.439691"><ele>212.0</ele><time>2026-04-09T13:34:54.546Z</time></trkpt><trkpt lat="45.6214374" lon="9.4398668"><ele>212.0</ele><time>2026-04-09T13:34:56.546Z</time></trkpt><trkpt lat="45.6214079" lon="9.4399537"><ele>212.00000000000003</ele><time>2026-04-09T13:34:57.546Z</time></trkpt><trkpt lat="45.6213707" lon="9.4400285"><ele>212.0</ele><time>2026-04-09T13:34:58.545Z</time></trkpt><trkpt lat="45.6213445" lon="9.4401904"><ele>212.0</ele><time>2026-04-09T13:35:00.545Z</time></trkpt><trkpt lat="45.6214042" lon="9.4403014"><ele>212.0</ele><time>2026-04-09T13:35:02.545Z</time></trkpt><trkpt lat="45.6215148" lon="9.4402603"><ele>212.0</ele><time>2026-04-09T13:35:04.545Z</time></trkpt><trkpt lat="45.6216273" lon="9.4402383"><ele>212.0</ele><time>2026-04-09T13:35:06.546Z</time></trkpt><trkpt lat="45.6216907" lon="9.4402482"><ele>212.0</ele><time>2026-04-09T13:35:07.545Z</time></trkpt><trkpt lat="45.6218066" lon="9.4402904"><ele>212.0</ele><time>2026-04-09T13:35:09.546Z</time></trkpt><trkpt lat="45.6218711" lon="9.4403112"><ele>212.0</ele><time>2026-04-09T13:35:10.546Z</time></trkpt><trkpt lat="45.6219335" lon="9.4403385"><ele>212.0</ele><time>2026-04-09T13:35:11.546Z</time></trkpt><trkpt lat="45.6219926" lon="9.4403783"><ele>212.0</ele><time>2026-04-09T13:35:12.545Z</time></trkpt><trkpt lat="45.6220538" lon="9.4403997"><ele>212.0</ele><time>2026-04-09T13:35:13.546Z</time></trkpt><trkpt lat="45.6221189" lon="9.4404157"><ele>212.0</ele><time>2026-04-09T13:35:14.546Z</time></trkpt><trkpt lat="45.6221874" lon="9.4404298"><ele>212.0</ele><time>2026-04-09T13:35:15.546Z</time></trkpt><trkpt lat="45.6222505" lon="9.4404448"><ele>212.00000000000003</ele><time>2026-04-09T13:35:16.546Z</time></trkpt><trkpt lat="45.6223206" lon="9.4404553"><ele>212.0</ele><time>2026-04-09T13:35:17.546Z</time></trkpt><trkpt lat="45.6223824" lon="9.4404732"><ele>212.0</ele><time>2026-04-09T13:35:18.546Z</time></trkpt><trkpt lat="45.6224448" lon="9.4404976"><ele>212.0</ele><time>2026-04-09T13:35:19.545Z</time></trkpt><trkpt lat="45.6225643" lon="9.4405401"><ele>212.00000000000003</ele><time>2026-04-09T13:35:21.545Z</time></trkpt><trkpt lat="45.622639" lon="9.4405516"><ele>212.0</ele><time>2026-04-09T13:35:22.545Z</time></trkpt><trkpt lat="45.6227017" lon="9.4405698"><ele>212.00000000000003</ele><time>2026-04-09T13:35:23.546Z</time></trkpt><trkpt lat="45.6227661" lon="9.4405892"><ele>212.0</ele><time>2026-04-09T13:35:24.545Z</time></trkpt><trkpt lat="45.6228318" lon="9.4406117"><ele>212.0</ele><time>2026-04-09T13:35:25.545Z</time></trkpt><trkpt lat="45.6228977" lon="9.4406418"><ele>212.0</ele><time>2026-04-09T13:35:26.546Z</time></trkpt><trkpt lat="45.6229617" lon="9.4406633"><ele>212.00000000000003</ele><time>2026-04-09T13:35:27.545Z</time></trkpt><trkpt lat="45.6230279" lon="9.4406834"><ele>212.0</ele><time>2026-04-09T13:35:28.545Z</time></trkpt><trkpt lat="45.6231553" lon="9.4407044"><ele>212.0</ele><time>2026-04-09T13:35:30.545Z</time></trkpt><trkpt lat="45.6232224" lon="9.4407181"><ele>212.0</ele><time>2026-04-09T13:35:31.546Z</time></trkpt><trkpt lat="45.6232881" lon="9.4407364"><ele>212.0</ele><time>2026-04-09T13:35:32.546Z</time></trkpt><trkpt lat="45.6233667" lon="9.4407533"><ele>212.0</ele><time>2026-04-09T13:35:33.545Z</time></trkpt><trkpt lat="45.6234335" lon="9.4407708"><ele>212.0</ele><time>2026-04-09T13:35:34.546Z</time></trkpt><trkpt lat="45.6235002" lon="9.4407867"><ele>212.0</ele><time>2026-04-09T13:35:35.545Z</time></trkpt><trkpt lat="45.623561" lon="9.4408134"><ele>212.0</ele><time>2026-04-09T13:35:36.545Z</time></trkpt><trkpt lat="45.6236237" lon="9.4408385"><ele>212.39999999999998</ele><time>2026-04-09T13:35:37.546Z</time></trkpt><trkpt lat="45.6236883" lon="9.4408594"><ele>212.79999999999998</ele><time>2026-04-09T13:35:38.546Z</time></trkpt><trkpt lat="45.6237596" lon="9.440875"><ele>213.2</ele><time>2026-04-09T13:35:39.545Z</time></trkpt><trkpt lat="45.6239118" lon="9.440908"><ele>213.6</ele><time>2026-04-09T13:35:41.55Z</time></trkpt><trkpt lat="45.6240359" lon="9.4409469"><ele>214.0</ele><time>2026-04-09T13:35:43.547Z</time></trkpt><trkpt lat="45.6241047" lon="9.4409632"><ele>214.0</ele><time>2026-04-09T13:35:44.549Z</time></trkpt><trkpt lat="45.6241752" lon="9.4409757"><ele>213.99999999999997</ele><time>2026-04-09T13:35:45.547Z</time></trkpt><trkpt lat="45.6242908" lon="9.4410053"><ele>213.99999999999997</ele><time>2026-04-09T13:35:47.546Z</time></trkpt><trkpt lat="45.6243615" lon="9.441035"><ele>214.0</ele><time>2026-04-09T13:35:48.546Z</time></trkpt><trkpt lat="45.6244248" lon="9.4410663"><ele>214.0</ele><time>2026-04-09T13:35:49.546Z</time></trkpt><trkpt lat="45.6245383" lon="9.4411513"><ele>214.14285714285717</ele><time>2026-04-09T13:35:51.547Z</time></trkpt><trkpt lat="45.6246026" lon="9.4412182"><ele>214.28571428571428</ele><time>2026-04-09T13:35:52.547Z</time></trkpt><trkpt lat="45.6246553" lon="9.4412774"><ele>214.42857142857144</ele><time>2026-04-09T13:35:53.547Z</time></trkpt><trkpt lat="45.6247113" lon="9.4413355"><ele>214.57142857142858</ele><time>2026-04-09T13:35:54.547Z</time></trkpt><trkpt lat="45.6247561" lon="9.4414042"><ele>214.71428571428572</ele><time>2026-04-09T13:35:55.546Z</time></trkpt><trkpt lat="45.6248039" lon="9.4414642"><ele>214.85714285714286</ele><time>2026-04-09T13:35:56.546Z</time></trkpt><trkpt lat="45.6248563" lon="9.441527"><ele>215.0</ele><time>2026-04-09T13:35:57.547Z</time></trkpt><trkpt lat="45.624923" lon="9.44157"><ele>215.16666666666669</ele><time>2026-04-09T13:35:58.547Z</time></trkpt><trkpt lat="45.6249865" lon="9.4416096"><ele>215.33333333333334</ele><time>2026-04-09T13:35:59.547Z</time></trkpt><trkpt lat="45.6250533" lon="9.4416343"><ele>215.5</ele><time>2026-04-09T13:36:00.547Z</time></trkpt><trkpt lat="45.625186" lon="9.4416756"><ele>215.66666666666669</ele><time>2026-04-09T13:36:02.547Z</time></trkpt><trkpt lat="45.6252578" lon="9.4416989"><ele>215.83333333333334</ele><time>2026-04-09T13:36:03.547Z</time></trkpt><trkpt lat="45.6253233" lon="9.4417202"><ele>216.0</ele><time>2026-04-09T13:36:04.547Z</time></trkpt><trkpt lat="45.625396" lon="9.4418327"><ele>216.20000000000002</ele><time>2026-04-09T13:36:06.547Z</time></trkpt><trkpt lat="45.6253825" lon="9.4419962"><ele>216.40000000000003</ele><time>2026-04-09T13:36:08.546Z</time></trkpt><trkpt lat="45.6253454" lon="9.4421492"><ele>216.6</ele><time>2026-04-09T13:36:10.547Z</time></trkpt><trkpt lat="45.6253223" lon="9.4423036"><ele>216.8</ele><time>2026-04-09T13:36:12.547Z</time></trkpt><trkpt lat="45.6252954" lon="9.4424543"><ele>217.0</ele><time>2026-04-09T13:36:14.546Z</time></trkpt><trkpt lat="45.6252713" lon="9.4426241"><ele>216.75</ele><time>2026-04-09T13:36:16.547Z</time></trkpt><trkpt lat="45.625251" lon="9.4427805"><ele>216.5</ele><time>2026-04-09T13:36:18.547Z</time></trkpt><trkpt lat="45.6252247" lon="9.44295"><ele>216.25</ele><time>2026-04-09T13:36:20.547Z</time></trkpt><trkpt lat="45.6251972" lon="9.4431226"><ele>216.0</ele><time>2026-04-09T13:36:22.547Z</time></trkpt><trkpt lat="45.6251757" lon="9.4433034"><ele>216.0</ele><time>2026-04-09T13:36:24.546Z</time></trkpt><trkpt lat="45.6251759" lon="9.443396"><ele>216.00000000000003</ele><time>2026-04-09T13:36:25.546Z</time></trkpt><trkpt lat="45.6252456" lon="9.4435121"><ele>216.00000000000003</ele><time>2026-04-09T13:36:27.546Z</time></trkpt><trkpt lat="45.6253528" lon="9.4435709"><ele>216.0</ele><time>2026-04-09T13:36:29.546Z</time></trkpt><trkpt lat="45.6254662" lon="9.4435984"><ele>216.0</ele><time>2026-04-09T13:36:31.547Z</time></trkpt><trkpt lat="45.6255804" lon="9.4436325"><ele>216.25</ele><time>2026-04-09T13:36:33.547Z</time></trkpt><trkpt lat="45.6256978" lon="9.4436758"><ele>216.5</ele><time>2026-04-09T13:36:35.547Z</time></trkpt><trkpt lat="45.6258143" lon="9.4437146"><ele>216.75</ele><time>2026-04-09T13:36:37.547Z</time></trkpt><trkpt lat="45.6259303" lon="9.4437644"><ele>217.0</ele><time>2026-04-09T13:36:39.547Z</time></trkpt><trkpt lat="45.6260483" lon="9.4438086"><ele>217.0</ele><time>2026-04-09T13:36:41.546Z</time></trkpt><trkpt lat="45.6261105" lon="9.4438303"><ele>217.0</ele><time>2026-04-09T13:36:42.547Z</time></trkpt><trkpt lat="45.6262343" lon="9.4438647"><ele>217.0</ele><time>2026-04-09T13:36:44.547Z</time></trkpt><trkpt lat="45.6263397" lon="9.4438863"><ele>217.0</ele><time>2026-04-09T13:36:46.547Z</time></trkpt><trkpt lat="45.6264375" lon="9.4439549"><ele>217.0</ele><time>2026-04-09T13:36:48.547Z</time></trkpt><trkpt lat="45.6264821" lon="9.444076"><ele>217.2</ele><time>2026-04-09T13:36:50.546Z</time></trkpt><trkpt lat="45.6264418" lon="9.4441523"><ele>217.39999999999998</ele><time>2026-04-09T13:36:51.547Z</time></trkpt><trkpt lat="45.6264245" lon="9.4442858"><ele>217.60000000000002</ele><time>2026-04-09T13:36:53.547Z</time></trkpt><trkpt lat="45.6264122" lon="9.4443773"><ele>217.8</ele><time>2026-04-09T13:36:54.546Z</time></trkpt><trkpt lat="45.6263851" lon="9.4445362"><ele>218.0</ele><time>2026-04-09T13:36:56.546Z</time></trkpt><trkpt lat="45.6263603" lon="9.4446947"><ele>218.0</ele><time>2026-04-09T13:36:58.547Z</time></trkpt><trkpt lat="45.6263463" lon="9.4447952"><ele>218.0</ele><time>2026-04-09T13:36:59.547Z</time></trkpt><trkpt lat="45.6263191" lon="9.4449571"><ele>218.0</ele><time>2026-04-09T13:37:01.547Z</time></trkpt><trkpt lat="45.6262933" lon="9.4451357"><ele>218.0</ele><time>2026-04-09T13:37:03.547Z</time></trkpt><trkpt lat="45.6262669" lon="9.4453124"><ele>218.0</ele><time>2026-04-09T13:37:05.547Z</time></trkpt><trkpt lat="45.6262312" lon="9.4454631"><ele>218.0</ele><time>2026-04-09T13:37:07.546Z</time></trkpt><trkpt lat="45.6261535" lon="9.4455334"><ele>218.0</ele><time>2026-04-09T13:37:09.547Z</time></trkpt><trkpt lat="45.6260487" lon="9.445537"><ele>218.0</ele><time>2026-04-09T13:37:11.546Z</time></trkpt><trkpt lat="45.6259448" lon="9.4455054"><ele>218.0</ele><time>2026-04-09T13:37:13.547Z</time></trkpt><trkpt lat="45.6258286" lon="9.4454828"><ele>218.0</ele><time>2026-04-09T13:37:15.547Z</time></trkpt><trkpt lat="45.6257244" lon="9.445454"><ele>217.8</ele><time>2026-04-09T13:37:17.547Z</time></trkpt><trkpt lat="45.6256107" lon="9.4454313"><ele>217.60000000000002</ele><time>2026-04-09T13:37:19.547Z</time></trkpt><trkpt lat="45.6254976" lon="9.4454612"><ele>217.39999999999998</ele><time>2026-04-09T13:37:21.546Z</time></trkpt><trkpt lat="45.6254403" lon="9.4455772"><ele>217.2</ele><time>2026-04-09T13:37:23.547Z</time></trkpt><trkpt lat="45.6254146" lon="9.4457254"><ele>217.0</ele><time>2026-04-09T13:37:25.546Z</time></trkpt><trkpt lat="45.6253834" lon="9.4458755"><ele>216.75</ele><time>2026-04-09T13:37:27.546Z</time></trkpt><trkpt lat="45.6253732" lon="9.4460329"><ele>216.5</ele><time>2026-04-09T13:37:29.546Z</time></trkpt><trkpt lat="45.6253563" lon="9.4461948"><ele>216.25</ele><time>2026-04-09T13:37:31.546Z</time></trkpt><trkpt lat="45.6253373" lon="9.4463571"><ele>216.0</ele><time>2026-04-09T13:37:33.546Z</time></trkpt><trkpt lat="45.625327" lon="9.446538"><ele>215.75</ele><time>2026-04-09T13:37:35.546Z</time></trkpt><trkpt lat="45.6253115" lon="9.4467141"><ele>215.5</ele><time>2026-04-09T13:37:37.546Z</time></trkpt><trkpt lat="45.6252977" lon="9.446886"><ele>215.25</ele><time>2026-04-09T13:37:39.547Z</time></trkpt><trkpt lat="45.6252823" lon="9.4470607"><ele>215.0</ele><time>2026-04-09T13:37:41.546Z</time></trkpt><trkpt lat="45.6252745" lon="9.4472325"><ele>215.0</ele><time>2026-04-09T13:37:43.547Z</time></trkpt><trkpt lat="45.6252751" lon="9.4473909"><ele>215.0</ele><time>2026-04-09T13:37:45.547Z</time></trkpt><trkpt lat="45.6252593" lon="9.4475581"><ele>215.0</ele><time>2026-04-09T13:37:47.546Z</time></trkpt><trkpt lat="45.6252489" lon="9.4477211"><ele>215.0</ele><time>2026-04-09T13:37:49.546Z</time></trkpt><trkpt lat="45.6252333" lon="9.4478851"><ele>215.2</ele><time>2026-04-09T13:37:51.547Z</time></trkpt><trkpt lat="45.6252242" lon="9.448045"><ele>215.4</ele><time>2026-04-09T13:37:53.547Z</time></trkpt><trkpt lat="45.6252104" lon="9.4481981"><ele>215.60000000000002</ele><time>2026-04-09T13:37:55.547Z</time></trkpt><trkpt lat="45.6251921" lon="9.4483646"><ele>215.8</ele><time>2026-04-09T13:37:57.546Z</time></trkpt><trkpt lat="45.6251774" lon="9.4485184"><ele>216.0</ele><time>2026-04-09T13:37:59.546Z</time></trkpt><trkpt lat="45.625157" lon="9.4486643"><ele>216.0</ele><time>2026-04-09T13:38:01.546Z</time></trkpt><trkpt lat="45.6251406" lon="9.4488152"><ele>216.00000000000003</ele><time>2026-04-09T13:38:03.547Z</time></trkpt><trkpt lat="45.6251247" lon="9.4489753"><ele>216.00000000000003</ele><time>2026-04-09T13:38:05.547Z</time></trkpt><trkpt lat="45.625107" lon="9.4491392"><ele>216.0</ele><time>2026-04-09T13:38:07.546Z</time></trkpt><trkpt lat="45.6250969" lon="9.4492958"><ele>216.0</ele><time>2026-04-09T13:38:09.546Z</time></trkpt><trkpt lat="45.6250944" lon="9.4493989"><ele>216.0</ele><time>2026-04-09T13:38:10.547Z</time></trkpt><trkpt lat="45.6250873" lon="9.449566"><ele>216.00000000000003</ele><time>2026-04-09T13:38:12.546Z</time></trkpt><trkpt lat="45.6250822" lon="9.4497032"><ele>216.00000000000003</ele><time>2026-04-09T13:38:14.547Z</time></trkpt><trkpt lat="45.6250475" lon="9.4498509"><ele>216.0</ele><time>2026-04-09T13:38:16.547Z</time></trkpt><trkpt lat="45.6250163" lon="9.4500131"><ele>216.0</ele><time>2026-04-09T13:38:18.546Z</time></trkpt><trkpt lat="45.625013" lon="9.4501933"><ele>215.60000000000002</ele><time>2026-04-09T13:38:20.547Z</time></trkpt><trkpt lat="45.6250631" lon="9.4503413"><ele>215.20000000000002</ele><time>2026-04-09T13:38:22.546Z</time></trkpt><trkpt lat="45.625062" lon="9.4505067"><ele>214.79999999999998</ele><time>2026-04-09T13:38:24.547Z</time></trkpt><trkpt lat="45.6250723" lon="9.4506389"><ele>214.39999999999998</ele><time>2026-04-09T13:38:26.546Z</time></trkpt><trkpt lat="45.6251478" lon="9.4506289"><ele>214.0</ele><time>2026-04-09T13:38:29.547Z</time></trkpt><trkpt lat="45.6252295" lon="9.4505452"><ele>214.0</ele><time>2026-04-09T13:38:32.547Z</time></trkpt><trkpt lat="45.6252909" lon="9.4504872"><ele>213.99999999999997</ele><time>2026-04-09T13:38:34.547Z</time></trkpt><trkpt lat="45.6253927" lon="9.4504225"><ele>213.99999999999997</ele><time>2026-04-09T13:38:36.547Z</time></trkpt><trkpt lat="45.6254891" lon="9.4503583"><ele>214.0</ele><time>2026-04-09T13:38:38.546Z</time></trkpt><trkpt lat="45.6255867" lon="9.4503179"><ele>214.0</ele><time>2026-04-09T13:38:40.546Z</time></trkpt><trkpt lat="45.6256758" lon="9.4502842"><ele>214.0</ele><time>2026-04-09T13:38:43.547Z</time></trkpt><trkpt lat="45.625764" lon="9.4502409"><ele>213.99999999999997</ele><time>2026-04-09T13:38:45.547Z</time></trkpt><trkpt lat="45.6259041" lon="9.4502565"><ele>213.99999999999997</ele><time>2026-04-09T13:38:48.546Z</time></trkpt><trkpt lat="45.6260112" lon="9.4502529"><ele>214.0</ele><time>2026-04-09T13:38:50.547Z</time></trkpt><trkpt lat="45.626074" lon="9.4502671"><ele>214.0</ele><time>2026-04-09T13:38:51.547Z</time></trkpt><trkpt lat="45.626186" lon="9.450336"><ele>214.2</ele><time>2026-04-09T13:38:53.547Z</time></trkpt><trkpt lat="45.6262803" lon="9.4503859"><ele>214.39999999999998</ele><time>2026-04-09T13:38:55.547Z</time></trkpt><trkpt lat="45.626373" lon="9.4503892"><ele>214.6</ele><time>2026-04-09T13:38:57.546Z</time></trkpt><trkpt lat="45.6264746" lon="9.4504272"><ele>214.8</ele><time>2026-04-09T13:38:59.547Z</time></trkpt><trkpt lat="45.626564" lon="9.4504595"><ele>215.0</ele><time>2026-04-09T13:39:01.546Z</time></trkpt><trkpt lat="45.6266521" lon="9.450489"><ele>215.0</ele><time>2026-04-09T13:39:03.546Z</time></trkpt><trkpt lat="45.6267341" lon="9.4505332"><ele>215.0</ele><time>2026-04-09T13:39:05.547Z</time></trkpt><trkpt lat="45.6268314" lon="9.4505688"><ele>215.0</ele><time>2026-04-09T13:39:17.546Z</time></trkpt><trkpt lat="45.6269162" lon="9.4506145"><ele>215.0</ele><time>2026-04-09T13:39:19.546Z</time></trkpt><trkpt lat="45.6270142" lon="9.4506487"><ele>215.0</ele><time>2026-04-09T13:39:21.547Z</time></trkpt><trkpt lat="45.6271164" lon="9.4506872"><ele>215.6</ele><time>2026-04-09T13:39:23.547Z</time></trkpt><trkpt lat="45.6272145" lon="9.4507281"><ele>216.2</ele><time>2026-04-09T13:39:25.546Z</time></trkpt><trkpt lat="45.6273157" lon="9.4507784"><ele>216.8</ele><time>2026-04-09T13:39:27.547Z</time></trkpt><trkpt lat="45.6274264" lon="9.4508345"><ele>217.4</ele><time>2026-04-09T13:39:29.547Z</time></trkpt><trkpt lat="45.6274847" lon="9.4508698"><ele>218.0</ele><time>2026-04-09T13:39:30.547Z</time></trkpt><trkpt lat="45.6275876" lon="9.4509152"><ele>218.0</ele><time>2026-04-09T13:39:32.546Z</time></trkpt><trkpt lat="45.6276875" lon="9.4509569"><ele>218.0</ele><time>2026-04-09T13:39:34.546Z</time></trkpt><trkpt lat="45.6277939" lon="9.4510435"><ele>218.0</ele><time>2026-04-09T13:39:36.546Z</time></trkpt><trkpt lat="45.6278651" lon="9.4511694"><ele>218.0</ele><time>2026-04-09T13:39:38.547Z</time></trkpt><trkpt lat="45.6278958" lon="9.4512521"><ele>218.0</ele><time>2026-04-09T13:39:39.547Z</time></trkpt><trkpt lat="45.6279441" lon="9.4513989"><ele>218.33333333333334</ele><time>2026-04-09T13:39:41.547Z</time></trkpt><trkpt lat="45.628017" lon="9.4515342"><ele>218.66666666666669</ele><time>2026-04-09T13:39:43.547Z</time></trkpt><trkpt lat="45.6280864" lon="9.451619"><ele>219.0</ele><time>2026-04-09T13:39:45.546Z</time></trkpt><trkpt lat="45.6281698" lon="9.4516273"><ele>219.33333333333331</ele><time>2026-04-09T13:39:48.546Z</time></trkpt><trkpt lat="45.6282348" lon="9.4516287"><ele>219.66666666666666</ele><time>2026-04-09T13:39:50.547Z</time></trkpt><trkpt lat="45.6283099" lon="9.4516074"><ele>220.0</ele><time>2026-04-09T13:39:53.546Z</time></trkpt><trkpt lat="45.6285051" lon="9.451609"><ele>219.99999999999997</ele><time>2026-04-09T13:40:00.547Z</time></trkpt><trkpt lat="45.6285697" lon="9.4516114"><ele>220.0</ele><time>2026-04-09T13:40:02.547Z</time></trkpt><trkpt lat="45.6286463" lon="9.4516287"><ele>220.0</ele><time>2026-04-09T13:40:04.547Z</time></trkpt><trkpt lat="45.6287143" lon="9.4516418"><ele>220.0</ele><time>2026-04-09T13:40:06.547Z</time></trkpt><trkpt lat="45.6288218" lon="9.4516439"><ele>219.99999999999997</ele><time>2026-04-09T13:40:09.546Z</time></trkpt><trkpt lat="45.6289166" lon="9.4516722"><ele>220.0</ele><time>2026-04-09T13:40:11.547Z</time></trkpt><trkpt lat="45.6290199" lon="9.4516997"><ele>220.4</ele><time>2026-04-09T13:40:13.547Z</time></trkpt><trkpt lat="45.6291136" lon="9.4517053"><ele>220.8</ele><time>2026-04-09T13:40:15.547Z</time></trkpt><trkpt lat="45.6292045" lon="9.4517116"><ele>221.2</ele><time>2026-04-09T13:40:17.547Z</time></trkpt><trkpt lat="45.6292919" lon="9.4517194"><ele>221.6</ele><time>2026-04-09T13:40:19.546Z</time></trkpt><trkpt lat="45.6294085" lon="9.4517264"><ele>222.0</ele><time>2026-04-09T13:40:22.547Z</time></trkpt><trkpt lat="45.6294847" lon="9.4517404"><ele>222.0</ele><time>2026-04-09T13:40:24.547Z</time></trkpt><trkpt lat="45.6295589" lon="9.4517481"><ele>222.0</ele><time>2026-04-09T13:40:26.547Z</time></trkpt><trkpt lat="45.6296435" lon="9.4517779"><ele>222.0</ele><time>2026-04-09T13:40:28.547Z</time></trkpt><trkpt lat="45.6297336" lon="9.4518186"><ele>222.0</ele><time>2026-04-09T13:40:30.547Z</time></trkpt><trkpt lat="45.6298132" lon="9.4518462"><ele>222.0</ele><time>2026-04-09T13:40:32.547Z</time></trkpt><trkpt lat="45.6299036" lon="9.4518638"><ele>222.0</ele><time>2026-04-09T13:40:34.546Z</time></trkpt><trkpt lat="45.6299971" lon="9.4518724"><ele>222.0</ele><time>2026-04-09T13:40:36.547Z</time></trkpt><trkpt lat="45.6300957" lon="9.4519069"><ele>222.0</ele><time>2026-04-09T13:40:38.547Z</time></trkpt><trkpt lat="45.6302553" lon="9.4519387"><ele>222.0</ele><time>2026-04-09T13:40:41.548Z</time></trkpt><trkpt lat="45.63035" lon="9.4519607"><ele>222.0</ele><time>2026-04-09T13:40:43.55Z</time></trkpt><trkpt lat="45.6304298" lon="9.4520504"><ele>222.0</ele><time>2026-04-09T13:40:45.543Z</time></trkpt><trkpt lat="45.6304555" lon="9.4521926"><ele>222.0</ele><time>2026-04-09T13:40:47.549Z</time></trkpt><trkpt lat="45.6304459" lon="9.4523143"><ele>222.0</ele><time>2026-04-09T13:40:49.549Z</time></trkpt><trkpt lat="45.6304387" lon="9.4524411"><ele>222.0</ele><time>2026-04-09T13:40:51.549Z</time></trkpt><trkpt lat="45.6304488" lon="9.4525345"><ele>222.0</ele><time>2026-04-09T13:40:52.549Z</time></trkpt><trkpt lat="45.6304756" lon="9.4526898"><ele>222.0</ele><time>2026-04-09T13:40:54.549Z</time></trkpt><trkpt lat="45.6304795" lon="9.4527916"><ele>222.0</ele><time>2026-04-09T13:40:55.549Z</time></trkpt><trkpt lat="45.6304551" lon="9.4528785"><ele>222.0</ele><time>2026-04-09T13:40:56.548Z</time></trkpt><trkpt lat="45.6304082" lon="9.4529489"><ele>222.0</ele><time>2026-04-09T13:40:57.548Z</time></trkpt><trkpt lat="45.6303524" lon="9.4530815"><ele>222.0</ele><time>2026-04-09T13:40:59.548Z</time></trkpt><trkpt lat="45.6303725" lon="9.4531912"><ele>222.0</ele><time>2026-04-09T13:41:01.548Z</time></trkpt><trkpt lat="45.6303965" lon="9.4533077"><ele>222.0</ele><time>2026-04-09T13:41:03.549Z</time></trkpt><trkpt lat="45.6304331" lon="9.453397"><ele>222.0</ele><time>2026-04-09T13:41:05.549Z</time></trkpt><trkpt lat="45.6304814" lon="9.4535018"><ele>222.0</ele><time>2026-04-09T13:41:07.548Z</time></trkpt><trkpt lat="45.6305359" lon="9.4535684"><ele>222.0</ele><time>2026-04-09T13:41:09.549Z</time></trkpt><trkpt lat="45.6306036" lon="9.4536439"><ele>222.0</ele><time>2026-04-09T13:41:11.549Z</time></trkpt><trkpt lat="45.6306082" lon="9.4537768"><ele>222.0</ele><time>2026-04-09T13:41:14.549Z</time></trkpt><trkpt lat="45.6305893" lon="9.4539037"><ele>221.83333333333334</ele><time>2026-04-09T13:41:16.549Z</time></trkpt><trkpt lat="45.6306153" lon="9.454021"><ele>221.66666666666669</ele><time>2026-04-09T13:41:17.548Z</time></trkpt><trkpt lat="45.6306067" lon="9.454118"><ele>221.5</ele><time>2026-04-09T13:41:20.549Z</time></trkpt><trkpt lat="45.6305668" lon="9.4542156"><ele>221.33333333333334</ele><time>2026-04-09T13:41:24.548Z</time></trkpt><trkpt lat="45.6305469" lon="9.4543195"><ele>221.16666666666669</ele><time>2026-04-09T13:41:26.549Z</time></trkpt><trkpt lat="45.6305394" lon="9.4544172"><ele>221.0</ele><time>2026-04-09T13:41:28.549Z</time></trkpt><trkpt lat="45.6305665" lon="9.4545137"><ele>221.00000000000003</ele><time>2026-04-09T13:41:30.549Z</time></trkpt><trkpt lat="45.6306304" lon="9.4545779"><ele>221.0</ele><time>2026-04-09T13:41:32.549Z</time></trkpt><trkpt lat="45.6306956" lon="9.4546182"><ele>221.0</ele><time>2026-04-09T13:41:34.548Z</time></trkpt><trkpt lat="45.6307675" lon="9.4546629"><ele>221.0</ele><time>2026-04-09T13:41:36.549Z</time></trkpt><trkpt lat="45.6308702" lon="9.4546992"><ele>221.00000000000003</ele><time>2026-04-09T13:41:38.548Z</time></trkpt><trkpt lat="45.6309753" lon="9.4547414"><ele>221.0</ele><time>2026-04-09T13:41:40.548Z</time></trkpt><trkpt lat="45.6310766" lon="9.4548461"><ele>221.33333333333334</ele><time>2026-04-09T13:41:42.549Z</time></trkpt><trkpt lat="45.631139" lon="9.4549072"><ele>221.66666666666669</ele><time>2026-04-09T13:41:44.549Z</time></trkpt><trkpt lat="45.6312183" lon="9.455001"><ele>222.0</ele><time>2026-04-09T13:41:46.549Z</time></trkpt><trkpt lat="45.631298" lon="9.4550799"><ele>222.33333333333331</ele><time>2026-04-09T13:41:48.549Z</time></trkpt><trkpt lat="45.6313823" lon="9.4551492"><ele>222.66666666666666</ele><time>2026-04-09T13:41:50.549Z</time></trkpt><trkpt lat="45.631444" lon="9.4552044"><ele>223.0</ele><time>2026-04-09T13:41:51.548Z</time></trkpt><trkpt lat="45.6315219" lon="9.4552676"><ele>222.99999999999997</ele><time>2026-04-09T13:41:53.549Z</time></trkpt><trkpt lat="45.6316182" lon="9.4552878"><ele>223.0</ele><time>2026-04-09T13:41:55.549Z</time></trkpt><trkpt lat="45.6316826" lon="9.4553242"><ele>223.0</ele><time>2026-04-09T13:41:57.549Z</time></trkpt><trkpt lat="45.6317604" lon="9.4553767"><ele>223.0</ele><time>2026-04-09T13:41:59.549Z</time></trkpt><trkpt lat="45.6318065" lon="9.4554957"><ele>222.99999999999997</ele><time>2026-04-09T13:42:01.549Z</time></trkpt><trkpt lat="45.6318484" lon="9.4556046"><ele>223.0</ele><time>2026-04-09T13:42:03.549Z</time></trkpt><trkpt lat="45.6319096" lon="9.45569"><ele>223.5</ele><time>2026-04-09T13:42:05.548Z</time></trkpt><trkpt lat="45.631981" lon="9.4557372"><ele>224.0</ele><time>2026-04-09T13:42:08.549Z</time></trkpt><trkpt lat="45.6320462" lon="9.4557592"><ele>224.5</ele><time>2026-04-09T13:42:10.549Z</time></trkpt><trkpt lat="45.6321302" lon="9.4557832"><ele>225.0</ele><time>2026-04-09T13:42:12.549Z</time></trkpt><trkpt lat="45.6323702" lon="9.4557819"><ele>225.0</ele><time>2026-04-09T13:42:16.548Z</time></trkpt><trkpt lat="45.6324722" lon="9.4558183"><ele>225.0</ele><time>2026-04-09T13:42:18.549Z</time></trkpt><trkpt lat="45.6325715" lon="9.4558597"><ele>225.0</ele><time>2026-04-09T13:42:20.548Z</time></trkpt><trkpt lat="45.6326804" lon="9.4559106"><ele>225.0</ele><time>2026-04-09T13:42:22.548Z</time></trkpt><trkpt lat="45.632779" lon="9.4559471"><ele>225.0</ele><time>2026-04-09T13:42:24.549Z</time></trkpt><trkpt lat="45.6328633" lon="9.4559903"><ele>224.8</ele><time>2026-04-09T13:42:26.549Z</time></trkpt><trkpt lat="45.6329512" lon="9.4560633"><ele>224.6</ele><time>2026-04-09T13:42:28.549Z</time></trkpt><trkpt lat="45.6330379" lon="9.4561275"><ele>224.39999999999998</ele><time>2026-04-09T13:42:30.548Z</time></trkpt><trkpt lat="45.6331387" lon="9.4562006"><ele>224.2</ele><time>2026-04-09T13:42:32.548Z</time></trkpt><trkpt lat="45.6332231" lon="9.4562791"><ele>224.0</ele><time>2026-04-09T13:42:34.548Z</time></trkpt><trkpt lat="45.6332996" lon="9.4563491"><ele>224.39999999999998</ele><time>2026-04-09T13:42:36.549Z</time></trkpt><trkpt lat="45.6333724" lon="9.4564239"><ele>224.79999999999998</ele><time>2026-04-09T13:42:38.549Z</time></trkpt><trkpt lat="45.6334569" lon="9.4564985"><ele>225.20000000000002</ele><time>2026-04-09T13:42:40.549Z</time></trkpt><trkpt lat="45.633548" lon="9.4565666"><ele>225.60000000000002</ele><time>2026-04-09T13:42:42.548Z</time></trkpt><trkpt lat="45.6336328" lon="9.4566263"><ele>226.0</ele><time>2026-04-09T13:42:44.548Z</time></trkpt><trkpt lat="45.6337171" lon="9.4567035"><ele>226.4</ele><time>2026-04-09T13:42:46.548Z</time></trkpt><trkpt lat="45.6338123" lon="9.4567742"><ele>226.8</ele><time>2026-04-09T13:42:48.549Z</time></trkpt><trkpt lat="45.6339033" lon="9.4568335"><ele>227.20000000000002</ele><time>2026-04-09T13:42:50.548Z</time></trkpt><trkpt lat="45.6339985" lon="9.4568997"><ele>227.60000000000002</ele><time>2026-04-09T13:42:52.549Z</time></trkpt><trkpt lat="45.6340901" lon="9.4569654"><ele>228.0</ele><time>2026-04-09T13:42:54.548Z</time></trkpt><trkpt lat="45.6341842" lon="9.4570351"><ele>227.8</ele><time>2026-04-09T13:42:56.549Z</time></trkpt><trkpt lat="45.634281" lon="9.4571249"><ele>227.60000000000002</ele><time>2026-04-09T13:42:58.548Z</time></trkpt><trkpt lat="45.6343635" lon="9.457195"><ele>227.39999999999998</ele><time>2026-04-09T13:43:00.548Z</time></trkpt><trkpt lat="45.6344463" lon="9.4572598"><ele>227.2</ele><time>2026-04-09T13:43:02.549Z</time></trkpt><trkpt lat="45.6345366" lon="9.4573134"><ele>227.0</ele><time>2026-04-09T13:43:04.548Z</time></trkpt><trkpt lat="45.6346436" lon="9.4573622"><ele>227.00000000000003</ele><time>2026-04-09T13:43:06.548Z</time></trkpt><trkpt lat="45.6347064" lon="9.4573915"><ele>227.0</ele><time>2026-04-09T13:43:08.549Z</time></trkpt><trkpt lat="45.6347165" lon="9.4574993"><ele>227.0</ele><time>2026-04-09T13:43:14.548Z</time></trkpt><trkpt lat="45.6346901" lon="9.4575876"><ele>227.0</ele><time>2026-04-09T13:43:16.548Z</time></trkpt><trkpt lat="45.6346469" lon="9.4577065"><ele>227.00000000000003</ele><time>2026-04-09T13:43:18.549Z</time></trkpt><trkpt lat="45.6346197" lon="9.4578419"><ele>227.0</ele><time>2026-04-09T13:43:20.548Z</time></trkpt><trkpt lat="45.6345827" lon="9.4579859"><ele>227.0</ele><time>2026-04-09T13:43:22.548Z</time></trkpt><trkpt lat="45.6345414" lon="9.458135"><ele>227.0</ele><time>2026-04-09T13:43:24.548Z</time></trkpt><trkpt lat="45.6345076" lon="9.4582868"><ele>227.0</ele><time>2026-04-09T13:43:26.548Z</time></trkpt><trkpt lat="45.6344633" lon="9.4584416"><ele>227.0</ele><time>2026-04-09T13:43:28.549Z</time></trkpt><trkpt lat="45.6344229" lon="9.4585961"><ele>226.8</ele><time>2026-04-09T13:43:30.548Z</time></trkpt><trkpt lat="45.6343838" lon="9.4587418"><ele>226.6</ele><time>2026-04-09T13:43:32.548Z</time></trkpt><trkpt lat="45.6343621" lon="9.4588306"><ele>226.40000000000003</ele><time>2026-04-09T13:43:33.549Z</time></trkpt><trkpt lat="45.634322" lon="9.4589701"><ele>226.20000000000002</ele><time>2026-04-09T13:43:35.548Z</time></trkpt><trkpt lat="45.6342958" lon="9.4590546"><ele>226.0</ele><time>2026-04-09T13:43:36.549Z</time></trkpt><trkpt lat="45.63425" lon="9.4592086"><ele>226.0</ele><time>2026-04-09T13:43:38.549Z</time></trkpt><trkpt lat="45.634204" lon="9.4593647"><ele>226.0</ele><time>2026-04-09T13:43:40.549Z</time></trkpt><trkpt lat="45.6341582" lon="9.4595162"><ele>226.0</ele><time>2026-04-09T13:43:42.549Z</time></trkpt><trkpt lat="45.634116" lon="9.4596773"><ele>226.0</ele><time>2026-04-09T13:43:44.548Z</time></trkpt><trkpt lat="45.6340808" lon="9.4598442"><ele>226.20000000000002</ele><time>2026-04-09T13:43:46.549Z</time></trkpt><trkpt lat="45.6340387" lon="9.4600028"><ele>226.40000000000003</ele><time>2026-04-09T13:43:48.548Z</time></trkpt><trkpt lat="45.6339857" lon="9.4601724"><ele>226.6</ele><time>2026-04-09T13:43:50.548Z</time></trkpt><trkpt lat="45.6339683" lon="9.4602595"><ele>226.8</ele><time>2026-04-09T13:43:51.548Z</time></trkpt><trkpt lat="45.6339264" lon="9.4604227"><ele>227.0</ele><time>2026-04-09T13:43:53.549Z</time></trkpt><trkpt lat="45.6338791" lon="9.4605843"><ele>227.0</ele><time>2026-04-09T13:43:55.548Z</time></trkpt><trkpt lat="45.633859" lon="9.4606707"><ele>227.0</ele><time>2026-04-09T13:43:56.549Z</time></trkpt><trkpt lat="45.6338115" lon="9.460832"><ele>227.0</ele><time>2026-04-09T13:43:58.548Z</time></trkpt><trkpt lat="45.6337666" lon="9.4609932"><ele>227.0</ele><time>2026-04-09T13:44:00.549Z</time></trkpt><trkpt lat="45.6337253" lon="9.4611415"><ele>227.0</ele><time>2026-04-09T13:44:02.549Z</time></trkpt><trkpt lat="45.6336799" lon="9.4612577"><ele>226.83333333333334</ele><time>2026-04-09T13:44:04.549Z</time></trkpt><trkpt lat="45.6336357" lon="9.4613242"><ele>226.66666666666669</ele><time>2026-04-09T13:44:06.549Z</time></trkpt><trkpt lat="45.6335794" lon="9.4614043"><ele>226.5</ele><time>2026-04-09T13:44:08.548Z</time></trkpt><trkpt lat="45.6335116" lon="9.4615168"><ele>226.33333333333331</ele><time>2026-04-09T13:44:10.548Z</time></trkpt><trkpt lat="45.6334827" lon="9.4615986"><ele>226.16666666666666</ele><time>2026-04-09T13:44:11.549Z</time></trkpt><trkpt lat="45.6334692" lon="9.461766"><ele>226.0</ele><time>2026-04-09T13:44:13.549Z</time></trkpt><trkpt lat="45.6334769" lon="9.4619379"><ele>226.0</ele><time>2026-04-09T13:44:15.549Z</time></trkpt><trkpt lat="45.6334719" lon="9.462105"><ele>226.00000000000003</ele><time>2026-04-09T13:44:17.548Z</time></trkpt><trkpt lat="45.6334477" lon="9.4622727"><ele>226.00000000000003</ele><time>2026-04-09T13:44:19.549Z</time></trkpt><trkpt lat="45.633411" lon="9.4624396"><ele>226.0</ele><time>2026-04-09T13:44:21.549Z</time></trkpt><trkpt lat="45.6333909" lon="9.4625319"><ele>226.0</ele><time>2026-04-09T13:44:22.549Z</time></trkpt><trkpt lat="45.6333502" lon="9.462702"><ele>226.20000000000002</ele><time>2026-04-09T13:44:24.549Z</time></trkpt><trkpt lat="45.6333281" lon="9.4627904"><ele>226.40000000000003</ele><time>2026-04-09T13:44:25.548Z</time></trkpt><trkpt lat="45.6332869" lon="9.4629513"><ele>226.6</ele><time>2026-04-09T13:44:27.549Z</time></trkpt><trkpt lat="45.63327" lon="9.4630533"><ele>226.8</ele><time>2026-04-09T13:44:28.548Z</time></trkpt><trkpt lat="45.6332296" lon="9.4632232"><ele>227.0</ele><time>2026-04-09T13:44:30.548Z</time></trkpt><trkpt lat="45.6331867" lon="9.4633884"><ele>227.33333333333334</ele><time>2026-04-09T13:44:32.549Z</time></trkpt><trkpt lat="45.6331647" lon="9.4634766"><ele>227.66666666666669</ele><time>2026-04-09T13:44:33.549Z</time></trkpt><trkpt lat="45.6331411" lon="9.4635616"><ele>228.0</ele><time>2026-04-09T13:44:34.549Z</time></trkpt><trkpt lat="45.6331203" lon="9.463651"><ele>228.33333333333331</ele><time>2026-04-09T13:44:35.549Z</time></trkpt><trkpt lat="45.6330962" lon="9.4637378"><ele>228.66666666666666</ele><time>2026-04-09T13:44:36.549Z</time></trkpt><trkpt lat="45.6330763" lon="9.4638272"><ele>229.0</ele><time>2026-04-09T13:44:37.549Z</time></trkpt><trkpt lat="45.6330332" lon="9.4640005"><ele>229.0</ele><time>2026-04-09T13:44:39.548Z</time></trkpt><trkpt lat="45.6329892" lon="9.4641691"><ele>228.99999999999997</ele><time>2026-04-09T13:44:41.548Z</time></trkpt><trkpt lat="45.6329466" lon="9.4643269"><ele>228.99999999999997</ele><time>2026-04-09T13:44:43.549Z</time></trkpt><trkpt lat="45.6329008" lon="9.4644875"><ele>229.0</ele><time>2026-04-09T13:44:45.549Z</time></trkpt><trkpt lat="45.6328761" lon="9.4645715"><ele>229.0</ele><time>2026-04-09T13:44:46.549Z</time></trkpt><trkpt lat="45.6328326" lon="9.4647431"><ele>229.0</ele><time>2026-04-09T13:44:48.548Z</time></trkpt><trkpt lat="45.6328057" lon="9.4648368"><ele>229.0</ele><time>2026-04-09T13:44:49.549Z</time></trkpt><trkpt lat="45.6327755" lon="9.4649293"><ele>229.0</ele><time>2026-04-09T13:44:50.549Z</time></trkpt><trkpt lat="45.6327509" lon="9.4650127"><ele>229.0</ele><time>2026-04-09T13:44:51.549Z</time></trkpt><trkpt lat="45.6327179" lon="9.465096"><ele>229.0</ele><time>2026-04-09T13:44:52.549Z</time></trkpt><trkpt lat="45.6326922" lon="9.465185"><ele>229.0</ele><time>2026-04-09T13:44:53.549Z</time></trkpt><trkpt lat="45.632667" lon="9.4652781"><ele>229.0</ele><time>2026-04-09T13:44:54.549Z</time></trkpt><trkpt lat="45.6326258" lon="9.4654586"><ele>229.14285714285714</ele><time>2026-04-09T13:44:56.549Z</time></trkpt><trkpt lat="45.6326033" lon="9.4655471"><ele>229.28571428571428</ele><time>2026-04-09T13:44:57.549Z</time></trkpt><trkpt lat="45.6325788" lon="9.4656377"><ele>229.42857142857142</ele><time>2026-04-09T13:44:58.549Z</time></trkpt><trkpt lat="45.6325528" lon="9.4657274"><ele>229.57142857142856</ele><time>2026-04-09T13:44:59.548Z</time></trkpt><trkpt lat="45.6325314" lon="9.4658244"><ele>229.71428571428572</ele><time>2026-04-09T13:45:00.549Z</time></trkpt><trkpt lat="45.6325119" lon="9.4659115"><ele>229.85714285714283</ele><time>2026-04-09T13:45:01.549Z</time></trkpt><trkpt lat="45.6324903" lon="9.4659997"><ele>229.99999999999997</ele><time>2026-04-09T13:45:02.548Z</time></trkpt><trkpt lat="45.6324798" lon="9.4661076"><ele>229.99999999999997</ele><time>2026-04-09T13:45:03.548Z</time></trkpt><trkpt lat="45.6324505" lon="9.4661878"><ele>230.0</ele><time>2026-04-09T13:45:04.549Z</time></trkpt><trkpt lat="45.6324313" lon="9.4662824"><ele>229.99999999999997</ele><time>2026-04-09T13:45:05.549Z</time></trkpt><trkpt lat="45.6324069" lon="9.4663756"><ele>229.99999999999997</ele><time>2026-04-09T13:45:06.548Z</time></trkpt><trkpt lat="45.6323842" lon="9.4664691"><ele>230.0</ele><time>2026-04-09T13:45:07.549Z</time></trkpt><trkpt lat="45.6323535" lon="9.4665636"><ele>229.99999999999997</ele><time>2026-04-09T13:45:08.549Z</time></trkpt><trkpt lat="45.6323261" lon="9.466662"><ele>229.99999999999997</ele><time>2026-04-09T13:45:09.548Z</time></trkpt><trkpt lat="45.6323037" lon="9.466755"><ele>229.71428571428567</ele><time>2026-04-09T13:45:10.548Z</time></trkpt><trkpt lat="45.6322764" lon="9.4668493"><ele>229.42857142857142</ele><time>2026-04-09T13:45:11.548Z</time></trkpt><trkpt lat="45.6322583" lon="9.4669454"><ele>229.1428571428571</ele><time>2026-04-09T13:45:12.549Z</time></trkpt><trkpt lat="45.6322308" lon="9.4670359"><ele>228.85714285714283</ele><time>2026-04-09T13:45:13.549Z</time></trkpt><trkpt lat="45.6322069" lon="9.4671307"><ele>228.57142857142856</ele><time>2026-04-09T13:45:14.548Z</time></trkpt><trkpt lat="45.6321854" lon="9.4672355"><ele>228.28571428571428</ele><time>2026-04-09T13:45:15.548Z</time></trkpt><trkpt lat="45.6321593" lon="9.4673365"><ele>228.0</ele><time>2026-04-09T13:45:16.549Z</time></trkpt><trkpt lat="45.6321343" lon="9.4674374"><ele>227.7142857142857</ele><time>2026-04-09T13:45:17.549Z</time></trkpt><trkpt lat="45.6321063" lon="9.4675265"><ele>227.4285714285714</ele><time>2026-04-09T13:45:18.548Z</time></trkpt><trkpt lat="45.6320796" lon="9.4676334"><ele>227.14285714285714</ele><time>2026-04-09T13:45:19.548Z</time></trkpt><trkpt lat="45.6320669" lon="9.4677372"><ele>226.85714285714283</ele><time>2026-04-09T13:45:20.549Z</time></trkpt><trkpt lat="45.632038" lon="9.4678356"><ele>226.57142857142856</ele><time>2026-04-09T13:45:21.548Z</time></trkpt><trkpt lat="45.6320106" lon="9.4679364"><ele>226.28571428571428</ele><time>2026-04-09T13:45:22.549Z</time></trkpt><trkpt lat="45.6319931" lon="9.4680336"><ele>226.0</ele><time>2026-04-09T13:45:23.549Z</time></trkpt><trkpt lat="45.6319737" lon="9.4681374"><ele>226.16666666666666</ele><time>2026-04-09T13:45:24.548Z</time></trkpt><trkpt lat="45.6319475" lon="9.468239"><ele>226.33333333333331</ele><time>2026-04-09T13:45:25.549Z</time></trkpt><trkpt lat="45.6319214" lon="9.4683438"><ele>226.5</ele><time>2026-04-09T13:45:26.548Z</time></trkpt><trkpt lat="45.6318971" lon="9.468446"><ele>226.66666666666669</ele><time>2026-04-09T13:45:27.549Z</time></trkpt><trkpt lat="45.6318643" lon="9.4685571"><ele>226.83333333333334</ele><time>2026-04-09T13:45:28.548Z</time></trkpt><trkpt lat="45.6318356" lon="9.4686627"><ele>227.0</ele><time>2026-04-09T13:45:29.548Z</time></trkpt><trkpt lat="45.6318018" lon="9.4687687"><ele>226.66666666666669</ele><time>2026-04-09T13:45:30.548Z</time></trkpt><trkpt lat="45.6317805" lon="9.4688811"><ele>226.33333333333334</ele><time>2026-04-09T13:45:31.549Z</time></trkpt><trkpt lat="45.6317531" lon="9.4689957"><ele>226.0</ele><time>2026-04-09T13:45:32.549Z</time></trkpt><trkpt lat="45.6317252" lon="9.469096"><ele>225.66666666666669</ele><time>2026-04-09T13:45:33.548Z</time></trkpt><trkpt lat="45.6316999" lon="9.4692004"><ele>225.33333333333334</ele><time>2026-04-09T13:45:34.549Z</time></trkpt><trkpt lat="45.6316685" lon="9.4693116"><ele>225.0</ele><time>2026-04-09T13:45:35.548Z</time></trkpt><trkpt lat="45.6316371" lon="9.4694157"><ele>225.0</ele><time>2026-04-09T13:45:36.548Z</time></trkpt><trkpt lat="45.6316004" lon="9.4695201"><ele>225.0</ele><time>2026-04-09T13:45:37.549Z</time></trkpt><trkpt lat="45.6315676" lon="9.4696256"><ele>225.0</ele><time>2026-04-09T13:45:38.549Z</time></trkpt><trkpt lat="45.6315283" lon="9.4697263"><ele>225.0</ele><time>2026-04-09T13:45:39.549Z</time></trkpt><trkpt lat="45.631497" lon="9.4698329"><ele>225.0</ele><time>2026-04-09T13:45:40.548Z</time></trkpt><trkpt lat="45.6314686" lon="9.4699282"><ele>225.0</ele><time>2026-04-09T13:45:41.549Z</time></trkpt><trkpt lat="45.6314318" lon="9.4700286"><ele>225.0</ele><time>2026-04-09T13:45:42.549Z</time></trkpt><trkpt lat="45.6314024" lon="9.4701182"><ele>225.0</ele><time>2026-04-09T13:45:43.549Z</time></trkpt><trkpt lat="45.6313758" lon="9.470201"><ele>225.0</ele><time>2026-04-09T13:45:44.548Z</time></trkpt><trkpt lat="45.6313314" lon="9.4702936"><ele>225.0</ele><time>2026-04-09T13:45:46.549Z</time></trkpt><trkpt lat="45.631245" lon="9.4703348"><ele>225.0</ele><time>2026-04-09T13:45:49.545Z</time></trkpt><trkpt lat="45.6311626" lon="9.4702603"><ele>225.0</ele><time>2026-04-09T13:45:51.551Z</time></trkpt><trkpt lat="45.6310906" lon="9.4701969"><ele>224.5</ele><time>2026-04-09T13:45:53.55Z</time></trkpt><trkpt lat="45.6309906" lon="9.4701384"><ele>224.0</ele><time>2026-04-09T13:45:55.551Z</time></trkpt><trkpt lat="45.6308715" lon="9.4701103"><ele>223.5</ele><time>2026-04-09T13:45:57.551Z</time></trkpt><trkpt lat="45.6307567" lon="9.4701317"><ele>223.0</ele><time>2026-04-09T13:45:59.551Z</time></trkpt><trkpt lat="45.6306464" lon="9.4702019"><ele>223.0</ele><time>2026-04-09T13:46:01.551Z</time></trkpt><trkpt lat="45.6305973" lon="9.4702601"><ele>223.0</ele><time>2026-04-09T13:46:02.551Z</time></trkpt><trkpt lat="45.6305265" lon="9.4703869"><ele>223.0</ele><time>2026-04-09T13:46:04.551Z</time></trkpt><trkpt lat="45.6304786" lon="9.4705439"><ele>223.0</ele><time>2026-04-09T13:46:06.551Z</time></trkpt><trkpt lat="45.6304577" lon="9.4706357"><ele>223.0</ele><time>2026-04-09T13:46:07.55Z</time></trkpt><trkpt lat="45.6304125" lon="9.4707997"><ele>223.0</ele><time>2026-04-09T13:46:09.551Z</time></trkpt><trkpt lat="45.6304015" lon="9.4709672"><ele>223.0</ele><time>2026-04-09T13:46:11.551Z</time></trkpt><trkpt lat="45.630397" lon="9.4710578"><ele>223.0</ele><time>2026-04-09T13:46:12.551Z</time></trkpt><trkpt lat="45.6303887" lon="9.4712245"><ele>223.0</ele><time>2026-04-09T13:46:14.55Z</time></trkpt><trkpt lat="45.6303922" lon="9.4713145"><ele>223.0</ele><time>2026-04-09T13:46:15.551Z</time></trkpt><trkpt lat="45.6304047" lon="9.4714847"><ele>223.2</ele><time>2026-04-09T13:46:17.551Z</time></trkpt><trkpt lat="45.6304153" lon="9.4715793"><ele>223.4</ele><time>2026-04-09T13:46:18.551Z</time></trkpt><trkpt lat="45.6304197" lon="9.4717527"><ele>223.59999999999997</ele><time>2026-04-09T13:46:20.551Z</time></trkpt><trkpt lat="45.6304078" lon="9.4718516"><ele>223.79999999999998</ele><time>2026-04-09T13:46:21.55Z</time></trkpt><trkpt lat="45.6303544" lon="9.4720255"><ele>224.0</ele><time>2026-04-09T13:46:23.551Z</time></trkpt><trkpt lat="45.6303173" lon="9.4721995"><ele>224.00000000000003</ele><time>2026-04-09T13:46:25.551Z</time></trkpt><trkpt lat="45.6303343" lon="9.4723818"><ele>224.0</ele><time>2026-04-09T13:46:27.551Z</time></trkpt><trkpt lat="45.6303757" lon="9.4724527"><ele>224.0</ele><time>2026-04-09T13:46:28.55Z</time></trkpt><trkpt lat="45.6304232" lon="9.4725386"><ele>224.0</ele><time>2026-04-09T13:46:29.551Z</time></trkpt><trkpt lat="45.6304625" lon="9.4726137"><ele>224.00000000000003</ele><time>2026-04-09T13:46:30.55Z</time></trkpt><trkpt lat="45.6304942" lon="9.4726967"><ele>224.0</ele><time>2026-04-09T13:46:31.551Z</time></trkpt><trkpt lat="45.6305154" lon="9.472793"><ele>224.0</ele><time>2026-04-09T13:46:32.55Z</time></trkpt><trkpt lat="45.6305192" lon="9.4728838"><ele>224.0</ele><time>2026-04-09T13:46:33.551Z</time></trkpt><trkpt lat="45.6304604" lon="9.4730423"><ele>224.0</ele><time>2026-04-09T13:46:35.55Z</time></trkpt><trkpt lat="45.6303671" lon="9.4731947"><ele>224.0</ele><time>2026-04-09T13:46:37.55Z</time></trkpt><trkpt lat="45.6302793" lon="9.4733315"><ele>223.85714285714286</ele><time>2026-04-09T13:46:39.55Z</time></trkpt><trkpt lat="45.6302457" lon="9.4734123"><ele>223.71428571428572</ele><time>2026-04-09T13:46:40.55Z</time></trkpt><trkpt lat="45.6302099" lon="9.4735015"><ele>223.57142857142856</ele><time>2026-04-09T13:46:41.55Z</time></trkpt><trkpt lat="45.630165" lon="9.4735813"><ele>223.42857142857144</ele><time>2026-04-09T13:46:42.551Z</time></trkpt><trkpt lat="45.6301251" lon="9.473652"><ele>223.28571428571428</ele><time>2026-04-09T13:46:43.55Z</time></trkpt><trkpt lat="45.6300883" lon="9.4737286"><ele>223.14285714285714</ele><time>2026-04-09T13:46:44.551Z</time></trkpt><trkpt lat="45.6300351" lon="9.4737975"><ele>223.0</ele><time>2026-04-09T13:46:45.55Z</time></trkpt><trkpt lat="45.6299856" lon="9.4738682"><ele>223.42857142857142</ele><time>2026-04-09T13:46:46.551Z</time></trkpt><trkpt lat="45.6299337" lon="9.4739551"><ele>223.85714285714283</ele><time>2026-04-09T13:46:47.551Z</time></trkpt><trkpt lat="45.6298835" lon="9.4740243"><ele>224.28571428571428</ele><time>2026-04-09T13:46:48.55Z</time></trkpt><trkpt lat="45.6298459" lon="9.4740988"><ele>224.71428571428572</ele><time>2026-04-09T13:46:49.55Z</time></trkpt><trkpt lat="45.6298013" lon="9.4741711"><ele>225.14285714285714</ele><time>2026-04-09T13:46:50.55Z</time></trkpt><trkpt lat="45.6297514" lon="9.4742435"><ele>225.57142857142858</ele><time>2026-04-09T13:46:51.55Z</time></trkpt><trkpt lat="45.6296996" lon="9.4743218"><ele>226.0</ele><time>2026-04-09T13:46:52.55Z</time></trkpt><trkpt lat="45.6296599" lon="9.4743932"><ele>226.0</ele><time>2026-04-09T13:46:53.551Z</time></trkpt><trkpt lat="45.6296138" lon="9.4744711"><ele>226.00000000000003</ele><time>2026-04-09T13:46:54.551Z</time></trkpt><trkpt lat="45.629556" lon="9.4746161"><ele>226.00000000000003</ele><time>2026-04-09T13:46:56.551Z</time></trkpt><trkpt lat="45.6295079" lon="9.4747938"><ele>226.0</ele><time>2026-04-09T13:46:58.55Z</time></trkpt><trkpt lat="45.6294886" lon="9.4748802"><ele>226.0</ele><time>2026-04-09T13:46:59.551Z</time></trkpt><trkpt lat="45.6294599" lon="9.4749635"><ele>225.85714285714286</ele><time>2026-04-09T13:47:00.551Z</time></trkpt><trkpt lat="45.6294345" lon="9.4750486"><ele>225.71428571428572</ele><time>2026-04-09T13:47:01.551Z</time></trkpt><trkpt lat="45.6294055" lon="9.4751443"><ele>225.57142857142858</ele><time>2026-04-09T13:47:02.55Z</time></trkpt><trkpt lat="45.6293859" lon="9.4752339"><ele>225.42857142857144</ele><time>2026-04-09T13:47:03.551Z</time></trkpt><trkpt lat="45.6293596" lon="9.4753323"><ele>225.28571428571428</ele><time>2026-04-09T13:47:04.551Z</time></trkpt><trkpt lat="45.6293281" lon="9.4754129"><ele>225.14285714285717</ele><time>2026-04-09T13:47:05.55Z</time></trkpt><trkpt lat="45.6293081" lon="9.4755078"><ele>225.00000000000003</ele><time>2026-04-09T13:47:06.55Z</time></trkpt><trkpt lat="45.6292848" lon="9.4756038"><ele>225.28571428571433</ele><time>2026-04-09T13:47:07.55Z</time></trkpt><trkpt lat="45.6292591" lon="9.4756922"><ele>225.57142857142858</ele><time>2026-04-09T13:47:08.551Z</time></trkpt><trkpt lat="45.6292446" lon="9.4758003"><ele>225.8571428571429</ele><time>2026-04-09T13:47:09.551Z</time></trkpt><trkpt lat="45.629224" lon="9.4759071"><ele>226.14285714285717</ele><time>2026-04-09T13:47:10.55Z</time></trkpt><trkpt lat="45.6292062" lon="9.4760005"><ele>226.42857142857144</ele><time>2026-04-09T13:47:11.551Z</time></trkpt><trkpt lat="45.6291837" lon="9.4761017"><ele>226.71428571428572</ele><time>2026-04-09T13:47:12.55Z</time></trkpt><trkpt lat="45.6291585" lon="9.4761972"><ele>227.0</ele><time>2026-04-09T13:47:13.55Z</time></trkpt><trkpt lat="45.6291316" lon="9.4762889"><ele>227.14285714285717</ele><time>2026-04-09T13:47:14.551Z</time></trkpt><trkpt lat="45.629107" lon="9.4763872"><ele>227.2857142857143</ele><time>2026-04-09T13:47:15.551Z</time></trkpt><trkpt lat="45.6290796" lon="9.4764781"><ele>227.42857142857144</ele><time>2026-04-09T13:47:16.55Z</time></trkpt><trkpt lat="45.6290498" lon="9.4765668"><ele>227.57142857142856</ele><time>2026-04-09T13:47:17.551Z</time></trkpt><trkpt lat="45.6290231" lon="9.4766734"><ele>227.7142857142857</ele><time>2026-04-09T13:47:18.55Z</time></trkpt><trkpt lat="45.6289899" lon="9.476777"><ele>227.85714285714283</ele><time>2026-04-09T13:47:19.55Z</time></trkpt><trkpt lat="45.628957" lon="9.4768714"><ele>228.0</ele><time>2026-04-09T13:47:20.55Z</time></trkpt><trkpt lat="45.6289312" lon="9.4769755"><ele>228.0</ele><time>2026-04-09T13:47:21.55Z</time></trkpt><trkpt lat="45.6288927" lon="9.477083"><ele>228.0</ele><time>2026-04-09T13:47:22.551Z</time></trkpt><trkpt lat="45.6288623" lon="9.4771814"><ele>228.0</ele><time>2026-04-09T13:47:23.55Z</time></trkpt><trkpt lat="45.6288318" lon="9.4772881"><ele>228.0</ele><time>2026-04-09T13:47:24.551Z</time></trkpt><trkpt lat="45.6287977" lon="9.4773902"><ele>228.0</ele><time>2026-04-09T13:47:25.55Z</time></trkpt><trkpt lat="45.6287543" lon="9.4774837"><ele>228.0</ele><time>2026-04-09T13:47:26.55Z</time></trkpt><trkpt lat="45.6287256" lon="9.4775935"><ele>228.0</ele><time>2026-04-09T13:47:27.551Z</time></trkpt><trkpt lat="45.6286845" lon="9.4776886"><ele>228.0</ele><time>2026-04-09T13:47:28.55Z</time></trkpt><trkpt lat="45.6286554" lon="9.4778021"><ele>228.0</ele><time>2026-04-09T13:47:29.551Z</time></trkpt><trkpt lat="45.6286197" lon="9.4778965"><ele>228.0</ele><time>2026-04-09T13:47:30.551Z</time></trkpt><trkpt lat="45.6285786" lon="9.4780078"><ele>228.0</ele><time>2026-04-09T13:47:31.551Z</time></trkpt><trkpt lat="45.6285423" lon="9.4781161"><ele>228.0</ele><time>2026-04-09T13:47:32.551Z</time></trkpt><trkpt lat="45.6284968" lon="9.4782144"><ele>226.5</ele><time>2026-04-09T13:47:33.551Z</time></trkpt><trkpt lat="45.6284645" lon="9.4783266"><ele>225.0</ele><time>2026-04-09T13:47:34.551Z</time></trkpt><trkpt lat="45.6284272" lon="9.4784271"><ele>223.5</ele><time>2026-04-09T13:47:35.551Z</time></trkpt><trkpt lat="45.6283827" lon="9.4785283"><ele>222.0</ele><time>2026-04-09T13:47:36.551Z</time></trkpt><trkpt lat="45.6283456" lon="9.4786295"><ele>220.5</ele><time>2026-04-09T13:47:37.551Z</time></trkpt><trkpt lat="45.6283075" lon="9.4787298"><ele>219.0</ele><time>2026-04-09T13:47:38.551Z</time></trkpt><trkpt lat="45.628273" lon="9.4788225"><ele>219.0</ele><time>2026-04-09T13:47:39.55Z</time></trkpt><trkpt lat="45.6282408" lon="9.4789253"><ele>219.0</ele><time>2026-04-09T13:47:40.551Z</time></trkpt><trkpt lat="45.6282036" lon="9.4790282"><ele>219.0</ele><time>2026-04-09T13:47:41.551Z</time></trkpt><trkpt lat="45.6281632" lon="9.4791354"><ele>219.0</ele><time>2026-04-09T13:47:42.551Z</time></trkpt><trkpt lat="45.6281258" lon="9.479241"><ele>219.0</ele><time>2026-04-09T13:47:43.551Z</time></trkpt><trkpt lat="45.6280893" lon="9.4793454"><ele>219.0</ele><time>2026-04-09T13:47:44.551Z</time></trkpt><trkpt lat="45.6280548" lon="9.4794491"><ele>219.0</ele><time>2026-04-09T13:47:45.551Z</time></trkpt><trkpt lat="45.6280197" lon="9.4795562"><ele>219.0</ele><time>2026-04-09T13:47:46.551Z</time></trkpt><trkpt lat="45.6279838" lon="9.4796618"><ele>219.0</ele><time>2026-04-09T13:47:47.551Z</time></trkpt><trkpt lat="45.6279433" lon="9.4797671"><ele>219.0</ele><time>2026-04-09T13:47:48.55Z</time></trkpt><trkpt lat="45.62791" lon="9.4798695"><ele>219.0</ele><time>2026-04-09T13:47:49.55Z</time></trkpt><trkpt lat="45.6278738" lon="9.4799706"><ele>219.0</ele><time>2026-04-09T13:47:50.551Z</time></trkpt><trkpt lat="45.6278425" lon="9.4800719"><ele>219.0</ele><time>2026-04-09T13:47:51.551Z</time></trkpt><trkpt lat="45.6278061" lon="9.4801839"><ele>219.0</ele><time>2026-04-09T13:47:52.551Z</time></trkpt><trkpt lat="45.6277685" lon="9.4802851"><ele>219.0</ele><time>2026-04-09T13:47:53.551Z</time></trkpt><trkpt lat="45.627733" lon="9.4803857"><ele>219.0</ele><time>2026-04-09T13:47:54.551Z</time></trkpt><trkpt lat="45.6276947" lon="9.4804885"><ele>219.0</ele><time>2026-04-09T13:47:55.55Z</time></trkpt><trkpt lat="45.6276633" lon="9.4805942"><ele>219.0</ele><time>2026-04-09T13:47:56.551Z</time></trkpt><trkpt lat="45.6276239" lon="9.4806922"><ele>219.0</ele><time>2026-04-09T13:47:57.551Z</time></trkpt><trkpt lat="45.6275806" lon="9.4807995"><ele>219.0</ele><time>2026-04-09T13:47:58.55Z</time></trkpt><trkpt lat="45.6275418" lon="9.4808952"><ele>219.0</ele><time>2026-04-09T13:47:59.551Z</time></trkpt><trkpt lat="45.6275004" lon="9.481001"><ele>219.0</ele><time>2026-04-09T13:48:00.551Z</time></trkpt><trkpt lat="45.6274575" lon="9.4811016"><ele>219.0</ele><time>2026-04-09T13:48:01.551Z</time></trkpt><trkpt lat="45.6274205" lon="9.4812046"><ele>219.0</ele><time>2026-04-09T13:48:02.551Z</time></trkpt><trkpt lat="45.6273759" lon="9.481311"><ele>218.83333333333334</ele><time>2026-04-09T13:48:03.551Z</time></trkpt><trkpt lat="45.62734" lon="9.4814029"><ele>218.66666666666669</ele><time>2026-04-09T13:48:04.55Z</time></trkpt><trkpt lat="45.6272956" lon="9.4815055"><ele>218.5</ele><time>2026-04-09T13:48:05.551Z</time></trkpt><trkpt lat="45.6272542" lon="9.4816086"><ele>218.33333333333334</ele><time>2026-04-09T13:48:06.55Z</time></trkpt><trkpt lat="45.6272187" lon="9.481712"><ele>218.16666666666669</ele><time>2026-04-09T13:48:07.551Z</time></trkpt><trkpt lat="45.6271804" lon="9.4818152"><ele>218.0</ele><time>2026-04-09T13:48:08.55Z</time></trkpt><trkpt lat="45.6271509" lon="9.4819268"><ele>218.00000000000003</ele><time>2026-04-09T13:48:09.55Z</time></trkpt><trkpt lat="45.6271118" lon="9.482023"><ele>218.0</ele><time>2026-04-09T13:48:10.551Z</time></trkpt><trkpt lat="45.6270775" lon="9.4821241"><ele>218.0</ele><time>2026-04-09T13:48:11.55Z</time></trkpt><trkpt lat="45.6270453" lon="9.4822336"><ele>218.0</ele><time>2026-04-09T13:48:12.55Z</time></trkpt><trkpt lat="45.6270097" lon="9.4823375"><ele>218.00000000000003</ele><time>2026-04-09T13:48:13.55Z</time></trkpt><trkpt lat="45.6269775" lon="9.4824579"><ele>218.0</ele><time>2026-04-09T13:48:14.551Z</time></trkpt><trkpt lat="45.6269447" lon="9.4825657"><ele>218.16666666666669</ele><time>2026-04-09T13:48:15.551Z</time></trkpt><trkpt lat="45.6269122" lon="9.482667"><ele>218.33333333333334</ele><time>2026-04-09T13:48:16.551Z</time></trkpt><trkpt lat="45.6268755" lon="9.482777"><ele>218.5</ele><time>2026-04-09T13:48:17.551Z</time></trkpt><trkpt lat="45.6268433" lon="9.4828828"><ele>218.66666666666669</ele><time>2026-04-09T13:48:18.551Z</time></trkpt><trkpt lat="45.6268014" lon="9.4829848"><ele>218.83333333333334</ele><time>2026-04-09T13:48:19.551Z</time></trkpt><trkpt lat="45.6267643" lon="9.4830885"><ele>219.0</ele><time>2026-04-09T13:48:20.551Z</time></trkpt><trkpt lat="45.6267288" lon="9.4832014"><ele>219.0</ele><time>2026-04-09T13:48:21.551Z</time></trkpt><trkpt lat="45.6266931" lon="9.4833046"><ele>219.0</ele><time>2026-04-09T13:48:22.551Z</time></trkpt><trkpt lat="45.6266568" lon="9.4834071"><ele>219.0</ele><time>2026-04-09T13:48:23.55Z</time></trkpt><trkpt lat="45.6266189" lon="9.483517"><ele>219.0</ele><time>2026-04-09T13:48:24.551Z</time></trkpt><trkpt lat="45.6265863" lon="9.4836229"><ele>219.0</ele><time>2026-04-09T13:48:25.55Z</time></trkpt><trkpt lat="45.6265477" lon="9.4837302"><ele>219.0</ele><time>2026-04-09T13:48:26.55Z</time></trkpt><trkpt lat="45.6265134" lon="9.4838457"><ele>219.0</ele><time>2026-04-09T13:48:27.551Z</time></trkpt><trkpt lat="45.6264787" lon="9.483953"><ele>219.0</ele><time>2026-04-09T13:48:28.551Z</time></trkpt><trkpt lat="45.6264378" lon="9.4840613"><ele>219.0</ele><time>2026-04-09T13:48:29.551Z</time></trkpt><trkpt lat="45.6263976" lon="9.4841643"><ele>219.0</ele><time>2026-04-09T13:48:30.55Z</time></trkpt><trkpt lat="45.6263592" lon="9.484273"><ele>219.0</ele><time>2026-04-09T13:48:31.55Z</time></trkpt><trkpt lat="45.6263216" lon="9.4843734"><ele>219.0</ele><time>2026-04-09T13:48:32.55Z</time></trkpt><trkpt lat="45.6262862" lon="9.4844823"><ele>219.0</ele><time>2026-04-09T13:48:33.551Z</time></trkpt><trkpt lat="45.6262501" lon="9.4845909"><ele>219.0</ele><time>2026-04-09T13:48:34.55Z</time></trkpt><trkpt lat="45.6262147" lon="9.4846964"><ele>219.0</ele><time>2026-04-09T13:48:35.55Z</time></trkpt><trkpt lat="45.6261822" lon="9.4848011"><ele>219.0</ele><time>2026-04-09T13:48:36.55Z</time></trkpt><trkpt lat="45.6261451" lon="9.4849078"><ele>219.0</ele><time>2026-04-09T13:48:37.551Z</time></trkpt><trkpt lat="45.6261096" lon="9.4850129"><ele>219.0</ele><time>2026-04-09T13:48:38.55Z</time></trkpt><trkpt lat="45.6260688" lon="9.4851225"><ele>218.66666666666666</ele><time>2026-04-09T13:48:39.55Z</time></trkpt><trkpt lat="45.6260261" lon="9.4852274"><ele>218.33333333333331</ele><time>2026-04-09T13:48:40.551Z</time></trkpt><trkpt lat="45.625991" lon="9.4853338"><ele>218.0</ele><time>2026-04-09T13:48:41.551Z</time></trkpt><trkpt lat="45.6259492" lon="9.485441"><ele>217.66666666666666</ele><time>2026-04-09T13:48:42.55Z</time></trkpt><trkpt lat="45.6259064" lon="9.4855499"><ele>217.33333333333331</ele><time>2026-04-09T13:48:43.55Z</time></trkpt><trkpt lat="45.6258713" lon="9.485663"><ele>217.0</ele><time>2026-04-09T13:48:44.55Z</time></trkpt><trkpt lat="45.6258286" lon="9.4857654"><ele>216.99999999999997</ele><time>2026-04-09T13:48:45.55Z</time></trkpt><trkpt lat="45.6257955" lon="9.4858759"><ele>217.0</ele><time>2026-04-09T13:48:46.55Z</time></trkpt><trkpt lat="45.6257575" lon="9.4859831"><ele>217.0</ele><time>2026-04-09T13:48:47.551Z</time></trkpt><trkpt lat="45.6257261" lon="9.486086"><ele>217.0</ele><time>2026-04-09T13:48:48.551Z</time></trkpt><trkpt lat="45.6256896" lon="9.4861937"><ele>216.99999999999997</ele><time>2026-04-09T13:48:49.551Z</time></trkpt><trkpt lat="45.625654" lon="9.4863007"><ele>217.0</ele><time>2026-04-09T13:48:50.551Z</time></trkpt><trkpt lat="45.6256147" lon="9.4864056"><ele>216.83333333333331</ele><time>2026-04-09T13:48:51.55Z</time></trkpt><trkpt lat="45.6255744" lon="9.486506"><ele>216.66666666666666</ele><time>2026-04-09T13:48:52.551Z</time></trkpt><trkpt lat="45.6255293" lon="9.4866044"><ele>216.5</ele><time>2026-04-09T13:48:53.551Z</time></trkpt><trkpt lat="45.6254829" lon="9.4866986"><ele>216.33333333333331</ele><time>2026-04-09T13:48:54.55Z</time></trkpt><trkpt lat="45.6254373" lon="9.4868027"><ele>216.16666666666666</ele><time>2026-04-09T13:48:55.551Z</time></trkpt><trkpt lat="45.6253904" lon="9.4869021"><ele>216.0</ele><time>2026-04-09T13:48:56.551Z</time></trkpt><trkpt lat="45.6253453" lon="9.4869909"><ele>215.83333333333334</ele><time>2026-04-09T13:48:57.551Z</time></trkpt><trkpt lat="45.6253034" lon="9.4870757"><ele>215.66666666666669</ele><time>2026-04-09T13:48:58.551Z</time></trkpt><trkpt lat="45.6252527" lon="9.4871764"><ele>215.5</ele><time>2026-04-09T13:48:59.55Z</time></trkpt><trkpt lat="45.6252065" lon="9.4872722"><ele>215.33333333333334</ele><time>2026-04-09T13:49:00.551Z</time></trkpt><trkpt lat="45.6251573" lon="9.4873659"><ele>215.16666666666669</ele><time>2026-04-09T13:49:01.551Z</time></trkpt><trkpt lat="45.6251117" lon="9.487469"><ele>215.0</ele><time>2026-04-09T13:49:02.55Z</time></trkpt><trkpt lat="45.625067" lon="9.4875616"><ele>215.00000000000003</ele><time>2026-04-09T13:49:03.55Z</time></trkpt><trkpt lat="45.6250222" lon="9.4876631"><ele>215.0</ele><time>2026-04-09T13:49:04.55Z</time></trkpt><trkpt lat="45.6249779" lon="9.4877574"><ele>215.0</ele><time>2026-04-09T13:49:05.551Z</time></trkpt><trkpt lat="45.6249358" lon="9.4878584"><ele>215.0</ele><time>2026-04-09T13:49:06.55Z</time></trkpt><trkpt lat="45.6248963" lon="9.487957"><ele>215.00000000000003</ele><time>2026-04-09T13:49:07.551Z</time></trkpt><trkpt lat="45.6248631" lon="9.488055"><ele>215.0</ele><time>2026-04-09T13:49:08.551Z</time></trkpt><trkpt lat="45.6248277" lon="9.4881582"><ele>215.0</ele><time>2026-04-09T13:49:09.55Z</time></trkpt><trkpt lat="45.6247937" lon="9.4882551"><ele>215.0</ele><time>2026-04-09T13:49:10.551Z</time></trkpt><trkpt lat="45.624759" lon="9.4883474"><ele>215.0</ele><time>2026-04-09T13:49:11.55Z</time></trkpt><trkpt lat="45.6247227" lon="9.4884398"><ele>215.0</ele><time>2026-04-09T13:49:12.55Z</time></trkpt><trkpt lat="45.6246902" lon="9.4885236"><ele>215.0</ele><time>2026-04-09T13:49:13.551Z</time></trkpt><trkpt lat="45.6246567" lon="9.4886201"><ele>215.0</ele><time>2026-04-09T13:49:14.551Z</time></trkpt><trkpt lat="45.6246261" lon="9.4887127"><ele>215.0</ele><time>2026-04-09T13:49:15.551Z</time></trkpt><trkpt lat="45.6245951" lon="9.4888075"><ele>215.0</ele><time>2026-04-09T13:49:16.55Z</time></trkpt><trkpt lat="45.6245474" lon="9.4889332"><ele>215.0</ele><time>2026-04-09T13:49:18.551Z</time></trkpt><trkpt lat="45.6245343" lon="9.4890319"><ele>215.0</ele><time>2026-04-09T13:49:23.55Z</time></trkpt><trkpt lat="45.6245772" lon="9.4891407"><ele>215.0</ele><time>2026-04-09T13:49:26.55Z</time></trkpt><trkpt lat="45.6246716" lon="9.4891854"><ele>215.0</ele><time>2026-04-09T13:49:28.551Z</time></trkpt><trkpt lat="45.6247704" lon="9.4892325"><ele>215.0</ele><time>2026-04-09T13:49:30.55Z</time></trkpt><trkpt lat="45.6248723" lon="9.4893037"><ele>215.0</ele><time>2026-04-09T13:49:32.55Z</time></trkpt><trkpt lat="45.6249749" lon="9.4893641"><ele>215.0</ele><time>2026-04-09T13:49:34.551Z</time></trkpt><trkpt lat="45.6250822" lon="9.4894379"><ele>215.0</ele><time>2026-04-09T13:49:36.551Z</time></trkpt><trkpt lat="45.6251894" lon="9.4895001"><ele>215.00000000000003</ele><time>2026-04-09T13:49:38.551Z</time></trkpt><trkpt lat="45.6252956" lon="9.489566"><ele>215.0</ele><time>2026-04-09T13:49:40.551Z</time></trkpt><trkpt lat="45.6253562" lon="9.4896038"><ele>215.0</ele><time>2026-04-09T13:49:41.551Z</time></trkpt><trkpt lat="45.6254653" lon="9.4896772"><ele>215.0</ele><time>2026-04-09T13:49:43.55Z</time></trkpt><trkpt lat="45.6255229" lon="9.4897213"><ele>215.00000000000003</ele><time>2026-04-09T13:49:44.551Z</time></trkpt><trkpt lat="45.6255808" lon="9.4897679"><ele>215.0</ele><time>2026-04-09T13:49:45.55Z</time></trkpt><trkpt lat="45.6256958" lon="9.4898475"><ele>215.83333333333334</ele><time>2026-04-09T13:49:47.55Z</time></trkpt><trkpt lat="45.6257557" lon="9.4898918"><ele>216.66666666666669</ele><time>2026-04-09T13:49:48.551Z</time></trkpt><trkpt lat="45.6258128" lon="9.489935"><ele>217.5</ele><time>2026-04-09T13:49:49.551Z</time></trkpt><trkpt lat="45.6258715" lon="9.4899706"><ele>218.33333333333331</ele><time>2026-04-09T13:49:50.551Z</time></trkpt><trkpt lat="45.6259786" lon="9.4900387"><ele>219.16666666666666</ele><time>2026-04-09T13:49:52.551Z</time></trkpt><trkpt lat="45.6260449" lon="9.4901415"><ele>220.0</ele><time>2026-04-09T13:49:54.55Z</time></trkpt><trkpt lat="45.6260385" lon="9.4902902"><ele>219.2</ele><time>2026-04-09T13:49:56.551Z</time></trkpt><trkpt lat="45.6259769" lon="9.4904355"><ele>218.4</ele><time>2026-04-09T13:49:58.551Z</time></trkpt><trkpt lat="45.6258943" lon="9.4905376"><ele>217.60000000000002</ele><time>2026-04-09T13:50:00.551Z</time></trkpt><trkpt lat="45.6258371" lon="9.4906668"><ele>216.8</ele><time>2026-04-09T13:50:02.55Z</time></trkpt><trkpt lat="45.6257666" lon="9.4907855"><ele>216.0</ele><time>2026-04-09T13:50:04.551Z</time></trkpt><trkpt lat="45.6256969" lon="9.4909159"><ele>216.0</ele><time>2026-04-09T13:50:06.55Z</time></trkpt><trkpt lat="45.6256273" lon="9.4910347"><ele>216.00000000000003</ele><time>2026-04-09T13:50:08.551Z</time></trkpt><trkpt lat="45.6255703" lon="9.4911597"><ele>216.00000000000003</ele><time>2026-04-09T13:50:10.551Z</time></trkpt><trkpt lat="45.6255144" lon="9.4913025"><ele>216.0</ele><time>2026-04-09T13:50:12.55Z</time></trkpt><trkpt lat="45.6254585" lon="9.4914361"><ele>216.0</ele><time>2026-04-09T13:50:14.551Z</time></trkpt><trkpt lat="45.6253975" lon="9.4915786"><ele>216.0</ele><time>2026-04-09T13:50:16.55Z</time></trkpt><trkpt lat="45.6253365" lon="9.4917154"><ele>216.00000000000003</ele><time>2026-04-09T13:50:18.551Z</time></trkpt><trkpt lat="45.6252784" lon="9.4918673"><ele>216.00000000000003</ele><time>2026-04-09T13:50:20.551Z</time></trkpt><trkpt lat="45.6252463" lon="9.4919453"><ele>216.0</ele><time>2026-04-09T13:50:21.551Z</time></trkpt><trkpt lat="45.6251854" lon="9.4920931"><ele>216.0</ele><time>2026-04-09T13:50:23.551Z</time></trkpt><trkpt lat="45.6251231" lon="9.4922272"><ele>215.83333333333334</ele><time>2026-04-09T13:50:25.55Z</time></trkpt><trkpt lat="45.6250655" lon="9.4923687"><ele>215.66666666666669</ele><time>2026-04-09T13:50:27.55Z</time></trkpt><trkpt lat="45.625022" lon="9.4924973"><ele>215.5</ele><time>2026-04-09T13:50:29.551Z</time></trkpt><trkpt lat="45.6250071" lon="9.4926057"><ele>215.33333333333334</ele><time>2026-04-09T13:50:31.55Z</time></trkpt><trkpt lat="45.6250524" lon="9.4926724"><ele>215.16666666666669</ele><time>2026-04-09T13:50:33.551Z</time></trkpt><trkpt lat="45.6251111" lon="9.492734"><ele>215.0</ele><time>2026-04-09T13:50:35.551Z</time></trkpt><trkpt lat="45.6251905" lon="9.4928057"><ele>215.0</ele><time>2026-04-09T13:50:37.551Z</time></trkpt><trkpt lat="45.625278" lon="9.4928881"><ele>215.0</ele><time>2026-04-09T13:50:39.551Z</time></trkpt><trkpt lat="45.6253644" lon="9.4929705"><ele>215.0</ele><time>2026-04-09T13:50:41.55Z</time></trkpt><trkpt lat="45.6254531" lon="9.4930679"><ele>215.0</ele><time>2026-04-09T13:50:43.55Z</time></trkpt><trkpt lat="45.6255425" lon="9.4931458"><ele>215.0</ele><time>2026-04-09T13:50:45.55Z</time></trkpt><trkpt lat="45.6256325" lon="9.4932229"><ele>215.4</ele><time>2026-04-09T13:50:47.551Z</time></trkpt><trkpt lat="45.6257222" lon="9.4933073"><ele>215.8</ele><time>2026-04-09T13:50:49.551Z</time></trkpt><trkpt lat="45.6258103" lon="9.4934002"><ele>216.2</ele><time>2026-04-09T13:50:51.551Z</time></trkpt><trkpt lat="45.6258885" lon="9.4935188"><ele>216.6</ele><time>2026-04-09T13:50:53.551Z</time></trkpt><trkpt lat="45.6259633" lon="9.4936326"><ele>217.0</ele><time>2026-04-09T13:50:55.551Z</time></trkpt><trkpt lat="45.6260395" lon="9.4937308"><ele>217.0</ele><time>2026-04-09T13:50:57.55Z</time></trkpt><trkpt lat="45.6261215" lon="9.4938306"><ele>217.0</ele><time>2026-04-09T13:50:59.55Z</time></trkpt><trkpt lat="45.6262074" lon="9.4939288"><ele>217.0</ele><time>2026-04-09T13:51:01.551Z</time></trkpt><trkpt lat="45.6262896" lon="9.4940309"><ele>217.0</ele><time>2026-04-09T13:51:03.55Z</time></trkpt><trkpt lat="45.6263726" lon="9.4941339"><ele>217.0</ele><time>2026-04-09T13:51:05.55Z</time></trkpt><trkpt lat="45.6264592" lon="9.4942305"><ele>217.0</ele><time>2026-04-09T13:51:07.551Z</time></trkpt><trkpt lat="45.6265525" lon="9.4943284"><ele>217.0</ele><time>2026-04-09T13:51:09.551Z</time></trkpt><trkpt lat="45.6266383" lon="9.4944364"><ele>217.0</ele><time>2026-04-09T13:51:11.55Z</time></trkpt><trkpt lat="45.6267195" lon="9.4945564"><ele>217.0</ele><time>2026-04-09T13:51:13.55Z</time></trkpt><trkpt lat="45.6267835" lon="9.4946675"><ele>217.0</ele><time>2026-04-09T13:51:15.55Z</time></trkpt><trkpt lat="45.6268143" lon="9.494809"><ele>217.0</ele><time>2026-04-09T13:51:17.551Z</time></trkpt><trkpt lat="45.6267758" lon="9.4949565"><ele>217.0</ele><time>2026-04-09T13:51:19.55Z</time></trkpt><trkpt lat="45.6267225" lon="9.4951034"><ele>217.0</ele><time>2026-04-09T13:51:21.55Z</time></trkpt><trkpt lat="45.6266928" lon="9.495185"><ele>217.0</ele><time>2026-04-09T13:51:22.551Z</time></trkpt><trkpt lat="45.6266296" lon="9.4953199"><ele>217.0</ele><time>2026-04-09T13:51:24.551Z</time></trkpt><trkpt lat="45.6265731" lon="9.4954792"><ele>216.8</ele><time>2026-04-09T13:51:26.551Z</time></trkpt><trkpt lat="45.6265061" lon="9.4956306"><ele>216.6</ele><time>2026-04-09T13:51:28.55Z</time></trkpt><trkpt lat="45.6264725" lon="9.4957173"><ele>216.40000000000003</ele><time>2026-04-09T13:51:29.55Z</time></trkpt><trkpt lat="45.6264018" lon="9.4958562"><ele>216.20000000000002</ele><time>2026-04-09T13:51:31.55Z</time></trkpt><trkpt lat="45.6263351" lon="9.4959913"><ele>216.0</ele><time>2026-04-09T13:51:33.55Z</time></trkpt><trkpt lat="45.6262722" lon="9.4961377"><ele>216.0</ele><time>2026-04-09T13:51:35.55Z</time></trkpt><trkpt lat="45.6262129" lon="9.4962831"><ele>216.00000000000003</ele><time>2026-04-09T13:51:37.55Z</time></trkpt><trkpt lat="45.6261366" lon="9.4964207"><ele>216.00000000000003</ele><time>2026-04-09T13:51:39.55Z</time></trkpt><trkpt lat="45.6260606" lon="9.4965447"><ele>216.0</ele><time>2026-04-09T13:51:41.551Z</time></trkpt><trkpt lat="45.6260096" lon="9.4966003"><ele>216.0</ele><time>2026-04-09T13:51:42.551Z</time></trkpt><trkpt lat="45.625921" lon="9.4966944"><ele>216.0</ele><time>2026-04-09T13:51:44.551Z</time></trkpt><trkpt lat="45.6258303" lon="9.496797"><ele>216.0</ele><time>2026-04-09T13:51:46.55Z</time></trkpt><trkpt lat="45.62572" lon="9.4969607"><ele>216.0</ele><time>2026-04-09T13:51:49.548Z</time></trkpt><trkpt lat="45.6256365" lon="9.4970541"><ele>216.0</ele><time>2026-04-09T13:51:51.547Z</time></trkpt><trkpt lat="45.6255527" lon="9.497157"><ele>216.4</ele><time>2026-04-09T13:51:53.546Z</time></trkpt><trkpt lat="45.6254863" lon="9.4972509"><ele>216.8</ele><time>2026-04-09T13:51:55.547Z</time></trkpt><trkpt lat="45.6254141" lon="9.4973334"><ele>217.20000000000002</ele><time>2026-04-09T13:51:57.546Z</time></trkpt><trkpt lat="45.6253628" lon="9.4973874"><ele>217.60000000000002</ele><time>2026-04-09T13:51:58.547Z</time></trkpt><trkpt lat="45.6252888" lon="9.4974748"><ele>218.0</ele><time>2026-04-09T13:52:00.547Z</time></trkpt><trkpt lat="45.6252121" lon="9.4975894"><ele>218.0</ele><time>2026-04-09T13:52:02.547Z</time></trkpt><trkpt lat="45.6251426" lon="9.4976705"><ele>218.0</ele><time>2026-04-09T13:52:04.547Z</time></trkpt><trkpt lat="45.6250733" lon="9.4977869"><ele>218.0</ele><time>2026-04-09T13:52:06.546Z</time></trkpt><trkpt lat="45.6249994" lon="9.497877"><ele>218.0</ele><time>2026-04-09T13:52:08.547Z</time></trkpt><trkpt lat="45.6249542" lon="9.4979504"><ele>218.0</ele><time>2026-04-09T13:52:09.547Z</time></trkpt><trkpt lat="45.6248627" lon="9.4980712"><ele>218.2</ele><time>2026-04-09T13:52:11.546Z</time></trkpt><trkpt lat="45.6248025" lon="9.4981209"><ele>218.4</ele><time>2026-04-09T13:52:12.547Z</time></trkpt><trkpt lat="45.6247358" lon="9.4981888"><ele>218.59999999999997</ele><time>2026-04-09T13:52:13.547Z</time></trkpt><trkpt lat="45.6246409" lon="9.4983123"><ele>218.79999999999998</ele><time>2026-04-09T13:52:15.546Z</time></trkpt><trkpt lat="45.6245497" lon="9.4984411"><ele>219.0</ele><time>2026-04-09T13:52:17.546Z</time></trkpt><trkpt lat="45.6244765" lon="9.498553"><ele>218.39999999999998</ele><time>2026-04-09T13:52:19.546Z</time></trkpt><trkpt lat="45.6243844" lon="9.4986421"><ele>217.79999999999998</ele><time>2026-04-09T13:52:21.547Z</time></trkpt><trkpt lat="45.6242973" lon="9.4987465"><ele>217.20000000000002</ele><time>2026-04-09T13:52:23.546Z</time></trkpt><trkpt lat="45.6242233" lon="9.4988546"><ele>216.60000000000002</ele><time>2026-04-09T13:52:25.546Z</time></trkpt><trkpt lat="45.6241401" lon="9.4989731"><ele>216.0</ele><time>2026-04-09T13:52:27.547Z</time></trkpt><trkpt lat="45.6240622" lon="9.4990819"><ele>216.0</ele><time>2026-04-09T13:52:29.547Z</time></trkpt><trkpt lat="45.6239948" lon="9.4992228"><ele>216.00000000000003</ele><time>2026-04-09T13:52:31.547Z</time></trkpt><trkpt lat="45.6239487" lon="9.4992894"><ele>216.00000000000003</ele><time>2026-04-09T13:52:32.547Z</time></trkpt><trkpt lat="45.6238808" lon="9.4994122"><ele>216.0</ele><time>2026-04-09T13:52:34.547Z</time></trkpt><trkpt lat="45.6238215" lon="9.4995346"><ele>216.0</ele><time>2026-04-09T13:52:36.546Z</time></trkpt><trkpt lat="45.6237495" lon="9.4996553"><ele>216.0</ele><time>2026-04-09T13:52:38.547Z</time></trkpt><trkpt lat="45.6236641" lon="9.4997871"><ele>216.00000000000003</ele><time>2026-04-09T13:52:40.547Z</time></trkpt><trkpt lat="45.6235717" lon="9.4999026"><ele>216.00000000000003</ele><time>2026-04-09T13:52:42.547Z</time></trkpt><trkpt lat="45.6234863" lon="9.5000244"><ele>216.0</ele><time>2026-04-09T13:52:44.547Z</time></trkpt><trkpt lat="45.6234241" lon="9.5000841"><ele>216.0</ele><time>2026-04-09T13:52:45.547Z</time></trkpt><trkpt lat="45.623346" lon="9.5001874"><ele>216.0</ele><time>2026-04-09T13:52:47.546Z</time></trkpt><trkpt lat="45.6232633" lon="9.5002804"><ele>216.0</ele><time>2026-04-09T13:52:49.547Z</time></trkpt><trkpt lat="45.6232164" lon="9.5003664"><ele>216.0</ele><time>2026-04-09T13:52:51.546Z</time></trkpt><trkpt lat="45.6231677" lon="9.5004291"><ele>216.0</ele><time>2026-04-09T13:52:52.547Z</time></trkpt><trkpt lat="45.6231894" lon="9.5005729"><ele>216.0</ele><time>2026-04-09T13:52:54.546Z</time></trkpt><trkpt lat="45.6232068" lon="9.5006775"><ele>216.0</ele><time>2026-04-09T13:52:56.547Z</time></trkpt><trkpt lat="45.6232063" lon="9.5008185"><ele>216.0</ele><time>2026-04-09T13:52:58.547Z</time></trkpt><trkpt lat="45.6231852" lon="9.5009083"><ele>216.0</ele><time>2026-04-09T13:52:59.546Z</time></trkpt><trkpt lat="45.6231515" lon="9.5010509"><ele>216.0</ele><time>2026-04-09T13:53:01.546Z</time></trkpt><trkpt lat="45.6231011" lon="9.5011082"><ele>216.0</ele><time>2026-04-09T13:53:02.547Z</time></trkpt><trkpt lat="45.6230616" lon="9.5011793"><ele>216.0</ele><time>2026-04-09T13:53:03.546Z</time></trkpt><trkpt lat="45.6229736" lon="9.5012848"><ele>216.0</ele><time>2026-04-09T13:53:05.547Z</time></trkpt><trkpt lat="45.6229273" lon="9.5013581"><ele>215.66666666666666</ele><time>2026-04-09T13:53:06.547Z</time></trkpt><trkpt lat="45.6228798" lon="9.5014303"><ele>215.33333333333331</ele><time>2026-04-09T13:53:07.547Z</time></trkpt><trkpt lat="45.6228473" lon="9.5015114"><ele>215.0</ele><time>2026-04-09T13:53:08.547Z</time></trkpt><trkpt lat="45.6227873" lon="9.5016005"><ele>214.66666666666666</ele><time>2026-04-09T13:53:09.546Z</time></trkpt><trkpt lat="45.6227194" lon="9.5017336"><ele>214.33333333333331</ele><time>2026-04-09T13:53:11.546Z</time></trkpt><trkpt lat="45.6226544" lon="9.5017987"><ele>214.0</ele><time>2026-04-09T13:53:12.546Z</time></trkpt><trkpt lat="45.622601" lon="9.5018601"><ele>213.99999999999997</ele><time>2026-04-09T13:53:13.547Z</time></trkpt><trkpt lat="45.6225393" lon="9.5019132"><ele>214.0</ele><time>2026-04-09T13:53:14.546Z</time></trkpt><trkpt lat="45.6224898" lon="9.5019947"><ele>214.0</ele><time>2026-04-09T13:53:15.546Z</time></trkpt><trkpt lat="45.6224259" lon="9.5021289"><ele>214.0</ele><time>2026-04-09T13:53:17.547Z</time></trkpt><trkpt lat="45.6223876" lon="9.502214"><ele>213.99999999999997</ele><time>2026-04-09T13:53:18.547Z</time></trkpt><trkpt lat="45.6223393" lon="9.5022766"><ele>214.0</ele><time>2026-04-09T13:53:19.547Z</time></trkpt><trkpt lat="45.6222498" lon="9.5023615"><ele>213.83333333333331</ele><time>2026-04-09T13:53:21.546Z</time></trkpt><trkpt lat="45.6221855" lon="9.5024583"><ele>213.66666666666666</ele><time>2026-04-09T13:53:23.546Z</time></trkpt><trkpt lat="45.6222202" lon="9.5025483"><ele>213.5</ele><time>2026-04-09T13:53:25.546Z</time></trkpt><trkpt lat="45.622267" lon="9.5026405"><ele>213.33333333333331</ele><time>2026-04-09T13:53:27.546Z</time></trkpt><trkpt lat="45.6222646" lon="9.5027435"><ele>213.16666666666666</ele><time>2026-04-09T13:53:29.547Z</time></trkpt><trkpt lat="45.6222073" lon="9.5028468"><ele>213.0</ele><time>2026-04-09T13:53:31.546Z</time></trkpt><trkpt lat="45.6221335" lon="9.502964"><ele>212.99999999999997</ele><time>2026-04-09T13:53:33.547Z</time></trkpt><trkpt lat="45.6220874" lon="9.5030287"><ele>213.0</ele><time>2026-04-09T13:53:34.546Z</time></trkpt><trkpt lat="45.6220435" lon="9.5030988"><ele>213.0</ele><time>2026-04-09T13:53:35.547Z</time></trkpt><trkpt lat="45.6219992" lon="9.5031647"><ele>213.0</ele><time>2026-04-09T13:53:36.546Z</time></trkpt><trkpt lat="45.6219367" lon="9.5032897"><ele>213.0</ele><time>2026-04-09T13:53:38.546Z</time></trkpt><trkpt lat="45.6218938" lon="9.5033633"><ele>212.99999999999997</ele><time>2026-04-09T13:53:39.546Z</time></trkpt><trkpt lat="45.6218453" lon="9.5034287"><ele>213.0</ele><time>2026-04-09T13:53:40.546Z</time></trkpt><trkpt lat="45.6217972" lon="9.5034973"><ele>213.0</ele><time>2026-04-09T13:53:41.546Z</time></trkpt><trkpt lat="45.6217116" lon="9.5036355"><ele>213.0</ele><time>2026-04-09T13:53:43.546Z</time></trkpt><trkpt lat="45.6216585" lon="9.5036966"><ele>213.0</ele><time>2026-04-09T13:53:44.547Z</time></trkpt><trkpt lat="45.6216082" lon="9.5037674"><ele>213.0</ele><time>2026-04-09T13:53:45.547Z</time></trkpt><trkpt lat="45.6215583" lon="9.5038477"><ele>213.0</ele><time>2026-04-09T13:53:46.547Z</time></trkpt><trkpt lat="45.6215098" lon="9.5039227"><ele>213.0</ele><time>2026-04-09T13:53:47.547Z</time></trkpt><trkpt lat="45.6214204" lon="9.5040552"><ele>213.0</ele><time>2026-04-09T13:53:49.546Z</time></trkpt><trkpt lat="45.6213724" lon="9.5041223"><ele>213.0</ele><time>2026-04-09T13:53:50.546Z</time></trkpt><trkpt lat="45.6213171" lon="9.5041959"><ele>213.0</ele><time>2026-04-09T13:53:51.547Z</time></trkpt><trkpt lat="45.6212696" lon="9.5042668"><ele>213.0</ele><time>2026-04-09T13:53:52.547Z</time></trkpt><trkpt lat="45.6211908" lon="9.504393"><ele>213.0</ele><time>2026-04-09T13:53:54.547Z</time></trkpt><trkpt lat="45.6211465" lon="9.50447"><ele>213.0</ele><time>2026-04-09T13:53:55.547Z</time></trkpt><trkpt lat="45.6210632" lon="9.5046124"><ele>212.8</ele><time>2026-04-09T13:53:57.546Z</time></trkpt><trkpt lat="45.6210025" lon="9.5047423"><ele>212.60000000000002</ele><time>2026-04-09T13:53:59.547Z</time></trkpt><trkpt lat="45.6210297" lon="9.5048534"><ele>212.39999999999998</ele><time>2026-04-09T13:54:01.546Z</time></trkpt><trkpt lat="45.6210934" lon="9.5049515"><ele>212.2</ele><time>2026-04-09T13:54:03.546Z</time></trkpt><trkpt lat="45.6211428" lon="9.5050178"><ele>212.0</ele><time>2026-04-09T13:54:04.547Z</time></trkpt><trkpt lat="45.6212137" lon="9.5051315"><ele>212.0</ele><time>2026-04-09T13:54:06.547Z</time></trkpt><trkpt lat="45.6212581" lon="9.5051983"><ele>212.0</ele><time>2026-04-09T13:54:07.546Z</time></trkpt><trkpt lat="45.621342" lon="9.5053115"><ele>212.0</ele><time>2026-04-09T13:54:09.546Z</time></trkpt><trkpt lat="45.6214287" lon="9.5054306"><ele>212.0</ele><time>2026-04-09T13:54:11.547Z</time></trkpt><trkpt lat="45.6215021" lon="9.5055595"><ele>212.0</ele><time>2026-04-09T13:54:13.547Z</time></trkpt><trkpt lat="45.6214835" lon="9.5056583"><ele>212.0</ele><time>2026-04-09T13:54:15.547Z</time></trkpt><trkpt lat="45.621446" lon="9.5057531"><ele>212.0</ele><time>2026-04-09T13:54:17.546Z</time></trkpt><trkpt lat="45.6213962" lon="9.5058972"><ele>212.0</ele><time>2026-04-09T13:54:19.547Z</time></trkpt><trkpt lat="45.6213598" lon="9.5059709"><ele>212.0</ele><time>2026-04-09T13:54:20.547Z</time></trkpt><trkpt lat="45.6212531" lon="9.506092"><ele>212.0</ele><time>2026-04-09T13:54:22.547Z</time></trkpt><trkpt lat="45.6211988" lon="9.5061498"><ele>211.6</ele><time>2026-04-09T13:54:23.546Z</time></trkpt><trkpt lat="45.6211084" lon="9.5062468"><ele>211.2</ele><time>2026-04-09T13:54:25.547Z</time></trkpt><trkpt lat="45.6210355" lon="9.5063245"><ele>210.8</ele><time>2026-04-09T13:54:26.546Z</time></trkpt><trkpt lat="45.6209461" lon="9.5064153"><ele>210.4</ele><time>2026-04-09T13:54:28.546Z</time></trkpt><trkpt lat="45.6208565" lon="9.5064842"><ele>210.0</ele><time>2026-04-09T13:54:30.546Z</time></trkpt><trkpt lat="45.6207717" lon="9.506564"><ele>210.0</ele><time>2026-04-09T13:54:32.547Z</time></trkpt><trkpt lat="45.6206612" lon="9.5066516"><ele>210.0</ele><time>2026-04-09T13:54:34.547Z</time></trkpt><trkpt lat="45.620533" lon="9.5067018"><ele>210.0</ele><time>2026-04-09T13:54:36.547Z</time></trkpt><trkpt lat="45.6204678" lon="9.5067378"><ele>210.0</ele><time>2026-04-09T13:54:37.547Z</time></trkpt><trkpt lat="45.6203849" lon="9.5068171"><ele>210.0</ele><time>2026-04-09T13:54:39.547Z</time></trkpt><trkpt lat="45.6202855" lon="9.5068586"><ele>209.85714285714286</ele><time>2026-04-09T13:54:40.547Z</time></trkpt><trkpt lat="45.6202312" lon="9.5069104"><ele>209.71428571428572</ele><time>2026-04-09T13:54:41.546Z</time></trkpt><trkpt lat="45.6201677" lon="9.5069413"><ele>209.57142857142856</ele><time>2026-04-09T13:54:42.547Z</time></trkpt><trkpt lat="45.6201047" lon="9.5069673"><ele>209.42857142857144</ele><time>2026-04-09T13:54:43.546Z</time></trkpt><trkpt lat="45.6200412" lon="9.5070134"><ele>209.28571428571428</ele><time>2026-04-09T13:54:44.546Z</time></trkpt><trkpt lat="45.619979" lon="9.5070594"><ele>209.14285714285714</ele><time>2026-04-09T13:54:45.547Z</time></trkpt><trkpt lat="45.6199173" lon="9.5071295"><ele>209.0</ele><time>2026-04-09T13:54:46.547Z</time></trkpt><trkpt lat="45.619847" lon="9.5071778"><ele>209.00000000000003</ele><time>2026-04-09T13:54:47.547Z</time></trkpt><trkpt lat="45.6197801" lon="9.507214"><ele>209.0</ele><time>2026-04-09T13:54:48.547Z</time></trkpt><trkpt lat="45.6196844" lon="9.5072799"><ele>209.0</ele><time>2026-04-09T13:54:49.547Z</time></trkpt><trkpt lat="45.6196001" lon="9.5073373"><ele>209.0</ele><time>2026-04-09T13:54:50.547Z</time></trkpt><trkpt lat="45.6195138" lon="9.5073891"><ele>209.00000000000003</ele><time>2026-04-09T13:54:51.547Z</time></trkpt><trkpt lat="45.6194405" lon="9.5074152"><ele>209.0</ele><time>2026-04-09T13:54:52.547Z</time></trkpt><trkpt lat="45.6193851" lon="9.5074605"><ele>208.79999999999998</ele><time>2026-04-09T13:54:53.547Z</time></trkpt><trkpt lat="45.6193021" lon="9.5075128"><ele>208.6</ele><time>2026-04-09T13:54:54.547Z</time></trkpt><trkpt lat="45.6192296" lon="9.50757"><ele>208.4</ele><time>2026-04-09T13:54:55.546Z</time></trkpt><trkpt lat="45.6191412" lon="9.5076264"><ele>208.2</ele><time>2026-04-09T13:54:56.546Z</time></trkpt><trkpt lat="45.6190471" lon="9.5077131"><ele>208.0</ele><time>2026-04-09T13:54:58.546Z</time></trkpt><trkpt lat="45.6189933" lon="9.5078075"><ele>207.99999999999997</ele><time>2026-04-09T13:55:00.547Z</time></trkpt><trkpt lat="45.6189065" lon="9.5078845"><ele>208.0</ele><time>2026-04-09T13:55:01.546Z</time></trkpt><trkpt lat="45.6188551" lon="9.5079608"><ele>208.0</ele><time>2026-04-09T13:55:02.547Z</time></trkpt><trkpt lat="45.6188121" lon="9.5080533"><ele>208.0</ele><time>2026-04-09T13:55:03.547Z</time></trkpt><trkpt lat="45.6187516" lon="9.5081374"><ele>207.99999999999997</ele><time>2026-04-09T13:55:04.546Z</time></trkpt><trkpt lat="45.6186744" lon="9.5082187"><ele>208.0</ele><time>2026-04-09T13:55:05.547Z</time></trkpt><trkpt lat="45.6186093" lon="9.5082909"><ele>207.49999999999997</ele><time>2026-04-09T13:55:06.546Z</time></trkpt><trkpt lat="45.6185458" lon="9.5083511"><ele>207.0</ele><time>2026-04-09T13:55:07.546Z</time></trkpt><trkpt lat="45.6184796" lon="9.5084296"><ele>206.5</ele><time>2026-04-09T13:55:08.547Z</time></trkpt><trkpt lat="45.6184151" lon="9.5085116"><ele>206.0</ele><time>2026-04-09T13:55:09.546Z</time></trkpt><trkpt lat="45.6183492" lon="9.5086015"><ele>205.49999999999997</ele><time>2026-04-09T13:55:10.547Z</time></trkpt><trkpt lat="45.6182675" lon="9.5086785"><ele>205.0</ele><time>2026-04-09T13:55:11.547Z</time></trkpt><trkpt lat="45.6182155" lon="9.508737"><ele>204.71428571428572</ele><time>2026-04-09T13:55:12.547Z</time></trkpt><trkpt lat="45.6181673" lon="9.5088044"><ele>204.42857142857142</ele><time>2026-04-09T13:55:13.547Z</time></trkpt><trkpt lat="45.6181181" lon="9.508884"><ele>204.14285714285714</ele><time>2026-04-09T13:55:14.547Z</time></trkpt><trkpt lat="45.6180578" lon="9.5089594"><ele>203.85714285714286</ele><time>2026-04-09T13:55:15.546Z</time></trkpt><trkpt lat="45.6180016" lon="9.5090218"><ele>203.57142857142856</ele><time>2026-04-09T13:55:16.547Z</time></trkpt><trkpt lat="45.6179465" lon="9.5090876"><ele>203.28571428571428</ele><time>2026-04-09T13:55:17.546Z</time></trkpt><trkpt lat="45.6178873" lon="9.5091461"><ele>203.0</ele><time>2026-04-09T13:55:18.547Z</time></trkpt><trkpt lat="45.6177645" lon="9.5092518"><ele>203.00000000000003</ele><time>2026-04-09T13:55:20.547Z</time></trkpt><trkpt lat="45.6177019" lon="9.5093049"><ele>203.0</ele><time>2026-04-09T13:55:21.546Z</time></trkpt><trkpt lat="45.6176281" lon="9.5093752"><ele>203.0</ele><time>2026-04-09T13:55:22.546Z</time></trkpt><trkpt lat="45.6175681" lon="9.5094288"><ele>203.0</ele><time>2026-04-09T13:55:23.546Z</time></trkpt><trkpt lat="45.6175154" lon="9.5094884"><ele>203.00000000000003</ele><time>2026-04-09T13:55:24.547Z</time></trkpt><trkpt lat="45.6174468" lon="9.509543"><ele>203.0</ele><time>2026-04-09T13:55:25.547Z</time></trkpt><trkpt lat="45.6173713" lon="9.5096058"><ele>202.50000000000003</ele><time>2026-04-09T13:55:26.547Z</time></trkpt><trkpt lat="45.6172916" lon="9.5096687"><ele>202.0</ele><time>2026-04-09T13:55:27.547Z</time></trkpt><trkpt lat="45.6172298" lon="9.5097288"><ele>201.5</ele><time>2026-04-09T13:55:28.547Z</time></trkpt><trkpt lat="45.6171722" lon="9.5097996"><ele>201.0</ele><time>2026-04-09T13:55:29.547Z</time></trkpt><trkpt lat="45.6170797" lon="9.5098579"><ele>200.50000000000003</ele><time>2026-04-09T13:55:30.546Z</time></trkpt><trkpt lat="45.6170229" lon="9.5099004"><ele>200.0</ele><time>2026-04-09T13:55:31.546Z</time></trkpt><trkpt lat="45.6169521" lon="9.5099679"><ele>200.00000000000003</ele><time>2026-04-09T13:55:32.547Z</time></trkpt><trkpt lat="45.6168729" lon="9.510032"><ele>200.0</ele><time>2026-04-09T13:55:33.547Z</time></trkpt><trkpt lat="45.6168094" lon="9.5100512"><ele>200.0</ele><time>2026-04-09T13:55:34.547Z</time></trkpt><trkpt lat="45.6167392" lon="9.5100904"><ele>200.0</ele><time>2026-04-09T13:55:35.547Z</time></trkpt><trkpt lat="45.6166616" lon="9.5101338"><ele>200.00000000000003</ele><time>2026-04-09T13:55:36.547Z</time></trkpt><trkpt lat="45.6165761" lon="9.5101779"><ele>200.0</ele><time>2026-04-09T13:55:37.546Z</time></trkpt><trkpt lat="45.6164909" lon="9.510208"><ele>200.00000000000003</ele><time>2026-04-09T13:55:38.547Z</time></trkpt><trkpt lat="45.6163993" lon="9.5102334"><ele>200.0</ele><time>2026-04-09T13:55:39.546Z</time></trkpt><trkpt lat="45.6163225" lon="9.5102517"><ele>200.0</ele><time>2026-04-09T13:55:40.546Z</time></trkpt><trkpt lat="45.6162452" lon="9.510263"><ele>200.0</ele><time>2026-04-09T13:55:41.547Z</time></trkpt><trkpt lat="45.6161689" lon="9.5102933"><ele>200.00000000000003</ele><time>2026-04-09T13:55:42.547Z</time></trkpt><trkpt lat="45.6160956" lon="9.5103372"><ele>200.0</ele><time>2026-04-09T13:55:43.546Z</time></trkpt><trkpt lat="45.6160118" lon="9.5103742"><ele>199.00000000000003</ele><time>2026-04-09T13:55:44.547Z</time></trkpt><trkpt lat="45.6159537" lon="9.5104698"><ele>198.0</ele><time>2026-04-09T13:55:45.547Z</time></trkpt><trkpt lat="45.6159206" lon="9.5105589"><ele>197.0</ele><time>2026-04-09T13:55:46.546Z</time></trkpt><trkpt lat="45.6158926" lon="9.5106475"><ele>196.0</ele><time>2026-04-09T13:55:47.547Z</time></trkpt><trkpt lat="45.6158629" lon="9.5107374"><ele>195.0</ele><time>2026-04-09T13:55:48.547Z</time></trkpt><trkpt lat="45.6158352" lon="9.5108263"><ele>194.00000000000003</ele><time>2026-04-09T13:55:49.546Z</time></trkpt><trkpt lat="45.6158005" lon="9.5109165"><ele>193.0</ele><time>2026-04-09T13:55:50.547Z</time></trkpt><trkpt lat="45.6157107" lon="9.5110685"><ele>193.0</ele><time>2026-04-09T13:55:52.546Z</time></trkpt><trkpt lat="45.6156534" lon="9.5111611"><ele>193.0</ele><time>2026-04-09T13:55:53.547Z</time></trkpt><trkpt lat="45.6155649" lon="9.5112779"><ele>193.0</ele><time>2026-04-09T13:55:55.547Z</time></trkpt><trkpt lat="45.6155061" lon="9.5113395"><ele>193.0</ele><time>2026-04-09T13:55:56.547Z</time></trkpt><trkpt lat="45.6154575" lon="9.5113999"><ele>193.0</ele><time>2026-04-09T13:55:57.547Z</time></trkpt><trkpt lat="45.6153869" lon="9.5115827"><ele>192.66666666666666</ele><time>2026-04-09T13:55:59.547Z</time></trkpt><trkpt lat="45.6153498" lon="9.5116717"><ele>192.33333333333331</ele><time>2026-04-09T13:56:00.546Z</time></trkpt><trkpt lat="45.6153176" lon="9.5117861"><ele>192.0</ele><time>2026-04-09T13:56:01.547Z</time></trkpt><trkpt lat="45.6152912" lon="9.5118958"><ele>191.66666666666666</ele><time>2026-04-09T13:56:02.547Z</time></trkpt><trkpt lat="45.6152934" lon="9.5120255"><ele>191.33333333333331</ele><time>2026-04-09T13:56:03.547Z</time></trkpt><trkpt lat="45.6152767" lon="9.5121336"><ele>191.0</ele><time>2026-04-09T13:56:04.547Z</time></trkpt><trkpt lat="45.615259" lon="9.5122336"><ele>190.5</ele><time>2026-04-09T13:56:05.547Z</time></trkpt><trkpt lat="45.6152475" lon="9.5123463"><ele>190.0</ele><time>2026-04-09T13:56:06.547Z</time></trkpt><trkpt lat="45.6152358" lon="9.5124349"><ele>189.5</ele><time>2026-04-09T13:56:07.546Z</time></trkpt><trkpt lat="45.615216" lon="9.512561"><ele>189.0</ele><time>2026-04-09T13:56:08.547Z</time></trkpt><trkpt lat="45.6151878" lon="9.5127342"><ele>188.5</ele><time>2026-04-09T13:56:10.547Z</time></trkpt><trkpt lat="45.615177" lon="9.5128343"><ele>188.0</ele><time>2026-04-09T13:56:11.546Z</time></trkpt><trkpt lat="45.6151638" lon="9.5129419"><ele>188.0</ele><time>2026-04-09T13:56:12.547Z</time></trkpt><trkpt lat="45.6151428" lon="9.5130438"><ele>188.0</ele><time>2026-04-09T13:56:13.547Z</time></trkpt><trkpt lat="45.6151327" lon="9.5131748"><ele>188.0</ele><time>2026-04-09T13:56:14.546Z</time></trkpt><trkpt lat="45.6151279" lon="9.5132838"><ele>188.0</ele><time>2026-04-09T13:56:15.547Z</time></trkpt><trkpt lat="45.6150992" lon="9.5133793"><ele>188.0</ele><time>2026-04-09T13:56:16.547Z</time></trkpt><trkpt lat="45.6150807" lon="9.51348"><ele>188.0</ele><time>2026-04-09T13:56:17.547Z</time></trkpt><trkpt lat="45.6150505" lon="9.5135787"><ele>188.0</ele><time>2026-04-09T13:56:18.547Z</time></trkpt><trkpt lat="45.6150258" lon="9.5136916"><ele>188.0</ele><time>2026-04-09T13:56:19.547Z</time></trkpt><trkpt lat="45.6150002" lon="9.5138617"><ele>188.0</ele><time>2026-04-09T13:56:21.547Z</time></trkpt><trkpt lat="45.6149888" lon="9.5139633"><ele>188.0</ele><time>2026-04-09T13:56:22.546Z</time></trkpt><trkpt lat="45.614944" lon="9.514132"><ele>188.0</ele><time>2026-04-09T13:56:24.547Z</time></trkpt><trkpt lat="45.6149252" lon="9.5142229"><ele>187.33333333333331</ele><time>2026-04-09T13:56:25.547Z</time></trkpt><trkpt lat="45.6149039" lon="9.5143148"><ele>186.66666666666666</ele><time>2026-04-09T13:56:26.546Z</time></trkpt><trkpt lat="45.614872" lon="9.5144222"><ele>186.0</ele><time>2026-04-09T13:56:27.546Z</time></trkpt><trkpt lat="45.6148071" lon="9.5145945"><ele>185.33333333333334</ele><time>2026-04-09T13:56:29.547Z</time></trkpt><trkpt lat="45.6147596" lon="9.5146706"><ele>184.66666666666669</ele><time>2026-04-09T13:56:30.547Z</time></trkpt><trkpt lat="45.6147077" lon="9.5147697"><ele>184.0</ele><time>2026-04-09T13:56:31.547Z</time></trkpt><trkpt lat="45.6146532" lon="9.5148304"><ele>184.6</ele><time>2026-04-09T13:56:32.547Z</time></trkpt><trkpt lat="45.6145577" lon="9.5149377"><ele>185.2</ele><time>2026-04-09T13:56:34.546Z</time></trkpt><trkpt lat="45.6144887" lon="9.5150143"><ele>185.79999999999998</ele><time>2026-04-09T13:56:36.546Z</time></trkpt><trkpt lat="45.6144073" lon="9.5150459"><ele>186.39999999999998</ele><time>2026-04-09T13:56:39.546Z</time></trkpt><trkpt lat="45.6143599" lon="9.5151065"><ele>187.0</ele><time>2026-04-09T13:56:42.547Z</time></trkpt><trkpt lat="45.6145014" lon="9.5151198"><ele>184.2</ele><time>2026-04-09T13:56:46.546Z</time></trkpt><trkpt lat="45.6146086" lon="9.5150751"><ele>181.39999999999998</ele><time>2026-04-09T13:56:48.547Z</time></trkpt><trkpt lat="45.6147099" lon="9.5150053"><ele>178.60000000000002</ele><time>2026-04-09T13:56:50.547Z</time></trkpt><trkpt lat="45.6147925" lon="9.5148841"><ele>175.8</ele><time>2026-04-09T13:56:52.547Z</time></trkpt><trkpt lat="45.6148503" lon="9.5148143"><ele>173.0</ele><time>2026-04-09T13:56:53.547Z</time></trkpt><trkpt lat="45.6148832" lon="9.514729"><ele>173.0</ele><time>2026-04-09T13:56:54.546Z</time></trkpt><trkpt lat="45.6149365" lon="9.5146503"><ele>173.0</ele><time>2026-04-09T13:56:55.547Z</time></trkpt><trkpt lat="45.6149784" lon="9.5145606"><ele>173.0</ele><time>2026-04-09T13:56:56.547Z</time></trkpt><trkpt lat="45.6150098" lon="9.5144714"><ele>173.0</ele><time>2026-04-09T13:56:57.546Z</time></trkpt><trkpt lat="45.6150251" lon="9.5143747"><ele>173.0</ele><time>2026-04-09T13:56:58.546Z</time></trkpt><trkpt lat="45.6150326" lon="9.5142361"><ele>173.0</ele><time>2026-04-09T13:56:59.547Z</time></trkpt><trkpt lat="45.6150759" lon="9.5140136"><ele>175.2</ele><time>2026-04-09T13:57:01.942Z</time></trkpt><trkpt lat="45.6151379" lon="9.5137996"><ele>177.4</ele><time>2026-04-09T13:57:03.545Z</time></trkpt><trkpt lat="45.6151708" lon="9.5137011"><ele>179.6</ele><time>2026-04-09T13:57:04.542Z</time></trkpt><trkpt lat="45.6152021" lon="9.5135674"><ele>181.79999999999998</ele><time>2026-04-09T13:57:05.545Z</time></trkpt><trkpt lat="45.615232" lon="9.5134717"><ele>184.0</ele><time>2026-04-09T13:57:06.545Z</time></trkpt><trkpt lat="45.6152746" lon="9.5133951"><ele>184.0</ele><time>2026-04-09T13:57:07.543Z</time></trkpt><trkpt lat="45.6153367" lon="9.5133327"><ele>184.0</ele><time>2026-04-09T13:57:10.543Z</time></trkpt><trkpt lat="45.6153015" lon="9.5134194"><ele>184.0</ele><time>2026-04-09T13:57:12.544Z</time></trkpt><trkpt lat="45.6152958" lon="9.5135796"><ele>184.0</ele><time>2026-04-09T13:57:14.543Z</time></trkpt><trkpt lat="45.6152841" lon="9.5137392"><ele>184.0</ele><time>2026-04-09T13:57:16.544Z</time></trkpt><trkpt lat="45.6152661" lon="9.5138358"><ele>184.0</ele><time>2026-04-09T13:57:18.543Z</time></trkpt><trkpt lat="45.6152695" lon="9.5140049"><ele>184.0</ele><time>2026-04-09T13:57:20.543Z</time></trkpt><trkpt lat="45.6152667" lon="9.5141032"><ele>184.0</ele><time>2026-04-09T13:57:21.543Z</time></trkpt><trkpt lat="45.6152518" lon="9.5142149"><ele>184.0</ele><time>2026-04-09T13:57:22.544Z</time></trkpt><trkpt lat="45.6152482" lon="9.5143225"><ele>184.0</ele><time>2026-04-09T13:57:23.544Z</time></trkpt><trkpt lat="45.6152479" lon="9.5144464"><ele>184.0</ele><time>2026-04-09T13:57:25.544Z</time></trkpt><trkpt lat="45.615224" lon="9.5145324"><ele>184.0</ele><time>2026-04-09T13:57:27.544Z</time></trkpt><trkpt lat="45.6152131" lon="9.5146642"><ele>181.79999999999998</ele><time>2026-04-09T13:57:29.543Z</time></trkpt><trkpt lat="45.615225" lon="9.5147974"><ele>179.6</ele><time>2026-04-09T13:57:31.543Z</time></trkpt><trkpt lat="45.6152044" lon="9.5149516"><ele>177.4</ele><time>2026-04-09T13:57:33.543Z</time></trkpt><trkpt lat="45.6151911" lon="9.5150554"><ele>175.2</ele><time>2026-04-09T13:57:34.543Z</time></trkpt><trkpt lat="45.6151907" lon="9.5152254"><ele>173.0</ele><time>2026-04-09T13:57:36.543Z</time></trkpt><trkpt lat="45.6151862" lon="9.5153896"><ele>170.5</ele><time>2026-04-09T13:57:38.544Z</time></trkpt><trkpt lat="45.6151745" lon="9.5154822"><ele>168.0</ele><time>2026-04-09T13:57:39.543Z</time></trkpt><trkpt lat="45.6151548" lon="9.5156611"><ele>165.5</ele><time>2026-04-09T13:57:41.544Z</time></trkpt><trkpt lat="45.6151515" lon="9.5157528"><ele>163.0</ele><time>2026-04-09T13:57:42.544Z</time></trkpt><trkpt lat="45.6151783" lon="9.5158713"><ele>160.5</ele><time>2026-04-09T13:57:45.543Z</time></trkpt><trkpt lat="45.6152441" lon="9.5158868"><ele>158.0</ele><time>2026-04-09T13:57:47.544Z</time></trkpt><trkpt lat="45.6153306" lon="9.5158899"><ele>157.66666666666666</ele><time>2026-04-09T13:57:50.544Z</time></trkpt><trkpt lat="45.6154074" lon="9.5159124"><ele>157.33333333333331</ele><time>2026-04-09T13:57:52.544Z</time></trkpt><trkpt lat="45.6154841" lon="9.5159209"><ele>157.0</ele><time>2026-04-09T13:57:54.544Z</time></trkpt><trkpt lat="45.615578" lon="9.5159459"><ele>156.66666666666666</ele><time>2026-04-09T13:57:57.543Z</time></trkpt><trkpt lat="45.6156333" lon="9.5160417"><ele>156.33333333333334</ele><time>2026-04-09T13:57:58.544Z</time></trkpt><trkpt lat="45.6156942" lon="9.5160743"><ele>156.0</ele><time>2026-04-09T13:57:59.544Z</time></trkpt><trkpt lat="45.6157632" lon="9.516099"><ele>156.0</ele><time>2026-04-09T13:58:00.543Z</time></trkpt><trkpt lat="45.615851" lon="9.5161252"><ele>156.0</ele><time>2026-04-09T13:58:01.544Z</time></trkpt><trkpt lat="45.6159203" lon="9.5161466"><ele>156.0</ele><time>2026-04-09T13:58:02.543Z</time></trkpt><trkpt lat="45.6160363" lon="9.5161981"><ele>156.0</ele><time>2026-04-09T13:58:04.544Z</time></trkpt><trkpt lat="45.6161226" lon="9.5162334"><ele>156.0</ele><time>2026-04-09T13:58:05.544Z</time></trkpt><trkpt lat="45.6161864" lon="9.5162587"><ele>156.0</ele><time>2026-04-09T13:58:06.543Z</time></trkpt><trkpt lat="45.6162524" lon="9.5162626"><ele>155.2</ele><time>2026-04-09T13:58:07.544Z</time></trkpt><trkpt lat="45.6163482" lon="9.5162959"><ele>154.39999999999998</ele><time>2026-04-09T13:58:09.543Z</time></trkpt><trkpt lat="45.6164817" lon="9.5163015"><ele>153.6</ele><time>2026-04-09T13:58:11.544Z</time></trkpt><trkpt lat="45.6165943" lon="9.5163174"><ele>152.79999999999998</ele><time>2026-04-09T13:58:13.544Z</time></trkpt><trkpt lat="45.6166579" lon="9.5163226"><ele>152.0</ele><time>2026-04-09T13:58:14.543Z</time></trkpt><trkpt lat="45.6167842" lon="9.5163539"><ele>152.0</ele><time>2026-04-09T13:58:16.544Z</time></trkpt><trkpt lat="45.6169077" lon="9.5163845"><ele>152.0</ele><time>2026-04-09T13:58:18.543Z</time></trkpt><trkpt lat="45.61706" lon="9.5163979"><ele>152.0</ele><time>2026-04-09T13:58:20.543Z</time></trkpt><trkpt lat="45.6171793" lon="9.5164235"><ele>152.0</ele><time>2026-04-09T13:58:22.544Z</time></trkpt><trkpt lat="45.6172474" lon="9.5164471"><ele>152.2</ele><time>2026-04-09T13:58:23.543Z</time></trkpt><trkpt lat="45.6173622" lon="9.5165094"><ele>152.39999999999998</ele><time>2026-04-09T13:58:25.543Z</time></trkpt><trkpt lat="45.6174245" lon="9.5165473"><ele>152.60000000000002</ele><time>2026-04-09T13:58:26.544Z</time></trkpt><trkpt lat="45.6175318" lon="9.5166038"><ele>152.8</ele><time>2026-04-09T13:58:28.544Z</time></trkpt><trkpt lat="45.6175967" lon="9.5166089"><ele>153.0</ele><time>2026-04-09T13:58:29.544Z</time></trkpt><trkpt lat="45.6176723" lon="9.5166502"><ele>153.0</ele><time>2026-04-09T13:58:30.544Z</time></trkpt><trkpt lat="45.6177489" lon="9.5166859"><ele>153.0</ele><time>2026-04-09T13:58:31.543Z</time></trkpt><trkpt lat="45.6178238" lon="9.5167215"><ele>153.0</ele><time>2026-04-09T13:58:32.543Z</time></trkpt><trkpt lat="45.6178969" lon="9.5167307"><ele>153.0</ele><time>2026-04-09T13:58:33.544Z</time></trkpt><trkpt lat="45.6179698" lon="9.5167642"><ele>153.0</ele><time>2026-04-09T13:58:34.544Z</time></trkpt><trkpt lat="45.6180939" lon="9.5168071"><ele>153.0</ele><time>2026-04-09T13:58:36.543Z</time></trkpt><trkpt lat="45.6181582" lon="9.5168404"><ele>153.0</ele><time>2026-04-09T13:58:37.543Z</time></trkpt><trkpt lat="45.6182729" lon="9.5168596"><ele>153.0</ele><time>2026-04-09T13:58:39.543Z</time></trkpt><trkpt lat="45.6183684" lon="9.516902"><ele>153.0</ele><time>2026-04-09T13:58:40.543Z</time></trkpt><trkpt lat="45.6184984" lon="9.5169377"><ele>153.0</ele><time>2026-04-09T13:58:42.544Z</time></trkpt><trkpt lat="45.6185572" lon="9.5169749"><ele>153.0</ele><time>2026-04-09T13:58:43.544Z</time></trkpt><trkpt lat="45.6186664" lon="9.5170288"><ele>153.33333333333334</ele><time>2026-04-09T13:58:45.544Z</time></trkpt><trkpt lat="45.6187333" lon="9.5170638"><ele>153.66666666666666</ele><time>2026-04-09T13:58:46.544Z</time></trkpt><trkpt lat="45.6187943" lon="9.5170965"><ele>154.0</ele><time>2026-04-09T13:58:47.543Z</time></trkpt><trkpt lat="45.6188539" lon="9.5171423"><ele>154.33333333333331</ele><time>2026-04-09T13:58:48.544Z</time></trkpt><trkpt lat="45.6189634" lon="9.5171982"><ele>154.66666666666666</ele><time>2026-04-09T13:58:50.544Z</time></trkpt><trkpt lat="45.61903" lon="9.5171925"><ele>155.0</ele><time>2026-04-09T13:58:51.544Z</time></trkpt><trkpt lat="45.6191516" lon="9.5172442"><ele>154.71428571428572</ele><time>2026-04-09T13:58:53.543Z</time></trkpt><trkpt lat="45.6192238" lon="9.5172404"><ele>154.42857142857142</ele><time>2026-04-09T13:58:54.544Z</time></trkpt><trkpt lat="45.6192928" lon="9.5172538"><ele>154.14285714285714</ele><time>2026-04-09T13:58:55.543Z</time></trkpt><trkpt lat="45.6193655" lon="9.5172616"><ele>153.85714285714286</ele><time>2026-04-09T13:58:56.544Z</time></trkpt><trkpt lat="45.6194319" lon="9.5172596"><ele>153.57142857142858</ele><time>2026-04-09T13:58:57.543Z</time></trkpt><trkpt lat="45.6195067" lon="9.517252"><ele>153.28571428571428</ele><time>2026-04-09T13:58:58.544Z</time></trkpt><trkpt lat="45.6195827" lon="9.5172774"><ele>153.0</ele><time>2026-04-09T13:58:59.544Z</time></trkpt><trkpt lat="45.6196504" lon="9.5172814"><ele>153.0</ele><time>2026-04-09T13:59:00.544Z</time></trkpt><trkpt lat="45.6197199" lon="9.5172932"><ele>153.0</ele><time>2026-04-09T13:59:01.543Z</time></trkpt><trkpt lat="45.6197823" lon="9.5173156"><ele>153.0</ele><time>2026-04-09T13:59:02.544Z</time></trkpt><trkpt lat="45.6198437" lon="9.5173463"><ele>153.0</ele><time>2026-04-09T13:59:03.544Z</time></trkpt><trkpt lat="45.6199256" lon="9.5173625"><ele>153.0</ele><time>2026-04-09T13:59:04.544Z</time></trkpt><trkpt lat="45.6200449" lon="9.5173802"><ele>153.0</ele><time>2026-04-09T13:59:06.543Z</time></trkpt><trkpt lat="45.620125" lon="9.5174101"><ele>153.0</ele><time>2026-04-09T13:59:07.544Z</time></trkpt><trkpt lat="45.6202487" lon="9.5174199"><ele>153.0</ele><time>2026-04-09T13:59:09.543Z</time></trkpt><trkpt lat="45.6203701" lon="9.5174316"><ele>153.0</ele><time>2026-04-09T13:59:11.544Z</time></trkpt><trkpt lat="45.6204517" lon="9.5174439"><ele>153.0</ele><time>2026-04-09T13:59:12.544Z</time></trkpt><trkpt lat="45.6205634" lon="9.5174628"><ele>153.0</ele><time>2026-04-09T13:59:14.544Z</time></trkpt><trkpt lat="45.6206445" lon="9.5174958"><ele>153.20000000000002</ele><time>2026-04-09T13:59:15.543Z</time></trkpt><trkpt lat="45.6207753" lon="9.5175529"><ele>153.4</ele><time>2026-04-09T13:59:17.544Z</time></trkpt><trkpt lat="45.6208931" lon="9.5175982"><ele>153.60000000000002</ele><time>2026-04-09T13:59:19.544Z</time></trkpt><trkpt lat="45.6209612" lon="9.5176051"><ele>153.8</ele><time>2026-04-09T13:59:20.544Z</time></trkpt><trkpt lat="45.6210395" lon="9.517599"><ele>154.0</ele><time>2026-04-09T13:59:21.544Z</time></trkpt><trkpt lat="45.6211573" lon="9.5176285"><ele>153.4</ele><time>2026-04-09T13:59:23.544Z</time></trkpt><trkpt lat="45.6212261" lon="9.5176428"><ele>152.8</ele><time>2026-04-09T13:59:24.544Z</time></trkpt><trkpt lat="45.6213065" lon="9.5176309"><ele>152.2</ele><time>2026-04-09T13:59:25.544Z</time></trkpt><trkpt lat="45.6214495" lon="9.5176008"><ele>151.6</ele><time>2026-04-09T13:59:27.543Z</time></trkpt><trkpt lat="45.6215375" lon="9.5175744"><ele>151.0</ele><time>2026-04-09T13:59:28.544Z</time></trkpt><trkpt lat="45.6216487" lon="9.5175449"><ele>151.0</ele><time>2026-04-09T13:59:30.543Z</time></trkpt><trkpt lat="45.6217789" lon="9.5175032"><ele>151.0</ele><time>2026-04-09T13:59:32.543Z</time></trkpt><trkpt lat="45.6218908" lon="9.5174547"><ele>151.0</ele><time>2026-04-09T13:59:34.544Z</time></trkpt><trkpt lat="45.6220151" lon="9.5174008"><ele>151.0</ele><time>2026-04-09T13:59:36.544Z</time></trkpt><trkpt lat="45.6220957" lon="9.5173796"><ele>150.66666666666669</ele><time>2026-04-09T13:59:37.543Z</time></trkpt><trkpt lat="45.6222116" lon="9.5173338"><ele>150.33333333333334</ele><time>2026-04-09T13:59:39.544Z</time></trkpt><trkpt lat="45.6222745" lon="9.5173057"><ele>150.0</ele><time>2026-04-09T13:59:40.543Z</time></trkpt><trkpt lat="45.6223393" lon="9.5172667"><ele>149.66666666666666</ele><time>2026-04-09T13:59:41.544Z</time></trkpt><trkpt lat="45.6224141" lon="9.5172387"><ele>149.33333333333331</ele><time>2026-04-09T13:59:42.544Z</time></trkpt><trkpt lat="45.6224854" lon="9.5172055"><ele>149.0</ele><time>2026-04-09T13:59:43.543Z</time></trkpt><trkpt lat="45.6225838" lon="9.5171508"><ele>149.0</ele><time>2026-04-09T13:59:45.544Z</time></trkpt><trkpt lat="45.6226526" lon="9.5171472"><ele>149.0</ele><time>2026-04-09T13:59:46.543Z</time></trkpt><trkpt lat="45.6227319" lon="9.5171312"><ele>149.0</ele><time>2026-04-09T13:59:47.544Z</time></trkpt><trkpt lat="45.6228366" lon="9.5171044"><ele>149.0</ele><time>2026-04-09T13:59:49.544Z</time></trkpt><trkpt lat="45.6229113" lon="9.5170873"><ele>149.0</ele><time>2026-04-09T13:59:50.543Z</time></trkpt><trkpt lat="45.6229753" lon="9.5170595"><ele>149.0</ele><time>2026-04-09T13:59:51.544Z</time></trkpt><trkpt lat="45.6230357" lon="9.5170234"><ele>149.42857142857142</ele><time>2026-04-09T13:59:52.543Z</time></trkpt><trkpt lat="45.623092" lon="9.5169809"><ele>149.85714285714283</ele><time>2026-04-09T13:59:53.544Z</time></trkpt><trkpt lat="45.623157" lon="9.5169461"><ele>150.28571428571428</ele><time>2026-04-09T13:59:54.544Z</time></trkpt><trkpt lat="45.6232108" lon="9.5168917"><ele>150.71428571428572</ele><time>2026-04-09T13:59:55.544Z</time></trkpt><trkpt lat="45.6232681" lon="9.516839"><ele>151.14285714285717</ele><time>2026-04-09T13:59:56.544Z</time></trkpt><trkpt lat="45.623329" lon="9.5167858"><ele>151.57142857142856</ele><time>2026-04-09T13:59:57.543Z</time></trkpt><trkpt lat="45.6233902" lon="9.5167439"><ele>152.0</ele><time>2026-04-09T13:59:58.544Z</time></trkpt><trkpt lat="45.623447" lon="9.5166972"><ele>152.0</ele><time>2026-04-09T13:59:59.543Z</time></trkpt><trkpt lat="45.6235002" lon="9.5166458"><ele>152.0</ele><time>2026-04-09T14:00:00.543Z</time></trkpt><trkpt lat="45.6236086" lon="9.5165307"><ele>152.0</ele><time>2026-04-09T14:00:02.543Z</time></trkpt><trkpt lat="45.6236706" lon="9.5164833"><ele>152.0</ele><time>2026-04-09T14:00:03.544Z</time></trkpt><trkpt lat="45.6237236" lon="9.5164284"><ele>152.0</ele><time>2026-04-09T14:00:04.543Z</time></trkpt><trkpt lat="45.6238203" lon="9.5163105"><ele>152.16666666666666</ele><time>2026-04-09T14:00:06.544Z</time></trkpt><trkpt lat="45.6238815" lon="9.5162463"><ele>152.33333333333331</ele><time>2026-04-09T14:00:07.543Z</time></trkpt><trkpt lat="45.623937" lon="9.5161767"><ele>152.5</ele><time>2026-04-09T14:00:08.544Z</time></trkpt><trkpt lat="45.6239948" lon="9.5161132"><ele>152.66666666666666</ele><time>2026-04-09T14:00:09.543Z</time></trkpt><trkpt lat="45.6240561" lon="9.5160571"><ele>152.83333333333334</ele><time>2026-04-09T14:00:10.544Z</time></trkpt><trkpt lat="45.624156" lon="9.5159316"><ele>153.0</ele><time>2026-04-09T14:00:12.543Z</time></trkpt><trkpt lat="45.6242109" lon="9.5158625"><ele>153.14285714285714</ele><time>2026-04-09T14:00:13.543Z</time></trkpt><trkpt lat="45.6242589" lon="9.5157987"><ele>153.28571428571428</ele><time>2026-04-09T14:00:14.544Z</time></trkpt><trkpt lat="45.6243082" lon="9.5157383"><ele>153.42857142857144</ele><time>2026-04-09T14:00:15.544Z</time></trkpt><trkpt lat="45.6243581" lon="9.51567"><ele>153.57142857142856</ele><time>2026-04-09T14:00:16.543Z</time></trkpt><trkpt lat="45.6244069" lon="9.5155969"><ele>153.71428571428572</ele><time>2026-04-09T14:00:17.544Z</time></trkpt><trkpt lat="45.6244519" lon="9.5155197"><ele>153.85714285714286</ele><time>2026-04-09T14:00:18.544Z</time></trkpt><trkpt lat="45.6244947" lon="9.5154434"><ele>154.0</ele><time>2026-04-09T14:00:19.544Z</time></trkpt><trkpt lat="45.6245339" lon="9.5153661"><ele>154.0</ele><time>2026-04-09T14:00:20.543Z</time></trkpt><trkpt lat="45.6245807" lon="9.5152871"><ele>154.0</ele><time>2026-04-09T14:00:21.543Z</time></trkpt><trkpt lat="45.6246256" lon="9.5152165"><ele>154.0</ele><time>2026-04-09T14:00:22.544Z</time></trkpt><trkpt lat="45.6246456" lon="9.5151203"><ele>154.0</ele><time>2026-04-09T14:00:23.544Z</time></trkpt><trkpt lat="45.6246698" lon="9.5150281"><ele>154.0</ele><time>2026-04-09T14:00:24.544Z</time></trkpt><trkpt lat="45.6247056" lon="9.5149429"><ele>154.0</ele><time>2026-04-09T14:00:25.544Z</time></trkpt><trkpt lat="45.6247334" lon="9.5148579"><ele>154.0</ele><time>2026-04-09T14:00:26.544Z</time></trkpt><trkpt lat="45.6247714" lon="9.5146989"><ele>153.2</ele><time>2026-04-09T14:00:28.544Z</time></trkpt><trkpt lat="45.6248096" lon="9.5145319"><ele>152.4</ele><time>2026-04-09T14:00:30.543Z</time></trkpt><trkpt lat="45.6248444" lon="9.5143481"><ele>151.6</ele><time>2026-04-09T14:00:32.543Z</time></trkpt><trkpt lat="45.6248637" lon="9.5142529"><ele>150.8</ele><time>2026-04-09T14:00:33.544Z</time></trkpt><trkpt lat="45.6248829" lon="9.5141555"><ele>150.0</ele><time>2026-04-09T14:00:34.544Z</time></trkpt><trkpt lat="45.6248883" lon="9.5140442"><ele>149.99999999999997</ele><time>2026-04-09T14:00:35.544Z</time></trkpt><trkpt lat="45.6249085" lon="9.5139464"><ele>150.0</ele><time>2026-04-09T14:00:36.544Z</time></trkpt><trkpt lat="45.6249268" lon="9.5138229"><ele>150.0</ele><time>2026-04-09T14:00:37.544Z</time></trkpt><trkpt lat="45.6249476" lon="9.513736"><ele>150.0</ele><time>2026-04-09T14:00:38.544Z</time></trkpt><trkpt lat="45.6249609" lon="9.5136158"><ele>150.0</ele><time>2026-04-09T14:00:39.544Z</time></trkpt><trkpt lat="45.624974" lon="9.5135272"><ele>149.99999999999997</ele><time>2026-04-09T14:00:40.544Z</time></trkpt><trkpt lat="45.6249904" lon="9.5134354"><ele>150.0</ele><time>2026-04-09T14:00:41.544Z</time></trkpt><trkpt lat="45.6250033" lon="9.5133401"><ele>150.2</ele><time>2026-04-09T14:00:42.544Z</time></trkpt><trkpt lat="45.625013" lon="9.5132361"><ele>150.4</ele><time>2026-04-09T14:00:43.544Z</time></trkpt><trkpt lat="45.6250401" lon="9.5130598"><ele>150.6</ele><time>2026-04-09T14:00:45.544Z</time></trkpt><trkpt lat="45.6250568" lon="9.5129705"><ele>150.8</ele><time>2026-04-09T14:00:46.543Z</time></trkpt><trkpt lat="45.6250867" lon="9.512784"><ele>151.0</ele><time>2026-04-09T14:00:48.544Z</time></trkpt><trkpt lat="45.6250909" lon="9.5126807"><ele>151.5</ele><time>2026-04-09T14:00:49.544Z</time></trkpt><trkpt lat="45.6250855" lon="9.5125816"><ele>152.0</ele><time>2026-04-09T14:00:50.544Z</time></trkpt><trkpt lat="45.6251069" lon="9.512492"><ele>152.5</ele><time>2026-04-09T14:00:51.544Z</time></trkpt><trkpt lat="45.6251275" lon="9.512406"><ele>153.0</ele><time>2026-04-09T14:00:52.544Z</time></trkpt><trkpt lat="45.625173" lon="9.5122412"><ele>153.5</ele><time>2026-04-09T14:00:54.544Z</time></trkpt><trkpt lat="45.6251995" lon="9.5121555"><ele>154.0</ele><time>2026-04-09T14:00:55.543Z</time></trkpt><trkpt lat="45.6252224" lon="9.5120458"><ele>154.14285714285714</ele><time>2026-04-09T14:00:56.543Z</time></trkpt><trkpt lat="45.6252468" lon="9.5119429"><ele>154.28571428571428</ele><time>2026-04-09T14:00:57.544Z</time></trkpt><trkpt lat="45.6252748" lon="9.5118464"><ele>154.42857142857144</ele><time>2026-04-09T14:00:58.544Z</time></trkpt><trkpt lat="45.6252976" lon="9.5117571"><ele>154.57142857142856</ele><time>2026-04-09T14:00:59.544Z</time></trkpt><trkpt lat="45.625315" lon="9.5116624"><ele>154.71428571428572</ele><time>2026-04-09T14:01:00.544Z</time></trkpt><trkpt lat="45.6253257" lon="9.5115515"><ele>154.85714285714286</ele><time>2026-04-09T14:01:01.544Z</time></trkpt><trkpt lat="45.625335" lon="9.5114548"><ele>155.0</ele><time>2026-04-09T14:01:02.544Z</time></trkpt><trkpt lat="45.6253537" lon="9.5113524"><ele>155.0</ele><time>2026-04-09T14:01:03.544Z</time></trkpt><trkpt lat="45.6253761" lon="9.5112479"><ele>155.0</ele><time>2026-04-09T14:01:04.543Z</time></trkpt><trkpt lat="45.6253936" lon="9.5111395"><ele>155.0</ele><time>2026-04-09T14:01:05.543Z</time></trkpt><trkpt lat="45.6254126" lon="9.5110349"><ele>155.0</ele><time>2026-04-09T14:01:06.543Z</time></trkpt><trkpt lat="45.6254329" lon="9.5109405"><ele>155.0</ele><time>2026-04-09T14:01:07.543Z</time></trkpt><trkpt lat="45.6254521" lon="9.5108315"><ele>155.0</ele><time>2026-04-09T14:01:08.544Z</time></trkpt><trkpt lat="45.6254747" lon="9.5107354"><ele>155.0</ele><time>2026-04-09T14:01:09.543Z</time></trkpt><trkpt lat="45.6254919" lon="9.5106193"><ele>154.85714285714286</ele><time>2026-04-09T14:01:10.544Z</time></trkpt><trkpt lat="45.6255134" lon="9.5105267"><ele>154.71428571428572</ele><time>2026-04-09T14:01:11.543Z</time></trkpt><trkpt lat="45.6255422" lon="9.5104324"><ele>154.57142857142856</ele><time>2026-04-09T14:01:12.544Z</time></trkpt><trkpt lat="45.6255569" lon="9.5103276"><ele>154.42857142857144</ele><time>2026-04-09T14:01:13.543Z</time></trkpt><trkpt lat="45.6255756" lon="9.5102186"><ele>154.28571428571428</ele><time>2026-04-09T14:01:14.543Z</time></trkpt><trkpt lat="45.6255983" lon="9.5101153"><ele>154.14285714285714</ele><time>2026-04-09T14:01:15.544Z</time></trkpt><trkpt lat="45.625613" lon="9.5100201"><ele>154.0</ele><time>2026-04-09T14:01:16.543Z</time></trkpt><trkpt lat="45.6256291" lon="9.5099259"><ele>154.0</ele><time>2026-04-09T14:01:17.543Z</time></trkpt><trkpt lat="45.6256417" lon="9.5098279"><ele>154.0</ele><time>2026-04-09T14:01:18.544Z</time></trkpt><trkpt lat="45.6256603" lon="9.5097213"><ele>154.0</ele><time>2026-04-09T14:01:19.544Z</time></trkpt><trkpt lat="45.6256796" lon="9.5096298"><ele>154.0</ele><time>2026-04-09T14:01:20.544Z</time></trkpt><trkpt lat="45.6257033" lon="9.5095209"><ele>154.0</ele><time>2026-04-09T14:01:21.543Z</time></trkpt><trkpt lat="45.6257271" lon="9.5094194"><ele>154.0</ele><time>2026-04-09T14:01:22.543Z</time></trkpt><trkpt lat="45.6257426" lon="9.5093233"><ele>154.0</ele><time>2026-04-09T14:01:23.544Z</time></trkpt><trkpt lat="45.6257629" lon="9.5092211"><ele>154.33333333333334</ele><time>2026-04-09T14:01:24.544Z</time></trkpt><trkpt lat="45.6257804" lon="9.5091213"><ele>154.66666666666669</ele><time>2026-04-09T14:01:25.544Z</time></trkpt><trkpt lat="45.6258059" lon="9.5090272"><ele>155.0</ele><time>2026-04-09T14:01:26.544Z</time></trkpt><trkpt lat="45.6258325" lon="9.5089197"><ele>155.33333333333334</ele><time>2026-04-09T14:01:27.543Z</time></trkpt><trkpt lat="45.6258444" lon="9.5088093"><ele>155.66666666666666</ele><time>2026-04-09T14:01:28.544Z</time></trkpt><trkpt lat="45.6258679" lon="9.5087106"><ele>156.0</ele><time>2026-04-09T14:01:29.544Z</time></trkpt><trkpt lat="45.6258904" lon="9.508604"><ele>157.0</ele><time>2026-04-09T14:01:30.544Z</time></trkpt><trkpt lat="45.6259098" lon="9.5085014"><ele>158.0</ele><time>2026-04-09T14:01:31.544Z</time></trkpt><trkpt lat="45.6259578" lon="9.508321"><ele>159.0</ele><time>2026-04-09T14:01:33.544Z</time></trkpt><trkpt lat="45.6259851" lon="9.5082117"><ele>160.0</ele><time>2026-04-09T14:01:34.543Z</time></trkpt><trkpt lat="45.6260086" lon="9.5080812"><ele>161.0</ele><time>2026-04-09T14:01:35.544Z</time></trkpt><trkpt lat="45.6260441" lon="9.5079647"><ele>161.66666666666666</ele><time>2026-04-09T14:01:36.543Z</time></trkpt><trkpt lat="45.6261243" lon="9.5078134"><ele>162.33333333333331</ele><time>2026-04-09T14:01:38.543Z</time></trkpt><trkpt lat="45.6261687" lon="9.5077378"><ele>163.0</ele><time>2026-04-09T14:01:39.543Z</time></trkpt><trkpt lat="45.6262131" lon="9.5076402"><ele>163.66666666666666</ele><time>2026-04-09T14:01:40.543Z</time></trkpt><trkpt lat="45.626254" lon="9.5075582"><ele>164.33333333333334</ele><time>2026-04-09T14:01:41.544Z</time></trkpt><trkpt lat="45.6262973" lon="9.5074862"><ele>165.0</ele><time>2026-04-09T14:01:42.543Z</time></trkpt><trkpt lat="45.6263425" lon="9.5074005"><ele>163.16666666666666</ele><time>2026-04-09T14:01:43.544Z</time></trkpt><trkpt lat="45.6264101" lon="9.50724"><ele>161.33333333333334</ele><time>2026-04-09T14:01:45.543Z</time></trkpt><trkpt lat="45.6264538" lon="9.5071564"><ele>159.5</ele><time>2026-04-09T14:01:46.543Z</time></trkpt><trkpt lat="45.6264894" lon="9.5070555"><ele>157.66666666666669</ele><time>2026-04-09T14:01:47.544Z</time></trkpt><trkpt lat="45.6265209" lon="9.5069751"><ele>155.83333333333334</ele><time>2026-04-09T14:01:48.544Z</time></trkpt><trkpt lat="45.626559" lon="9.5068977"><ele>154.0</ele><time>2026-04-09T14:01:49.544Z</time></trkpt><trkpt lat="45.6266439" lon="9.5067703"><ele>154.0</ele><time>2026-04-09T14:01:51.543Z</time></trkpt><trkpt lat="45.6266773" lon="9.5066722"><ele>154.0</ele><time>2026-04-09T14:01:52.543Z</time></trkpt><trkpt lat="45.6267256" lon="9.506563"><ele>154.0</ele><time>2026-04-09T14:01:53.544Z</time></trkpt><trkpt lat="45.626765" lon="9.5064726"><ele>154.0</ele><time>2026-04-09T14:01:54.544Z</time></trkpt><trkpt lat="45.6267998" lon="9.5063668"><ele>154.0</ele><time>2026-04-09T14:01:55.543Z</time></trkpt><trkpt lat="45.6268478" lon="9.5062824"><ele>154.0</ele><time>2026-04-09T14:01:56.544Z</time></trkpt><trkpt lat="45.6268765" lon="9.5061705"><ele>153.83333333333334</ele><time>2026-04-09T14:01:57.544Z</time></trkpt><trkpt lat="45.6269263" lon="9.5060802"><ele>153.66666666666669</ele><time>2026-04-09T14:01:58.543Z</time></trkpt><trkpt lat="45.6269711" lon="9.5060037"><ele>153.5</ele><time>2026-04-09T14:01:59.544Z</time></trkpt><trkpt lat="45.6270125" lon="9.5059106"><ele>153.33333333333334</ele><time>2026-04-09T14:02:00.544Z</time></trkpt><trkpt lat="45.6270565" lon="9.5058295"><ele>153.16666666666666</ele><time>2026-04-09T14:02:01.544Z</time></trkpt><trkpt lat="45.6271155" lon="9.5057325"><ele>153.0</ele><time>2026-04-09T14:02:02.544Z</time></trkpt><trkpt lat="45.6271517" lon="9.5056391"><ele>153.0</ele><time>2026-04-09T14:02:03.544Z</time></trkpt><trkpt lat="45.6271841" lon="9.5055566"><ele>153.0</ele><time>2026-04-09T14:02:04.543Z</time></trkpt><trkpt lat="45.6272207" lon="9.5054595"><ele>153.0</ele><time>2026-04-09T14:02:05.544Z</time></trkpt><trkpt lat="45.6272552" lon="9.5053706"><ele>153.0</ele><time>2026-04-09T14:02:06.544Z</time></trkpt><trkpt lat="45.6272938" lon="9.5052768"><ele>153.0</ele><time>2026-04-09T14:02:07.544Z</time></trkpt><trkpt lat="45.6273281" lon="9.5051776"><ele>153.0</ele><time>2026-04-09T14:02:08.544Z</time></trkpt><trkpt lat="45.627367" lon="9.5050918"><ele>153.0</ele><time>2026-04-09T14:02:09.543Z</time></trkpt><trkpt lat="45.6274014" lon="9.5050074"><ele>153.33333333333334</ele><time>2026-04-09T14:02:10.544Z</time></trkpt><trkpt lat="45.6274462" lon="9.504921"><ele>153.66666666666666</ele><time>2026-04-09T14:02:11.544Z</time></trkpt><trkpt lat="45.6274755" lon="9.504828"><ele>154.0</ele><time>2026-04-09T14:02:12.543Z</time></trkpt><trkpt lat="45.6275128" lon="9.5047259"><ele>154.33333333333331</ele><time>2026-04-09T14:02:13.544Z</time></trkpt><trkpt lat="45.6275493" lon="9.5046272"><ele>154.66666666666666</ele><time>2026-04-09T14:02:14.544Z</time></trkpt><trkpt lat="45.627581" lon="9.5045227"><ele>155.0</ele><time>2026-04-09T14:02:15.544Z</time></trkpt><trkpt lat="45.6276204" lon="9.5044116"><ele>155.5</ele><time>2026-04-09T14:02:16.543Z</time></trkpt><trkpt lat="45.6276551" lon="9.5043255"><ele>156.0</ele><time>2026-04-09T14:02:17.543Z</time></trkpt><trkpt lat="45.6276934" lon="9.5042391"><ele>156.5</ele><time>2026-04-09T14:02:18.544Z</time></trkpt><trkpt lat="45.6277265" lon="9.5041402"><ele>157.0</ele><time>2026-04-09T14:02:19.543Z</time></trkpt><trkpt lat="45.627765" lon="9.504038"><ele>157.5</ele><time>2026-04-09T14:02:20.543Z</time></trkpt><trkpt lat="45.6277957" lon="9.5039296"><ele>158.0</ele><time>2026-04-09T14:02:21.544Z</time></trkpt><trkpt lat="45.6278247" lon="9.5038321"><ele>157.16666666666666</ele><time>2026-04-09T14:02:22.543Z</time></trkpt><trkpt lat="45.6278655" lon="9.5037368"><ele>156.33333333333331</ele><time>2026-04-09T14:02:23.543Z</time></trkpt><trkpt lat="45.627896" lon="9.5036322"><ele>155.5</ele><time>2026-04-09T14:02:24.543Z</time></trkpt><trkpt lat="45.6279348" lon="9.5035381"><ele>154.66666666666666</ele><time>2026-04-09T14:02:25.543Z</time></trkpt><trkpt lat="45.6279697" lon="9.5034421"><ele>153.83333333333334</ele><time>2026-04-09T14:02:26.544Z</time></trkpt><trkpt lat="45.6280008" lon="9.5033455"><ele>153.0</ele><time>2026-04-09T14:02:27.543Z</time></trkpt><trkpt lat="45.6280219" lon="9.5032239"><ele>153.0</ele><time>2026-04-09T14:02:28.544Z</time></trkpt><trkpt lat="45.6280593" lon="9.5031191"><ele>153.0</ele><time>2026-04-09T14:02:29.543Z</time></trkpt><trkpt lat="45.6280784" lon="9.5030194"><ele>153.0</ele><time>2026-04-09T14:02:30.544Z</time></trkpt><trkpt lat="45.6281173" lon="9.5029117"><ele>153.0</ele><time>2026-04-09T14:02:31.543Z</time></trkpt><trkpt lat="45.6281434" lon="9.5028273"><ele>153.0</ele><time>2026-04-09T14:02:32.543Z</time></trkpt><trkpt lat="45.6281656" lon="9.502733"><ele>153.0</ele><time>2026-04-09T14:02:33.544Z</time></trkpt><trkpt lat="45.6281972" lon="9.5026481"><ele>153.0</ele><time>2026-04-09T14:02:34.544Z</time></trkpt><trkpt lat="45.6282183" lon="9.5025465"><ele>154.0</ele><time>2026-04-09T14:02:35.544Z</time></trkpt><trkpt lat="45.6282432" lon="9.5024351"><ele>155.0</ele><time>2026-04-09T14:02:36.543Z</time></trkpt><trkpt lat="45.6282691" lon="9.502348"><ele>156.0</ele><time>2026-04-09T14:02:37.543Z</time></trkpt><trkpt lat="45.6283055" lon="9.5022438"><ele>157.0</ele><time>2026-04-09T14:02:38.544Z</time></trkpt><trkpt lat="45.6283342" lon="9.5021466"><ele>158.0</ele><time>2026-04-09T14:02:39.544Z</time></trkpt><trkpt lat="45.6283632" lon="9.5020503"><ele>159.0</ele><time>2026-04-09T14:02:40.543Z</time></trkpt><trkpt lat="45.6283924" lon="9.5019307"><ele>159.5</ele><time>2026-04-09T14:02:41.543Z</time></trkpt><trkpt lat="45.6284229" lon="9.5018397"><ele>160.0</ele><time>2026-04-09T14:02:42.544Z</time></trkpt><trkpt lat="45.6284508" lon="9.5017248"><ele>160.5</ele><time>2026-04-09T14:02:43.544Z</time></trkpt><trkpt lat="45.6284721" lon="9.501604"><ele>161.0</ele><time>2026-04-09T14:02:44.544Z</time></trkpt><trkpt lat="45.6284892" lon="9.5015038"><ele>161.5</ele><time>2026-04-09T14:02:45.544Z</time></trkpt><trkpt lat="45.6285192" lon="9.5013933"><ele>162.0</ele><time>2026-04-09T14:02:46.544Z</time></trkpt><trkpt lat="45.6285423" lon="9.5013023"><ele>162.66666666666666</ele><time>2026-04-09T14:02:47.544Z</time></trkpt><trkpt lat="45.6285683" lon="9.501203"><ele>163.33333333333334</ele><time>2026-04-09T14:02:48.543Z</time></trkpt><trkpt lat="45.6286036" lon="9.5010976"><ele>164.0</ele><time>2026-04-09T14:02:49.543Z</time></trkpt><trkpt lat="45.6286621" lon="9.5009036"><ele>164.66666666666669</ele><time>2026-04-09T14:02:51.544Z</time></trkpt><trkpt lat="45.6286907" lon="9.5008028"><ele>165.33333333333334</ele><time>2026-04-09T14:02:52.544Z</time></trkpt><trkpt lat="45.6287149" lon="9.50071"><ele>166.0</ele><time>2026-04-09T14:02:53.543Z</time></trkpt><trkpt lat="45.628735" lon="9.5006199"><ele>164.83333333333334</ele><time>2026-04-09T14:02:54.543Z</time></trkpt><trkpt lat="45.6287743" lon="9.5005005"><ele>163.66666666666669</ele><time>2026-04-09T14:02:55.544Z</time></trkpt><trkpt lat="45.6288088" lon="9.5003973"><ele>162.5</ele><time>2026-04-09T14:02:56.544Z</time></trkpt><trkpt lat="45.6288362" lon="9.5003126"><ele>161.33333333333334</ele><time>2026-04-09T14:02:57.544Z</time></trkpt><trkpt lat="45.628869" lon="9.5002146"><ele>160.16666666666666</ele><time>2026-04-09T14:02:58.543Z</time></trkpt><trkpt lat="45.6289113" lon="9.500116"><ele>159.0</ele><time>2026-04-09T14:02:59.543Z</time></trkpt><trkpt lat="45.6289571" lon="9.5000226"><ele>159.0</ele><time>2026-04-09T14:03:00.544Z</time></trkpt><trkpt lat="45.6289902" lon="9.4999274"><ele>159.0</ele><time>2026-04-09T14:03:01.543Z</time></trkpt><trkpt lat="45.6290281" lon="9.4998292"><ele>159.0</ele><time>2026-04-09T14:03:02.544Z</time></trkpt><trkpt lat="45.6290644" lon="9.4997284"><ele>159.0</ele><time>2026-04-09T14:03:03.544Z</time></trkpt><trkpt lat="45.6290956" lon="9.4996212"><ele>159.0</ele><time>2026-04-09T14:03:04.544Z</time></trkpt><trkpt lat="45.6291413" lon="9.4995257"><ele>159.0</ele><time>2026-04-09T14:03:05.544Z</time></trkpt><trkpt lat="45.6291882" lon="9.4994288"><ele>160.0</ele><time>2026-04-09T14:03:06.544Z</time></trkpt><trkpt lat="45.6292768" lon="9.4992697"><ele>161.0</ele><time>2026-04-09T14:03:08.544Z</time></trkpt><trkpt lat="45.6293177" lon="9.4991699"><ele>162.0</ele><time>2026-04-09T14:03:09.543Z</time></trkpt><trkpt lat="45.629392" lon="9.498958"><ele>163.0</ele><time>2026-04-09T14:03:11.544Z</time></trkpt><trkpt lat="45.62942" lon="9.498855"><ele>163.0</ele><time>2026-04-09T14:03:12.544Z</time></trkpt><trkpt lat="45.6294606" lon="9.4987597"><ele>163.0</ele><time>2026-04-09T14:03:13.543Z</time></trkpt><trkpt lat="45.6295021" lon="9.4986825"><ele>163.0</ele><time>2026-04-09T14:03:14.544Z</time></trkpt><trkpt lat="45.6295426" lon="9.4985867"><ele>163.0</ele><time>2026-04-09T14:03:15.544Z</time></trkpt><trkpt lat="45.6295695" lon="9.4984902"><ele>163.0</ele><time>2026-04-09T14:03:16.543Z</time></trkpt><trkpt lat="45.6296179" lon="9.4983985"><ele>163.0</ele><time>2026-04-09T14:03:17.543Z</time></trkpt><trkpt lat="45.6296633" lon="9.4983013"><ele>162.66666666666669</ele><time>2026-04-09T14:03:18.543Z</time></trkpt><trkpt lat="45.6297044" lon="9.4982118"><ele>162.33333333333334</ele><time>2026-04-09T14:03:19.543Z</time></trkpt><trkpt lat="45.6297408" lon="9.4981232"><ele>162.0</ele><time>2026-04-09T14:03:20.544Z</time></trkpt><trkpt lat="45.6297864" lon="9.4980283"><ele>161.66666666666666</ele><time>2026-04-09T14:03:21.543Z</time></trkpt><trkpt lat="45.6298288" lon="9.4979415"><ele>161.33333333333331</ele><time>2026-04-09T14:03:22.544Z</time></trkpt><trkpt lat="45.6298673" lon="9.4978438"><ele>161.0</ele><time>2026-04-09T14:03:23.543Z</time></trkpt><trkpt lat="45.629909" lon="9.4977525"><ele>161.0</ele><time>2026-04-09T14:03:24.543Z</time></trkpt><trkpt lat="45.6299548" lon="9.4976487"><ele>161.0</ele><time>2026-04-09T14:03:25.544Z</time></trkpt><trkpt lat="45.6299985" lon="9.4975635"><ele>161.0</ele><time>2026-04-09T14:03:26.544Z</time></trkpt><trkpt lat="45.6300376" lon="9.4974658"><ele>161.0</ele><time>2026-04-09T14:03:27.544Z</time></trkpt><trkpt lat="45.6300895" lon="9.4973768"><ele>161.0</ele><time>2026-04-09T14:03:28.544Z</time></trkpt><trkpt lat="45.6301368" lon="9.4972932"><ele>161.0</ele><time>2026-04-09T14:03:29.543Z</time></trkpt><trkpt lat="45.630189" lon="9.4972114"><ele>161.0</ele><time>2026-04-09T14:03:30.544Z</time></trkpt><trkpt lat="45.6302523" lon="9.4971512"><ele>161.0</ele><time>2026-04-09T14:03:31.544Z</time></trkpt><trkpt lat="45.6303091" lon="9.4970823"><ele>161.0</ele><time>2026-04-09T14:03:32.544Z</time></trkpt><trkpt lat="45.630362" lon="9.4970054"><ele>161.0</ele><time>2026-04-09T14:03:33.543Z</time></trkpt><trkpt lat="45.6304131" lon="9.4969071"><ele>161.0</ele><time>2026-04-09T14:03:34.544Z</time></trkpt><trkpt lat="45.6304783" lon="9.4968524"><ele>161.0</ele><time>2026-04-09T14:03:35.544Z</time></trkpt><trkpt lat="45.6305364" lon="9.4967714"><ele>161.5</ele><time>2026-04-09T14:03:36.543Z</time></trkpt><trkpt lat="45.6305862" lon="9.4966934"><ele>162.0</ele><time>2026-04-09T14:03:37.544Z</time></trkpt><trkpt lat="45.6306366" lon="9.4966066"><ele>162.5</ele><time>2026-04-09T14:03:38.543Z</time></trkpt><trkpt lat="45.6306825" lon="9.4965167"><ele>163.0</ele><time>2026-04-09T14:03:39.544Z</time></trkpt><trkpt lat="45.630729" lon="9.496415"><ele>163.5</ele><time>2026-04-09T14:03:40.543Z</time></trkpt><trkpt lat="45.6307541" lon="9.4963275"><ele>164.0</ele><time>2026-04-09T14:03:41.543Z</time></trkpt><trkpt lat="45.6308047" lon="9.4961367"><ele>164.0</ele><time>2026-04-09T14:03:43.544Z</time></trkpt><trkpt lat="45.6308349" lon="9.4960451"><ele>164.0</ele><time>2026-04-09T14:03:44.544Z</time></trkpt><trkpt lat="45.6308994" lon="9.4959009"><ele>164.0</ele><time>2026-04-09T14:03:46.544Z</time></trkpt><trkpt lat="45.6309717" lon="9.4958393"><ele>164.0</ele><time>2026-04-09T14:03:47.544Z</time></trkpt><trkpt lat="45.6310191" lon="9.495762"><ele>164.0</ele><time>2026-04-09T14:03:48.544Z</time></trkpt><trkpt lat="45.631085" lon="9.4956261"><ele>164.0</ele><time>2026-04-09T14:03:50.544Z</time></trkpt><trkpt lat="45.6311107" lon="9.4955322"><ele>164.0</ele><time>2026-04-09T14:03:51.544Z</time></trkpt><trkpt lat="45.6311521" lon="9.495455"><ele>164.0</ele><time>2026-04-09T14:03:52.543Z</time></trkpt><trkpt lat="45.6312055" lon="9.4953506"><ele>164.0</ele><time>2026-04-09T14:03:53.544Z</time></trkpt><trkpt lat="45.631237" lon="9.4952724"><ele>164.0</ele><time>2026-04-09T14:03:54.544Z</time></trkpt><trkpt lat="45.6313151" lon="9.4951036"><ele>164.0</ele><time>2026-04-09T14:03:56.544Z</time></trkpt><trkpt lat="45.6313723" lon="9.4950449"><ele>163.39999999999998</ele><time>2026-04-09T14:03:57.543Z</time></trkpt><trkpt lat="45.6314269" lon="9.494982"><ele>162.8</ele><time>2026-04-09T14:03:58.543Z</time></trkpt><trkpt lat="45.6315312" lon="9.4948855"><ele>162.2</ele><time>2026-04-09T14:04:00.544Z</time></trkpt><trkpt lat="45.631599" lon="9.4948382"><ele>161.60000000000002</ele><time>2026-04-09T14:04:01.544Z</time></trkpt><trkpt lat="45.6317066" lon="9.4947572"><ele>161.0</ele><time>2026-04-09T14:04:03.544Z</time></trkpt><trkpt lat="45.6317698" lon="9.4947226"><ele>161.0</ele><time>2026-04-09T14:04:04.544Z</time></trkpt><trkpt lat="45.6318654" lon="9.4946029"><ele>161.0</ele><time>2026-04-09T14:04:06.544Z</time></trkpt><trkpt lat="45.6319708" lon="9.4944897"><ele>161.0</ele><time>2026-04-09T14:04:08.544Z</time></trkpt><trkpt lat="45.6320237" lon="9.4944343"><ele>161.0</ele><time>2026-04-09T14:04:09.543Z</time></trkpt><trkpt lat="45.6320737" lon="9.4943776"><ele>161.0</ele><time>2026-04-09T14:04:10.544Z</time></trkpt><trkpt lat="45.6321604" lon="9.4943454"><ele>160.8</ele><time>2026-04-09T14:04:11.543Z</time></trkpt><trkpt lat="45.6322338" lon="9.4943138"><ele>160.60000000000002</ele><time>2026-04-09T14:04:12.544Z</time></trkpt><trkpt lat="45.6323116" lon="9.494271"><ele>160.4</ele><time>2026-04-09T14:04:13.544Z</time></trkpt><trkpt lat="45.6323762" lon="9.4942269"><ele>160.2</ele><time>2026-04-09T14:04:14.543Z</time></trkpt><trkpt lat="45.6324591" lon="9.4941866"><ele>160.0</ele><time>2026-04-09T14:04:15.543Z</time></trkpt><trkpt lat="45.6325797" lon="9.4941003"><ele>160.0</ele><time>2026-04-09T14:04:17.544Z</time></trkpt><trkpt lat="45.6326448" lon="9.4940761"><ele>160.0</ele><time>2026-04-09T14:04:18.544Z</time></trkpt><trkpt lat="45.6327277" lon="9.4940472"><ele>160.0</ele><time>2026-04-09T14:04:19.544Z</time></trkpt><trkpt lat="45.6328321" lon="9.494006"><ele>160.0</ele><time>2026-04-09T14:04:21.543Z</time></trkpt><trkpt lat="45.6329474" lon="9.4939952"><ele>160.0</ele><time>2026-04-09T14:04:23.544Z</time></trkpt><trkpt lat="45.6330109" lon="9.4939891"><ele>160.0</ele><time>2026-04-09T14:04:24.543Z</time></trkpt><trkpt lat="45.6330776" lon="9.4939502"><ele>158.5</ele><time>2026-04-09T14:04:25.544Z</time></trkpt><trkpt lat="45.6331607" lon="9.4939328"><ele>157.0</ele><time>2026-04-09T14:04:26.543Z</time></trkpt><trkpt lat="45.6332405" lon="9.4938931"><ele>155.5</ele><time>2026-04-09T14:04:27.544Z</time></trkpt><trkpt lat="45.633356" lon="9.493852"><ele>154.0</ele><time>2026-04-09T14:04:28.544Z</time></trkpt><trkpt lat="45.6334298" lon="9.4938412"><ele>152.5</ele><time>2026-04-09T14:04:29.543Z</time></trkpt><trkpt lat="45.6335137" lon="9.4938391"><ele>151.0</ele><time>2026-04-09T14:04:30.543Z</time></trkpt><trkpt lat="45.6335848" lon="9.4938523"><ele>151.33333333333334</ele><time>2026-04-09T14:04:31.543Z</time></trkpt><trkpt lat="45.6336783" lon="9.4938695"><ele>151.66666666666669</ele><time>2026-04-09T14:04:32.544Z</time></trkpt><trkpt lat="45.6337458" lon="9.4938651"><ele>152.0</ele><time>2026-04-09T14:04:33.543Z</time></trkpt><trkpt lat="45.6338351" lon="9.4938475"><ele>152.33333333333334</ele><time>2026-04-09T14:04:34.543Z</time></trkpt><trkpt lat="45.6339302" lon="9.4938477"><ele>152.66666666666666</ele><time>2026-04-09T14:04:35.544Z</time></trkpt><trkpt lat="45.6340048" lon="9.493862"><ele>153.0</ele><time>2026-04-09T14:04:36.544Z</time></trkpt><trkpt lat="45.6340744" lon="9.493882"><ele>153.0</ele><time>2026-04-09T14:04:37.544Z</time></trkpt><trkpt lat="45.6341456" lon="9.4938847"><ele>153.0</ele><time>2026-04-09T14:04:38.544Z</time></trkpt><trkpt lat="45.6342315" lon="9.4938897"><ele>153.0</ele><time>2026-04-09T14:04:39.544Z</time></trkpt><trkpt lat="45.6343188" lon="9.4939088"><ele>153.0</ele><time>2026-04-09T14:04:40.544Z</time></trkpt><trkpt lat="45.6343782" lon="9.4939444"><ele>153.0</ele><time>2026-04-09T14:04:41.544Z</time></trkpt><trkpt lat="45.63448" lon="9.4939203"><ele>153.0</ele><time>2026-04-09T14:04:42.544Z</time></trkpt><trkpt lat="45.6345453" lon="9.4939463"><ele>152.66666666666666</ele><time>2026-04-09T14:04:43.544Z</time></trkpt><trkpt lat="45.6346096" lon="9.4939813"><ele>152.33333333333334</ele><time>2026-04-09T14:04:44.544Z</time></trkpt><trkpt lat="45.6346906" lon="9.4940199"><ele>152.0</ele><time>2026-04-09T14:04:45.544Z</time></trkpt><trkpt lat="45.6347525" lon="9.4940413"><ele>151.66666666666669</ele><time>2026-04-09T14:04:46.544Z</time></trkpt><trkpt lat="45.6348186" lon="9.4940894"><ele>151.33333333333334</ele><time>2026-04-09T14:04:47.544Z</time></trkpt><trkpt lat="45.6349128" lon="9.4940899"><ele>151.0</ele><time>2026-04-09T14:04:48.544Z</time></trkpt><trkpt lat="45.6349725" lon="9.494123"><ele>151.0</ele><time>2026-04-09T14:04:49.544Z</time></trkpt><trkpt lat="45.6350431" lon="9.4941749"><ele>151.0</ele><time>2026-04-09T14:04:50.544Z</time></trkpt><trkpt lat="45.6351156" lon="9.494205"><ele>151.0</ele><time>2026-04-09T14:04:51.544Z</time></trkpt><trkpt lat="45.6351845" lon="9.4942364"><ele>151.0</ele><time>2026-04-09T14:04:52.544Z</time></trkpt><trkpt lat="45.6352652" lon="9.4942674"><ele>151.0</ele><time>2026-04-09T14:04:53.543Z</time></trkpt><trkpt lat="45.6354006" lon="9.4943209"><ele>151.33333333333334</ele><time>2026-04-09T14:04:55.544Z</time></trkpt><trkpt lat="45.6354835" lon="9.494333"><ele>151.66666666666669</ele><time>2026-04-09T14:04:56.543Z</time></trkpt><trkpt lat="45.6355715" lon="9.4943723"><ele>152.0</ele><time>2026-04-09T14:04:57.544Z</time></trkpt><trkpt lat="45.6356353" lon="9.4944143"><ele>152.33333333333334</ele><time>2026-04-09T14:04:58.544Z</time></trkpt><trkpt lat="45.6357196" lon="9.494428"><ele>152.66666666666666</ele><time>2026-04-09T14:04:59.544Z</time></trkpt><trkpt lat="45.6357908" lon="9.4944534"><ele>153.0</ele><time>2026-04-09T14:05:00.543Z</time></trkpt><trkpt lat="45.6358724" lon="9.4944684"><ele>153.0</ele><time>2026-04-09T14:05:01.544Z</time></trkpt><trkpt lat="45.6359424" lon="9.4945112"><ele>153.0</ele><time>2026-04-09T14:05:02.544Z</time></trkpt><trkpt lat="45.6360162" lon="9.4945304"><ele>153.0</ele><time>2026-04-09T14:05:03.544Z</time></trkpt><trkpt lat="45.6360792" lon="9.494541"><ele>153.0</ele><time>2026-04-09T14:05:04.544Z</time></trkpt><trkpt lat="45.6362025" lon="9.4945808"><ele>153.0</ele><time>2026-04-09T14:05:06.544Z</time></trkpt><trkpt lat="45.6363438" lon="9.4946641"><ele>153.4</ele><time>2026-04-09T14:05:08.544Z</time></trkpt><trkpt lat="45.6364424" lon="9.4946712"><ele>153.8</ele><time>2026-04-09T14:05:10.544Z</time></trkpt><trkpt lat="45.6365857" lon="9.4946966"><ele>154.2</ele><time>2026-04-09T14:05:12.544Z</time></trkpt><trkpt lat="45.6366512" lon="9.4946889"><ele>154.6</ele><time>2026-04-09T14:05:13.543Z</time></trkpt><trkpt lat="45.63677" lon="9.4946913"><ele>155.0</ele><time>2026-04-09T14:05:15.544Z</time></trkpt><trkpt lat="45.6368366" lon="9.4946618"><ele>155.0</ele><time>2026-04-09T14:05:16.543Z</time></trkpt><trkpt lat="45.6369108" lon="9.4946447"><ele>155.0</ele><time>2026-04-09T14:05:17.544Z</time></trkpt><trkpt lat="45.6370566" lon="9.4946198"><ele>155.0</ele><time>2026-04-09T14:05:19.544Z</time></trkpt><trkpt lat="45.637136" lon="9.4945947"><ele>155.0</ele><time>2026-04-09T14:05:20.543Z</time></trkpt><trkpt lat="45.6372059" lon="9.494586"><ele>155.0</ele><time>2026-04-09T14:05:21.543Z</time></trkpt><trkpt lat="45.6373273" lon="9.4945387"><ele>154.8</ele><time>2026-04-09T14:05:23.544Z</time></trkpt><trkpt lat="45.6374503" lon="9.4945006"><ele>154.6</ele><time>2026-04-09T14:05:25.544Z</time></trkpt><trkpt lat="45.6375777" lon="9.4944789"><ele>154.4</ele><time>2026-04-09T14:05:27.544Z</time></trkpt><trkpt lat="45.6376454" lon="9.4944474"><ele>154.2</ele><time>2026-04-09T14:05:28.543Z</time></trkpt><trkpt lat="45.6377138" lon="9.4944125"><ele>154.0</ele><time>2026-04-09T14:05:29.543Z</time></trkpt><trkpt lat="45.6378233" lon="9.4943784"><ele>153.8</ele><time>2026-04-09T14:05:31.543Z</time></trkpt><trkpt lat="45.6379186" lon="9.4943557"><ele>153.60000000000002</ele><time>2026-04-09T14:05:33.544Z</time></trkpt><trkpt lat="45.6380414" lon="9.494328"><ele>153.4</ele><time>2026-04-09T14:05:35.544Z</time></trkpt><trkpt lat="45.6381207" lon="9.4943026"><ele>153.20000000000002</ele><time>2026-04-09T14:05:36.543Z</time></trkpt><trkpt lat="45.6381882" lon="9.4942776"><ele>153.0</ele><time>2026-04-09T14:05:37.544Z</time></trkpt><trkpt lat="45.6383156" lon="9.4942417"><ele>153.0</ele><time>2026-04-09T14:05:39.544Z</time></trkpt><trkpt lat="45.6383958" lon="9.4942466"><ele>153.0</ele><time>2026-04-09T14:05:40.544Z</time></trkpt><trkpt lat="45.6384659" lon="9.4942374"><ele>153.0</ele><time>2026-04-09T14:05:41.544Z</time></trkpt><trkpt lat="45.6385832" lon="9.4942276"><ele>153.0</ele><time>2026-04-09T14:05:43.543Z</time></trkpt><trkpt lat="45.6387108" lon="9.4942001"><ele>153.0</ele><time>2026-04-09T14:05:45.543Z</time></trkpt><trkpt lat="45.638781" lon="9.4941922"><ele>152.5</ele><time>2026-04-09T14:05:46.544Z</time></trkpt><trkpt lat="45.6388554" lon="9.4941757"><ele>152.0</ele><time>2026-04-09T14:05:47.543Z</time></trkpt><trkpt lat="45.6389353" lon="9.4941446"><ele>151.5</ele><time>2026-04-09T14:05:48.544Z</time></trkpt><trkpt lat="45.6390144" lon="9.4941171"><ele>151.0</ele><time>2026-04-09T14:05:49.544Z</time></trkpt><trkpt lat="45.6390915" lon="9.4940738"><ele>150.5</ele><time>2026-04-09T14:05:50.543Z</time></trkpt><trkpt lat="45.6391639" lon="9.4940484"><ele>150.0</ele><time>2026-04-09T14:05:51.544Z</time></trkpt><trkpt lat="45.6392478" lon="9.4940475"><ele>150.0</ele><time>2026-04-09T14:05:52.543Z</time></trkpt><trkpt lat="45.6393152" lon="9.4940485"><ele>150.0</ele><time>2026-04-09T14:05:53.544Z</time></trkpt><trkpt lat="45.6393925" lon="9.49403"><ele>150.0</ele><time>2026-04-09T14:05:54.544Z</time></trkpt><trkpt lat="45.6394668" lon="9.4940374"><ele>150.0</ele><time>2026-04-09T14:05:55.543Z</time></trkpt><trkpt lat="45.6396053" lon="9.4940448"><ele>150.0</ele><time>2026-04-09T14:05:57.543Z</time></trkpt><trkpt lat="45.639691" lon="9.4940312"><ele>150.0</ele><time>2026-04-09T14:05:58.544Z</time></trkpt><trkpt lat="45.6397851" lon="9.4940083"><ele>149.85714285714283</ele><time>2026-04-09T14:05:59.543Z</time></trkpt><trkpt lat="45.6398578" lon="9.4940117"><ele>149.71428571428572</ele><time>2026-04-09T14:06:00.544Z</time></trkpt><trkpt lat="45.639922" lon="9.4940033"><ele>149.57142857142856</ele><time>2026-04-09T14:06:01.544Z</time></trkpt><trkpt lat="45.6399862" lon="9.4940027"><ele>149.42857142857142</ele><time>2026-04-09T14:06:02.543Z</time></trkpt><trkpt lat="45.6400813" lon="9.4940034"><ele>149.28571428571428</ele><time>2026-04-09T14:06:03.543Z</time></trkpt><trkpt lat="45.6401472" lon="9.4939898"><ele>149.14285714285714</ele><time>2026-04-09T14:06:04.544Z</time></trkpt><trkpt lat="45.640228" lon="9.4939785"><ele>149.0</ele><time>2026-04-09T14:06:05.543Z</time></trkpt><trkpt lat="45.6403026" lon="9.4939641"><ele>149.5</ele><time>2026-04-09T14:06:06.544Z</time></trkpt><trkpt lat="45.6403821" lon="9.4939591"><ele>150.0</ele><time>2026-04-09T14:06:07.544Z</time></trkpt><trkpt lat="45.6404613" lon="9.4939603"><ele>150.5</ele><time>2026-04-09T14:06:08.544Z</time></trkpt><trkpt lat="45.6405484" lon="9.4939537"><ele>151.0</ele><time>2026-04-09T14:06:09.544Z</time></trkpt><trkpt lat="45.6406212" lon="9.4939755"><ele>151.5</ele><time>2026-04-09T14:06:10.543Z</time></trkpt><trkpt lat="45.6407112" lon="9.4939593"><ele>152.0</ele><time>2026-04-09T14:06:11.544Z</time></trkpt><trkpt lat="45.6407933" lon="9.4939593"><ele>152.0</ele><time>2026-04-09T14:06:12.544Z</time></trkpt><trkpt lat="45.6408676" lon="9.4939729"><ele>152.0</ele><time>2026-04-09T14:06:13.543Z</time></trkpt><trkpt lat="45.6409432" lon="9.4939876"><ele>152.0</ele><time>2026-04-09T14:06:14.544Z</time></trkpt><trkpt lat="45.6410131" lon="9.4940094"><ele>152.0</ele><time>2026-04-09T14:06:15.544Z</time></trkpt><trkpt lat="45.6410867" lon="9.4940208"><ele>152.0</ele><time>2026-04-09T14:06:16.544Z</time></trkpt><trkpt lat="45.6411746" lon="9.494001"><ele>152.0</ele><time>2026-04-09T14:06:17.544Z</time></trkpt><trkpt lat="45.6412603" lon="9.4939833"><ele>152.83333333333331</ele><time>2026-04-09T14:06:18.543Z</time></trkpt><trkpt lat="45.6413356" lon="9.4940044"><ele>153.66666666666666</ele><time>2026-04-09T14:06:19.543Z</time></trkpt><trkpt lat="45.6413948" lon="9.4940407"><ele>154.5</ele><time>2026-04-09T14:06:20.543Z</time></trkpt><trkpt lat="45.6414784" lon="9.4940551"><ele>155.33333333333334</ele><time>2026-04-09T14:06:21.544Z</time></trkpt><trkpt lat="45.6415378" lon="9.4941081"><ele>156.16666666666669</ele><time>2026-04-09T14:06:22.544Z</time></trkpt><trkpt lat="45.6416197" lon="9.4941308"><ele>157.0</ele><time>2026-04-09T14:06:23.543Z</time></trkpt><trkpt lat="45.6416907" lon="9.4941536"><ele>157.0</ele><time>2026-04-09T14:06:24.544Z</time></trkpt><trkpt lat="45.6417704" lon="9.4941353"><ele>157.0</ele><time>2026-04-09T14:06:25.544Z</time></trkpt><trkpt lat="45.6419127" lon="9.4941441"><ele>157.0</ele><time>2026-04-09T14:06:27.544Z</time></trkpt><trkpt lat="45.6420094" lon="9.4941416"><ele>157.0</ele><time>2026-04-09T14:06:28.543Z</time></trkpt><trkpt lat="45.6420879" lon="9.4941418"><ele>157.0</ele><time>2026-04-09T14:06:29.543Z</time></trkpt><trkpt lat="45.6421606" lon="9.4941407"><ele>156.2</ele><time>2026-04-09T14:06:30.544Z</time></trkpt><trkpt lat="45.6422317" lon="9.4941773"><ele>155.39999999999998</ele><time>2026-04-09T14:06:31.544Z</time></trkpt><trkpt lat="45.6423688" lon="9.4941998"><ele>154.60000000000002</ele><time>2026-04-09T14:06:33.544Z</time></trkpt><trkpt lat="45.642436" lon="9.4942107"><ele>153.8</ele><time>2026-04-09T14:06:34.543Z</time></trkpt><trkpt lat="45.6425401" lon="9.4942332"><ele>153.0</ele><time>2026-04-09T14:06:35.544Z</time></trkpt><trkpt lat="45.642622" lon="9.4942315"><ele>153.0</ele><time>2026-04-09T14:06:36.543Z</time></trkpt><trkpt lat="45.6426925" lon="9.4942385"><ele>153.0</ele><time>2026-04-09T14:06:37.544Z</time></trkpt><trkpt lat="45.6427714" lon="9.4942419"><ele>153.0</ele><time>2026-04-09T14:06:38.543Z</time></trkpt><trkpt lat="45.6428471" lon="9.494252"><ele>153.0</ele><time>2026-04-09T14:06:39.544Z</time></trkpt><trkpt lat="45.6429148" lon="9.4942735"><ele>153.0</ele><time>2026-04-09T14:06:40.544Z</time></trkpt><trkpt lat="45.6429919" lon="9.4942794"><ele>153.0</ele><time>2026-04-09T14:06:41.544Z</time></trkpt><trkpt lat="45.6430703" lon="9.4942809"><ele>153.14285714285714</ele><time>2026-04-09T14:06:42.544Z</time></trkpt><trkpt lat="45.6431422" lon="9.4942813"><ele>153.28571428571428</ele><time>2026-04-09T14:06:43.544Z</time></trkpt><trkpt lat="45.643215" lon="9.4942801"><ele>153.42857142857144</ele><time>2026-04-09T14:06:44.544Z</time></trkpt><trkpt lat="45.6432846" lon="9.4942845"><ele>153.57142857142856</ele><time>2026-04-09T14:06:45.544Z</time></trkpt><trkpt lat="45.6433635" lon="9.494289"><ele>153.71428571428572</ele><time>2026-04-09T14:06:46.544Z</time></trkpt><trkpt lat="45.6434355" lon="9.494287"><ele>153.85714285714286</ele><time>2026-04-09T14:06:47.543Z</time></trkpt><trkpt lat="45.6435089" lon="9.4942802"><ele>154.0</ele><time>2026-04-09T14:06:48.543Z</time></trkpt><trkpt lat="45.6435855" lon="9.4942785"><ele>154.33333333333334</ele><time>2026-04-09T14:06:49.543Z</time></trkpt><trkpt lat="45.6436692" lon="9.4942682"><ele>154.66666666666669</ele><time>2026-04-09T14:06:50.544Z</time></trkpt><trkpt lat="45.6437453" lon="9.4942623"><ele>155.0</ele><time>2026-04-09T14:06:51.543Z</time></trkpt><trkpt lat="45.6438238" lon="9.4942585"><ele>155.33333333333334</ele><time>2026-04-09T14:06:52.544Z</time></trkpt><trkpt lat="45.6438969" lon="9.4942533"><ele>155.66666666666666</ele><time>2026-04-09T14:06:53.544Z</time></trkpt><trkpt lat="45.6439778" lon="9.494229"><ele>156.0</ele><time>2026-04-09T14:06:54.544Z</time></trkpt><trkpt lat="45.6440647" lon="9.4942114"><ele>156.0</ele><time>2026-04-09T14:06:55.544Z</time></trkpt><trkpt lat="45.6441475" lon="9.4942001"><ele>156.0</ele><time>2026-04-09T14:06:56.543Z</time></trkpt><trkpt lat="45.6442764" lon="9.4942046"><ele>156.0</ele><time>2026-04-09T14:06:58.543Z</time></trkpt><trkpt lat="45.6443414" lon="9.494195"><ele>156.0</ele><time>2026-04-09T14:06:59.543Z</time></trkpt><trkpt lat="45.6444183" lon="9.4942065"><ele>156.0</ele><time>2026-04-09T14:07:00.543Z</time></trkpt><trkpt lat="45.6444812" lon="9.4942176"><ele>156.0</ele><time>2026-04-09T14:07:01.544Z</time></trkpt><trkpt lat="45.6445631" lon="9.4942108"><ele>156.16666666666666</ele><time>2026-04-09T14:07:02.543Z</time></trkpt><trkpt lat="45.6446438" lon="9.4942179"><ele>156.33333333333334</ele><time>2026-04-09T14:07:03.544Z</time></trkpt><trkpt lat="45.6447301" lon="9.4942124"><ele>156.5</ele><time>2026-04-09T14:07:04.544Z</time></trkpt><trkpt lat="45.6448024" lon="9.4942047"><ele>156.66666666666669</ele><time>2026-04-09T14:07:05.543Z</time></trkpt><trkpt lat="45.644892" lon="9.4942137"><ele>156.83333333333334</ele><time>2026-04-09T14:07:06.543Z</time></trkpt><trkpt lat="45.6449766" lon="9.4942008"><ele>157.0</ele><time>2026-04-09T14:07:07.544Z</time></trkpt><trkpt lat="45.6450568" lon="9.4942114"><ele>157.0</ele><time>2026-04-09T14:07:08.544Z</time></trkpt><trkpt lat="45.6451323" lon="9.4942068"><ele>157.0</ele><time>2026-04-09T14:07:09.544Z</time></trkpt><trkpt lat="45.6452192" lon="9.4942042"><ele>157.0</ele><time>2026-04-09T14:07:10.544Z</time></trkpt><trkpt lat="45.6452894" lon="9.4941916"><ele>157.0</ele><time>2026-04-09T14:07:11.543Z</time></trkpt><trkpt lat="45.6453663" lon="9.4942017"><ele>157.0</ele><time>2026-04-09T14:07:12.544Z</time></trkpt><trkpt lat="45.6454403" lon="9.4942092"><ele>157.0</ele><time>2026-04-09T14:07:13.543Z</time></trkpt><trkpt lat="45.6455274" lon="9.4942039"><ele>157.66666666666669</ele><time>2026-04-09T14:07:14.543Z</time></trkpt><trkpt lat="45.6456064" lon="9.4941967"><ele>158.33333333333334</ele><time>2026-04-09T14:07:15.544Z</time></trkpt><trkpt lat="45.6456817" lon="9.4942049"><ele>159.0</ele><time>2026-04-09T14:07:16.543Z</time></trkpt><trkpt lat="45.6457485" lon="9.4941989"><ele>159.66666666666666</ele><time>2026-04-09T14:07:17.544Z</time></trkpt><trkpt lat="45.6458167" lon="9.4941933"><ele>160.33333333333331</ele><time>2026-04-09T14:07:18.544Z</time></trkpt><trkpt lat="45.6458992" lon="9.49419"><ele>161.0</ele><time>2026-04-09T14:07:19.543Z</time></trkpt><trkpt lat="45.6459816" lon="9.4941961"><ele>161.0</ele><time>2026-04-09T14:07:20.544Z</time></trkpt><trkpt lat="45.6460582" lon="9.4941962"><ele>161.0</ele><time>2026-04-09T14:07:21.544Z</time></trkpt><trkpt lat="45.6461318" lon="9.4941926"><ele>161.0</ele><time>2026-04-09T14:07:22.543Z</time></trkpt><trkpt lat="45.6462091" lon="9.4941748"><ele>161.0</ele><time>2026-04-09T14:07:23.544Z</time></trkpt><trkpt lat="45.6462806" lon="9.4941795"><ele>161.0</ele><time>2026-04-09T14:07:24.544Z</time></trkpt><trkpt lat="45.6463594" lon="9.4941727"><ele>161.0</ele><time>2026-04-09T14:07:25.544Z</time></trkpt><trkpt lat="45.6464362" lon="9.4941686"><ele>161.0</ele><time>2026-04-09T14:07:26.544Z</time></trkpt><trkpt lat="45.6465216" lon="9.4941912"><ele>161.0</ele><time>2026-04-09T14:07:27.543Z</time></trkpt><trkpt lat="45.6466537" lon="9.4941841"><ele>161.0</ele><time>2026-04-09T14:07:29.543Z</time></trkpt><trkpt lat="45.6467293" lon="9.4941792"><ele>161.0</ele><time>2026-04-09T14:07:30.544Z</time></trkpt><trkpt lat="45.6468081" lon="9.4941715"><ele>161.0</ele><time>2026-04-09T14:07:31.544Z</time></trkpt><trkpt lat="45.6469447" lon="9.4941273"><ele>160.0</ele><time>2026-04-09T14:07:33.544Z</time></trkpt><trkpt lat="45.6470256" lon="9.4941092"><ele>159.0</ele><time>2026-04-09T14:07:34.543Z</time></trkpt><trkpt lat="45.6470897" lon="9.494068"><ele>158.0</ele><time>2026-04-09T14:07:35.544Z</time></trkpt><trkpt lat="45.6471594" lon="9.4940378"><ele>157.0</ele><time>2026-04-09T14:07:36.543Z</time></trkpt><trkpt lat="45.6472293" lon="9.4939847"><ele>156.0</ele><time>2026-04-09T14:07:37.543Z</time></trkpt><trkpt lat="45.6473011" lon="9.4939416"><ele>155.0</ele><time>2026-04-09T14:07:38.543Z</time></trkpt><trkpt lat="45.6473868" lon="9.4939015"><ele>155.0</ele><time>2026-04-09T14:07:39.544Z</time></trkpt><trkpt lat="45.6474563" lon="9.4938509"><ele>155.0</ele><time>2026-04-09T14:07:40.544Z</time></trkpt><trkpt lat="45.647564" lon="9.4937442"><ele>155.0</ele><time>2026-04-09T14:07:42.544Z</time></trkpt><trkpt lat="45.6476192" lon="9.4936895"><ele>155.0</ele><time>2026-04-09T14:07:43.543Z</time></trkpt><trkpt lat="45.6476799" lon="9.4936337"><ele>155.0</ele><time>2026-04-09T14:07:44.543Z</time></trkpt><trkpt lat="45.6477476" lon="9.4935564"><ele>155.0</ele><time>2026-04-09T14:07:45.544Z</time></trkpt><trkpt lat="45.6478018" lon="9.4934927"><ele>154.5</ele><time>2026-04-09T14:07:46.543Z</time></trkpt><trkpt lat="45.6478483" lon="9.493415"><ele>154.0</ele><time>2026-04-09T14:07:47.544Z</time></trkpt><trkpt lat="45.6478972" lon="9.493342"><ele>153.5</ele><time>2026-04-09T14:07:48.543Z</time></trkpt><trkpt lat="45.647955" lon="9.4932499"><ele>153.0</ele><time>2026-04-09T14:07:49.543Z</time></trkpt><trkpt lat="45.6480225" lon="9.4931682"><ele>152.5</ele><time>2026-04-09T14:07:50.544Z</time></trkpt><trkpt lat="45.6480783" lon="9.4930747"><ele>152.0</ele><time>2026-04-09T14:07:51.544Z</time></trkpt><trkpt lat="45.6480959" lon="9.4929777"><ele>152.33333333333331</ele><time>2026-04-09T14:07:52.543Z</time></trkpt><trkpt lat="45.6481491" lon="9.4928882"><ele>152.66666666666666</ele><time>2026-04-09T14:07:53.543Z</time></trkpt><trkpt lat="45.6481832" lon="9.4928105"><ele>153.0</ele><time>2026-04-09T14:07:54.544Z</time></trkpt><trkpt lat="45.6482268" lon="9.4926322"><ele>153.33333333333334</ele><time>2026-04-09T14:07:56.544Z</time></trkpt><trkpt lat="45.6482604" lon="9.492518"><ele>153.66666666666669</ele><time>2026-04-09T14:07:57.543Z</time></trkpt><trkpt lat="45.6482903" lon="9.4924075"><ele>154.0</ele><time>2026-04-09T14:07:58.544Z</time></trkpt><trkpt lat="45.6483234" lon="9.4923204"><ele>154.0</ele><time>2026-04-09T14:07:59.544Z</time></trkpt><trkpt lat="45.6483481" lon="9.4922286"><ele>154.0</ele><time>2026-04-09T14:08:00.544Z</time></trkpt><trkpt lat="45.6483667" lon="9.4921339"><ele>154.0</ele><time>2026-04-09T14:08:01.544Z</time></trkpt><trkpt lat="45.6483958" lon="9.4920293"><ele>154.0</ele><time>2026-04-09T14:08:02.544Z</time></trkpt><trkpt lat="45.6484461" lon="9.4919306"><ele>154.0</ele><time>2026-04-09T14:08:03.544Z</time></trkpt><trkpt lat="45.648459" lon="9.4918353"><ele>154.0</ele><time>2026-04-09T14:08:04.544Z</time></trkpt><trkpt lat="45.6484902" lon="9.4917198"><ele>154.0</ele><time>2026-04-09T14:08:05.544Z</time></trkpt><trkpt lat="45.6485224" lon="9.4916269"><ele>154.0</ele><time>2026-04-09T14:08:06.544Z</time></trkpt><trkpt lat="45.6485515" lon="9.4915275"><ele>154.0</ele><time>2026-04-09T14:08:07.544Z</time></trkpt><trkpt lat="45.6485767" lon="9.4914205"><ele>154.0</ele><time>2026-04-09T14:08:08.543Z</time></trkpt><trkpt lat="45.6486294" lon="9.4913489"><ele>154.0</ele><time>2026-04-09T14:08:09.543Z</time></trkpt><trkpt lat="45.6486498" lon="9.4912411"><ele>154.0</ele><time>2026-04-09T14:08:10.543Z</time></trkpt><trkpt lat="45.6486806" lon="9.4911393"><ele>153.8</ele><time>2026-04-09T14:08:11.544Z</time></trkpt><trkpt lat="45.6487056" lon="9.4910514"><ele>153.60000000000002</ele><time>2026-04-09T14:08:12.544Z</time></trkpt><trkpt lat="45.6487484" lon="9.4908562"><ele>153.4</ele><time>2026-04-09T14:08:14.543Z</time></trkpt><trkpt lat="45.6487895" lon="9.4907754"><ele>153.20000000000002</ele><time>2026-04-09T14:08:15.544Z</time></trkpt><trkpt lat="45.6488113" lon="9.4906858"><ele>153.0</ele><time>2026-04-09T14:08:16.543Z</time></trkpt><trkpt lat="45.6488725" lon="9.4905204"><ele>153.6</ele><time>2026-04-09T14:08:18.544Z</time></trkpt><trkpt lat="45.6489385" lon="9.4903887"><ele>154.20000000000002</ele><time>2026-04-09T14:08:20.543Z</time></trkpt><trkpt lat="45.6489886" lon="9.490299"><ele>154.8</ele><time>2026-04-09T14:08:21.544Z</time></trkpt><trkpt lat="45.6490339" lon="9.49023"><ele>155.4</ele><time>2026-04-09T14:08:22.543Z</time></trkpt><trkpt lat="45.6490874" lon="9.490108"><ele>156.0</ele><time>2026-04-09T14:08:24.543Z</time></trkpt><trkpt lat="45.6491435" lon="9.4899551"><ele>156.0</ele><time>2026-04-09T14:08:26.543Z</time></trkpt><trkpt lat="45.6491982" lon="9.4898665"><ele>156.0</ele><time>2026-04-09T14:08:27.544Z</time></trkpt><trkpt lat="45.6492393" lon="9.4897802"><ele>156.0</ele><time>2026-04-09T14:08:28.544Z</time></trkpt><trkpt lat="45.6492804" lon="9.4896839"><ele>156.0</ele><time>2026-04-09T14:08:29.544Z</time></trkpt><trkpt lat="45.6493143" lon="9.489591"><ele>156.0</ele><time>2026-04-09T14:08:30.544Z</time></trkpt><trkpt lat="45.6493807" lon="9.4895115"><ele>156.0</ele><time>2026-04-09T14:08:31.543Z</time></trkpt><trkpt lat="45.6494509" lon="9.4894086"><ele>155.66666666666666</ele><time>2026-04-09T14:08:32.543Z</time></trkpt><trkpt lat="45.6494972" lon="9.4893013"><ele>155.33333333333334</ele><time>2026-04-09T14:08:33.544Z</time></trkpt><trkpt lat="45.6495043" lon="9.4891944"><ele>155.0</ele><time>2026-04-09T14:08:34.544Z</time></trkpt><trkpt lat="45.6495647" lon="9.4891056"><ele>154.66666666666669</ele><time>2026-04-09T14:08:35.543Z</time></trkpt><trkpt lat="45.6495804" lon="9.489"><ele>154.33333333333334</ele><time>2026-04-09T14:08:36.544Z</time></trkpt><trkpt lat="45.6496012" lon="9.4888815"><ele>154.0</ele><time>2026-04-09T14:08:37.544Z</time></trkpt><trkpt lat="45.6496836" lon="9.4887421"><ele>153.83333333333334</ele><time>2026-04-09T14:08:39.544Z</time></trkpt><trkpt lat="45.6497243" lon="9.4886289"><ele>153.66666666666669</ele><time>2026-04-09T14:08:40.544Z</time></trkpt><trkpt lat="45.6497475" lon="9.4885302"><ele>153.5</ele><time>2026-04-09T14:08:41.544Z</time></trkpt><trkpt lat="45.649806" lon="9.4884498"><ele>153.33333333333334</ele><time>2026-04-09T14:08:42.544Z</time></trkpt><trkpt lat="45.6498291" lon="9.4883483"><ele>153.16666666666666</ele><time>2026-04-09T14:08:43.544Z</time></trkpt><trkpt lat="45.6498419" lon="9.4882336"><ele>153.0</ele><time>2026-04-09T14:08:44.544Z</time></trkpt><trkpt lat="45.6498962" lon="9.4881493"><ele>153.0</ele><time>2026-04-09T14:08:45.544Z</time></trkpt><trkpt lat="45.6499329" lon="9.4880587"><ele>153.0</ele><time>2026-04-09T14:08:46.544Z</time></trkpt><trkpt lat="45.6499656" lon="9.4879631"><ele>153.0</ele><time>2026-04-09T14:08:47.544Z</time></trkpt><trkpt lat="45.650009" lon="9.4878549"><ele>153.0</ele><time>2026-04-09T14:08:48.543Z</time></trkpt><trkpt lat="45.6500369" lon="9.487751"><ele>153.0</ele><time>2026-04-09T14:08:49.543Z</time></trkpt><trkpt lat="45.6500685" lon="9.4876535"><ele>153.0</ele><time>2026-04-09T14:08:50.544Z</time></trkpt><trkpt lat="45.6501113" lon="9.4875549"><ele>152.8</ele><time>2026-04-09T14:08:51.543Z</time></trkpt><trkpt lat="45.6501657" lon="9.4874726"><ele>152.60000000000002</ele><time>2026-04-09T14:08:52.544Z</time></trkpt><trkpt lat="45.6502103" lon="9.48739"><ele>152.39999999999998</ele><time>2026-04-09T14:08:53.544Z</time></trkpt><trkpt lat="45.6502702" lon="9.4872534"><ele>152.2</ele><time>2026-04-09T14:08:55.544Z</time></trkpt><trkpt lat="45.650331" lon="9.4870971"><ele>152.0</ele><time>2026-04-09T14:08:57.543Z</time></trkpt><trkpt lat="45.6503679" lon="9.4869411"><ele>151.79999999999998</ele><time>2026-04-09T14:08:59.543Z</time></trkpt><trkpt lat="45.6503982" lon="9.4867776"><ele>151.6</ele><time>2026-04-09T14:09:01.544Z</time></trkpt><trkpt lat="45.6504219" lon="9.4866915"><ele>151.39999999999998</ele><time>2026-04-09T14:09:02.543Z</time></trkpt><trkpt lat="45.6504618" lon="9.4865272"><ele>151.2</ele><time>2026-04-09T14:09:04.543Z</time></trkpt><trkpt lat="45.6504896" lon="9.4864422"><ele>151.0</ele><time>2026-04-09T14:09:05.544Z</time></trkpt><trkpt lat="45.6505547" lon="9.4863236"><ele>152.5</ele><time>2026-04-09T14:09:07.544Z</time></trkpt><trkpt lat="45.650608" lon="9.4861657"><ele>154.0</ele><time>2026-04-09T14:09:09.543Z</time></trkpt><trkpt lat="45.6506339" lon="9.4860832"><ele>155.5</ele><time>2026-04-09T14:09:10.544Z</time></trkpt><trkpt lat="45.6506854" lon="9.4860275"><ele>157.0</ele><time>2026-04-09T14:09:11.544Z</time></trkpt><trkpt lat="45.6507044" lon="9.4859385"><ele>158.5</ele><time>2026-04-09T14:09:12.544Z</time></trkpt><trkpt lat="45.6507715" lon="9.4858021"><ele>160.0</ele><time>2026-04-09T14:09:14.544Z</time></trkpt><trkpt lat="45.6508242" lon="9.485718"><ele>160.0</ele><time>2026-04-09T14:09:16.544Z</time></trkpt><trkpt lat="45.6508789" lon="9.4856531"><ele>160.0</ele><time>2026-04-09T14:09:18.544Z</time></trkpt><trkpt lat="45.6509535" lon="9.4855965"><ele>160.0</ele><time>2026-04-09T14:09:20.543Z</time></trkpt><trkpt lat="45.6510269" lon="9.4855223"><ele>160.0</ele><time>2026-04-09T14:09:22.543Z</time></trkpt><trkpt lat="45.6511083" lon="9.4854468"><ele>160.0</ele><time>2026-04-09T14:09:24.544Z</time></trkpt><trkpt lat="45.6511869" lon="9.4853689"><ele>160.0</ele><time>2026-04-09T14:09:26.544Z</time></trkpt><trkpt lat="45.6512648" lon="9.4852693"><ele>161.0</ele><time>2026-04-09T14:09:28.544Z</time></trkpt><trkpt lat="45.6513421" lon="9.4851823"><ele>162.0</ele><time>2026-04-09T14:09:30.543Z</time></trkpt><trkpt lat="45.651417" lon="9.4851071"><ele>163.0</ele><time>2026-04-09T14:09:32.544Z</time></trkpt><trkpt lat="45.6514907" lon="9.4850536"><ele>164.0</ele><time>2026-04-09T14:09:34.544Z</time></trkpt><trkpt lat="45.6515538" lon="9.4849767"><ele>165.0</ele><time>2026-04-09T14:09:36.544Z</time></trkpt><trkpt lat="45.6516298" lon="9.4848967"><ele>165.0</ele><time>2026-04-09T14:09:38.544Z</time></trkpt><trkpt lat="45.6517137" lon="9.4848212"><ele>165.0</ele><time>2026-04-09T14:09:40.544Z</time></trkpt><trkpt lat="45.6517879" lon="9.4847376"><ele>165.0</ele><time>2026-04-09T14:09:42.543Z</time></trkpt><trkpt lat="45.6518653" lon="9.4846199"><ele>165.0</ele><time>2026-04-09T14:09:44.543Z</time></trkpt><trkpt lat="45.6519513" lon="9.4845308"><ele>165.0</ele><time>2026-04-09T14:09:46.543Z</time></trkpt><trkpt lat="45.6520088" lon="9.4844765"><ele>165.2</ele><time>2026-04-09T14:09:47.544Z</time></trkpt><trkpt lat="45.6520945" lon="9.4844234"><ele>165.4</ele><time>2026-04-09T14:09:49.544Z</time></trkpt><trkpt lat="45.6521771" lon="9.4843838"><ele>165.60000000000002</ele><time>2026-04-09T14:09:51.543Z</time></trkpt><trkpt lat="45.6522655" lon="9.4843842"><ele>165.8</ele><time>2026-04-09T14:09:53.544Z</time></trkpt><trkpt lat="45.6523674" lon="9.4843533"><ele>166.0</ele><time>2026-04-09T14:09:56.544Z</time></trkpt><trkpt lat="45.6524557" lon="9.4843215"><ele>166.0</ele><time>2026-04-09T14:09:58.544Z</time></trkpt><trkpt lat="45.6525501" lon="9.4843011"><ele>166.0</ele><time>2026-04-09T14:10:00.544Z</time></trkpt><trkpt lat="45.6526738" lon="9.4842644"><ele>166.0</ele><time>2026-04-09T14:10:02.544Z</time></trkpt><trkpt lat="45.652784" lon="9.4842517"><ele>166.0</ele><time>2026-04-09T14:10:04.543Z</time></trkpt><trkpt lat="45.6528458" lon="9.484283"><ele>166.0</ele><time>2026-04-09T14:10:05.543Z</time></trkpt><trkpt lat="45.6529141" lon="9.4843073"><ele>164.8</ele><time>2026-04-09T14:10:06.543Z</time></trkpt><trkpt lat="45.6530262" lon="9.4843279"><ele>163.60000000000002</ele><time>2026-04-09T14:10:08.544Z</time></trkpt><trkpt lat="45.65313" lon="9.4843383"><ele>162.4</ele><time>2026-04-09T14:10:10.543Z</time></trkpt><trkpt lat="45.6531985" lon="9.4843446"><ele>161.2</ele><time>2026-04-09T14:10:11.544Z</time></trkpt><trkpt lat="45.6533156" lon="9.484355"><ele>160.0</ele><time>2026-04-09T14:10:13.544Z</time></trkpt><trkpt lat="45.6534306" lon="9.4843778"><ele>160.0</ele><time>2026-04-09T14:10:15.543Z</time></trkpt><trkpt lat="45.6534938" lon="9.4843857"><ele>160.0</ele><time>2026-04-09T14:10:16.544Z</time></trkpt><trkpt lat="45.6536096" lon="9.4844378"><ele>160.0</ele><time>2026-04-09T14:10:18.544Z</time></trkpt><trkpt lat="45.6536736" lon="9.4844515"><ele>160.0</ele><time>2026-04-09T14:10:19.544Z</time></trkpt><trkpt lat="45.6537612" lon="9.4845891"><ele>160.0</ele><time>2026-04-09T14:10:21.544Z</time></trkpt><trkpt lat="45.6538514" lon="9.4846869"><ele>159.4</ele><time>2026-04-09T14:10:23.543Z</time></trkpt><trkpt lat="45.6539557" lon="9.4847386"><ele>158.8</ele><time>2026-04-09T14:10:25.543Z</time></trkpt><trkpt lat="45.6540559" lon="9.4847554"><ele>158.2</ele><time>2026-04-09T14:10:27.543Z</time></trkpt><trkpt lat="45.6541742" lon="9.4847686"><ele>157.6</ele><time>2026-04-09T14:10:30.543Z</time></trkpt><trkpt lat="45.6542443" lon="9.4847712"><ele>157.0</ele><time>2026-04-09T14:10:32.544Z</time></trkpt><trkpt lat="45.6543204" lon="9.4847693"><ele>156.99999999999997</ele><time>2026-04-09T14:10:34.544Z</time></trkpt><trkpt lat="45.6544129" lon="9.4847546"><ele>157.0</ele><time>2026-04-09T14:10:37.544Z</time></trkpt><trkpt lat="45.6544713" lon="9.4846991"><ele>157.0</ele><time>2026-04-09T14:10:39.543Z</time></trkpt><trkpt lat="45.6545278" lon="9.4846522"><ele>157.0</ele><time>2026-04-09T14:10:41.543Z</time></trkpt><trkpt lat="45.6545685" lon="9.484577"><ele>157.0</ele><time>2026-04-09T14:10:43.544Z</time></trkpt><trkpt lat="45.6546017" lon="9.4844597"><ele>156.99999999999997</ele><time>2026-04-09T14:10:46.543Z</time></trkpt><trkpt lat="45.6546085" lon="9.4843668"><ele>157.0</ele><time>2026-04-09T14:10:48.544Z</time></trkpt><trkpt lat="45.6545893" lon="9.4842776"><ele>157.5</ele><time>2026-04-09T14:10:50.543Z</time></trkpt><trkpt lat="45.6545453" lon="9.4842091"><ele>158.0</ele><time>2026-04-09T14:10:52.544Z</time></trkpt><trkpt lat="45.6544707" lon="9.4841239"><ele>158.5</ele><time>2026-04-09T14:10:55.544Z</time></trkpt><trkpt lat="45.654396" lon="9.4840518"><ele>159.0</ele><time>2026-04-09T14:10:58.544Z</time></trkpt><trkpt lat="45.6543423" lon="9.4840012"><ele>159.5</ele><time>2026-04-09T14:11:00.543Z</time></trkpt><trkpt lat="45.6542752" lon="9.4839495"><ele>160.0</ele><time>2026-04-09T14:11:02.544Z</time></trkpt><trkpt lat="45.6542039" lon="9.4839172"><ele>160.0</ele><time>2026-04-09T14:11:04.544Z</time></trkpt><trkpt lat="45.6541331" lon="9.483875"><ele>160.0</ele><time>2026-04-09T14:11:06.543Z</time></trkpt><trkpt lat="45.6540688" lon="9.4838299"><ele>160.0</ele><time>2026-04-09T14:11:08.544Z</time></trkpt><trkpt lat="45.6540045" lon="9.4837686"><ele>160.0</ele><time>2026-04-09T14:11:10.543Z</time></trkpt><trkpt lat="45.6539662" lon="9.4836727"><ele>160.0</ele><time>2026-04-09T14:11:12.544Z</time></trkpt><trkpt lat="45.6539561" lon="9.4835715"><ele>160.0</ele><time>2026-04-09T14:11:14.544Z</time></trkpt><trkpt lat="45.6539947" lon="9.4834441"><ele>161.33333333333334</ele><time>2026-04-09T14:11:17.543Z</time></trkpt><trkpt lat="45.65405" lon="9.4833721"><ele>162.66666666666669</ele><time>2026-04-09T14:11:19.544Z</time></trkpt><trkpt lat="45.6541188" lon="9.483313"><ele>164.0</ele><time>2026-04-09T14:11:21.544Z</time></trkpt><trkpt lat="45.6541864" lon="9.4832604"><ele>165.33333333333334</ele><time>2026-04-09T14:11:23.543Z</time></trkpt><trkpt lat="45.6542564" lon="9.4832185"><ele>166.66666666666666</ele><time>2026-04-09T14:11:25.544Z</time></trkpt><trkpt lat="45.6543179" lon="9.4831927"><ele>168.0</ele><time>2026-04-09T14:11:27.543Z</time></trkpt><trkpt lat="45.6543958" lon="9.483171"><ele>168.5</ele><time>2026-04-09T14:11:29.543Z</time></trkpt><trkpt lat="45.6544746" lon="9.4831759"><ele>169.0</ele><time>2026-04-09T14:11:31.543Z</time></trkpt><trkpt lat="45.6545558" lon="9.4831902"><ele>169.5</ele><time>2026-04-09T14:11:33.544Z</time></trkpt><trkpt lat="45.6546351" lon="9.4831983"><ele>170.0</ele><time>2026-04-09T14:11:35.543Z</time></trkpt><trkpt lat="45.6547301" lon="9.4831837"><ele>170.5</ele><time>2026-04-09T14:11:38.543Z</time></trkpt><trkpt lat="45.6548287" lon="9.4831639"><ele>171.0</ele><time>2026-04-09T14:11:41.544Z</time></trkpt><trkpt lat="45.6549112" lon="9.4831516"><ele>171.0</ele><time>2026-04-09T14:11:43.544Z</time></trkpt><trkpt lat="45.6550033" lon="9.4831525"><ele>171.0</ele><time>2026-04-09T14:11:45.544Z</time></trkpt><trkpt lat="45.6551922" lon="9.4831729"><ele>171.0</ele><time>2026-04-09T14:11:48.543Z</time></trkpt><trkpt lat="45.655297" lon="9.4831836"><ele>171.0</ele><time>2026-04-09T14:11:49.544Z</time></trkpt><trkpt lat="45.6553616" lon="9.4831788"><ele>171.0</ele><time>2026-04-09T14:11:50.543Z</time></trkpt><trkpt lat="45.655446" lon="9.4832119"><ele>171.0</ele><time>2026-04-09T14:11:52.543Z</time></trkpt><trkpt lat="45.6555817" lon="9.4832115"><ele>171.0</ele><time>2026-04-09T14:11:55.543Z</time></trkpt><trkpt lat="45.6557153" lon="9.4832159"><ele>171.0</ele><time>2026-04-09T14:11:58.544Z</time></trkpt><trkpt lat="45.6558125" lon="9.4832513"><ele>171.0</ele><time>2026-04-09T14:12:00.544Z</time></trkpt><trkpt lat="45.6559646" lon="9.4832514"><ele>171.0</ele><time>2026-04-09T14:12:03.543Z</time></trkpt><trkpt lat="45.6560479" lon="9.4832249"><ele>171.0</ele><time>2026-04-09T14:12:05.544Z</time></trkpt><trkpt lat="45.6561555" lon="9.4831928"><ele>171.0</ele><time>2026-04-09T14:12:07.544Z</time></trkpt><trkpt lat="45.6562451" lon="9.4832659"><ele>171.20000000000002</ele><time>2026-04-09T14:12:09.544Z</time></trkpt><trkpt lat="45.6563443" lon="9.4833228"><ele>171.4</ele><time>2026-04-09T14:12:11.543Z</time></trkpt><trkpt lat="45.6564123" lon="9.4833703"><ele>171.6</ele><time>2026-04-09T14:12:13.543Z</time></trkpt><trkpt lat="45.656516" lon="9.4833379"><ele>171.8</ele><time>2026-04-09T14:12:15.544Z</time></trkpt><trkpt lat="45.6566066" lon="9.4833384"><ele>172.0</ele><time>2026-04-09T14:12:17.543Z</time></trkpt><trkpt lat="45.6567159" lon="9.4833178"><ele>172.0</ele><time>2026-04-09T14:12:19.544Z</time></trkpt><trkpt lat="45.6568057" lon="9.4832983"><ele>172.0</ele><time>2026-04-09T14:12:21.543Z</time></trkpt><trkpt lat="45.6568678" lon="9.4833186"><ele>172.0</ele><time>2026-04-09T14:12:22.544Z</time></trkpt><trkpt lat="45.6569542" lon="9.4833466"><ele>172.0</ele><time>2026-04-09T14:12:24.543Z</time></trkpt><trkpt lat="45.6570555" lon="9.4833701"><ele>172.0</ele><time>2026-04-09T14:12:26.543Z</time></trkpt><trkpt lat="45.6571467" lon="9.4833584"><ele>172.0</ele><time>2026-04-09T14:12:28.544Z</time></trkpt><trkpt lat="45.6572432" lon="9.4833653"><ele>171.8</ele><time>2026-04-09T14:12:30.544Z</time></trkpt><trkpt lat="45.6573121" lon="9.4833904"><ele>171.6</ele><time>2026-04-09T14:12:31.543Z</time></trkpt><trkpt lat="45.6574098" lon="9.4833745"><ele>171.4</ele><time>2026-04-09T14:12:33.543Z</time></trkpt><trkpt lat="45.6575061" lon="9.4833867"><ele>171.20000000000002</ele><time>2026-04-09T14:12:35.543Z</time></trkpt><trkpt lat="45.6576112" lon="9.483391"><ele>171.0</ele><time>2026-04-09T14:12:37.543Z</time></trkpt><trkpt lat="45.6577226" lon="9.48339"><ele>171.4</ele><time>2026-04-09T14:12:39.544Z</time></trkpt><trkpt lat="45.6578147" lon="9.4833836"><ele>171.8</ele><time>2026-04-09T14:12:41.543Z</time></trkpt><trkpt lat="45.6578961" lon="9.4834041"><ele>172.20000000000002</ele><time>2026-04-09T14:12:43.543Z</time></trkpt><trkpt lat="45.6579943" lon="9.4834173"><ele>172.60000000000002</ele><time>2026-04-09T14:12:45.543Z</time></trkpt><trkpt lat="45.658096" lon="9.4833931"><ele>173.0</ele><time>2026-04-09T14:12:47.544Z</time></trkpt><trkpt lat="45.6581793" lon="9.4834203"><ele>173.0</ele><time>2026-04-09T14:12:49.544Z</time></trkpt><trkpt lat="45.6583177" lon="9.4834174"><ele>173.0</ele><time>2026-04-09T14:12:52.544Z</time></trkpt><trkpt lat="45.6584155" lon="9.4834114"><ele>173.0</ele><time>2026-04-09T14:12:54.544Z</time></trkpt><trkpt lat="45.6585114" lon="9.483404"><ele>173.0</ele><time>2026-04-09T14:12:56.543Z</time></trkpt><trkpt lat="45.6586078" lon="9.4834027"><ele>173.0</ele><time>2026-04-09T14:12:58.543Z</time></trkpt><trkpt lat="45.6587043" lon="9.4834119"><ele>172.8</ele><time>2026-04-09T14:13:00.544Z</time></trkpt><trkpt lat="45.6588015" lon="9.4834133"><ele>172.60000000000002</ele><time>2026-04-09T14:13:02.543Z</time></trkpt><trkpt lat="45.6588958" lon="9.4834033"><ele>172.39999999999998</ele><time>2026-04-09T14:13:04.544Z</time></trkpt><trkpt lat="45.6589903" lon="9.4834079"><ele>172.2</ele><time>2026-04-09T14:13:06.544Z</time></trkpt><trkpt lat="45.6590855" lon="9.4834167"><ele>172.0</ele><time>2026-04-09T14:13:08.544Z</time></trkpt><trkpt lat="45.6591788" lon="9.4834373"><ele>172.0</ele><time>2026-04-09T14:13:10.543Z</time></trkpt><trkpt lat="45.6592766" lon="9.4834476"><ele>172.0</ele><time>2026-04-09T14:13:12.544Z</time></trkpt><trkpt lat="45.6593777" lon="9.4834585"><ele>172.0</ele><time>2026-04-09T14:13:14.544Z</time></trkpt><trkpt lat="45.6594733" lon="9.4834706"><ele>172.0</ele><time>2026-04-09T14:13:16.544Z</time></trkpt><trkpt lat="45.6595764" lon="9.4834793"><ele>172.0</ele><time>2026-04-09T14:13:18.543Z</time></trkpt><trkpt lat="45.6596755" lon="9.483477"><ele>173.33333333333334</ele><time>2026-04-09T14:13:20.543Z</time></trkpt><trkpt lat="45.659764" lon="9.4834782"><ele>174.66666666666669</ele><time>2026-04-09T14:13:22.544Z</time></trkpt><trkpt lat="45.6598483" lon="9.4834813"><ele>176.0</ele><time>2026-04-09T14:13:24.544Z</time></trkpt><trkpt lat="45.6599292" lon="9.4834766"><ele>177.33333333333334</ele><time>2026-04-09T14:13:26.544Z</time></trkpt><trkpt lat="45.6600083" lon="9.4834731"><ele>178.66666666666666</ele><time>2026-04-09T14:13:28.544Z</time></trkpt><trkpt lat="45.6600823" lon="9.4834869"><ele>180.0</ele><time>2026-04-09T14:13:30.544Z</time></trkpt><trkpt lat="45.6602517" lon="9.4834963"><ele>180.25</ele><time>2026-04-09T14:13:36.544Z</time></trkpt><trkpt lat="45.6603154" lon="9.4834752"><ele>180.5</ele><time>2026-04-09T14:13:38.544Z</time></trkpt><trkpt lat="45.6605722" lon="9.4834798"><ele>180.75</ele><time>2026-04-09T14:13:45.544Z</time></trkpt><trkpt lat="45.6606875" lon="9.4835026"><ele>181.0</ele><time>2026-04-09T14:13:47.543Z</time></trkpt><trkpt lat="45.660772" lon="9.4835226"><ele>181.0</ele><time>2026-04-09T14:13:49.544Z</time></trkpt><trkpt lat="45.6608921" lon="9.4835368"><ele>181.0</ele><time>2026-04-09T14:13:51.543Z</time></trkpt><trkpt lat="45.6609553" lon="9.4835436"><ele>181.0</ele><time>2026-04-09T14:13:52.544Z</time></trkpt><trkpt lat="45.6610794" lon="9.4835505"><ele>181.0</ele><time>2026-04-09T14:13:54.544Z</time></trkpt><trkpt lat="45.6611983" lon="9.4835675"><ele>181.0</ele><time>2026-04-09T14:13:56.544Z</time></trkpt><trkpt lat="45.6613082" lon="9.4835861"><ele>181.5</ele><time>2026-04-09T14:13:58.544Z</time></trkpt><trkpt lat="45.661427" lon="9.4836065"><ele>182.0</ele><time>2026-04-09T14:14:00.544Z</time></trkpt><trkpt lat="45.6615476" lon="9.4836273"><ele>182.5</ele><time>2026-04-09T14:14:02.544Z</time></trkpt><trkpt lat="45.6616681" lon="9.4836493"><ele>183.0</ele><time>2026-04-09T14:14:04.544Z</time></trkpt><trkpt lat="45.6617851" lon="9.4836666"><ele>183.0</ele><time>2026-04-09T14:14:06.544Z</time></trkpt><trkpt lat="45.6618856" lon="9.4836859"><ele>183.0</ele><time>2026-04-09T14:14:08.544Z</time></trkpt><trkpt lat="45.6619997" lon="9.4837319"><ele>183.0</ele><time>2026-04-09T14:14:10.544Z</time></trkpt><trkpt lat="45.6621191" lon="9.4837762"><ele>183.0</ele><time>2026-04-09T14:14:12.543Z</time></trkpt><trkpt lat="45.6622189" lon="9.4838748"><ele>183.5</ele><time>2026-04-09T14:14:14.543Z</time></trkpt><trkpt lat="45.6622584" lon="9.4839506"><ele>184.0</ele><time>2026-04-09T14:14:15.543Z</time></trkpt><trkpt lat="45.6622881" lon="9.4840369"><ele>184.5</ele><time>2026-04-09T14:14:16.544Z</time></trkpt><trkpt lat="45.6623084" lon="9.4841287"><ele>185.0</ele><time>2026-04-09T14:14:17.544Z</time></trkpt><trkpt lat="45.6623249" lon="9.4842173"><ele>185.5</ele><time>2026-04-09T14:14:18.544Z</time></trkpt><trkpt lat="45.6623616" lon="9.4843772"><ele>186.0</ele><time>2026-04-09T14:14:20.543Z</time></trkpt><trkpt lat="45.6624267" lon="9.4845006"><ele>184.8</ele><time>2026-04-09T14:14:21.544Z</time></trkpt><trkpt lat="45.6624658" lon="9.4846448"><ele>183.60000000000002</ele><time>2026-04-09T14:14:23.544Z</time></trkpt><trkpt lat="45.6624914" lon="9.4847294"><ele>182.4</ele><time>2026-04-09T14:14:24.543Z</time></trkpt><trkpt lat="45.6625351" lon="9.4848016"><ele>181.2</ele><time>2026-04-09T14:14:25.544Z</time></trkpt><trkpt lat="45.6626437" lon="9.4848953"><ele>180.0</ele><time>2026-04-09T14:14:27.544Z</time></trkpt><trkpt lat="45.6627643" lon="9.4849376"><ele>181.2</ele><time>2026-04-09T14:14:29.543Z</time></trkpt><trkpt lat="45.6627959" lon="9.4848547"><ele>182.4</ele><time>2026-04-09T14:14:30.543Z</time></trkpt><trkpt lat="45.6628682" lon="9.4847441"><ele>183.60000000000002</ele><time>2026-04-09T14:14:32.543Z</time></trkpt><trkpt lat="45.6629034" lon="9.4846083"><ele>184.8</ele><time>2026-04-09T14:14:34.543Z</time></trkpt><trkpt lat="45.6629349" lon="9.4844684"><ele>186.0</ele><time>2026-04-09T14:14:36.544Z</time></trkpt><trkpt lat="45.6629584" lon="9.4843237"><ele>186.60000000000002</ele><time>2026-04-09T14:14:38.544Z</time></trkpt><trkpt lat="45.6630021" lon="9.4841945"><ele>187.2</ele><time>2026-04-09T14:14:40.544Z</time></trkpt><trkpt lat="45.6630312" lon="9.4840465"><ele>187.8</ele><time>2026-04-09T14:14:42.543Z</time></trkpt><trkpt lat="45.663077" lon="9.4838953"><ele>188.39999999999998</ele><time>2026-04-09T14:14:44.544Z</time></trkpt><trkpt lat="45.6631166" lon="9.483747"><ele>189.0</ele><time>2026-04-09T14:14:46.543Z</time></trkpt><trkpt lat="45.6631611" lon="9.4836048"><ele>189.0</ele><time>2026-04-09T14:14:48.543Z</time></trkpt><trkpt lat="45.6631943" lon="9.4834402"><ele>189.0</ele><time>2026-04-09T14:14:50.544Z</time></trkpt><trkpt lat="45.663208" lon="9.4833003"><ele>189.0</ele><time>2026-04-09T14:14:52.885Z</time></trkpt><trkpt lat="45.6632477" lon="9.4831301"><ele>189.0</ele><time>2026-04-09T14:14:54.545Z</time></trkpt><trkpt lat="45.6632733" lon="9.4829818"><ele>189.39999999999998</ele><time>2026-04-09T14:14:56.544Z</time></trkpt><trkpt lat="45.6633185" lon="9.48283"><ele>189.8</ele><time>2026-04-09T14:14:58.542Z</time></trkpt><trkpt lat="45.6633599" lon="9.4826906"><ele>190.2</ele><time>2026-04-09T14:15:00.542Z</time></trkpt><trkpt lat="45.6634061" lon="9.4825772"><ele>190.60000000000002</ele><time>2026-04-09T14:15:02.541Z</time></trkpt><trkpt lat="45.663441" lon="9.4824516"><ele>191.0</ele><time>2026-04-09T14:15:04.542Z</time></trkpt><trkpt lat="45.663481" lon="9.4823657"><ele>191.0</ele><time>2026-04-09T14:15:06.541Z</time></trkpt><trkpt lat="45.6634985" lon="9.4822605"><ele>191.0</ele><time>2026-04-09T14:15:08.542Z</time></trkpt><trkpt lat="45.6635321" lon="9.4821822"><ele>191.0</ele><time>2026-04-09T14:15:10.542Z</time></trkpt><trkpt lat="45.6635694" lon="9.4820784"><ele>191.0</ele><time>2026-04-09T14:15:13.541Z</time></trkpt><trkpt lat="45.6636071" lon="9.4819779"><ele>191.0</ele><time>2026-04-09T14:15:16.541Z</time></trkpt><trkpt lat="45.663644" lon="9.4818754"><ele>191.0</ele><time>2026-04-09T14:15:19.541Z</time></trkpt><trkpt lat="45.6636714" lon="9.481781"><ele>193.71428571428572</ele><time>2026-04-09T14:15:22.542Z</time></trkpt><trkpt lat="45.6637089" lon="9.4817015"><ele>196.42857142857142</ele><time>2026-04-09T14:15:25.542Z</time></trkpt><trkpt lat="45.6637663" lon="9.4816358"><ele>199.14285714285714</ele><time>2026-04-09T14:15:29.542Z</time></trkpt><trkpt lat="45.6638227" lon="9.4815701"><ele>201.85714285714286</ele><time>2026-04-09T14:15:33.542Z</time></trkpt><trkpt lat="45.6638616" lon="9.4814717"><ele>204.57142857142856</ele><time>2026-04-09T14:15:37.542Z</time></trkpt><trkpt lat="45.6638592" lon="9.4813731"><ele>207.28571428571428</ele><time>2026-04-09T14:15:40.541Z</time></trkpt><trkpt lat="45.6638393" lon="9.4812736"><ele>210.0</ele><time>2026-04-09T14:15:43.541Z</time></trkpt><trkpt lat="45.6638015" lon="9.4811865"><ele>209.57142857142858</ele><time>2026-04-09T14:15:46.541Z</time></trkpt><trkpt lat="45.6637695" lon="9.4811068"><ele>209.14285714285714</ele><time>2026-04-09T14:15:49.542Z</time></trkpt><trkpt lat="45.663721" lon="9.4810172"><ele>208.71428571428572</ele><time>2026-04-09T14:15:53.541Z</time></trkpt><trkpt lat="45.6636754" lon="9.4809307"><ele>208.28571428571428</ele><time>2026-04-09T14:15:57.542Z</time></trkpt><trkpt lat="45.6636193" lon="9.4808449"><ele>207.85714285714286</ele><time>2026-04-09T14:16:01.542Z</time></trkpt><trkpt lat="45.6635725" lon="9.4807584"><ele>207.42857142857144</ele><time>2026-04-09T14:16:05.542Z</time></trkpt><trkpt lat="45.6635399" lon="9.4806794"><ele>207.0</ele><time>2026-04-09T14:16:08.542Z</time></trkpt><trkpt lat="45.6635104" lon="9.4805957"><ele>207.00000000000003</ele><time>2026-04-09T14:16:11.541Z</time></trkpt><trkpt lat="45.6634808" lon="9.4805031"><ele>207.0</ele><time>2026-04-09T14:16:14.542Z</time></trkpt><trkpt lat="45.6634451" lon="9.4804157"><ele>207.0</ele><time>2026-04-09T14:16:17.541Z</time></trkpt><trkpt lat="45.6634164" lon="9.4803223"><ele>207.0</ele><time>2026-04-09T14:16:20.541Z</time></trkpt><trkpt lat="45.6633796" lon="9.4802331"><ele>207.0</ele><time>2026-04-09T14:16:23.541Z</time></trkpt><trkpt lat="45.6633504" lon="9.4801473"><ele>207.00000000000003</ele><time>2026-04-09T14:16:26.541Z</time></trkpt><trkpt lat="45.6633268" lon="9.48006"><ele>207.0</ele><time>2026-04-09T14:16:29.541Z</time></trkpt><trkpt lat="45.663301" lon="9.479976"><ele>208.85714285714286</ele><time>2026-04-09T14:16:32.542Z</time></trkpt><trkpt lat="45.6632721" lon="9.4798856"><ele>210.71428571428572</ele><time>2026-04-09T14:16:35.541Z</time></trkpt><trkpt lat="45.6632523" lon="9.4797928"><ele>212.57142857142856</ele><time>2026-04-09T14:16:38.542Z</time></trkpt><trkpt lat="45.6632567" lon="9.4796961"><ele>214.42857142857144</ele><time>2026-04-09T14:16:45.542Z</time></trkpt><trkpt lat="45.663263" lon="9.4795963"><ele>216.28571428571428</ele><time>2026-04-09T14:16:49.542Z</time></trkpt><trkpt lat="45.6632674" lon="9.4794725"><ele>218.14285714285714</ele><time>2026-04-09T14:16:53.541Z</time></trkpt><trkpt lat="45.6632621" lon="9.4793716"><ele>220.0</ele><time>2026-04-09T14:16:55.541Z</time></trkpt><trkpt lat="45.6632684" lon="9.4792751"><ele>221.42857142857142</ele><time>2026-04-09T14:16:57.541Z</time></trkpt><trkpt lat="45.6632806" lon="9.4791674"><ele>222.85714285714283</ele><time>2026-04-09T14:16:59.55Z</time></trkpt><trkpt lat="45.6632811" lon="9.4790513"><ele>224.28571428571428</ele><time>2026-04-09T14:17:01.542Z</time></trkpt><trkpt lat="45.6632708" lon="9.4789497"><ele>225.7142857142857</ele><time>2026-04-09T14:17:03.541Z</time></trkpt><trkpt lat="45.6632631" lon="9.4788602"><ele>227.14285714285714</ele><time>2026-04-09T14:17:05.462Z</time></trkpt><trkpt lat="45.6632573" lon="9.4787539"><ele>228.57142857142853</ele><time>2026-04-09T14:17:07.542Z</time></trkpt><trkpt lat="45.6632556" lon="9.4786444"><ele>229.99999999999997</ele><time>2026-04-09T14:17:09.542Z</time></trkpt><trkpt lat="45.663255" lon="9.4785343"><ele>230.1428571428571</ele><time>2026-04-09T14:17:11.542Z</time></trkpt><trkpt lat="45.6632495" lon="9.4784046"><ele>230.28571428571428</ele><time>2026-04-09T14:17:13.542Z</time></trkpt><trkpt lat="45.6632444" lon="9.4783023"><ele>230.42857142857142</ele><time>2026-04-09T14:17:15.541Z</time></trkpt><trkpt lat="45.6632366" lon="9.478199"><ele>230.57142857142856</ele><time>2026-04-09T14:17:17.541Z</time></trkpt><trkpt lat="45.6632266" lon="9.4780927"><ele>230.71428571428572</ele><time>2026-04-09T14:17:19.542Z</time></trkpt><trkpt lat="45.6632203" lon="9.4779901"><ele>230.85714285714286</ele><time>2026-04-09T14:17:21.541Z</time></trkpt><trkpt lat="45.6632146" lon="9.4778947"><ele>231.0</ele><time>2026-04-09T14:17:23.541Z</time></trkpt><trkpt lat="45.6632092" lon="9.4777951"><ele>231.33333333333334</ele><time>2026-04-09T14:17:25.541Z</time></trkpt><trkpt lat="45.663205" lon="9.4776874"><ele>231.66666666666669</ele><time>2026-04-09T14:17:27.542Z</time></trkpt><trkpt lat="45.6631964" lon="9.4775749"><ele>232.0</ele><time>2026-04-09T14:17:29.541Z</time></trkpt><trkpt lat="45.6631857" lon="9.4774656"><ele>232.33333333333334</ele><time>2026-04-09T14:17:31.542Z</time></trkpt><trkpt lat="45.6631746" lon="9.4773561"><ele>232.66666666666669</ele><time>2026-04-09T14:17:33.542Z</time></trkpt><trkpt lat="45.6631673" lon="9.4772444"><ele>233.0</ele><time>2026-04-09T14:17:35.542Z</time></trkpt><trkpt lat="45.6631583" lon="9.4771307"><ele>234.16666666666669</ele><time>2026-04-09T14:17:37.542Z</time></trkpt><trkpt lat="45.6631552" lon="9.4770125"><ele>235.33333333333334</ele><time>2026-04-09T14:17:39.542Z</time></trkpt><trkpt lat="45.6631583" lon="9.4769012"><ele>236.5</ele><time>2026-04-09T14:17:41.542Z</time></trkpt><trkpt lat="45.6631836" lon="9.4768015"><ele>237.66666666666669</ele><time>2026-04-09T14:17:43.542Z</time></trkpt><trkpt lat="45.6632416" lon="9.476736"><ele>238.83333333333334</ele><time>2026-04-09T14:17:45.541Z</time></trkpt><trkpt lat="45.663312" lon="9.476701"><ele>240.0</ele><time>2026-04-09T14:17:47.542Z</time></trkpt><trkpt lat="45.6633667" lon="9.4766348"><ele>240.0</ele><time>2026-04-09T14:17:49.542Z</time></trkpt><trkpt lat="45.6633867" lon="9.4765353"><ele>240.0</ele><time>2026-04-09T14:17:51.541Z</time></trkpt><trkpt lat="45.6633814" lon="9.4764317"><ele>240.0</ele><time>2026-04-09T14:17:53.541Z</time></trkpt><trkpt lat="45.6633665" lon="9.4763273"><ele>240.0</ele><time>2026-04-09T14:17:55.542Z</time></trkpt><trkpt lat="45.663351" lon="9.4762235"><ele>240.0</ele><time>2026-04-09T14:17:57.541Z</time></trkpt><trkpt lat="45.6633337" lon="9.4761312"><ele>240.0</ele><time>2026-04-09T14:17:59.542Z</time></trkpt><trkpt lat="45.6633255" lon="9.4760365"><ele>240.0</ele><time>2026-04-09T14:18:01.541Z</time></trkpt><trkpt lat="45.6633236" lon="9.4759028"><ele>240.0</ele><time>2026-04-09T14:18:04.541Z</time></trkpt><trkpt lat="45.6633045" lon="9.4758145"><ele>240.0</ele><time>2026-04-09T14:18:06.542Z</time></trkpt><trkpt lat="45.6632916" lon="9.4757121"><ele>240.0</ele><time>2026-04-09T14:18:08.542Z</time></trkpt><trkpt lat="45.6632958" lon="9.4755968"><ele>240.0</ele><time>2026-04-09T14:18:10.542Z</time></trkpt><trkpt lat="45.6632969" lon="9.4754814"><ele>240.0</ele><time>2026-04-09T14:18:12.541Z</time></trkpt><trkpt lat="45.6632847" lon="9.4753595"><ele>240.0</ele><time>2026-04-09T14:18:14.541Z</time></trkpt><trkpt lat="45.6632736" lon="9.4752395"><ele>240.16666666666666</ele><time>2026-04-09T14:18:16.542Z</time></trkpt><trkpt lat="45.6632574" lon="9.4751189"><ele>240.33333333333331</ele><time>2026-04-09T14:18:18.542Z</time></trkpt><trkpt lat="45.6632401" lon="9.4750025"><ele>240.5</ele><time>2026-04-09T14:18:20.542Z</time></trkpt><trkpt lat="45.6632232" lon="9.4748881"><ele>240.66666666666666</ele><time>2026-04-09T14:18:22.542Z</time></trkpt><trkpt lat="45.6632085" lon="9.4747733"><ele>240.83333333333331</ele><time>2026-04-09T14:18:24.542Z</time></trkpt><trkpt lat="45.6631962" lon="9.4746577"><ele>241.0</ele><time>2026-04-09T14:18:26.542Z</time></trkpt><trkpt lat="45.6631797" lon="9.4745423"><ele>241.66666666666666</ele><time>2026-04-09T14:18:28.542Z</time></trkpt><trkpt lat="45.6631624" lon="9.4744313"><ele>242.33333333333331</ele><time>2026-04-09T14:18:30.541Z</time></trkpt><trkpt lat="45.6631403" lon="9.4743215"><ele>243.0</ele><time>2026-04-09T14:18:32.542Z</time></trkpt><trkpt lat="45.6631118" lon="9.4742091"><ele>243.66666666666669</ele><time>2026-04-09T14:18:34.542Z</time></trkpt><trkpt lat="45.6630844" lon="9.4741061"><ele>244.33333333333334</ele><time>2026-04-09T14:18:36.542Z</time></trkpt><trkpt lat="45.66306" lon="9.4740054"><ele>245.0</ele><time>2026-04-09T14:18:38.542Z</time></trkpt><trkpt lat="45.6630368" lon="9.4738953"><ele>245.00000000000003</ele><time>2026-04-09T14:18:40.542Z</time></trkpt><trkpt lat="45.6630185" lon="9.4737911"><ele>245.0</ele><time>2026-04-09T14:18:42.542Z</time></trkpt><trkpt lat="45.6630061" lon="9.4736841"><ele>245.0</ele><time>2026-04-09T14:18:44.542Z</time></trkpt><trkpt lat="45.6629931" lon="9.473579"><ele>245.0</ele><time>2026-04-09T14:18:46.542Z</time></trkpt><trkpt lat="45.6629774" lon="9.4734683"><ele>245.00000000000003</ele><time>2026-04-09T14:18:48.542Z</time></trkpt><trkpt lat="45.6629578" lon="9.4733494"><ele>245.0</ele><time>2026-04-09T14:18:50.542Z</time></trkpt><trkpt lat="45.66294" lon="9.473225"><ele>245.2</ele><time>2026-04-09T14:18:52.541Z</time></trkpt><trkpt lat="45.6629204" lon="9.4730908"><ele>245.4</ele><time>2026-04-09T14:18:54.541Z</time></trkpt><trkpt lat="45.6628958" lon="9.472954"><ele>245.60000000000002</ele><time>2026-04-09T14:18:56.541Z</time></trkpt><trkpt lat="45.6628792" lon="9.4728156"><ele>245.8</ele><time>2026-04-09T14:18:58.542Z</time></trkpt><trkpt lat="45.6628556" lon="9.4726615"><ele>246.0</ele><time>2026-04-09T14:19:00.541Z</time></trkpt><trkpt lat="45.6628376" lon="9.4725174"><ele>246.25</ele><time>2026-04-09T14:19:02.542Z</time></trkpt><trkpt lat="45.6628148" lon="9.4723826"><ele>246.5</ele><time>2026-04-09T14:19:04.542Z</time></trkpt><trkpt lat="45.6627871" lon="9.4722437"><ele>246.75</ele><time>2026-04-09T14:19:06.542Z</time></trkpt><trkpt lat="45.6627482" lon="9.4719383"><ele>247.0</ele><time>2026-04-09T14:19:08.542Z</time></trkpt><trkpt lat="45.6627305" lon="9.4717713"><ele>247.0</ele><time>2026-04-09T14:19:10.542Z</time></trkpt><trkpt lat="45.6627114" lon="9.4716032"><ele>247.0</ele><time>2026-04-09T14:19:12.542Z</time></trkpt><trkpt lat="45.6626976" lon="9.4714395"><ele>247.0</ele><time>2026-04-09T14:19:14.542Z</time></trkpt><trkpt lat="45.6627" lon="9.4712678"><ele>247.0</ele><time>2026-04-09T14:19:16.541Z</time></trkpt><trkpt lat="45.6627056" lon="9.4711015"><ele>247.0</ele><time>2026-04-09T14:19:18.542Z</time></trkpt><trkpt lat="45.6627202" lon="9.4709327"><ele>247.0</ele><time>2026-04-09T14:19:20.542Z</time></trkpt><trkpt lat="45.6627235" lon="9.4707723"><ele>247.0</ele><time>2026-04-09T14:19:22.541Z</time></trkpt><trkpt lat="45.6627376" lon="9.4706264"><ele>247.0</ele><time>2026-04-09T14:19:24.541Z</time></trkpt><trkpt lat="45.6627436" lon="9.4704676"><ele>247.0</ele><time>2026-04-09T14:19:26.541Z</time></trkpt><trkpt lat="45.6627436" lon="9.4703081"><ele>247.2</ele><time>2026-04-09T14:19:28.542Z</time></trkpt><trkpt lat="45.6627373" lon="9.4701404"><ele>247.39999999999998</ele><time>2026-04-09T14:19:30.542Z</time></trkpt><trkpt lat="45.6627348" lon="9.4699687"><ele>247.60000000000002</ele><time>2026-04-09T14:19:32.541Z</time></trkpt><trkpt lat="45.6627288" lon="9.4698776"><ele>247.8</ele><time>2026-04-09T14:19:33.541Z</time></trkpt><trkpt lat="45.6627136" lon="9.4697098"><ele>248.0</ele><time>2026-04-09T14:19:35.541Z</time></trkpt><trkpt lat="45.662692" lon="9.4695454"><ele>248.2</ele><time>2026-04-09T14:19:37.542Z</time></trkpt><trkpt lat="45.6626669" lon="9.4693802"><ele>248.4</ele><time>2026-04-09T14:19:39.541Z</time></trkpt><trkpt lat="45.6626375" lon="9.4692235"><ele>248.59999999999997</ele><time>2026-04-09T14:19:41.541Z</time></trkpt><trkpt lat="45.662619" lon="9.4691279"><ele>248.79999999999998</ele><time>2026-04-09T14:19:42.541Z</time></trkpt><trkpt lat="45.6625776" lon="9.4689677"><ele>249.0</ele><time>2026-04-09T14:19:44.542Z</time></trkpt><trkpt lat="45.6625604" lon="9.4688543"><ele>249.0</ele><time>2026-04-09T14:19:46.541Z</time></trkpt><trkpt lat="45.6625404" lon="9.468758"><ele>249.0</ele><time>2026-04-09T14:19:47.542Z</time></trkpt><trkpt lat="45.6625243" lon="9.4686697"><ele>249.0</ele><time>2026-04-09T14:19:48.542Z</time></trkpt><trkpt lat="45.6625643" lon="9.4685152"><ele>249.0</ele><time>2026-04-09T14:19:50.542Z</time></trkpt><trkpt lat="45.6626616" lon="9.4684348"><ele>249.0</ele><time>2026-04-09T14:19:52.542Z</time></trkpt><trkpt lat="45.6627235" lon="9.4683995"><ele>249.0</ele><time>2026-04-09T14:19:53.541Z</time></trkpt><trkpt lat="45.662835" lon="9.4683628"><ele>249.0</ele><time>2026-04-09T14:19:55.541Z</time></trkpt><trkpt lat="45.6628967" lon="9.468339"><ele>248.99999999999997</ele><time>2026-04-09T14:19:56.541Z</time></trkpt><trkpt lat="45.66301" lon="9.4682987"><ele>248.99999999999997</ele><time>2026-04-09T14:19:58.542Z</time></trkpt><trkpt lat="45.6631327" lon="9.4682439"><ele>249.0</ele><time>2026-04-09T14:20:00.541Z</time></trkpt><trkpt lat="45.6632588" lon="9.4682004"><ele>249.0</ele><time>2026-04-09T14:20:02.542Z</time></trkpt><trkpt lat="45.6633256" lon="9.4681763"><ele>249.0</ele><time>2026-04-09T14:20:03.542Z</time></trkpt><trkpt lat="45.6634476" lon="9.4681358"><ele>248.99999999999997</ele><time>2026-04-09T14:20:05.541Z</time></trkpt><trkpt lat="45.6635647" lon="9.4681082"><ele>248.99999999999997</ele><time>2026-04-09T14:20:07.542Z</time></trkpt><trkpt lat="45.6636305" lon="9.4680929"><ele>249.0</ele><time>2026-04-09T14:20:08.541Z</time></trkpt><trkpt lat="45.6637314" lon="9.4680657"><ele>249.0</ele><time>2026-04-09T14:20:10.541Z</time></trkpt><trkpt lat="45.663818" lon="9.4679711"><ele>249.39999999999998</ele><time>2026-04-09T14:20:12.541Z</time></trkpt><trkpt lat="45.6638462" lon="9.4678891"><ele>249.79999999999998</ele><time>2026-04-09T14:20:13.542Z</time></trkpt><trkpt lat="45.6638181" lon="9.4677902"><ele>250.20000000000002</ele><time>2026-04-09T14:20:14.542Z</time></trkpt><trkpt lat="45.6638126" lon="9.4676171"><ele>250.60000000000002</ele><time>2026-04-09T14:20:16.541Z</time></trkpt><trkpt lat="45.6637945" lon="9.4675267"><ele>251.0</ele><time>2026-04-09T14:20:17.542Z</time></trkpt><trkpt lat="45.663787" lon="9.4673488"><ele>251.0</ele><time>2026-04-09T14:20:19.542Z</time></trkpt><trkpt lat="45.6637695" lon="9.4671735"><ele>251.00000000000003</ele><time>2026-04-09T14:20:21.541Z</time></trkpt><trkpt lat="45.6637641" lon="9.4670815"><ele>251.00000000000003</ele><time>2026-04-09T14:20:22.542Z</time></trkpt><trkpt lat="45.6637545" lon="9.4669846"><ele>251.0</ele><time>2026-04-09T14:20:23.542Z</time></trkpt><trkpt lat="45.6637443" lon="9.4668141"><ele>251.0</ele><time>2026-04-09T14:20:25.542Z</time></trkpt><trkpt lat="45.6637369" lon="9.4666478"><ele>251.00000000000003</ele><time>2026-04-09T14:20:27.541Z</time></trkpt><trkpt lat="45.6637423" lon="9.4664729"><ele>251.0</ele><time>2026-04-09T14:20:29.542Z</time></trkpt><trkpt lat="45.6637466" lon="9.4663"><ele>251.0</ele><time>2026-04-09T14:20:31.541Z</time></trkpt><trkpt lat="45.6637428" lon="9.4662098"><ele>251.0</ele><time>2026-04-09T14:20:32.542Z</time></trkpt><trkpt lat="45.663736" lon="9.4661156"><ele>251.00000000000003</ele><time>2026-04-09T14:20:33.541Z</time></trkpt><trkpt lat="45.6637289" lon="9.4660243"><ele>251.0</ele><time>2026-04-09T14:20:34.542Z</time></trkpt><trkpt lat="45.6637246" lon="9.4659341"><ele>251.0</ele><time>2026-04-09T14:20:35.542Z</time></trkpt><trkpt lat="45.6637148" lon="9.4657482"><ele>251.00000000000003</ele><time>2026-04-09T14:20:37.542Z</time></trkpt><trkpt lat="45.663712" lon="9.4656542"><ele>251.00000000000003</ele><time>2026-04-09T14:20:38.542Z</time></trkpt><trkpt lat="45.6637053" lon="9.4654738"><ele>251.0</ele><time>2026-04-09T14:20:40.541Z</time></trkpt><trkpt lat="45.6637009" lon="9.4653815"><ele>251.0</ele><time>2026-04-09T14:20:41.542Z</time></trkpt><trkpt lat="45.6636951" lon="9.465291"><ele>251.00000000000003</ele><time>2026-04-09T14:20:42.542Z</time></trkpt><trkpt lat="45.6636894" lon="9.4651962"><ele>251.0</ele><time>2026-04-09T14:20:43.542Z</time></trkpt><trkpt lat="45.6636912" lon="9.4650991"><ele>251.0</ele><time>2026-04-09T14:20:44.542Z</time></trkpt><trkpt lat="45.6636934" lon="9.4650078"><ele>251.0</ele><time>2026-04-09T14:20:45.542Z</time></trkpt><trkpt lat="45.6636965" lon="9.4648347"><ele>251.00000000000003</ele><time>2026-04-09T14:20:47.542Z</time></trkpt><trkpt lat="45.6637355" lon="9.4646697"><ele>251.0</ele><time>2026-04-09T14:20:49.542Z</time></trkpt><trkpt lat="45.6637734" lon="9.4645894"><ele>250.99999999999997</ele><time>2026-04-09T14:20:50.541Z</time></trkpt><trkpt lat="45.6638121" lon="9.464509"><ele>251.0</ele><time>2026-04-09T14:20:51.542Z</time></trkpt><trkpt lat="45.6638528" lon="9.464434"><ele>250.99999999999997</ele><time>2026-04-09T14:20:52.542Z</time></trkpt><trkpt lat="45.6638949" lon="9.4643636"><ele>250.99999999999997</ele><time>2026-04-09T14:20:53.542Z</time></trkpt><trkpt lat="45.663936" lon="9.4642895"><ele>251.0</ele><time>2026-04-09T14:20:54.542Z</time></trkpt><trkpt lat="45.6639728" lon="9.4642135"><ele>250.99999999999997</ele><time>2026-04-09T14:20:55.541Z</time></trkpt><trkpt lat="45.6640176" lon="9.4641387"><ele>250.99999999999997</ele><time>2026-04-09T14:20:56.542Z</time></trkpt><trkpt lat="45.6640575" lon="9.4640603"><ele>251.0</ele><time>2026-04-09T14:20:57.542Z</time></trkpt><trkpt lat="45.6641001" lon="9.4639858"><ele>251.00000000000003</ele><time>2026-04-09T14:20:58.542Z</time></trkpt><trkpt lat="45.6641786" lon="9.4638413"><ele>251.00000000000003</ele><time>2026-04-09T14:21:00.542Z</time></trkpt><trkpt lat="45.6642149" lon="9.4637674"><ele>251.0</ele><time>2026-04-09T14:21:01.542Z</time></trkpt><trkpt lat="45.6642963" lon="9.4636262"><ele>251.0</ele><time>2026-04-09T14:21:03.542Z</time></trkpt><trkpt lat="45.6643393" lon="9.4635546"><ele>251.1428571428571</ele><time>2026-04-09T14:21:04.541Z</time></trkpt><trkpt lat="45.66438" lon="9.4634829"><ele>251.28571428571428</ele><time>2026-04-09T14:21:05.541Z</time></trkpt><trkpt lat="45.6644191" lon="9.4634123"><ele>251.42857142857142</ele><time>2026-04-09T14:21:06.542Z</time></trkpt><trkpt lat="45.664458" lon="9.4633388"><ele>251.57142857142856</ele><time>2026-04-09T14:21:07.542Z</time></trkpt><trkpt lat="45.6644963" lon="9.4632633"><ele>251.71428571428572</ele><time>2026-04-09T14:21:08.541Z</time></trkpt><trkpt lat="45.6645334" lon="9.4631874"><ele>251.85714285714286</ele><time>2026-04-09T14:21:09.542Z</time></trkpt><trkpt lat="45.6645731" lon="9.4631078"><ele>252.0</ele><time>2026-04-09T14:21:10.541Z</time></trkpt><trkpt lat="45.664608" lon="9.4630293"><ele>252.42857142857144</ele><time>2026-04-09T14:21:11.542Z</time></trkpt><trkpt lat="45.6646403" lon="9.4629466"><ele>252.85714285714286</ele><time>2026-04-09T14:21:12.542Z</time></trkpt><trkpt lat="45.6646708" lon="9.4628658"><ele>253.28571428571428</ele><time>2026-04-09T14:21:13.541Z</time></trkpt><trkpt lat="45.6647055" lon="9.4627867"><ele>253.71428571428572</ele><time>2026-04-09T14:21:14.542Z</time></trkpt><trkpt lat="45.6647381" lon="9.4627045"><ele>254.14285714285717</ele><time>2026-04-09T14:21:15.542Z</time></trkpt><trkpt lat="45.6647692" lon="9.4626253"><ele>254.57142857142858</ele><time>2026-04-09T14:21:16.542Z</time></trkpt><trkpt lat="45.6648004" lon="9.4625385"><ele>255.0</ele><time>2026-04-09T14:21:17.542Z</time></trkpt><trkpt lat="45.6648616" lon="9.4623867"><ele>255.0</ele><time>2026-04-09T14:21:19.542Z</time></trkpt><trkpt lat="45.6649273" lon="9.4622316"><ele>255.0</ele><time>2026-04-09T14:21:21.542Z</time></trkpt><trkpt lat="45.664997" lon="9.4620838"><ele>255.0</ele><time>2026-04-09T14:21:23.542Z</time></trkpt><trkpt lat="45.6650304" lon="9.4620065"><ele>255.0</ele><time>2026-04-09T14:21:24.541Z</time></trkpt><trkpt lat="45.6650651" lon="9.4619293"><ele>255.0</ele><time>2026-04-09T14:21:25.542Z</time></trkpt><trkpt lat="45.6651254" lon="9.4617628"><ele>255.0</ele><time>2026-04-09T14:21:27.542Z</time></trkpt><trkpt lat="45.6651661" lon="9.4615915"><ele>255.0</ele><time>2026-04-09T14:21:29.541Z</time></trkpt><trkpt lat="45.665214" lon="9.4614147"><ele>255.0</ele><time>2026-04-09T14:21:31.542Z</time></trkpt><trkpt lat="45.6652591" lon="9.4612529"><ele>255.0</ele><time>2026-04-09T14:21:33.542Z</time></trkpt><trkpt lat="45.6653185" lon="9.4611019"><ele>254.6</ele><time>2026-04-09T14:21:35.542Z</time></trkpt><trkpt lat="45.6653547" lon="9.4610266"><ele>254.2</ele><time>2026-04-09T14:21:36.542Z</time></trkpt><trkpt lat="45.6654502" lon="9.4609314"><ele>253.8</ele><time>2026-04-09T14:21:38.542Z</time></trkpt><trkpt lat="45.6655621" lon="9.4609242"><ele>253.4</ele><time>2026-04-09T14:21:40.542Z</time></trkpt><trkpt lat="45.6656901" lon="9.4609697"><ele>253.0</ele><time>2026-04-09T14:21:42.542Z</time></trkpt><trkpt lat="45.665818" lon="9.460968"><ele>253.0</ele><time>2026-04-09T14:21:44.541Z</time></trkpt><trkpt lat="45.6659336" lon="9.4609716"><ele>253.0</ele><time>2026-04-09T14:21:46.542Z</time></trkpt><trkpt lat="45.6660299" lon="9.4610073"><ele>253.0</ele><time>2026-04-09T14:21:48.542Z</time></trkpt><trkpt lat="45.6661263" lon="9.4610184"><ele>253.0</ele><time>2026-04-09T14:21:50.541Z</time></trkpt><trkpt lat="45.6661916" lon="9.461015"><ele>253.0</ele><time>2026-04-09T14:21:51.541Z</time></trkpt><trkpt lat="45.666291" lon="9.4610305"><ele>252.83333333333331</ele><time>2026-04-09T14:21:52.542Z</time></trkpt><trkpt lat="45.666365" lon="9.4610449"><ele>252.66666666666666</ele><time>2026-04-09T14:21:53.542Z</time></trkpt><trkpt lat="45.6664308" lon="9.4610637"><ele>252.5</ele><time>2026-04-09T14:21:54.541Z</time></trkpt><trkpt lat="45.6665517" lon="9.4610738"><ele>252.33333333333331</ele><time>2026-04-09T14:21:56.542Z</time></trkpt><trkpt lat="45.6666158" lon="9.4610925"><ele>252.16666666666666</ele><time>2026-04-09T14:21:57.541Z</time></trkpt><trkpt lat="45.6666828" lon="9.4610975"><ele>252.0</ele><time>2026-04-09T14:21:58.542Z</time></trkpt><trkpt lat="45.6667517" lon="9.4611003"><ele>252.0</ele><time>2026-04-09T14:21:59.541Z</time></trkpt><trkpt lat="45.6668715" lon="9.4611421"><ele>252.0</ele><time>2026-04-09T14:22:01.542Z</time></trkpt><trkpt lat="45.6669838" lon="9.4611612"><ele>252.0</ele><time>2026-04-09T14:22:03.542Z</time></trkpt><trkpt lat="45.667111" lon="9.4611857"><ele>252.0</ele><time>2026-04-09T14:22:05.542Z</time></trkpt><trkpt lat="45.6671867" lon="9.4611907"><ele>252.0</ele><time>2026-04-09T14:22:06.542Z</time></trkpt><trkpt lat="45.66731" lon="9.4612266"><ele>252.39999999999998</ele><time>2026-04-09T14:22:08.542Z</time></trkpt><trkpt lat="45.6673745" lon="9.4612291"><ele>252.79999999999998</ele><time>2026-04-09T14:22:09.542Z</time></trkpt><trkpt lat="45.6674458" lon="9.461241"><ele>253.2</ele><time>2026-04-09T14:22:10.542Z</time></trkpt><trkpt lat="45.6675731" lon="9.4612649"><ele>253.6</ele><time>2026-04-09T14:22:12.542Z</time></trkpt><trkpt lat="45.6677062" lon="9.4613224"><ele>254.0</ele><time>2026-04-09T14:22:14.542Z</time></trkpt><trkpt lat="45.6677748" lon="9.4613551"><ele>254.0</ele><time>2026-04-09T14:22:15.542Z</time></trkpt><trkpt lat="45.6679025" lon="9.4613451"><ele>253.99999999999997</ele><time>2026-04-09T14:22:17.541Z</time></trkpt><trkpt lat="45.668025" lon="9.4613431"><ele>253.99999999999997</ele><time>2026-04-09T14:22:19.542Z</time></trkpt><trkpt lat="45.668091" lon="9.4613131"><ele>254.0</ele><time>2026-04-09T14:22:20.542Z</time></trkpt><trkpt lat="45.6681831" lon="9.4611906"><ele>254.0</ele><time>2026-04-09T14:22:22.542Z</time></trkpt><trkpt lat="45.6682127" lon="9.4611086"><ele>254.0</ele><time>2026-04-09T14:22:23.541Z</time></trkpt><trkpt lat="45.6682243" lon="9.4610089"><ele>254.0</ele><time>2026-04-09T14:22:24.541Z</time></trkpt><trkpt lat="45.6682345" lon="9.460913"><ele>254.0</ele><time>2026-04-09T14:22:25.541Z</time></trkpt><trkpt lat="45.6682442" lon="9.4608179"><ele>254.0</ele><time>2026-04-09T14:22:26.542Z</time></trkpt><trkpt lat="45.6682502" lon="9.4607161"><ele>254.0</ele><time>2026-04-09T14:22:27.542Z</time></trkpt><trkpt lat="45.6682476" lon="9.4606174"><ele>254.0</ele><time>2026-04-09T14:22:28.542Z</time></trkpt><trkpt lat="45.6682498" lon="9.4605154"><ele>254.0</ele><time>2026-04-09T14:22:29.541Z</time></trkpt><trkpt lat="45.6682475" lon="9.4604185"><ele>254.14285714285717</ele><time>2026-04-09T14:22:30.542Z</time></trkpt><trkpt lat="45.6682561" lon="9.4603129"><ele>254.28571428571428</ele><time>2026-04-09T14:22:31.542Z</time></trkpt><trkpt lat="45.6682609" lon="9.4602134"><ele>254.42857142857144</ele><time>2026-04-09T14:22:32.542Z</time></trkpt><trkpt lat="45.6682672" lon="9.4601131"><ele>254.57142857142858</ele><time>2026-04-09T14:22:33.541Z</time></trkpt><trkpt lat="45.6682796" lon="9.4600139"><ele>254.71428571428572</ele><time>2026-04-09T14:22:34.542Z</time></trkpt><trkpt lat="45.6682814" lon="9.459917"><ele>254.85714285714286</ele><time>2026-04-09T14:22:35.542Z</time></trkpt><trkpt lat="45.6682874" lon="9.4598175"><ele>255.0</ele><time>2026-04-09T14:22:36.541Z</time></trkpt><trkpt lat="45.6682968" lon="9.4597156"><ele>255.0</ele><time>2026-04-09T14:22:37.541Z</time></trkpt><trkpt lat="45.6683095" lon="9.4596226"><ele>255.00000000000003</ele><time>2026-04-09T14:22:38.542Z</time></trkpt><trkpt lat="45.6683184" lon="9.4595263"><ele>255.0</ele><time>2026-04-09T14:22:39.541Z</time></trkpt><trkpt lat="45.6683246" lon="9.4594344"><ele>255.0</ele><time>2026-04-09T14:22:40.542Z</time></trkpt><trkpt lat="45.6683399" lon="9.4593365"><ele>255.00000000000003</ele><time>2026-04-09T14:22:41.541Z</time></trkpt><trkpt lat="45.6683388" lon="9.4592359"><ele>255.0</ele><time>2026-04-09T14:22:42.541Z</time></trkpt><trkpt lat="45.6683429" lon="9.4591371"><ele>255.0</ele><time>2026-04-09T14:22:43.542Z</time></trkpt><trkpt lat="45.6683555" lon="9.4590345"><ele>255.14285714285717</ele><time>2026-04-09T14:22:44.542Z</time></trkpt><trkpt lat="45.6683671" lon="9.4589408"><ele>255.2857142857143</ele><time>2026-04-09T14:22:45.542Z</time></trkpt><trkpt lat="45.6683749" lon="9.4588462"><ele>255.42857142857144</ele><time>2026-04-09T14:22:46.541Z</time></trkpt><trkpt lat="45.6683817" lon="9.4587472"><ele>255.57142857142856</ele><time>2026-04-09T14:22:47.541Z</time></trkpt><trkpt lat="45.6683887" lon="9.4586557"><ele>255.7142857142857</ele><time>2026-04-09T14:22:48.541Z</time></trkpt><trkpt lat="45.6683939" lon="9.4585623"><ele>255.85714285714283</ele><time>2026-04-09T14:22:49.542Z</time></trkpt><trkpt lat="45.6684063" lon="9.458472"><ele>256.0</ele><time>2026-04-09T14:22:50.542Z</time></trkpt><trkpt lat="45.6684399" lon="9.4582968"><ele>256.2</ele><time>2026-04-09T14:22:52.541Z</time></trkpt><trkpt lat="45.6685284" lon="9.4581593"><ele>256.40000000000003</ele><time>2026-04-09T14:22:54.541Z</time></trkpt><trkpt lat="45.6685801" lon="9.4581031"><ele>256.6</ele><time>2026-04-09T14:22:55.541Z</time></trkpt><trkpt lat="45.6686482" lon="9.4580552"><ele>256.8</ele><time>2026-04-09T14:22:56.542Z</time></trkpt><trkpt lat="45.6687072" lon="9.4580077"><ele>257.0</ele><time>2026-04-09T14:22:57.541Z</time></trkpt><trkpt lat="45.6688256" lon="9.457921"><ele>256.6</ele><time>2026-04-09T14:22:59.541Z</time></trkpt><trkpt lat="45.6688932" lon="9.4578609"><ele>256.2</ele><time>2026-04-09T14:23:00.542Z</time></trkpt><trkpt lat="45.6689581" lon="9.4578141"><ele>255.8</ele><time>2026-04-09T14:23:01.541Z</time></trkpt><trkpt lat="45.6690755" lon="9.4577238"><ele>255.4</ele><time>2026-04-09T14:23:03.542Z</time></trkpt><trkpt lat="45.669142" lon="9.4576726"><ele>255.0</ele><time>2026-04-09T14:23:04.541Z</time></trkpt><trkpt lat="45.6692559" lon="9.4575975"><ele>255.0</ele><time>2026-04-09T14:23:06.542Z</time></trkpt><trkpt lat="45.6693146" lon="9.4575541"><ele>255.00000000000003</ele><time>2026-04-09T14:23:07.542Z</time></trkpt><trkpt lat="45.6693758" lon="9.4575097"><ele>255.0</ele><time>2026-04-09T14:23:08.542Z</time></trkpt><trkpt lat="45.6694317" lon="9.457461"><ele>255.0</ele><time>2026-04-09T14:23:09.542Z</time></trkpt><trkpt lat="45.6694915" lon="9.4574191"><ele>255.00000000000003</ele><time>2026-04-09T14:23:10.541Z</time></trkpt><trkpt lat="45.6695634" lon="9.457388"><ele>255.0</ele><time>2026-04-09T14:23:11.541Z</time></trkpt><trkpt lat="45.6696289" lon="9.457365"><ele>255.0</ele><time>2026-04-09T14:23:12.541Z</time></trkpt><trkpt lat="45.669695" lon="9.4573493"><ele>255.0</ele><time>2026-04-09T14:23:13.541Z</time></trkpt><trkpt lat="45.6697599" lon="9.4573364"><ele>255.00000000000003</ele><time>2026-04-09T14:23:14.542Z</time></trkpt><trkpt lat="45.6698234" lon="9.4573369"><ele>255.0</ele><time>2026-04-09T14:23:15.541Z</time></trkpt><trkpt lat="45.6698977" lon="9.4573422"><ele>255.0</ele><time>2026-04-09T14:23:16.542Z</time></trkpt><trkpt lat="45.6699733" lon="9.457353"><ele>255.00000000000003</ele><time>2026-04-09T14:23:17.542Z</time></trkpt><trkpt lat="45.6700411" lon="9.4573683"><ele>255.0</ele><time>2026-04-09T14:23:18.542Z</time></trkpt><trkpt lat="45.6701121" lon="9.4573698"><ele>255.0</ele><time>2026-04-09T14:23:19.542Z</time></trkpt><trkpt lat="45.6701856" lon="9.4573808"><ele>255.0</ele><time>2026-04-09T14:23:20.541Z</time></trkpt><trkpt lat="45.6702706" lon="9.4574147"><ele>255.0</ele><time>2026-04-09T14:23:21.542Z</time></trkpt><trkpt lat="45.6703489" lon="9.4574205"><ele>255.0</ele><time>2026-04-09T14:23:22.542Z</time></trkpt><trkpt lat="45.6704126" lon="9.4574259"><ele>255.0</ele><time>2026-04-09T14:23:23.541Z</time></trkpt><trkpt lat="45.6704991" lon="9.4574636"><ele>255.0</ele><time>2026-04-09T14:23:24.542Z</time></trkpt><trkpt lat="45.6705681" lon="9.4574727"><ele>255.0</ele><time>2026-04-09T14:23:25.542Z</time></trkpt><trkpt lat="45.6706353" lon="9.4574842"><ele>255.2857142857143</ele><time>2026-04-09T14:23:26.542Z</time></trkpt><trkpt lat="45.6707076" lon="9.4574947"><ele>255.5714285714286</ele><time>2026-04-09T14:23:27.541Z</time></trkpt><trkpt lat="45.6707814" lon="9.4574963"><ele>255.85714285714286</ele><time>2026-04-09T14:23:28.542Z</time></trkpt><trkpt lat="45.6708455" lon="9.4575026"><ele>256.14285714285717</ele><time>2026-04-09T14:23:29.541Z</time></trkpt><trkpt lat="45.6709139" lon="9.4574981"><ele>256.42857142857144</ele><time>2026-04-09T14:23:30.542Z</time></trkpt><trkpt lat="45.6709872" lon="9.457511"><ele>256.7142857142857</ele><time>2026-04-09T14:23:31.541Z</time></trkpt><trkpt lat="45.6710511" lon="9.4575125"><ele>257.0</ele><time>2026-04-09T14:23:32.542Z</time></trkpt><trkpt lat="45.6711173" lon="9.4575176"><ele>257.5</ele><time>2026-04-09T14:23:33.541Z</time></trkpt><trkpt lat="45.6711937" lon="9.4575265"><ele>258.0</ele><time>2026-04-09T14:23:34.541Z</time></trkpt><trkpt lat="45.6712716" lon="9.4575305"><ele>258.5</ele><time>2026-04-09T14:23:35.541Z</time></trkpt><trkpt lat="45.671338" lon="9.4575405"><ele>259.0</ele><time>2026-04-09T14:23:36.541Z</time></trkpt><trkpt lat="45.6714763" lon="9.4575748"><ele>259.5</ele><time>2026-04-09T14:23:38.541Z</time></trkpt><trkpt lat="45.6715442" lon="9.4575909"><ele>260.0</ele><time>2026-04-09T14:23:39.542Z</time></trkpt><trkpt lat="45.6716126" lon="9.4576099"><ele>260.00000000000006</ele><time>2026-04-09T14:23:40.542Z</time></trkpt><trkpt lat="45.6716808" lon="9.4576176"><ele>260.0</ele><time>2026-04-09T14:23:41.541Z</time></trkpt><trkpt lat="45.671746" lon="9.4576295"><ele>260.0</ele><time>2026-04-09T14:23:42.541Z</time></trkpt><trkpt lat="45.6718156" lon="9.4576248"><ele>260.0</ele><time>2026-04-09T14:23:43.542Z</time></trkpt><trkpt lat="45.671884" lon="9.457613"><ele>260.0</ele><time>2026-04-09T14:23:44.542Z</time></trkpt><trkpt lat="45.6719551" lon="9.4575926"><ele>260.00000000000006</ele><time>2026-04-09T14:23:45.542Z</time></trkpt><trkpt lat="45.6720172" lon="9.4575632"><ele>260.0</ele><time>2026-04-09T14:23:46.541Z</time></trkpt><trkpt lat="45.672078" lon="9.4575239"><ele>259.7142857142857</ele><time>2026-04-09T14:23:47.542Z</time></trkpt><trkpt lat="45.6721415" lon="9.4574729"><ele>259.42857142857144</ele><time>2026-04-09T14:23:48.541Z</time></trkpt><trkpt lat="45.6722014" lon="9.4574243"><ele>259.1428571428571</ele><time>2026-04-09T14:23:49.541Z</time></trkpt><trkpt lat="45.6722741" lon="9.4573801"><ele>258.8571428571429</ele><time>2026-04-09T14:23:50.542Z</time></trkpt><trkpt lat="45.6723337" lon="9.4573309"><ele>258.57142857142856</ele><time>2026-04-09T14:23:51.542Z</time></trkpt><trkpt lat="45.6723982" lon="9.4572845"><ele>258.2857142857143</ele><time>2026-04-09T14:23:52.542Z</time></trkpt><trkpt lat="45.6724628" lon="9.4572342"><ele>258.0</ele><time>2026-04-09T14:23:53.542Z</time></trkpt><trkpt lat="45.6725286" lon="9.457179"><ele>257.99999999999994</ele><time>2026-04-09T14:23:54.541Z</time></trkpt><trkpt lat="45.672592" lon="9.4571362"><ele>258.0</ele><time>2026-04-09T14:23:55.541Z</time></trkpt><trkpt lat="45.6726526" lon="9.4570944"><ele>258.0</ele><time>2026-04-09T14:23:56.541Z</time></trkpt><trkpt lat="45.6727241" lon="9.4570618"><ele>258.0</ele><time>2026-04-09T14:23:57.542Z</time></trkpt><trkpt lat="45.6727916" lon="9.4570391"><ele>258.0</ele><time>2026-04-09T14:23:58.542Z</time></trkpt><trkpt lat="45.6728612" lon="9.4570229"><ele>257.99999999999994</ele><time>2026-04-09T14:23:59.542Z</time></trkpt><trkpt lat="45.6729307" lon="9.4570205"><ele>258.0</ele><time>2026-04-09T14:24:00.542Z</time></trkpt><trkpt lat="45.6730037" lon="9.4570235"><ele>258.4285714285714</ele><time>2026-04-09T14:24:01.542Z</time></trkpt><trkpt lat="45.6730675" lon="9.4570219"><ele>258.85714285714283</ele><time>2026-04-09T14:24:02.541Z</time></trkpt><trkpt lat="45.6731365" lon="9.4570188"><ele>259.2857142857143</ele><time>2026-04-09T14:24:03.542Z</time></trkpt><trkpt lat="45.673209" lon="9.4570127"><ele>259.71428571428567</ele><time>2026-04-09T14:24:04.542Z</time></trkpt><trkpt lat="45.6732855" lon="9.457015"><ele>260.1428571428571</ele><time>2026-04-09T14:24:05.541Z</time></trkpt><trkpt lat="45.6733541" lon="9.4570177"><ele>260.57142857142856</ele><time>2026-04-09T14:24:06.541Z</time></trkpt><trkpt lat="45.673426" lon="9.4570093"><ele>261.0</ele><time>2026-04-09T14:24:07.542Z</time></trkpt><trkpt lat="45.6734994" lon="9.4570059"><ele>261.0</ele><time>2026-04-09T14:24:08.542Z</time></trkpt><trkpt lat="45.6735667" lon="9.4569796"><ele>261.0</ele><time>2026-04-09T14:24:09.541Z</time></trkpt><trkpt lat="45.6736362" lon="9.4569588"><ele>261.0</ele><time>2026-04-09T14:24:10.542Z</time></trkpt><trkpt lat="45.6737073" lon="9.4569278"><ele>261.0</ele><time>2026-04-09T14:24:11.542Z</time></trkpt><trkpt lat="45.6737833" lon="9.4569094"><ele>261.0</ele><time>2026-04-09T14:24:12.541Z</time></trkpt><trkpt lat="45.6738569" lon="9.4568858"><ele>261.0</ele><time>2026-04-09T14:24:13.542Z</time></trkpt><trkpt lat="45.6739232" lon="9.4568424"><ele>261.0</ele><time>2026-04-09T14:24:14.542Z</time></trkpt><trkpt lat="45.6739995" lon="9.4568076"><ele>261.0</ele><time>2026-04-09T14:24:15.54Z</time></trkpt><trkpt lat="45.6741005" lon="9.4567386"><ele>261.0</ele><time>2026-04-09T14:24:17.541Z</time></trkpt><trkpt lat="45.674179" lon="9.4566713"><ele>261.0</ele><time>2026-04-09T14:24:18.542Z</time></trkpt><trkpt lat="45.6742488" lon="9.456603"><ele>261.0</ele><time>2026-04-09T14:24:19.542Z</time></trkpt><trkpt lat="45.6743078" lon="9.4565215"><ele>261.0</ele><time>2026-04-09T14:24:20.542Z</time></trkpt><trkpt lat="45.6743597" lon="9.4564363"><ele>261.0</ele><time>2026-04-09T14:24:21.542Z</time></trkpt><trkpt lat="45.6744284" lon="9.456333"><ele>260.0</ele><time>2026-04-09T14:24:22.541Z</time></trkpt><trkpt lat="45.6744659" lon="9.4562348"><ele>259.0</ele><time>2026-04-09T14:24:23.542Z</time></trkpt><trkpt lat="45.6745103" lon="9.4561376"><ele>258.0</ele><time>2026-04-09T14:24:24.542Z</time></trkpt><trkpt lat="45.6745554" lon="9.4560361"><ele>257.0</ele><time>2026-04-09T14:24:25.542Z</time></trkpt><trkpt lat="45.6745817" lon="9.4559385"><ele>256.0</ele><time>2026-04-09T14:24:26.542Z</time></trkpt><trkpt lat="45.6746145" lon="9.4558387"><ele>255.0</ele><time>2026-04-09T14:24:27.542Z</time></trkpt><trkpt lat="45.6746454" lon="9.4557545"><ele>255.0</ele><time>2026-04-09T14:24:28.542Z</time></trkpt><trkpt lat="45.674675" lon="9.455664"><ele>255.00000000000003</ele><time>2026-04-09T14:24:29.542Z</time></trkpt><trkpt lat="45.6747146" lon="9.4555633"><ele>255.0</ele><time>2026-04-09T14:24:30.542Z</time></trkpt><trkpt lat="45.6747415" lon="9.4554662"><ele>255.0</ele><time>2026-04-09T14:24:31.542Z</time></trkpt><trkpt lat="45.674772" lon="9.4553689"><ele>255.00000000000003</ele><time>2026-04-09T14:24:32.541Z</time></trkpt><trkpt lat="45.6747978" lon="9.4552677"><ele>255.0</ele><time>2026-04-09T14:24:33.541Z</time></trkpt><trkpt lat="45.6748273" lon="9.4551747"><ele>255.0</ele><time>2026-04-09T14:24:34.541Z</time></trkpt><trkpt lat="45.6748555" lon="9.455078"><ele>255.2</ele><time>2026-04-09T14:24:35.541Z</time></trkpt><trkpt lat="45.6749113" lon="9.4548979"><ele>255.4</ele><time>2026-04-09T14:24:37.542Z</time></trkpt><trkpt lat="45.6749411" lon="9.4547898"><ele>255.60000000000002</ele><time>2026-04-09T14:24:38.541Z</time></trkpt><trkpt lat="45.6749683" lon="9.4546071"><ele>255.8</ele><time>2026-04-09T14:24:40.542Z</time></trkpt><trkpt lat="45.6749867" lon="9.4545115"><ele>256.0</ele><time>2026-04-09T14:24:41.541Z</time></trkpt><trkpt lat="45.6750033" lon="9.4544107"><ele>256.5</ele><time>2026-04-09T14:24:42.542Z</time></trkpt><trkpt lat="45.6750243" lon="9.4542178"><ele>257.0</ele><time>2026-04-09T14:24:44.541Z</time></trkpt><trkpt lat="45.6750349" lon="9.4541251"><ele>257.5</ele><time>2026-04-09T14:24:45.541Z</time></trkpt><trkpt lat="45.6750502" lon="9.4539379"><ele>258.0</ele><time>2026-04-09T14:24:47.541Z</time></trkpt><trkpt lat="45.6750656" lon="9.453759"><ele>258.3333333333333</ele><time>2026-04-09T14:24:49.542Z</time></trkpt><trkpt lat="45.675074" lon="9.4536679"><ele>258.6666666666667</ele><time>2026-04-09T14:24:50.542Z</time></trkpt><trkpt lat="45.6750821" lon="9.453576"><ele>259.0</ele><time>2026-04-09T14:24:51.541Z</time></trkpt><trkpt lat="45.6750854" lon="9.4534847"><ele>259.33333333333337</ele><time>2026-04-09T14:24:52.541Z</time></trkpt><trkpt lat="45.6751273" lon="9.4533141"><ele>259.6666666666667</ele><time>2026-04-09T14:24:54.541Z</time></trkpt><trkpt lat="45.675181" lon="9.4531649"><ele>260.0</ele><time>2026-04-09T14:24:56.542Z</time></trkpt><trkpt lat="45.675244" lon="9.4530077"><ele>260.2</ele><time>2026-04-09T14:24:58.542Z</time></trkpt><trkpt lat="45.6752868" lon="9.4529408"><ele>260.4</ele><time>2026-04-09T14:24:59.542Z</time></trkpt><trkpt lat="45.6753319" lon="9.4528715"><ele>260.6</ele><time>2026-04-09T14:25:00.542Z</time></trkpt><trkpt lat="45.675417" lon="9.4527363"><ele>260.8</ele><time>2026-04-09T14:25:02.541Z</time></trkpt><trkpt lat="45.6754649" lon="9.4526554"><ele>261.0</ele><time>2026-04-09T14:25:03.542Z</time></trkpt><trkpt lat="45.675556" lon="9.4525343"><ele>261.0</ele><time>2026-04-09T14:25:05.542Z</time></trkpt><trkpt lat="45.6756297" lon="9.4524012"><ele>261.0</ele><time>2026-04-09T14:25:07.541Z</time></trkpt><trkpt lat="45.6757061" lon="9.4522575"><ele>261.0</ele><time>2026-04-09T14:25:09.541Z</time></trkpt><trkpt lat="45.6757533" lon="9.4521752"><ele>261.0</ele><time>2026-04-09T14:25:10.542Z</time></trkpt><trkpt lat="45.6758106" lon="9.4521071"><ele>261.0</ele><time>2026-04-09T14:25:11.541Z</time></trkpt><trkpt lat="45.6758459" lon="9.4520267"><ele>261.0</ele><time>2026-04-09T14:25:12.542Z</time></trkpt><trkpt lat="45.6758786" lon="9.4519435"><ele>261.0</ele><time>2026-04-09T14:25:13.542Z</time></trkpt><trkpt lat="45.6759103" lon="9.4518542"><ele>261.0</ele><time>2026-04-09T14:25:14.541Z</time></trkpt><trkpt lat="45.6759803" lon="9.4516846"><ele>261.0</ele><time>2026-04-09T14:25:16.541Z</time></trkpt><trkpt lat="45.6760116" lon="9.4515866"><ele>261.0</ele><time>2026-04-09T14:25:17.541Z</time></trkpt><trkpt lat="45.6760442" lon="9.4514899"><ele>261.0</ele><time>2026-04-09T14:25:18.542Z</time></trkpt><trkpt lat="45.6760837" lon="9.4514047"><ele>260.8</ele><time>2026-04-09T14:25:19.541Z</time></trkpt><trkpt lat="45.6761321" lon="9.4512395"><ele>260.6</ele><time>2026-04-09T14:25:21.542Z</time></trkpt><trkpt lat="45.6761682" lon="9.4511445"><ele>260.4</ele><time>2026-04-09T14:25:22.541Z</time></trkpt><trkpt lat="45.676205" lon="9.4510479"><ele>260.2</ele><time>2026-04-09T14:25:23.541Z</time></trkpt><trkpt lat="45.6762789" lon="9.450889"><ele>260.0</ele><time>2026-04-09T14:25:25.542Z</time></trkpt><trkpt lat="45.6763276" lon="9.4508055"><ele>260.0</ele><time>2026-04-09T14:25:26.542Z</time></trkpt><trkpt lat="45.6764045" lon="9.4506735"><ele>260.0</ele><time>2026-04-09T14:25:28.542Z</time></trkpt><trkpt lat="45.67645" lon="9.4505975"><ele>260.0</ele><time>2026-04-09T14:25:29.541Z</time></trkpt><trkpt lat="45.6764993" lon="9.4505206"><ele>260.0</ele><time>2026-04-09T14:25:30.542Z</time></trkpt><trkpt lat="45.6765532" lon="9.450466"><ele>260.0</ele><time>2026-04-09T14:25:31.542Z</time></trkpt><trkpt lat="45.6766066" lon="9.4503995"><ele>260.0</ele><time>2026-04-09T14:25:32.541Z</time></trkpt><trkpt lat="45.6766601" lon="9.4503391"><ele>260.0</ele><time>2026-04-09T14:25:33.542Z</time></trkpt><trkpt lat="45.6767172" lon="9.4502809"><ele>260.0</ele><time>2026-04-09T14:25:34.541Z</time></trkpt><trkpt lat="45.6767731" lon="9.450225"><ele>260.0</ele><time>2026-04-09T14:25:35.542Z</time></trkpt><trkpt lat="45.676829" lon="9.4501746"><ele>260.0</ele><time>2026-04-09T14:25:36.541Z</time></trkpt><trkpt lat="45.6768851" lon="9.4501255"><ele>260.0</ele><time>2026-04-09T14:25:37.542Z</time></trkpt><trkpt lat="45.6769856" lon="9.4500174"><ele>260.0</ele><time>2026-04-09T14:25:39.541Z</time></trkpt><trkpt lat="45.6770373" lon="9.4499637"><ele>260.0</ele><time>2026-04-09T14:25:40.542Z</time></trkpt><trkpt lat="45.6771256" lon="9.4498921"><ele>260.0</ele><time>2026-04-09T14:25:42.542Z</time></trkpt><trkpt lat="45.6771855" lon="9.4498547"><ele>260.0</ele><time>2026-04-09T14:25:44.541Z</time></trkpt><trkpt lat="45.6773121" lon="9.4498373"><ele>260.0</ele><time>2026-04-09T14:25:59.541Z</time></trkpt><trkpt lat="45.6773789" lon="9.4499426"><ele>260.0</ele><time>2026-04-09T14:26:01.542Z</time></trkpt><trkpt lat="45.6774718" lon="9.4500767"><ele>260.0</ele><time>2026-04-09T14:26:03.541Z</time></trkpt><trkpt lat="45.677541" lon="9.4502094"><ele>260.0</ele><time>2026-04-09T14:26:05.542Z</time></trkpt><trkpt lat="45.677585" lon="9.4502743"><ele>260.0</ele><time>2026-04-09T14:26:06.541Z</time></trkpt><trkpt lat="45.6776588" lon="9.4504072"><ele>260.0</ele><time>2026-04-09T14:26:08.541Z</time></trkpt><trkpt lat="45.6777562" lon="9.4505314"><ele>260.0</ele><time>2026-04-09T14:26:10.542Z</time></trkpt><trkpt lat="45.6778335" lon="9.4506485"><ele>260.0</ele><time>2026-04-09T14:26:12.541Z</time></trkpt><trkpt lat="45.6778831" lon="9.4507158"><ele>260.0</ele><time>2026-04-09T14:26:13.542Z</time></trkpt><trkpt lat="45.677968" lon="9.4508426"><ele>260.0</ele><time>2026-04-09T14:26:15.541Z</time></trkpt><trkpt lat="45.6780129" lon="9.4509144"><ele>260.0</ele><time>2026-04-09T14:26:16.542Z</time></trkpt><trkpt lat="45.6781043" lon="9.4509928"><ele>260.0</ele><time>2026-04-09T14:26:18.542Z</time></trkpt><trkpt lat="45.6782163" lon="9.4510989"><ele>260.0</ele><time>2026-04-09T14:26:20.542Z</time></trkpt><trkpt lat="45.6782762" lon="9.4511669"><ele>260.0</ele><time>2026-04-09T14:26:21.541Z</time></trkpt><trkpt lat="45.6783791" lon="9.4512253"><ele>260.0</ele><time>2026-04-09T14:26:23.542Z</time></trkpt><trkpt lat="45.6784558" lon="9.4512742"><ele>260.0</ele><time>2026-04-09T14:26:24.542Z</time></trkpt><trkpt lat="45.678571" lon="9.4513439"><ele>260.0</ele><time>2026-04-09T14:26:26.542Z</time></trkpt><trkpt lat="45.6786395" lon="9.4513831"><ele>259.6666666666667</ele><time>2026-04-09T14:26:27.541Z</time></trkpt><trkpt lat="45.6787649" lon="9.4514259"><ele>259.33333333333337</ele><time>2026-04-09T14:26:29.541Z</time></trkpt><trkpt lat="45.6788387" lon="9.4514793"><ele>259.0</ele><time>2026-04-09T14:26:30.542Z</time></trkpt><trkpt lat="45.6789066" lon="9.4514971"><ele>258.6666666666667</ele><time>2026-04-09T14:26:31.542Z</time></trkpt><trkpt lat="45.6789747" lon="9.4514977"><ele>258.3333333333333</ele><time>2026-04-09T14:26:32.542Z</time></trkpt><trkpt lat="45.6790554" lon="9.4515117"><ele>258.0</ele><time>2026-04-09T14:26:33.542Z</time></trkpt><trkpt lat="45.6791218" lon="9.4515185"><ele>258.0</ele><time>2026-04-09T14:26:34.541Z</time></trkpt><trkpt lat="45.6792302" lon="9.4515221"><ele>258.0</ele><time>2026-04-09T14:26:36.541Z</time></trkpt><trkpt lat="45.6792972" lon="9.4515345"><ele>258.0</ele><time>2026-04-09T14:26:37.542Z</time></trkpt><trkpt lat="45.6793717" lon="9.4515481"><ele>258.0</ele><time>2026-04-09T14:26:38.542Z</time></trkpt><trkpt lat="45.6794408" lon="9.4515397"><ele>258.0</ele><time>2026-04-09T14:26:39.541Z</time></trkpt><trkpt lat="45.6795138" lon="9.4515362"><ele>258.0</ele><time>2026-04-09T14:26:40.541Z</time></trkpt><trkpt lat="45.6796363" lon="9.4515531"><ele>258.5</ele><time>2026-04-09T14:26:42.541Z</time></trkpt><trkpt lat="45.6797027" lon="9.4515374"><ele>259.0</ele><time>2026-04-09T14:26:43.542Z</time></trkpt><trkpt lat="45.6797771" lon="9.4515457"><ele>259.5</ele><time>2026-04-09T14:26:44.542Z</time></trkpt><trkpt lat="45.6798756" lon="9.4515267"><ele>260.0</ele><time>2026-04-09T14:26:45.541Z</time></trkpt><trkpt lat="45.6799515" lon="9.4515341"><ele>260.5</ele><time>2026-04-09T14:26:46.542Z</time></trkpt><trkpt lat="45.6800164" lon="9.4515437"><ele>261.0</ele><time>2026-04-09T14:26:47.541Z</time></trkpt><trkpt lat="45.6801029" lon="9.4515388"><ele>261.0</ele><time>2026-04-09T14:26:48.542Z</time></trkpt><trkpt lat="45.6802467" lon="9.4515356"><ele>261.0</ele><time>2026-04-09T14:26:50.541Z</time></trkpt><trkpt lat="45.6803535" lon="9.4515125"><ele>261.0</ele><time>2026-04-09T14:26:52.541Z</time></trkpt><trkpt lat="45.6804323" lon="9.451509"><ele>261.0</ele><time>2026-04-09T14:26:53.542Z</time></trkpt><trkpt lat="45.6805145" lon="9.4514908"><ele>261.0</ele><time>2026-04-09T14:26:54.542Z</time></trkpt><trkpt lat="45.6805815" lon="9.4515315"><ele>261.5</ele><time>2026-04-09T14:26:55.542Z</time></trkpt><trkpt lat="45.680704" lon="9.451526"><ele>262.0</ele><time>2026-04-09T14:26:57.542Z</time></trkpt><trkpt lat="45.6808274" lon="9.4515294"><ele>262.5</ele><time>2026-04-09T14:26:59.541Z</time></trkpt><trkpt lat="45.6809339" lon="9.4515222"><ele>263.0</ele><time>2026-04-09T14:27:01.541Z</time></trkpt><trkpt lat="45.6810434" lon="9.4515274"><ele>260.0</ele><time>2026-04-09T14:27:03.542Z</time></trkpt><trkpt lat="45.6811686" lon="9.451539"><ele>257.0</ele><time>2026-04-09T14:27:05.542Z</time></trkpt><trkpt lat="45.6812331" lon="9.4515417"><ele>254.0</ele><time>2026-04-09T14:27:06.542Z</time></trkpt><trkpt lat="45.6813373" lon="9.4514763"><ele>251.0</ele><time>2026-04-09T14:27:08.541Z</time></trkpt><trkpt lat="45.6814303" lon="9.4514174"><ele>248.0</ele><time>2026-04-09T14:27:10.542Z</time></trkpt><trkpt lat="45.6814883" lon="9.4513429"><ele>250.5</ele><time>2026-04-09T14:27:13.541Z</time></trkpt><trkpt lat="45.6815438" lon="9.4512521"><ele>253.0</ele><time>2026-04-09T14:27:24.542Z</time></trkpt><trkpt lat="45.6816419" lon="9.4511097"><ele>255.5</ele><time>2026-04-09T14:27:26.542Z</time></trkpt><trkpt lat="45.6817233" lon="9.450978"><ele>258.0</ele><time>2026-04-09T14:27:28.541Z</time></trkpt><trkpt lat="45.681806" lon="9.4508399"><ele>258.0</ele><time>2026-04-09T14:27:30.542Z</time></trkpt><trkpt lat="45.681876" lon="9.4507086"><ele>258.0</ele><time>2026-04-09T14:27:32.541Z</time></trkpt><trkpt lat="45.6819112" lon="9.4506265"><ele>258.0</ele><time>2026-04-09T14:27:33.542Z</time></trkpt><trkpt lat="45.6819436" lon="9.4505462"><ele>258.0</ele><time>2026-04-09T14:27:34.542Z</time></trkpt><trkpt lat="45.6819799" lon="9.4504667"><ele>258.0</ele><time>2026-04-09T14:27:35.542Z</time></trkpt><trkpt lat="45.6820339" lon="9.4503071"><ele>258.0</ele><time>2026-04-09T14:27:37.541Z</time></trkpt><trkpt lat="45.6820673" lon="9.4502094"><ele>257.0</ele><time>2026-04-09T14:27:38.542Z</time></trkpt><trkpt lat="45.6820956" lon="9.4501281"><ele>256.0</ele><time>2026-04-09T14:27:39.542Z</time></trkpt><trkpt lat="45.6821432" lon="9.4499735"><ele>255.0</ele><time>2026-04-09T14:27:41.542Z</time></trkpt><trkpt lat="45.6821686" lon="9.4498812"><ele>254.0</ele><time>2026-04-09T14:27:42.542Z</time></trkpt><trkpt lat="45.6821982" lon="9.4497957"><ele>253.0</ele><time>2026-04-09T14:27:43.542Z</time></trkpt><trkpt lat="45.6822463" lon="9.4496362"><ele>252.0</ele><time>2026-04-09T14:27:45.542Z</time></trkpt><trkpt lat="45.6822755" lon="9.4495531"><ele>254.6</ele><time>2026-04-09T14:27:46.541Z</time></trkpt><trkpt lat="45.6823046" lon="9.4494606"><ele>257.2</ele><time>2026-04-09T14:27:47.541Z</time></trkpt><trkpt lat="45.682353" lon="9.4493009"><ele>259.8</ele><time>2026-04-09T14:27:49.541Z</time></trkpt><trkpt lat="45.6823888" lon="9.4492178"><ele>262.4</ele><time>2026-04-09T14:27:50.541Z</time></trkpt><trkpt lat="45.68241" lon="9.4491294"><ele>265.0</ele><time>2026-04-09T14:27:51.541Z</time></trkpt><trkpt lat="45.6824927" lon="9.4489383"><ele>265.0</ele><time>2026-04-09T14:27:53.542Z</time></trkpt><trkpt lat="45.6825167" lon="9.4488417"><ele>265.0</ele><time>2026-04-09T14:27:54.541Z</time></trkpt><trkpt lat="45.6825601" lon="9.4486806"><ele>265.0</ele><time>2026-04-09T14:27:56.542Z</time></trkpt><trkpt lat="45.6826075" lon="9.4485351"><ele>265.0</ele><time>2026-04-09T14:27:58.542Z</time></trkpt><trkpt lat="45.6826326" lon="9.4484463"><ele>265.0</ele><time>2026-04-09T14:27:59.541Z</time></trkpt><trkpt lat="45.6826811" lon="9.448311"><ele>264.8</ele><time>2026-04-09T14:28:01.542Z</time></trkpt><trkpt lat="45.6827079" lon="9.4482286"><ele>264.6</ele><time>2026-04-09T14:28:02.541Z</time></trkpt><trkpt lat="45.6827429" lon="9.4480764"><ele>264.4</ele><time>2026-04-09T14:28:04.541Z</time></trkpt><trkpt lat="45.6827661" lon="9.4479922"><ele>264.2</ele><time>2026-04-09T14:28:05.542Z</time></trkpt><trkpt lat="45.68281" lon="9.4478226"><ele>264.0</ele><time>2026-04-09T14:28:07.542Z</time></trkpt><trkpt lat="45.6828446" lon="9.4476782"><ele>264.4</ele><time>2026-04-09T14:28:09.541Z</time></trkpt><trkpt lat="45.682874" lon="9.4475332"><ele>264.79999999999995</ele><time>2026-04-09T14:28:11.542Z</time></trkpt><trkpt lat="45.6829062" lon="9.4473649"><ele>265.20000000000005</ele><time>2026-04-09T14:28:13.541Z</time></trkpt><trkpt lat="45.6829197" lon="9.4472762"><ele>265.6</ele><time>2026-04-09T14:28:14.542Z</time></trkpt><trkpt lat="45.6829359" lon="9.4471138"><ele>266.0</ele><time>2026-04-09T14:28:16.542Z</time></trkpt><trkpt lat="45.682942" lon="9.4469518"><ele>266.0</ele><time>2026-04-09T14:28:18.541Z</time></trkpt><trkpt lat="45.6829465" lon="9.4467876"><ele>266.0</ele><time>2026-04-09T14:28:20.542Z</time></trkpt><trkpt lat="45.6829555" lon="9.4466253"><ele>266.0</ele><time>2026-04-09T14:28:22.542Z</time></trkpt><trkpt lat="45.682954" lon="9.4464675"><ele>266.0</ele><time>2026-04-09T14:28:24.542Z</time></trkpt><trkpt lat="45.6829696" lon="9.4463172"><ele>266.0</ele><time>2026-04-09T14:28:26.542Z</time></trkpt><trkpt lat="45.6829862" lon="9.4461514"><ele>266.6</ele><time>2026-04-09T14:28:28.541Z</time></trkpt><trkpt lat="45.6830018" lon="9.4459861"><ele>267.20000000000005</ele><time>2026-04-09T14:28:30.541Z</time></trkpt><trkpt lat="45.6830065" lon="9.4458242"><ele>267.79999999999995</ele><time>2026-04-09T14:28:32.542Z</time></trkpt><trkpt lat="45.6830053" lon="9.445666"><ele>268.4</ele><time>2026-04-09T14:28:34.542Z</time></trkpt><trkpt lat="45.6830018" lon="9.4455264"><ele>269.0</ele><time>2026-04-09T14:28:36.542Z</time></trkpt><trkpt lat="45.6830109" lon="9.4453665"><ele>269.59999999999997</ele><time>2026-04-09T14:28:38.542Z</time></trkpt><trkpt lat="45.6830185" lon="9.4451867"><ele>270.2</ele><time>2026-04-09T14:28:40.542Z</time></trkpt><trkpt lat="45.6830168" lon="9.4450897"><ele>270.79999999999995</ele><time>2026-04-09T14:28:41.541Z</time></trkpt><trkpt lat="45.6830217" lon="9.4449952"><ele>271.4</ele><time>2026-04-09T14:28:42.542Z</time></trkpt><trkpt lat="45.6830275" lon="9.4448645"><ele>272.0</ele><time>2026-04-09T14:28:44.542Z</time></trkpt><trkpt lat="45.6830471" lon="9.4447171"><ele>272.4</ele><time>2026-04-09T14:28:46.541Z</time></trkpt><trkpt lat="45.6830867" lon="9.4445981"><ele>272.79999999999995</ele><time>2026-04-09T14:28:48.542Z</time></trkpt><trkpt lat="45.6831473" lon="9.4445625"><ele>273.2</ele><time>2026-04-09T14:28:50.542Z</time></trkpt><trkpt lat="45.6832655" lon="9.444566"><ele>273.59999999999997</ele><time>2026-04-09T14:28:52.542Z</time></trkpt><trkpt lat="45.6833285" lon="9.4445665"><ele>274.0</ele><time>2026-04-09T14:28:53.542Z</time></trkpt><trkpt lat="45.683458" lon="9.4445327"><ele>274.0</ele><time>2026-04-09T14:28:55.542Z</time></trkpt><trkpt lat="45.6835641" lon="9.444511"><ele>274.0</ele><time>2026-04-09T14:28:57.542Z</time></trkpt><trkpt lat="45.6836552" lon="9.4445648"><ele>274.0</ele><time>2026-04-09T14:28:59.542Z</time></trkpt><trkpt lat="45.6837204" lon="9.4445589"><ele>274.0</ele><time>2026-04-09T14:29:01.542Z</time></trkpt><trkpt lat="45.6837675" lon="9.444629"><ele>274.0</ele><time>2026-04-09T14:29:03.542Z</time></trkpt><trkpt lat="45.6837611" lon="9.4447485"><ele>274.0</ele><time>2026-04-09T14:29:05.541Z</time></trkpt><trkpt lat="45.683759" lon="9.4448773"><ele>273.66666666666663</ele><time>2026-04-09T14:29:07.542Z</time></trkpt><trkpt lat="45.6837477" lon="9.4449731"><ele>273.3333333333333</ele><time>2026-04-09T14:29:08.542Z</time></trkpt><trkpt lat="45.6837417" lon="9.4450637"><ele>273.0</ele><time>2026-04-09T14:29:09.541Z</time></trkpt><trkpt lat="45.6837522" lon="9.4452226"><ele>272.6666666666667</ele><time>2026-04-09T14:29:11.541Z</time></trkpt><trkpt lat="45.6837522" lon="9.4453728"><ele>272.33333333333337</ele><time>2026-04-09T14:29:13.542Z</time></trkpt><trkpt lat="45.6837454" lon="9.4454663"><ele>272.0</ele><time>2026-04-09T14:29:14.541Z</time></trkpt><trkpt lat="45.6837348" lon="9.4456182"><ele>271.4</ele><time>2026-04-09T14:29:16.542Z</time></trkpt><trkpt lat="45.683732" lon="9.4457098"><ele>270.79999999999995</ele><time>2026-04-09T14:29:17.541Z</time></trkpt><trkpt lat="45.6837378" lon="9.4458687"><ele>270.2</ele><time>2026-04-09T14:29:19.541Z</time></trkpt><trkpt lat="45.6837449" lon="9.4459875"><ele>269.59999999999997</ele><time>2026-04-09T14:29:21.542Z</time></trkpt><trkpt lat="45.6837547" lon="9.4460845"><ele>269.0</ele><time>2026-04-09T14:29:23.542Z</time></trkpt><trkpt lat="45.6839404" lon="9.4461351"><ele>269.0</ele><time>2026-04-09T14:29:27.541Z</time></trkpt><trkpt lat="45.6840676" lon="9.446148"><ele>269.0</ele><time>2026-04-09T14:29:30.542Z</time></trkpt><trkpt lat="45.6841655" lon="9.4461396"><ele>269.0</ele><time>2026-04-09T14:29:32.542Z</time></trkpt><trkpt lat="45.6842392" lon="9.4461182"><ele>269.0</ele><time>2026-04-09T14:29:33.541Z</time></trkpt><trkpt lat="45.6843327" lon="9.4461631"><ele>269.0</ele><time>2026-04-09T14:29:35.541Z</time></trkpt><trkpt lat="45.6844366" lon="9.4461191"><ele>269.0</ele><time>2026-04-09T14:29:37.541Z</time></trkpt><trkpt lat="45.6845844" lon="9.4460211"><ele>269.0</ele><time>2026-04-09T14:29:42.541Z</time></trkpt><trkpt lat="45.6846419" lon="9.4459098"><ele>269.0</ele><time>2026-04-09T14:29:44.542Z</time></trkpt><trkpt lat="45.6846667" lon="9.4457856"><ele>269.0</ele><time>2026-04-09T14:29:46.541Z</time></trkpt><trkpt lat="45.6846951" lon="9.4456601"><ele>269.0</ele><time>2026-04-09T14:29:48.542Z</time></trkpt><trkpt lat="45.6846872" lon="9.4455272"><ele>269.8</ele><time>2026-04-09T14:29:50.542Z</time></trkpt><trkpt lat="45.6846793" lon="9.4454128"><ele>270.59999999999997</ele><time>2026-04-09T14:29:52.541Z</time></trkpt><trkpt lat="45.6846658" lon="9.4452742"><ele>271.4</ele><time>2026-04-09T14:29:54.541Z</time></trkpt><trkpt lat="45.6846638" lon="9.4451474"><ele>272.2</ele><time>2026-04-09T14:29:56.542Z</time></trkpt><trkpt lat="45.6846678" lon="9.444993"><ele>273.0</ele><time>2026-04-09T14:29:58.541Z</time></trkpt><trkpt lat="45.6847035" lon="9.4448489"><ele>273.0</ele><time>2026-04-09T14:30:00.542Z</time></trkpt><trkpt lat="45.6847744" lon="9.4447458"><ele>273.0</ele><time>2026-04-09T14:30:03.542Z</time></trkpt><trkpt lat="45.6849088" lon="9.4448229"><ele>273.0</ele><time>2026-04-09T14:30:06.542Z</time></trkpt><trkpt lat="45.6850087" lon="9.4448381"><ele>273.0</ele><time>2026-04-09T14:30:08.542Z</time></trkpt><trkpt lat="45.68507" lon="9.4448627"><ele>273.0</ele><time>2026-04-09T14:30:09.541Z</time></trkpt><trkpt lat="45.685241" lon="9.4449394"><ele>272.8</ele><time>2026-04-09T14:30:11.541Z</time></trkpt><trkpt lat="45.6853324" lon="9.4450068"><ele>272.6</ele><time>2026-04-09T14:30:13.542Z</time></trkpt><trkpt lat="45.6853563" lon="9.4450931"><ele>272.4</ele><time>2026-04-09T14:30:14.541Z</time></trkpt><trkpt lat="45.6855162" lon="9.4450609"><ele>272.2</ele><time>2026-04-09T14:30:16.541Z</time></trkpt><trkpt lat="45.6856163" lon="9.4450845"><ele>272.0</ele><time>2026-04-09T14:30:18.542Z</time></trkpt><trkpt lat="45.6857151" lon="9.4451081"><ele>272.0</ele><time>2026-04-09T14:30:20.541Z</time></trkpt><trkpt lat="45.6857842" lon="9.4451828"><ele>272.0</ele><time>2026-04-09T14:30:22.542Z</time></trkpt><trkpt lat="45.6858819" lon="9.4451615"><ele>272.0</ele><time>2026-04-09T14:30:24.541Z</time></trkpt><trkpt lat="45.6859579" lon="9.4451171"><ele>272.0</ele><time>2026-04-09T14:30:25.542Z</time></trkpt><trkpt lat="45.6860684" lon="9.4451637"><ele>272.0</ele><time>2026-04-09T14:30:27.541Z</time></trkpt><trkpt lat="45.6861689" lon="9.445172"><ele>272.4</ele><time>2026-04-09T14:30:29.542Z</time></trkpt><trkpt lat="45.6862624" lon="9.4452096"><ele>272.79999999999995</ele><time>2026-04-09T14:30:31.542Z</time></trkpt><trkpt lat="45.6863665" lon="9.4452397"><ele>273.2</ele><time>2026-04-09T14:30:33.541Z</time></trkpt><trkpt lat="45.6864907" lon="9.4452783"><ele>273.59999999999997</ele><time>2026-04-09T14:30:35.541Z</time></trkpt><trkpt lat="45.6865661" lon="9.445254"><ele>274.0</ele><time>2026-04-09T14:30:36.542Z</time></trkpt><trkpt lat="45.6866625" lon="9.4452486"><ele>274.0</ele><time>2026-04-09T14:30:38.541Z</time></trkpt><trkpt lat="45.6867294" lon="9.4452629"><ele>274.0</ele><time>2026-04-09T14:30:39.542Z</time></trkpt><trkpt lat="45.6868493" lon="9.4452824"><ele>274.0</ele><time>2026-04-09T14:30:42.542Z</time></trkpt><trkpt lat="45.6869199" lon="9.4452347"><ele>274.0</ele><time>2026-04-09T14:30:43.541Z</time></trkpt><trkpt lat="45.6869859" lon="9.4452106"><ele>274.0</ele><time>2026-04-09T14:30:44.542Z</time></trkpt><trkpt lat="45.6870644" lon="9.4451501"><ele>274.0</ele><time>2026-04-09T14:30:45.542Z</time></trkpt><trkpt lat="45.6871397" lon="9.4451738"><ele>274.2</ele><time>2026-04-09T14:30:46.541Z</time></trkpt><trkpt lat="45.6872713" lon="9.4451092"><ele>274.4</ele><time>2026-04-09T14:30:47.541Z</time></trkpt><trkpt lat="45.6873466" lon="9.4450893"><ele>274.6</ele><time>2026-04-09T14:30:48.542Z</time></trkpt><trkpt lat="45.6874239" lon="9.4450309"><ele>274.8</ele><time>2026-04-09T14:30:49.542Z</time></trkpt><trkpt lat="45.6875278" lon="9.4449516"><ele>275.0</ele><time>2026-04-09T14:30:51.541Z</time></trkpt><trkpt lat="45.6876439" lon="9.4448676"><ele>275.0</ele><time>2026-04-09T14:30:53.541Z</time></trkpt><trkpt lat="45.6877061" lon="9.4448001"><ele>275.0</ele><time>2026-04-09T14:30:54.542Z</time></trkpt><trkpt lat="45.687811" lon="9.4447019"><ele>275.0</ele><time>2026-04-09T14:30:56.542Z</time></trkpt><trkpt lat="45.6879073" lon="9.4446173"><ele>275.0</ele><time>2026-04-09T14:30:58.542Z</time></trkpt><trkpt lat="45.687992" lon="9.4445448"><ele>275.0</ele><time>2026-04-09T14:31:00.72Z</time></trkpt><trkpt lat="45.6880574" lon="9.444502"><ele>275.2</ele><time>2026-04-09T14:31:01.896Z</time></trkpt><trkpt lat="45.6881784" lon="9.4444268"><ele>275.4</ele><time>2026-04-09T14:31:03.544Z</time></trkpt><trkpt lat="45.6882389" lon="9.4443949"><ele>275.6</ele><time>2026-04-09T14:31:04.541Z</time></trkpt><trkpt lat="45.6882831" lon="9.4443195"><ele>275.8</ele><time>2026-04-09T14:31:05.544Z</time></trkpt><trkpt lat="45.6883922" lon="9.4442159"><ele>276.0</ele><time>2026-04-09T14:31:07.543Z</time></trkpt><trkpt lat="45.6884579" lon="9.4441651"><ele>276.0</ele><time>2026-04-09T14:31:08.543Z</time></trkpt><trkpt lat="45.6885822" lon="9.4440641"><ele>276.0</ele><time>2026-04-09T14:31:10.542Z</time></trkpt><trkpt lat="45.6886702" lon="9.4439518"><ele>276.0</ele><time>2026-04-09T14:31:12.542Z</time></trkpt><trkpt lat="45.688733" lon="9.4438876"><ele>276.0</ele><time>2026-04-09T14:31:13.543Z</time></trkpt><trkpt lat="45.688803" lon="9.4438322"><ele>276.0</ele><time>2026-04-09T14:31:14.543Z</time></trkpt><trkpt lat="45.6888637" lon="9.4437948"><ele>275.8333333333333</ele><time>2026-04-09T14:31:15.542Z</time></trkpt><trkpt lat="45.688917" lon="9.443737"><ele>275.6666666666667</ele><time>2026-04-09T14:31:16.543Z</time></trkpt><trkpt lat="45.6889942" lon="9.4436776"><ele>275.5</ele><time>2026-04-09T14:31:17.543Z</time></trkpt><trkpt lat="45.6890557" lon="9.4436168"><ele>275.33333333333337</ele><time>2026-04-09T14:31:18.542Z</time></trkpt><trkpt lat="45.6891605" lon="9.4435409"><ele>275.1666666666667</ele><time>2026-04-09T14:31:20.542Z</time></trkpt><trkpt lat="45.6892287" lon="9.4434863"><ele>275.0</ele><time>2026-04-09T14:31:21.543Z</time></trkpt><trkpt lat="45.6893064" lon="9.443443"><ele>275.0</ele><time>2026-04-09T14:31:22.543Z</time></trkpt><trkpt lat="45.6893679" lon="9.4433746"><ele>275.0</ele><time>2026-04-09T14:31:23.542Z</time></trkpt><trkpt lat="45.6894713" lon="9.4432719"><ele>275.0</ele><time>2026-04-09T14:31:25.543Z</time></trkpt><trkpt lat="45.6895274" lon="9.4432288"><ele>275.0</ele><time>2026-04-09T14:31:26.543Z</time></trkpt><trkpt lat="45.689637" lon="9.4431196"><ele>275.0</ele><time>2026-04-09T14:31:28.542Z</time></trkpt><trkpt lat="45.6897073" lon="9.4430775"><ele>275.33333333333337</ele><time>2026-04-09T14:31:29.543Z</time></trkpt><trkpt lat="45.6897859" lon="9.4430262"><ele>275.6666666666667</ele><time>2026-04-09T14:31:30.542Z</time></trkpt><trkpt lat="45.6898452" lon="9.4429729"><ele>276.0</ele><time>2026-04-09T14:31:31.542Z</time></trkpt><trkpt lat="45.6898939" lon="9.442905"><ele>276.3333333333333</ele><time>2026-04-09T14:31:32.542Z</time></trkpt><trkpt lat="45.689956" lon="9.4428587"><ele>276.66666666666663</ele><time>2026-04-09T14:31:33.542Z</time></trkpt><trkpt lat="45.6900678" lon="9.4427631"><ele>277.0</ele><time>2026-04-09T14:31:35.543Z</time></trkpt><trkpt lat="45.6901713" lon="9.4426805"><ele>277.2</ele><time>2026-04-09T14:31:37.542Z</time></trkpt><trkpt lat="45.6902846" lon="9.4425899"><ele>277.4</ele><time>2026-04-09T14:31:39.543Z</time></trkpt><trkpt lat="45.6903488" lon="9.4425393"><ele>277.6</ele><time>2026-04-09T14:31:40.542Z</time></trkpt><trkpt lat="45.690457" lon="9.4424657"><ele>277.8</ele><time>2026-04-09T14:31:42.542Z</time></trkpt><trkpt lat="45.6905742" lon="9.4424006"><ele>278.0</ele><time>2026-04-09T14:31:44.543Z</time></trkpt><trkpt lat="45.6906325" lon="9.4423598"><ele>278.0</ele><time>2026-04-09T14:31:45.542Z</time></trkpt><trkpt lat="45.6907029" lon="9.4422997"><ele>278.0</ele><time>2026-04-09T14:31:46.543Z</time></trkpt><trkpt lat="45.6907916" lon="9.4422179"><ele>278.0</ele><time>2026-04-09T14:31:48.543Z</time></trkpt><trkpt lat="45.6909144" lon="9.4421666"><ele>278.0</ele><time>2026-04-09T14:31:50.543Z</time></trkpt><trkpt lat="45.691026" lon="9.4420941"><ele>278.0</ele><time>2026-04-09T14:31:52.542Z</time></trkpt><trkpt lat="45.6910901" lon="9.4420867"><ele>276.75</ele><time>2026-04-09T14:31:53.543Z</time></trkpt><trkpt lat="45.6912099" lon="9.4420175"><ele>275.5</ele><time>2026-04-09T14:31:55.542Z</time></trkpt><trkpt lat="45.6913178" lon="9.4419464"><ele>274.25</ele><time>2026-04-09T14:31:57.542Z</time></trkpt><trkpt lat="45.691382" lon="9.4418314"><ele>273.0</ele><time>2026-04-09T14:31:59.542Z</time></trkpt><trkpt lat="45.6914851" lon="9.4417624"><ele>273.0</ele><time>2026-04-09T14:32:01.543Z</time></trkpt><trkpt lat="45.6915725" lon="9.4416788"><ele>273.0</ele><time>2026-04-09T14:32:03.543Z</time></trkpt><trkpt lat="45.6916431" lon="9.4417121"><ele>273.0</ele><time>2026-04-09T14:32:04.542Z</time></trkpt><trkpt lat="45.6917177" lon="9.4416977"><ele>273.0</ele><time>2026-04-09T14:32:05.542Z</time></trkpt><trkpt lat="45.6917812" lon="9.4417341"><ele>273.0</ele><time>2026-04-09T14:32:06.543Z</time></trkpt><trkpt lat="45.6918461" lon="9.4417433"><ele>273.0</ele><time>2026-04-09T14:32:07.543Z</time></trkpt><trkpt lat="45.6919535" lon="9.4417633"><ele>273.4</ele><time>2026-04-09T14:32:09.543Z</time></trkpt><trkpt lat="45.6920748" lon="9.4417752"><ele>273.8</ele><time>2026-04-09T14:32:11.543Z</time></trkpt><trkpt lat="45.6921958" lon="9.4417563"><ele>274.2</ele><time>2026-04-09T14:32:13.543Z</time></trkpt><trkpt lat="45.6922726" lon="9.4417742"><ele>274.6</ele><time>2026-04-09T14:32:14.542Z</time></trkpt><trkpt lat="45.6923363" lon="9.4417726"><ele>275.0</ele><time>2026-04-09T14:32:15.543Z</time></trkpt><trkpt lat="45.6924507" lon="9.4417951"><ele>275.0</ele><time>2026-04-09T14:32:17.543Z</time></trkpt><trkpt lat="45.6925694" lon="9.4418083"><ele>275.0</ele><time>2026-04-09T14:32:19.543Z</time></trkpt><trkpt lat="45.6926377" lon="9.4418231"><ele>275.0</ele><time>2026-04-09T14:32:20.542Z</time></trkpt><trkpt lat="45.6927082" lon="9.4418005"><ele>275.0</ele><time>2026-04-09T14:32:21.542Z</time></trkpt><trkpt lat="45.6928084" lon="9.4417831"><ele>275.0</ele><time>2026-04-09T14:32:23.543Z</time></trkpt><trkpt lat="45.6929503" lon="9.4417236"><ele>276.5</ele><time>2026-04-09T14:32:25.542Z</time></trkpt><trkpt lat="45.6930432" lon="9.4416684"><ele>278.0</ele><time>2026-04-09T14:32:27.542Z</time></trkpt><trkpt lat="45.6931135" lon="9.4416291"><ele>279.5</ele><time>2026-04-09T14:32:29.543Z</time></trkpt><trkpt lat="45.6933418" lon="9.4416206"><ele>281.0</ele><time>2026-04-09T14:32:40.542Z</time></trkpt><trkpt lat="45.6933669" lon="9.4415377"><ele>281.0</ele><time>2026-04-09T14:40:19.543Z</time></trkpt><trkpt lat="45.6932881" lon="9.441546"><ele>281.0</ele><time>2026-04-09T14:40:32.543Z</time></trkpt><trkpt lat="45.6932019" lon="9.4415324"><ele>281.0</ele><time>2026-04-09T14:40:35.543Z</time></trkpt><trkpt lat="45.693134" lon="9.441545"><ele>281.0</ele><time>2026-04-09T14:40:37.543Z</time></trkpt><trkpt lat="45.693036" lon="9.4416194"><ele>281.0</ele><time>2026-04-09T14:40:39.543Z</time></trkpt><trkpt lat="45.6929672" lon="9.4416624"><ele>281.0</ele><time>2026-04-09T14:40:40.543Z</time></trkpt><trkpt lat="45.6928703" lon="9.4417001"><ele>281.0</ele><time>2026-04-09T14:40:42.543Z</time></trkpt><trkpt lat="45.6927972" lon="9.441729"><ele>281.0</ele><time>2026-04-09T14:40:44.542Z</time></trkpt><trkpt lat="45.6927354" lon="9.4417499"><ele>281.0</ele><time>2026-04-09T14:40:45.542Z</time></trkpt><trkpt lat="45.6926202" lon="9.4417522"><ele>281.0</ele><time>2026-04-09T14:40:47.543Z</time></trkpt><trkpt lat="45.6925004" lon="9.4417529"><ele>281.0</ele><time>2026-04-09T14:40:49.542Z</time></trkpt><trkpt lat="45.6924341" lon="9.4417641"><ele>281.0</ele><time>2026-04-09T14:40:50.542Z</time></trkpt><trkpt lat="45.6923379" lon="9.4417774"><ele>280.0</ele><time>2026-04-09T14:40:52.543Z</time></trkpt><trkpt lat="45.6922467" lon="9.4417974"><ele>279.0</ele><time>2026-04-09T14:40:53.542Z</time></trkpt><trkpt lat="45.6921746" lon="9.4418059"><ele>278.0</ele><time>2026-04-09T14:40:54.543Z</time></trkpt><trkpt lat="45.6921159" lon="9.4417579"><ele>277.0</ele><time>2026-04-09T14:40:55.543Z</time></trkpt><trkpt lat="45.6919868" lon="9.4416974"><ele>276.0</ele><time>2026-04-09T14:40:57.543Z</time></trkpt><trkpt lat="45.6919117" lon="9.4417094"><ele>275.0</ele><time>2026-04-09T14:40:58.542Z</time></trkpt><trkpt lat="45.6918417" lon="9.4416719"><ele>274.6</ele><time>2026-04-09T14:40:59.543Z</time></trkpt><trkpt lat="45.6917255" lon="9.4416636"><ele>274.2</ele><time>2026-04-09T14:41:01.543Z</time></trkpt><trkpt lat="45.6915899" lon="9.441657"><ele>273.8</ele><time>2026-04-09T14:41:03.543Z</time></trkpt><trkpt lat="45.6915197" lon="9.4416733"><ele>273.4</ele><time>2026-04-09T14:41:04.542Z</time></trkpt><trkpt lat="45.6914671" lon="9.4417716"><ele>273.0</ele><time>2026-04-09T14:41:05.543Z</time></trkpt><trkpt lat="45.6914914" lon="9.441858"><ele>273.0</ele><time>2026-04-09T14:41:06.543Z</time></trkpt><trkpt lat="45.6914236" lon="9.4419642"><ele>273.0</ele><time>2026-04-09T14:41:08.543Z</time></trkpt><trkpt lat="45.6913391" lon="9.4420245"><ele>273.0</ele><time>2026-04-09T14:41:10.543Z</time></trkpt><trkpt lat="45.6912403" lon="9.442067"><ele>273.0</ele><time>2026-04-09T14:41:12.543Z</time></trkpt><trkpt lat="45.6911809" lon="9.4421248"><ele>273.0</ele><time>2026-04-09T14:41:14.542Z</time></trkpt><trkpt lat="45.6910637" lon="9.442124"><ele>273.2</ele><time>2026-04-09T14:41:16.543Z</time></trkpt><trkpt lat="45.6909665" lon="9.442107"><ele>273.4</ele><time>2026-04-09T14:41:17.543Z</time></trkpt><trkpt lat="45.6908409" lon="9.4421348"><ele>273.59999999999997</ele><time>2026-04-09T14:41:19.543Z</time></trkpt><trkpt lat="45.6907466" lon="9.4422151"><ele>273.8</ele><time>2026-04-09T14:41:21.542Z</time></trkpt><trkpt lat="45.6906422" lon="9.4422798"><ele>274.0</ele><time>2026-04-09T14:41:23.543Z</time></trkpt><trkpt lat="45.6905634" lon="9.4423376"><ele>273.8</ele><time>2026-04-09T14:41:25.543Z</time></trkpt><trkpt lat="45.6904627" lon="9.4424054"><ele>273.59999999999997</ele><time>2026-04-09T14:41:27.542Z</time></trkpt><trkpt lat="45.6903663" lon="9.4424558"><ele>273.4</ele><time>2026-04-09T14:41:29.543Z</time></trkpt><trkpt lat="45.6902614" lon="9.4425365"><ele>273.2</ele><time>2026-04-09T14:41:31.542Z</time></trkpt><trkpt lat="45.6901857" lon="9.4425946"><ele>273.0</ele><time>2026-04-09T14:41:32.542Z</time></trkpt><trkpt lat="45.6900942" lon="9.4427037"><ele>273.0</ele><time>2026-04-09T14:41:34.542Z</time></trkpt><trkpt lat="45.6899862" lon="9.4427838"><ele>273.0</ele><time>2026-04-09T14:41:36.543Z</time></trkpt><trkpt lat="45.6898901" lon="9.4428916"><ele>273.0</ele><time>2026-04-09T14:41:38.543Z</time></trkpt><trkpt lat="45.6897845" lon="9.44298"><ele>273.0</ele><time>2026-04-09T14:41:40.543Z</time></trkpt><trkpt lat="45.6896708" lon="9.4430527"><ele>273.4</ele><time>2026-04-09T14:41:42.542Z</time></trkpt><trkpt lat="45.6896022" lon="9.4431059"><ele>273.8</ele><time>2026-04-09T14:41:43.543Z</time></trkpt><trkpt lat="45.6895402" lon="9.4431592"><ele>274.2</ele><time>2026-04-09T14:41:44.542Z</time></trkpt><trkpt lat="45.6894405" lon="9.4432505"><ele>274.6</ele><time>2026-04-09T14:41:46.542Z</time></trkpt><trkpt lat="45.6893893" lon="9.4433045"><ele>275.0</ele><time>2026-04-09T14:41:47.542Z</time></trkpt><trkpt lat="45.6892965" lon="9.4434191"><ele>275.0</ele><time>2026-04-09T14:41:49.542Z</time></trkpt><trkpt lat="45.6892246" lon="9.4434635"><ele>275.0</ele><time>2026-04-09T14:41:50.543Z</time></trkpt><trkpt lat="45.6891174" lon="9.443562"><ele>275.0</ele><time>2026-04-09T14:41:52.543Z</time></trkpt><trkpt lat="45.68906" lon="9.4436121"><ele>275.0</ele><time>2026-04-09T14:41:53.543Z</time></trkpt><trkpt lat="45.6889851" lon="9.4436604"><ele>275.0</ele><time>2026-04-09T14:41:54.543Z</time></trkpt><trkpt lat="45.6888837" lon="9.4437578"><ele>275.25</ele><time>2026-04-09T14:41:56.543Z</time></trkpt><trkpt lat="45.6887818" lon="9.4438393"><ele>275.5</ele><time>2026-04-09T14:41:58.543Z</time></trkpt><trkpt lat="45.6886794" lon="9.443927"><ele>275.75</ele><time>2026-04-09T14:42:00.543Z</time></trkpt><trkpt lat="45.6885861" lon="9.443959"><ele>276.0</ele><time>2026-04-09T14:42:01.542Z</time></trkpt><trkpt lat="45.6884698" lon="9.4440627"><ele>276.0</ele><time>2026-04-09T14:42:03.543Z</time></trkpt><trkpt lat="45.6884126" lon="9.4441145"><ele>276.0</ele><time>2026-04-09T14:42:04.543Z</time></trkpt><trkpt lat="45.688328" lon="9.4441633"><ele>276.0</ele><time>2026-04-09T14:42:05.543Z</time></trkpt><trkpt lat="45.6882478" lon="9.4442583"><ele>276.0</ele><time>2026-04-09T14:42:07.543Z</time></trkpt><trkpt lat="45.6881913" lon="9.4443039"><ele>276.0</ele><time>2026-04-09T14:42:08.543Z</time></trkpt><trkpt lat="45.6881366" lon="9.4443583"><ele>276.0</ele><time>2026-04-09T14:42:09.543Z</time></trkpt><trkpt lat="45.6880788" lon="9.4444079"><ele>276.0</ele><time>2026-04-09T14:42:10.543Z</time></trkpt><trkpt lat="45.6880156" lon="9.4444611"><ele>276.0</ele><time>2026-04-09T14:42:11.542Z</time></trkpt><trkpt lat="45.6879312" lon="9.4445796"><ele>276.0</ele><time>2026-04-09T14:42:13.543Z</time></trkpt><trkpt lat="45.687873" lon="9.4446173"><ele>276.0</ele><time>2026-04-09T14:42:14.543Z</time></trkpt><trkpt lat="45.687781" lon="9.4447122"><ele>276.0</ele><time>2026-04-09T14:42:16.542Z</time></trkpt><trkpt lat="45.6876793" lon="9.4448081"><ele>275.8</ele><time>2026-04-09T14:42:18.543Z</time></trkpt><trkpt lat="45.6876216" lon="9.4448564"><ele>275.6</ele><time>2026-04-09T14:42:19.543Z</time></trkpt><trkpt lat="45.6875114" lon="9.4449544"><ele>275.4</ele><time>2026-04-09T14:42:21.542Z</time></trkpt><trkpt lat="45.6874625" lon="9.4450112"><ele>275.2</ele><time>2026-04-09T14:42:22.543Z</time></trkpt><trkpt lat="45.6873411" lon="9.4450713"><ele>275.0</ele><time>2026-04-09T14:42:24.543Z</time></trkpt><trkpt lat="45.6872714" lon="9.4451116"><ele>275.0</ele><time>2026-04-09T14:42:25.543Z</time></trkpt><trkpt lat="45.6872025" lon="9.4451496"><ele>275.0</ele><time>2026-04-09T14:42:26.543Z</time></trkpt><trkpt lat="45.6871158" lon="9.4451701"><ele>275.0</ele><time>2026-04-09T14:42:27.542Z</time></trkpt><trkpt lat="45.6870016" lon="9.4451976"><ele>275.0</ele><time>2026-04-09T14:42:29.542Z</time></trkpt><trkpt lat="45.686938" lon="9.4451928"><ele>275.0</ele><time>2026-04-09T14:42:30.543Z</time></trkpt><trkpt lat="45.6868241" lon="9.445179"><ele>274.8</ele><time>2026-04-09T14:42:32.543Z</time></trkpt><trkpt lat="45.6867605" lon="9.4451928"><ele>274.6</ele><time>2026-04-09T14:42:33.543Z</time></trkpt><trkpt lat="45.6866676" lon="9.445235"><ele>274.4</ele><time>2026-04-09T14:42:34.543Z</time></trkpt><trkpt lat="45.6865406" lon="9.445242"><ele>274.2</ele><time>2026-04-09T14:42:36.542Z</time></trkpt><trkpt lat="45.6864554" lon="9.4452335"><ele>274.0</ele><time>2026-04-09T14:42:37.542Z</time></trkpt><trkpt lat="45.6863232" lon="9.4452011"><ele>274.00000000000006</ele><time>2026-04-09T14:42:39.543Z</time></trkpt><trkpt lat="45.686249" lon="9.4451894"><ele>274.0</ele><time>2026-04-09T14:42:40.543Z</time></trkpt><trkpt lat="45.6861785" lon="9.4451789"><ele>274.0</ele><time>2026-04-09T14:42:41.542Z</time></trkpt><trkpt lat="45.686114" lon="9.4451623"><ele>274.0</ele><time>2026-04-09T14:42:42.543Z</time></trkpt><trkpt lat="45.6860448" lon="9.4451393"><ele>274.0</ele><time>2026-04-09T14:42:43.543Z</time></trkpt><trkpt lat="45.6859688" lon="9.4451183"><ele>274.00000000000006</ele><time>2026-04-09T14:42:44.542Z</time></trkpt><trkpt lat="45.6858956" lon="9.4451035"><ele>274.0</ele><time>2026-04-09T14:42:45.542Z</time></trkpt><trkpt lat="45.6858207" lon="9.4450853"><ele>273.66666666666663</ele><time>2026-04-09T14:42:46.543Z</time></trkpt><trkpt lat="45.6857502" lon="9.4450635"><ele>273.3333333333333</ele><time>2026-04-09T14:42:47.542Z</time></trkpt><trkpt lat="45.6856719" lon="9.4450464"><ele>273.0</ele><time>2026-04-09T14:42:48.543Z</time></trkpt><trkpt lat="45.6856015" lon="9.4450329"><ele>272.6666666666667</ele><time>2026-04-09T14:42:49.542Z</time></trkpt><trkpt lat="45.6855264" lon="9.4450184"><ele>272.33333333333337</ele><time>2026-04-09T14:42:50.543Z</time></trkpt><trkpt lat="45.6854515" lon="9.4450143"><ele>272.0</ele><time>2026-04-09T14:42:51.543Z</time></trkpt><trkpt lat="45.6853373" lon="9.4449933"><ele>271.99999999999994</ele><time>2026-04-09T14:42:53.543Z</time></trkpt><trkpt lat="45.6852666" lon="9.4449793"><ele>272.0</ele><time>2026-04-09T14:42:54.542Z</time></trkpt><trkpt lat="45.6852018" lon="9.4449709"><ele>272.0</ele><time>2026-04-09T14:42:55.543Z</time></trkpt><trkpt lat="45.6851294" lon="9.4449441"><ele>272.0</ele><time>2026-04-09T14:42:56.543Z</time></trkpt><trkpt lat="45.6850644" lon="9.4449122"><ele>272.0</ele><time>2026-04-09T14:42:57.542Z</time></trkpt><trkpt lat="45.6849971" lon="9.4449096"><ele>271.99999999999994</ele><time>2026-04-09T14:42:58.542Z</time></trkpt><trkpt lat="45.684932" lon="9.4448868"><ele>272.0</ele><time>2026-04-09T14:42:59.543Z</time></trkpt><trkpt lat="45.6848656" lon="9.4448737"><ele>272.1428571428571</ele><time>2026-04-09T14:43:00.542Z</time></trkpt><trkpt lat="45.6848023" lon="9.4448562"><ele>272.2857142857143</ele><time>2026-04-09T14:43:01.543Z</time></trkpt><trkpt lat="45.6847552" lon="9.4447507"><ele>272.42857142857144</ele><time>2026-04-09T14:43:03.543Z</time></trkpt><trkpt lat="45.6847566" lon="9.4446456"><ele>272.57142857142856</ele><time>2026-04-09T14:43:05.543Z</time></trkpt><trkpt lat="45.6847981" lon="9.4445609"><ele>272.7142857142857</ele><time>2026-04-09T14:43:07.543Z</time></trkpt><trkpt lat="45.6848326" lon="9.4444775"><ele>272.85714285714283</ele><time>2026-04-09T14:43:09.542Z</time></trkpt><trkpt lat="45.6848839" lon="9.4444084"><ele>273.0</ele><time>2026-04-09T14:43:11.543Z</time></trkpt><trkpt lat="45.6849244" lon="9.4443204"><ele>273.5</ele><time>2026-04-09T14:43:13.542Z</time></trkpt><trkpt lat="45.6849603" lon="9.4442418"><ele>274.0</ele><time>2026-04-09T14:43:15.542Z</time></trkpt><trkpt lat="45.6850127" lon="9.4441198"><ele>274.5</ele><time>2026-04-09T14:43:18.543Z</time></trkpt><trkpt lat="45.6850579" lon="9.4440276"><ele>275.0</ele><time>2026-04-09T14:43:20.542Z</time></trkpt><trkpt lat="45.6851038" lon="9.4439357"><ele>275.5</ele><time>2026-04-09T14:43:22.543Z</time></trkpt><trkpt lat="45.6851491" lon="9.4438516"><ele>276.0</ele><time>2026-04-09T14:43:24.542Z</time></trkpt><trkpt lat="45.6851993" lon="9.4437585"><ele>276.6</ele><time>2026-04-09T14:43:26.543Z</time></trkpt><trkpt lat="45.6852519" lon="9.4436734"><ele>277.20000000000005</ele><time>2026-04-09T14:43:28.711Z</time></trkpt><trkpt lat="45.685329" lon="9.4435338"><ele>277.79999999999995</ele><time>2026-04-09T14:43:31.535Z</time></trkpt><trkpt lat="45.685371" lon="9.4434449"><ele>278.4</ele><time>2026-04-09T14:43:32.535Z</time></trkpt><trkpt lat="45.6854235" lon="9.4433692"><ele>279.0</ele><time>2026-04-09T14:43:34.54Z</time></trkpt><trkpt lat="45.685495" lon="9.4432754"><ele>279.5</ele><time>2026-04-09T14:43:36.541Z</time></trkpt><trkpt lat="45.6855266" lon="9.4431837"><ele>280.0</ele><time>2026-04-09T14:43:38.54Z</time></trkpt><trkpt lat="45.6855646" lon="9.4430864"><ele>280.5</ele><time>2026-04-09T14:43:40.541Z</time></trkpt><trkpt lat="45.6856079" lon="9.4429788"><ele>281.0</ele><time>2026-04-09T14:43:42.54Z</time></trkpt><trkpt lat="45.6856327" lon="9.4428535"><ele>281.5</ele><time>2026-04-09T14:43:44.541Z</time></trkpt><trkpt lat="45.685643" lon="9.4427374"><ele>282.0</ele><time>2026-04-09T14:43:46.541Z</time></trkpt><trkpt lat="45.6856693" lon="9.4426094"><ele>282.0</ele><time>2026-04-09T14:43:48.541Z</time></trkpt><trkpt lat="45.6856891" lon="9.4424889"><ele>282.0</ele><time>2026-04-09T14:43:50.541Z</time></trkpt><trkpt lat="45.6856992" lon="9.4423527"><ele>282.0</ele><time>2026-04-09T14:43:52.541Z</time></trkpt><trkpt lat="45.6857064" lon="9.4422113"><ele>282.0</ele><time>2026-04-09T14:43:54.54Z</time></trkpt><trkpt lat="45.6857232" lon="9.4421228"><ele>282.0</ele><time>2026-04-09T14:43:55.54Z</time></trkpt><trkpt lat="45.6857478" lon="9.4419959"><ele>282.0</ele><time>2026-04-09T14:43:57.541Z</time></trkpt><trkpt lat="45.6857706" lon="9.4418782"><ele>282.1666666666667</ele><time>2026-04-09T14:43:59.541Z</time></trkpt><trkpt lat="45.6858083" lon="9.4417644"><ele>282.3333333333333</ele><time>2026-04-09T14:44:01.541Z</time></trkpt><trkpt lat="45.685857" lon="9.4416689"><ele>282.5</ele><time>2026-04-09T14:44:03.541Z</time></trkpt><trkpt lat="45.6859228" lon="9.4416511"><ele>282.66666666666663</ele><time>2026-04-09T14:44:05.541Z</time></trkpt><trkpt lat="45.6860358" lon="9.4416911"><ele>282.8333333333333</ele><time>2026-04-09T14:44:07.54Z</time></trkpt><trkpt lat="45.6861066" lon="9.4417269"><ele>283.0</ele><time>2026-04-09T14:44:08.541Z</time></trkpt><trkpt lat="45.686177" lon="9.4417676"><ele>281.5</ele><time>2026-04-09T14:44:09.541Z</time></trkpt><trkpt lat="45.6862449" lon="9.441808"><ele>280.0</ele><time>2026-04-09T14:44:10.54Z</time></trkpt><trkpt lat="45.6863064" lon="9.4418282"><ele>278.5</ele><time>2026-04-09T14:44:11.541Z</time></trkpt><trkpt lat="45.6863883" lon="9.4417983"><ele>277.0</ele><time>2026-04-09T14:44:12.541Z</time></trkpt><trkpt lat="45.6864591" lon="9.4418027"><ele>275.5</ele><time>2026-04-09T14:44:13.541Z</time></trkpt><trkpt lat="45.6865116" lon="9.4417171"><ele>274.0</ele><time>2026-04-09T14:44:15.541Z</time></trkpt><trkpt lat="45.6865515" lon="9.4416021"><ele>274.0</ele><time>2026-04-09T14:44:17.541Z</time></trkpt><trkpt lat="45.6866" lon="9.4414855"><ele>274.0</ele><time>2026-04-09T14:44:19.541Z</time></trkpt><trkpt lat="45.6866492" lon="9.4413373"><ele>274.0</ele><time>2026-04-09T14:44:21.54Z</time></trkpt><trkpt lat="45.6866808" lon="9.4411809"><ele>274.0</ele><time>2026-04-09T14:44:23.541Z</time></trkpt><trkpt lat="45.6867022" lon="9.4410887"><ele>274.0</ele><time>2026-04-09T14:44:24.541Z</time></trkpt><trkpt lat="45.6867367" lon="9.4409728"><ele>273.0</ele><time>2026-04-09T14:44:25.541Z</time></trkpt><trkpt lat="45.6867622" lon="9.4408566"><ele>272.0</ele><time>2026-04-09T14:44:26.541Z</time></trkpt><trkpt lat="45.6867977" lon="9.4407575"><ele>271.0</ele><time>2026-04-09T14:44:27.541Z</time></trkpt><trkpt lat="45.6868256" lon="9.4406433"><ele>270.0</ele><time>2026-04-09T14:44:28.541Z</time></trkpt><trkpt lat="45.6868481" lon="9.4405377"><ele>269.0</ele><time>2026-04-09T14:44:29.541Z</time></trkpt><trkpt lat="45.6868749" lon="9.4404289"><ele>268.0</ele><time>2026-04-09T14:44:30.54Z</time></trkpt><trkpt lat="45.6869026" lon="9.4403148"><ele>267.8571428571429</ele><time>2026-04-09T14:44:31.541Z</time></trkpt><trkpt lat="45.686925" lon="9.4402169"><ele>267.7142857142857</ele><time>2026-04-09T14:44:32.54Z</time></trkpt><trkpt lat="45.6869458" lon="9.4401199"><ele>267.57142857142856</ele><time>2026-04-09T14:44:33.541Z</time></trkpt><trkpt lat="45.6869748" lon="9.4400183"><ele>267.42857142857144</ele><time>2026-04-09T14:44:34.541Z</time></trkpt><trkpt lat="45.6869941" lon="9.4399297"><ele>267.2857142857143</ele><time>2026-04-09T14:44:35.54Z</time></trkpt><trkpt lat="45.6870315" lon="9.439828"><ele>267.14285714285717</ele><time>2026-04-09T14:44:36.541Z</time></trkpt><trkpt lat="45.6870568" lon="9.4397271"><ele>267.0</ele><time>2026-04-09T14:44:37.541Z</time></trkpt><trkpt lat="45.6870934" lon="9.4395783"><ele>266.8333333333333</ele><time>2026-04-09T14:44:39.54Z</time></trkpt><trkpt lat="45.6871196" lon="9.4394854"><ele>266.6666666666667</ele><time>2026-04-09T14:44:41.54Z</time></trkpt><trkpt lat="45.6871465" lon="9.4393952"><ele>266.5</ele><time>2026-04-09T14:44:43.541Z</time></trkpt><trkpt lat="45.6871693" lon="9.4392713"><ele>266.33333333333337</ele><time>2026-04-09T14:44:48.541Z</time></trkpt><trkpt lat="45.6871046" lon="9.4391923"><ele>266.1666666666667</ele><time>2026-04-09T14:44:51.541Z</time></trkpt><trkpt lat="45.6870374" lon="9.4391044"><ele>266.0</ele><time>2026-04-09T14:44:53.541Z</time></trkpt><trkpt lat="45.6869497" lon="9.4390568"><ele>265.8</ele><time>2026-04-09T14:44:55.54Z</time></trkpt><trkpt lat="45.6868852" lon="9.4390186"><ele>265.6</ele><time>2026-04-09T14:44:56.54Z</time></trkpt><trkpt lat="45.6867921" lon="9.4389528"><ele>265.4</ele><time>2026-04-09T14:44:58.541Z</time></trkpt><trkpt lat="45.6866789" lon="9.4388879"><ele>265.2</ele><time>2026-04-09T14:45:00.541Z</time></trkpt><trkpt lat="45.6865632" lon="9.4388259"><ele>265.0</ele><time>2026-04-09T14:45:02.541Z</time></trkpt><trkpt lat="45.6865037" lon="9.438793"><ele>265.0</ele><time>2026-04-09T14:45:03.541Z</time></trkpt><trkpt lat="45.6863821" lon="9.4387375"><ele>265.0</ele><time>2026-04-09T14:45:05.54Z</time></trkpt><trkpt lat="45.6863218" lon="9.4387045"><ele>265.0</ele><time>2026-04-09T14:45:06.54Z</time></trkpt><trkpt lat="45.6862181" lon="9.438646"><ele>265.0</ele><time>2026-04-09T14:45:08.541Z</time></trkpt><trkpt lat="45.6861114" lon="9.4385795"><ele>265.0</ele><time>2026-04-09T14:45:10.541Z</time></trkpt><trkpt lat="45.6860059" lon="9.4385257"><ele>265.16666666666663</ele><time>2026-04-09T14:45:12.54Z</time></trkpt><trkpt lat="45.6859219" lon="9.4385026"><ele>265.3333333333333</ele><time>2026-04-09T14:45:14.541Z</time></trkpt><trkpt lat="45.685843" lon="9.4384688"><ele>265.5</ele><time>2026-04-09T14:45:16.541Z</time></trkpt><trkpt lat="45.6857791" lon="9.4384289"><ele>265.6666666666667</ele><time>2026-04-09T14:45:20.541Z</time></trkpt><trkpt lat="45.6856996" lon="9.4383784"><ele>265.83333333333337</ele><time>2026-04-09T14:45:54.541Z</time></trkpt><trkpt lat="45.6856138" lon="9.4384674"><ele>266.0</ele><time>2026-04-09T14:45:57.54Z</time></trkpt><trkpt lat="45.6855886" lon="9.4385517"><ele>266.0</ele><time>2026-04-09T14:45:58.541Z</time></trkpt><trkpt lat="45.685551" lon="9.4386855"><ele>266.0</ele><time>2026-04-09T14:46:00.541Z</time></trkpt><trkpt lat="45.6855089" lon="9.4388264"><ele>266.0</ele><time>2026-04-09T14:46:02.54Z</time></trkpt><trkpt lat="45.6854579" lon="9.4389659"><ele>266.0</ele><time>2026-04-09T14:46:04.541Z</time></trkpt><trkpt lat="45.6854015" lon="9.439101"><ele>266.0</ele><time>2026-04-09T14:46:06.54Z</time></trkpt><trkpt lat="45.6853628" lon="9.4392617"><ele>265.83333333333337</ele><time>2026-04-09T14:46:08.541Z</time></trkpt><trkpt lat="45.6853345" lon="9.4393444"><ele>265.6666666666667</ele><time>2026-04-09T14:46:09.541Z</time></trkpt><trkpt lat="45.6853054" lon="9.4394301"><ele>265.5</ele><time>2026-04-09T14:46:10.541Z</time></trkpt><trkpt lat="45.6852797" lon="9.4395228"><ele>265.3333333333333</ele><time>2026-04-09T14:46:11.54Z</time></trkpt><trkpt lat="45.6852379" lon="9.439626"><ele>265.16666666666663</ele><time>2026-04-09T14:46:12.541Z</time></trkpt><trkpt lat="45.6852271" lon="9.439719"><ele>265.0</ele><time>2026-04-09T14:46:13.541Z</time></trkpt><trkpt lat="45.685185" lon="9.4398692"><ele>265.4</ele><time>2026-04-09T14:46:15.541Z</time></trkpt><trkpt lat="45.6851518" lon="9.4399681"><ele>265.8</ele><time>2026-04-09T14:46:16.541Z</time></trkpt><trkpt lat="45.6851215" lon="9.4400478"><ele>266.2</ele><time>2026-04-09T14:46:17.54Z</time></trkpt><trkpt lat="45.6850558" lon="9.4401865"><ele>266.6</ele><time>2026-04-09T14:46:19.541Z</time></trkpt><trkpt lat="45.6849801" lon="9.4403339"><ele>267.0</ele><time>2026-04-09T14:46:21.54Z</time></trkpt><trkpt lat="45.6849322" lon="9.4404108"><ele>268.2</ele><time>2026-04-09T14:46:22.54Z</time></trkpt><trkpt lat="45.6848587" lon="9.440534"><ele>269.4</ele><time>2026-04-09T14:46:24.54Z</time></trkpt><trkpt lat="45.6848197" lon="9.44066"><ele>270.6</ele><time>2026-04-09T14:46:26.541Z</time></trkpt><trkpt lat="45.6847243" lon="9.4407735"><ele>271.8</ele><time>2026-04-09T14:46:28.541Z</time></trkpt><trkpt lat="45.6846611" lon="9.4408184"><ele>273.0</ele><time>2026-04-09T14:46:29.54Z</time></trkpt><trkpt lat="45.6846069" lon="9.4408791"><ele>273.0</ele><time>2026-04-09T14:46:30.54Z</time></trkpt><trkpt lat="45.6844982" lon="9.4409956"><ele>273.0</ele><time>2026-04-09T14:46:32.54Z</time></trkpt><trkpt lat="45.684458" lon="9.4410936"><ele>273.0</ele><time>2026-04-09T14:46:33.541Z</time></trkpt><trkpt lat="45.6844183" lon="9.4411654"><ele>273.0</ele><time>2026-04-09T14:46:34.541Z</time></trkpt><trkpt lat="45.6843767" lon="9.4412499"><ele>273.0</ele><time>2026-04-09T14:46:35.541Z</time></trkpt><trkpt lat="45.684318" lon="9.4414165"><ele>272.4</ele><time>2026-04-09T14:46:37.54Z</time></trkpt><trkpt lat="45.684255" lon="9.4415785"><ele>271.8</ele><time>2026-04-09T14:46:39.541Z</time></trkpt><trkpt lat="45.6842198" lon="9.4416652"><ele>271.2</ele><time>2026-04-09T14:46:40.541Z</time></trkpt><trkpt lat="45.6841509" lon="9.4418225"><ele>270.6</ele><time>2026-04-09T14:46:42.541Z</time></trkpt><trkpt lat="45.6840927" lon="9.4419545"><ele>270.0</ele><time>2026-04-09T14:46:44.541Z</time></trkpt><trkpt lat="45.6840333" lon="9.4420989"><ele>271.0</ele><time>2026-04-09T14:46:46.541Z</time></trkpt><trkpt lat="45.6840047" lon="9.4422584"><ele>272.0</ele><time>2026-04-09T14:46:48.541Z</time></trkpt><trkpt lat="45.6839314" lon="9.4424139"><ele>273.0</ele><time>2026-04-09T14:46:50.541Z</time></trkpt><trkpt lat="45.6838754" lon="9.4425297"><ele>274.0</ele><time>2026-04-09T14:46:52.541Z</time></trkpt><trkpt lat="45.6838273" lon="9.4426253"><ele>275.0</ele><time>2026-04-09T14:46:53.54Z</time></trkpt><trkpt lat="45.683772" lon="9.4427551"><ele>275.0</ele><time>2026-04-09T14:46:55.541Z</time></trkpt><trkpt lat="45.6837357" lon="9.4428311"><ele>275.0</ele><time>2026-04-09T14:46:56.541Z</time></trkpt><trkpt lat="45.6836827" lon="9.4429556"><ele>275.0</ele><time>2026-04-09T14:46:58.541Z</time></trkpt><trkpt lat="45.6836262" lon="9.4430831"><ele>275.0</ele><time>2026-04-09T14:47:00.54Z</time></trkpt><trkpt lat="45.6835708" lon="9.4432229"><ele>275.0</ele><time>2026-04-09T14:47:02.541Z</time></trkpt><trkpt lat="45.6835275" lon="9.4432967"><ele>274.83333333333337</ele><time>2026-04-09T14:47:03.54Z</time></trkpt><trkpt lat="45.6834928" lon="9.443381"><ele>274.6666666666667</ele><time>2026-04-09T14:47:04.541Z</time></trkpt><trkpt lat="45.6834098" lon="9.443517"><ele>274.5</ele><time>2026-04-09T14:47:06.541Z</time></trkpt><trkpt lat="45.6833862" lon="9.443624"><ele>274.3333333333333</ele><time>2026-04-09T14:47:07.541Z</time></trkpt><trkpt lat="45.6833466" lon="9.4436959"><ele>274.16666666666663</ele><time>2026-04-09T14:47:08.541Z</time></trkpt><trkpt lat="45.6833231" lon="9.4437814"><ele>274.0</ele><time>2026-04-09T14:47:09.54Z</time></trkpt><trkpt lat="45.6832788" lon="9.4438676"><ele>274.0</ele><time>2026-04-09T14:47:10.541Z</time></trkpt><trkpt lat="45.6832353" lon="9.443968"><ele>274.0</ele><time>2026-04-09T14:47:11.54Z</time></trkpt><trkpt lat="45.6832023" lon="9.4441045"><ele>274.0</ele><time>2026-04-09T14:47:13.541Z</time></trkpt><trkpt lat="45.6831821" lon="9.4441935"><ele>274.0</ele><time>2026-04-09T14:47:14.541Z</time></trkpt><trkpt lat="45.6831282" lon="9.4443075"><ele>274.0</ele><time>2026-04-09T14:47:16.541Z</time></trkpt><trkpt lat="45.6830795" lon="9.4444141"><ele>274.0</ele><time>2026-04-09T14:47:18.54Z</time></trkpt><trkpt lat="45.6830037" lon="9.4445104"><ele>274.0</ele><time>2026-04-09T14:47:21.541Z</time></trkpt><trkpt lat="45.682938" lon="9.4445258"><ele>274.0</ele><time>2026-04-09T14:47:24.54Z</time></trkpt><trkpt lat="45.6828674" lon="9.4445357"><ele>274.0</ele><time>2026-04-09T14:47:27.541Z</time></trkpt><trkpt lat="45.6828007" lon="9.4445416"><ele>274.0</ele><time>2026-04-09T14:47:30.541Z</time></trkpt><trkpt lat="45.6827149" lon="9.4445704"><ele>274.0</ele><time>2026-04-09T14:47:34.541Z</time></trkpt><trkpt lat="45.6826336" lon="9.4445855"><ele>274.0</ele><time>2026-04-09T14:47:37.541Z</time></trkpt><trkpt lat="45.6825525" lon="9.4446123"><ele>273.59999999999997</ele><time>2026-04-09T14:47:39.54Z</time></trkpt><trkpt lat="45.6824646" lon="9.4446426"><ele>273.2</ele><time>2026-04-09T14:47:41.541Z</time></trkpt><trkpt lat="45.6823757" lon="9.4446557"><ele>272.79999999999995</ele><time>2026-04-09T14:47:43.54Z</time></trkpt><trkpt lat="45.6822474" lon="9.4446485"><ele>272.4</ele><time>2026-04-09T14:47:45.541Z</time></trkpt><trkpt lat="45.6821814" lon="9.4446744"><ele>272.0</ele><time>2026-04-09T14:47:46.541Z</time></trkpt><trkpt lat="45.6820577" lon="9.4447202"><ele>272.0</ele><time>2026-04-09T14:47:47.541Z</time></trkpt><trkpt lat="45.6819475" lon="9.4447076"><ele>272.0</ele><time>2026-04-09T14:47:49.541Z</time></trkpt><trkpt lat="45.68185" lon="9.444748"><ele>272.0</ele><time>2026-04-09T14:47:51.54Z</time></trkpt><trkpt lat="45.6817876" lon="9.4447174"><ele>272.0</ele><time>2026-04-09T14:47:52.541Z</time></trkpt><trkpt lat="45.6817208" lon="9.4447086"><ele>272.0</ele><time>2026-04-09T14:47:54.541Z</time></trkpt><trkpt lat="45.6816291" lon="9.4446844"><ele>272.0</ele><time>2026-04-09T14:47:56.541Z</time></trkpt><trkpt lat="45.6815543" lon="9.4446744"><ele>272.0</ele><time>2026-04-09T14:48:00.541Z</time></trkpt><trkpt lat="45.6814864" lon="9.4446196"><ele>272.0</ele><time>2026-04-09T14:48:02.541Z</time></trkpt><trkpt lat="45.6813868" lon="9.4447145"><ele>272.0</ele><time>2026-04-09T14:48:05.541Z</time></trkpt><trkpt lat="45.6812634" lon="9.4446987"><ele>272.0</ele><time>2026-04-09T14:48:07.54Z</time></trkpt><trkpt lat="45.6811646" lon="9.4446499"><ele>272.0</ele><time>2026-04-09T14:48:08.541Z</time></trkpt><trkpt lat="45.6810749" lon="9.4445977"><ele>272.1666666666667</ele><time>2026-04-09T14:48:10.541Z</time></trkpt><trkpt lat="45.6809714" lon="9.4445667"><ele>272.33333333333337</ele><time>2026-04-09T14:48:12.54Z</time></trkpt><trkpt lat="45.6809148" lon="9.4444868"><ele>272.5</ele><time>2026-04-09T14:48:13.541Z</time></trkpt><trkpt lat="45.6808485" lon="9.4444742"><ele>272.6666666666667</ele><time>2026-04-09T14:48:14.54Z</time></trkpt><trkpt lat="45.6807659" lon="9.4444602"><ele>272.8333333333333</ele><time>2026-04-09T14:48:15.54Z</time></trkpt><trkpt lat="45.680699" lon="9.4444333"><ele>273.0</ele><time>2026-04-09T14:48:16.541Z</time></trkpt><trkpt lat="45.6805717" lon="9.444428"><ele>273.0</ele><time>2026-04-09T14:48:18.54Z</time></trkpt><trkpt lat="45.6804162" lon="9.4444239"><ele>273.0</ele><time>2026-04-09T14:48:20.54Z</time></trkpt><trkpt lat="45.6803464" lon="9.4444873"><ele>273.0</ele><time>2026-04-09T14:48:21.541Z</time></trkpt><trkpt lat="45.6802191" lon="9.444508"><ele>273.0</ele><time>2026-04-09T14:48:23.541Z</time></trkpt><trkpt lat="45.6801487" lon="9.4444686"><ele>273.0</ele><time>2026-04-09T14:48:25.54Z</time></trkpt><trkpt lat="45.6799109" lon="9.4443775"><ele>272.25</ele><time>2026-04-09T14:48:35.541Z</time></trkpt><trkpt lat="45.6797952" lon="9.4443373"><ele>271.5</ele><time>2026-04-09T14:48:37.54Z</time></trkpt><trkpt lat="45.6796996" lon="9.4443191"><ele>270.75</ele><time>2026-04-09T14:48:39.54Z</time></trkpt><trkpt lat="45.6795749" lon="9.4442793"><ele>270.0</ele><time>2026-04-09T14:48:41.541Z</time></trkpt><trkpt lat="45.6794438" lon="9.4442434"><ele>269.5</ele><time>2026-04-09T14:48:43.541Z</time></trkpt><trkpt lat="45.6793168" lon="9.4442055"><ele>269.0</ele><time>2026-04-09T14:48:45.541Z</time></trkpt><trkpt lat="45.6792417" lon="9.4441868"><ele>268.5</ele><time>2026-04-09T14:48:46.541Z</time></trkpt><trkpt lat="45.6791653" lon="9.4441937"><ele>268.0</ele><time>2026-04-09T14:48:47.541Z</time></trkpt><trkpt lat="45.6790868" lon="9.4441829"><ele>267.5</ele><time>2026-04-09T14:48:48.54Z</time></trkpt><trkpt lat="45.6790125" lon="9.4441813"><ele>267.0</ele><time>2026-04-09T14:48:49.54Z</time></trkpt><trkpt lat="45.6789368" lon="9.4441635"><ele>267.0</ele><time>2026-04-09T14:48:50.541Z</time></trkpt><trkpt lat="45.6788709" lon="9.4441777"><ele>267.0</ele><time>2026-04-09T14:48:51.54Z</time></trkpt><trkpt lat="45.6787543" lon="9.4441682"><ele>267.0</ele><time>2026-04-09T14:48:53.541Z</time></trkpt><trkpt lat="45.6786796" lon="9.4441311"><ele>267.0</ele><time>2026-04-09T14:48:54.541Z</time></trkpt><trkpt lat="45.6786068" lon="9.4441078"><ele>267.0</ele><time>2026-04-09T14:48:55.54Z</time></trkpt><trkpt lat="45.6785301" lon="9.4440761"><ele>267.0</ele><time>2026-04-09T14:48:56.541Z</time></trkpt><trkpt lat="45.6784439" lon="9.4440779"><ele>267.0</ele><time>2026-04-09T14:48:57.541Z</time></trkpt><trkpt lat="45.6783656" lon="9.4440688"><ele>267.0</ele><time>2026-04-09T14:48:58.541Z</time></trkpt><trkpt lat="45.678293" lon="9.4440611"><ele>267.0</ele><time>2026-04-09T14:48:59.541Z</time></trkpt><trkpt lat="45.6782098" lon="9.4440378"><ele>267.0</ele><time>2026-04-09T14:49:00.541Z</time></trkpt><trkpt lat="45.6781388" lon="9.4440432"><ele>267.0</ele><time>2026-04-09T14:49:01.541Z</time></trkpt><trkpt lat="45.67807" lon="9.444012"><ele>267.0</ele><time>2026-04-09T14:49:02.541Z</time></trkpt><trkpt lat="45.6779861" lon="9.4439778"><ele>267.0</ele><time>2026-04-09T14:49:03.541Z</time></trkpt><trkpt lat="45.6779219" lon="9.4439571"><ele>267.0</ele><time>2026-04-09T14:49:04.541Z</time></trkpt><trkpt lat="45.6778495" lon="9.4439438"><ele>267.0</ele><time>2026-04-09T14:49:05.541Z</time></trkpt><trkpt lat="45.6777345" lon="9.4439146"><ele>267.0</ele><time>2026-04-09T14:49:07.541Z</time></trkpt><trkpt lat="45.677652" lon="9.4439295"><ele>267.0</ele><time>2026-04-09T14:49:08.54Z</time></trkpt><trkpt lat="45.6775162" lon="9.4438797"><ele>266.8333333333333</ele><time>2026-04-09T14:49:10.541Z</time></trkpt><trkpt lat="45.6774441" lon="9.4438689"><ele>266.6666666666667</ele><time>2026-04-09T14:49:11.541Z</time></trkpt><trkpt lat="45.6773205" lon="9.4438331"><ele>266.5</ele><time>2026-04-09T14:49:13.541Z</time></trkpt><trkpt lat="45.6772637" lon="9.4437888"><ele>266.33333333333337</ele><time>2026-04-09T14:49:14.541Z</time></trkpt><trkpt lat="45.6771741" lon="9.4437935"><ele>266.1666666666667</ele><time>2026-04-09T14:49:15.54Z</time></trkpt><trkpt lat="45.6770883" lon="9.4437848"><ele>266.0</ele><time>2026-04-09T14:49:16.541Z</time></trkpt><trkpt lat="45.6770114" lon="9.4437823"><ele>266.0</ele><time>2026-04-09T14:49:17.54Z</time></trkpt><trkpt lat="45.6769473" lon="9.4437472"><ele>266.0</ele><time>2026-04-09T14:49:18.541Z</time></trkpt><trkpt lat="45.6768798" lon="9.4437214"><ele>266.0</ele><time>2026-04-09T14:49:19.541Z</time></trkpt><trkpt lat="45.6767465" lon="9.4436867"><ele>266.0</ele><time>2026-04-09T14:49:21.54Z</time></trkpt><trkpt lat="45.6766788" lon="9.4436273"><ele>266.0</ele><time>2026-04-09T14:49:22.541Z</time></trkpt><trkpt lat="45.6766071" lon="9.4435986"><ele>266.0</ele><time>2026-04-09T14:49:23.541Z</time></trkpt><trkpt lat="45.6765439" lon="9.4435565"><ele>265.85714285714283</ele><time>2026-04-09T14:49:24.541Z</time></trkpt><trkpt lat="45.6764709" lon="9.4435564"><ele>265.7142857142857</ele><time>2026-04-09T14:49:25.541Z</time></trkpt><trkpt lat="45.6764078" lon="9.4435286"><ele>265.57142857142856</ele><time>2026-04-09T14:49:26.541Z</time></trkpt><trkpt lat="45.6763357" lon="9.4434921"><ele>265.42857142857144</ele><time>2026-04-09T14:49:27.541Z</time></trkpt><trkpt lat="45.6762581" lon="9.4435114"><ele>265.2857142857143</ele><time>2026-04-09T14:49:28.541Z</time></trkpt><trkpt lat="45.6761848" lon="9.4434549"><ele>265.1428571428571</ele><time>2026-04-09T14:49:29.54Z</time></trkpt><trkpt lat="45.6761193" lon="9.4434292"><ele>265.0</ele><time>2026-04-09T14:49:30.54Z</time></trkpt><trkpt lat="45.6760506" lon="9.443414"><ele>264.8333333333333</ele><time>2026-04-09T14:49:31.54Z</time></trkpt><trkpt lat="45.6759772" lon="9.4433847"><ele>264.66666666666663</ele><time>2026-04-09T14:49:32.541Z</time></trkpt><trkpt lat="45.6759083" lon="9.4433753"><ele>264.5</ele><time>2026-04-09T14:49:33.541Z</time></trkpt><trkpt lat="45.6758358" lon="9.4433198"><ele>264.3333333333333</ele><time>2026-04-09T14:49:34.541Z</time></trkpt><trkpt lat="45.6757596" lon="9.4432904"><ele>264.1666666666667</ele><time>2026-04-09T14:49:35.541Z</time></trkpt><trkpt lat="45.6756817" lon="9.4432719"><ele>264.0</ele><time>2026-04-09T14:49:36.541Z</time></trkpt><trkpt lat="45.6756109" lon="9.4432423"><ele>264.0</ele><time>2026-04-09T14:49:37.54Z</time></trkpt><trkpt lat="45.6755398" lon="9.4432233"><ele>264.0</ele><time>2026-04-09T14:49:38.541Z</time></trkpt><trkpt lat="45.675464" lon="9.4432125"><ele>264.0</ele><time>2026-04-09T14:49:39.54Z</time></trkpt><trkpt lat="45.6753893" lon="9.4431994"><ele>264.0</ele><time>2026-04-09T14:49:40.541Z</time></trkpt><trkpt lat="45.6753167" lon="9.4431903"><ele>264.0</ele><time>2026-04-09T14:49:41.54Z</time></trkpt><trkpt lat="45.6752466" lon="9.4431631"><ele>264.0</ele><time>2026-04-09T14:49:42.541Z</time></trkpt><trkpt lat="45.6751735" lon="9.4431237"><ele>264.0</ele><time>2026-04-09T14:49:43.541Z</time></trkpt><trkpt lat="45.6750983" lon="9.4430957"><ele>263.6666666666667</ele><time>2026-04-09T14:49:44.541Z</time></trkpt><trkpt lat="45.6750283" lon="9.4430744"><ele>263.3333333333333</ele><time>2026-04-09T14:49:45.541Z</time></trkpt><trkpt lat="45.6749519" lon="9.4430486"><ele>263.0</ele><time>2026-04-09T14:49:46.54Z</time></trkpt><trkpt lat="45.6748719" lon="9.4430267"><ele>262.66666666666663</ele><time>2026-04-09T14:49:47.54Z</time></trkpt><trkpt lat="45.6747982" lon="9.4430101"><ele>262.3333333333333</ele><time>2026-04-09T14:49:48.54Z</time></trkpt><trkpt lat="45.6747249" lon="9.4429883"><ele>262.0</ele><time>2026-04-09T14:49:49.54Z</time></trkpt><trkpt lat="45.6746555" lon="9.4429616"><ele>261.8571428571429</ele><time>2026-04-09T14:49:50.541Z</time></trkpt><trkpt lat="45.674571" lon="9.4429135"><ele>261.7142857142857</ele><time>2026-04-09T14:49:51.54Z</time></trkpt><trkpt lat="45.6744979" lon="9.4428881"><ele>261.57142857142856</ele><time>2026-04-09T14:49:52.541Z</time></trkpt><trkpt lat="45.6744261" lon="9.442866"><ele>261.42857142857144</ele><time>2026-04-09T14:49:53.54Z</time></trkpt><trkpt lat="45.6743608" lon="9.4428419"><ele>261.2857142857143</ele><time>2026-04-09T14:49:54.54Z</time></trkpt><trkpt lat="45.6742908" lon="9.4427976"><ele>261.14285714285717</ele><time>2026-04-09T14:49:55.54Z</time></trkpt><trkpt lat="45.6742256" lon="9.4427932"><ele>261.0</ele><time>2026-04-09T14:49:56.54Z</time></trkpt><trkpt lat="45.6741615" lon="9.4427784"><ele>261.0</ele><time>2026-04-09T14:49:57.54Z</time></trkpt><trkpt lat="45.6740791" lon="9.4428009"><ele>261.0</ele><time>2026-04-09T14:49:59.54Z</time></trkpt><trkpt lat="45.6739972" lon="9.4428455"><ele>261.0</ele><time>2026-04-09T14:50:02.541Z</time></trkpt><trkpt lat="45.6739432" lon="9.4427925"><ele>261.0</ele><time>2026-04-09T14:50:04.541Z</time></trkpt><trkpt lat="45.6738677" lon="9.4426919"><ele>261.0</ele><time>2026-04-09T14:50:06.54Z</time></trkpt><trkpt lat="45.6737726" lon="9.4425718"><ele>261.0</ele><time>2026-04-09T14:50:08.54Z</time></trkpt><trkpt lat="45.6736749" lon="9.4424569"><ele>261.0</ele><time>2026-04-09T14:50:10.541Z</time></trkpt><trkpt lat="45.6735898" lon="9.4423246"><ele>261.0</ele><time>2026-04-09T14:50:12.54Z</time></trkpt><trkpt lat="45.673536" lon="9.4422535"><ele>261.0</ele><time>2026-04-09T14:50:13.541Z</time></trkpt><trkpt lat="45.6734947" lon="9.442171"><ele>261.0</ele><time>2026-04-09T14:50:14.54Z</time></trkpt><trkpt lat="45.6734363" lon="9.4421227"><ele>260.8333333333333</ele><time>2026-04-09T14:50:15.541Z</time></trkpt><trkpt lat="45.673376" lon="9.4420313"><ele>260.6666666666667</ele><time>2026-04-09T14:50:16.54Z</time></trkpt><trkpt lat="45.6733207" lon="9.4419677"><ele>260.5</ele><time>2026-04-09T14:50:17.54Z</time></trkpt><trkpt lat="45.6732513" lon="9.4418795"><ele>260.33333333333337</ele><time>2026-04-09T14:50:18.54Z</time></trkpt><trkpt lat="45.6731933" lon="9.4418202"><ele>260.1666666666667</ele><time>2026-04-09T14:50:19.54Z</time></trkpt><trkpt lat="45.673134" lon="9.4417152"><ele>260.0</ele><time>2026-04-09T14:50:20.541Z</time></trkpt><trkpt lat="45.673092" lon="9.4416253"><ele>260.0</ele><time>2026-04-09T14:50:21.541Z</time></trkpt><trkpt lat="45.6730449" lon="9.4415365"><ele>260.0</ele><time>2026-04-09T14:50:22.54Z</time></trkpt><trkpt lat="45.6729808" lon="9.4414481"><ele>260.0</ele><time>2026-04-09T14:50:23.541Z</time></trkpt><trkpt lat="45.6729239" lon="9.4413508"><ele>260.0</ele><time>2026-04-09T14:50:24.54Z</time></trkpt><trkpt lat="45.6728837" lon="9.4412769"><ele>260.0</ele><time>2026-04-09T14:50:25.541Z</time></trkpt><trkpt lat="45.6728516" lon="9.4411978"><ele>260.0</ele><time>2026-04-09T14:50:26.54Z</time></trkpt><trkpt lat="45.6728132" lon="9.4410669"><ele>259.5</ele><time>2026-04-09T14:50:28.541Z</time></trkpt><trkpt lat="45.6727424" lon="9.441022"><ele>259.0</ele><time>2026-04-09T14:50:29.541Z</time></trkpt><trkpt lat="45.6726222" lon="9.4409604"><ele>258.5</ele><time>2026-04-09T14:50:31.541Z</time></trkpt><trkpt lat="45.6725683" lon="9.4409087"><ele>258.0</ele><time>2026-04-09T14:50:32.541Z</time></trkpt><trkpt lat="45.672504" lon="9.4408855"><ele>257.5</ele><time>2026-04-09T14:50:33.541Z</time></trkpt><trkpt lat="45.6724265" lon="9.4408196"><ele>257.0</ele><time>2026-04-09T14:50:34.541Z</time></trkpt><trkpt lat="45.6723511" lon="9.4407345"><ele>257.0</ele><time>2026-04-09T14:50:35.54Z</time></trkpt><trkpt lat="45.6722948" lon="9.4406378"><ele>257.0</ele><time>2026-04-09T14:50:36.54Z</time></trkpt><trkpt lat="45.67223" lon="9.440594"><ele>257.0</ele><time>2026-04-09T14:50:37.541Z</time></trkpt><trkpt lat="45.6721708" lon="9.4405489"><ele>257.0</ele><time>2026-04-09T14:50:38.541Z</time></trkpt><trkpt lat="45.6721047" lon="9.44048"><ele>257.0</ele><time>2026-04-09T14:50:39.541Z</time></trkpt><trkpt lat="45.672034" lon="9.4403962"><ele>257.0</ele><time>2026-04-09T14:50:40.541Z</time></trkpt><trkpt lat="45.6719728" lon="9.4403365"><ele>256.6666666666667</ele><time>2026-04-09T14:50:41.541Z</time></trkpt><trkpt lat="45.6719166" lon="9.4402607"><ele>256.33333333333337</ele><time>2026-04-09T14:50:42.54Z</time></trkpt><trkpt lat="45.6718488" lon="9.4402059"><ele>256.0</ele><time>2026-04-09T14:50:43.54Z</time></trkpt><trkpt lat="45.6717799" lon="9.4401738"><ele>255.66666666666669</ele><time>2026-04-09T14:50:44.541Z</time></trkpt><trkpt lat="45.6717132" lon="9.4400935"><ele>255.33333333333334</ele><time>2026-04-09T14:50:45.541Z</time></trkpt><trkpt lat="45.6716429" lon="9.4400208"><ele>255.0</ele><time>2026-04-09T14:50:46.541Z</time></trkpt><trkpt lat="45.6715803" lon="9.4399708"><ele>255.0</ele><time>2026-04-09T14:50:47.541Z</time></trkpt><trkpt lat="45.6715152" lon="9.4399068"><ele>255.0</ele><time>2026-04-09T14:50:48.541Z</time></trkpt><trkpt lat="45.671446" lon="9.4398377"><ele>255.0</ele><time>2026-04-09T14:50:49.54Z</time></trkpt><trkpt lat="45.6713738" lon="9.439758"><ele>255.0</ele><time>2026-04-09T14:50:50.541Z</time></trkpt><trkpt lat="45.6712672" lon="9.439626"><ele>255.0</ele><time>2026-04-09T14:50:52.54Z</time></trkpt><trkpt lat="45.6712092" lon="9.4395781"><ele>254.66666666666666</ele><time>2026-04-09T14:50:53.541Z</time></trkpt><trkpt lat="45.6711524" lon="9.4395177"><ele>254.33333333333331</ele><time>2026-04-09T14:50:54.541Z</time></trkpt><trkpt lat="45.6710732" lon="9.439446"><ele>254.0</ele><time>2026-04-09T14:50:55.541Z</time></trkpt><trkpt lat="45.6709977" lon="9.4394126"><ele>253.66666666666666</ele><time>2026-04-09T14:50:56.54Z</time></trkpt><trkpt lat="45.6709356" lon="9.4393833"><ele>253.33333333333331</ele><time>2026-04-09T14:50:57.54Z</time></trkpt><trkpt lat="45.6708834" lon="9.4392979"><ele>253.0</ele><time>2026-04-09T14:50:58.541Z</time></trkpt><trkpt lat="45.6708188" lon="9.4392114"><ele>253.0</ele><time>2026-04-09T14:50:59.54Z</time></trkpt><trkpt lat="45.6707223" lon="9.4391077"><ele>253.0</ele><time>2026-04-09T14:51:01.541Z</time></trkpt><trkpt lat="45.6706614" lon="9.439065"><ele>253.0</ele><time>2026-04-09T14:51:02.541Z</time></trkpt><trkpt lat="45.6705977" lon="9.4389748"><ele>253.0</ele><time>2026-04-09T14:51:03.541Z</time></trkpt><trkpt lat="45.6705115" lon="9.4389232"><ele>253.0</ele><time>2026-04-09T14:51:04.54Z</time></trkpt><trkpt lat="45.6704532" lon="9.438843"><ele>252.5714285714286</ele><time>2026-04-09T14:51:05.54Z</time></trkpt><trkpt lat="45.670395" lon="9.4387907"><ele>252.14285714285717</ele><time>2026-04-09T14:51:06.541Z</time></trkpt><trkpt lat="45.6703325" lon="9.4387342"><ele>251.71428571428572</ele><time>2026-04-09T14:51:07.54Z</time></trkpt><trkpt lat="45.6702599" lon="9.4386737"><ele>251.2857142857143</ele><time>2026-04-09T14:51:08.54Z</time></trkpt><trkpt lat="45.6701926" lon="9.4386102"><ele>250.8571428571429</ele><time>2026-04-09T14:51:09.541Z</time></trkpt><trkpt lat="45.6701363" lon="9.4385483"><ele>250.42857142857142</ele><time>2026-04-09T14:51:10.54Z</time></trkpt><trkpt lat="45.6700858" lon="9.438485"><ele>250.0</ele><time>2026-04-09T14:51:11.54Z</time></trkpt><trkpt lat="45.6700077" lon="9.4384201"><ele>250.0</ele><time>2026-04-09T14:51:12.541Z</time></trkpt><trkpt lat="45.6698949" lon="9.438315"><ele>250.0</ele><time>2026-04-09T14:51:14.541Z</time></trkpt><trkpt lat="45.6698458" lon="9.4382471"><ele>250.0</ele><time>2026-04-09T14:51:15.541Z</time></trkpt><trkpt lat="45.6697685" lon="9.4380801"><ele>250.0</ele><time>2026-04-09T14:51:17.541Z</time></trkpt><trkpt lat="45.6697282" lon="9.4379302"><ele>249.8</ele><time>2026-04-09T14:51:19.54Z</time></trkpt><trkpt lat="45.6697017" lon="9.4377776"><ele>249.6</ele><time>2026-04-09T14:51:21.541Z</time></trkpt><trkpt lat="45.6696023" lon="9.4378216"><ele>249.39999999999998</ele><time>2026-04-09T14:51:23.541Z</time></trkpt><trkpt lat="45.6695207" lon="9.4379104"><ele>249.2</ele><time>2026-04-09T14:51:25.541Z</time></trkpt><trkpt lat="45.6694043" lon="9.4378582"><ele>249.0</ele><time>2026-04-09T14:51:27.541Z</time></trkpt><trkpt lat="45.6693078" lon="9.437762"><ele>249.0</ele><time>2026-04-09T14:51:29.541Z</time></trkpt><trkpt lat="45.6692442" lon="9.4377156"><ele>248.99999999999997</ele><time>2026-04-09T14:51:30.54Z</time></trkpt><trkpt lat="45.6691406" lon="9.4376166"><ele>248.99999999999997</ele><time>2026-04-09T14:51:32.54Z</time></trkpt><trkpt lat="45.6690835" lon="9.437571"><ele>249.0</ele><time>2026-04-09T14:51:33.541Z</time></trkpt><trkpt lat="45.6689733" lon="9.4374495"><ele>249.0</ele><time>2026-04-09T14:51:35.54Z</time></trkpt><trkpt lat="45.6689111" lon="9.4373957"><ele>249.0</ele><time>2026-04-09T14:51:36.54Z</time></trkpt><trkpt lat="45.6688461" lon="9.4373321"><ele>249.0</ele><time>2026-04-09T14:51:37.54Z</time></trkpt><trkpt lat="45.6687696" lon="9.4372748"><ele>249.0</ele><time>2026-04-09T14:51:38.541Z</time></trkpt><trkpt lat="45.6687042" lon="9.4372264"><ele>249.0</ele><time>2026-04-09T14:51:39.541Z</time></trkpt><trkpt lat="45.6686438" lon="9.4371831"><ele>249.0</ele><time>2026-04-09T14:51:40.54Z</time></trkpt><trkpt lat="45.6685701" lon="9.4371445"><ele>249.0</ele><time>2026-04-09T14:51:41.54Z</time></trkpt><trkpt lat="45.6684961" lon="9.4371026"><ele>249.16666666666666</ele><time>2026-04-09T14:51:42.541Z</time></trkpt><trkpt lat="45.6684238" lon="9.4370767"><ele>249.33333333333331</ele><time>2026-04-09T14:51:43.54Z</time></trkpt><trkpt lat="45.6683559" lon="9.4370521"><ele>249.5</ele><time>2026-04-09T14:51:44.541Z</time></trkpt><trkpt lat="45.6682917" lon="9.4370278"><ele>249.66666666666666</ele><time>2026-04-09T14:51:45.54Z</time></trkpt><trkpt lat="45.6682226" lon="9.4369686"><ele>249.83333333333331</ele><time>2026-04-09T14:51:46.541Z</time></trkpt><trkpt lat="45.6681194" lon="9.4368423"><ele>250.0</ele><time>2026-04-09T14:51:48.541Z</time></trkpt><trkpt lat="45.6680695" lon="9.4367807"><ele>250.0</ele><time>2026-04-09T14:51:49.54Z</time></trkpt><trkpt lat="45.6679999" lon="9.4367161"><ele>250.0</ele><time>2026-04-09T14:51:50.54Z</time></trkpt><trkpt lat="45.6679402" lon="9.4366523"><ele>250.0</ele><time>2026-04-09T14:51:51.54Z</time></trkpt><trkpt lat="45.66788" lon="9.4365902"><ele>250.0</ele><time>2026-04-09T14:51:52.54Z</time></trkpt><trkpt lat="45.667826" lon="9.4365391"><ele>250.0</ele><time>2026-04-09T14:51:53.54Z</time></trkpt><trkpt lat="45.6677716" lon="9.436487"><ele>250.0</ele><time>2026-04-09T14:51:54.541Z</time></trkpt><trkpt lat="45.6677167" lon="9.4364353"><ele>250.0</ele><time>2026-04-09T14:51:55.54Z</time></trkpt><trkpt lat="45.6676534" lon="9.4363641"><ele>249.49999999999997</ele><time>2026-04-09T14:51:56.541Z</time></trkpt><trkpt lat="45.6675885" lon="9.4363142"><ele>249.0</ele><time>2026-04-09T14:51:57.541Z</time></trkpt><trkpt lat="45.6675251" lon="9.4362686"><ele>248.5</ele><time>2026-04-09T14:51:58.54Z</time></trkpt><trkpt lat="45.6674675" lon="9.4362293"><ele>248.0</ele><time>2026-04-09T14:51:59.54Z</time></trkpt><trkpt lat="45.6674098" lon="9.4361698"><ele>247.49999999999997</ele><time>2026-04-09T14:52:00.54Z</time></trkpt><trkpt lat="45.6673071" lon="9.4360688"><ele>247.0</ele><time>2026-04-09T14:52:02.54Z</time></trkpt><trkpt lat="45.6672493" lon="9.4360066"><ele>246.85714285714286</ele><time>2026-04-09T14:52:03.54Z</time></trkpt><trkpt lat="45.6671926" lon="9.4359252"><ele>246.71428571428572</ele><time>2026-04-09T14:52:04.541Z</time></trkpt><trkpt lat="45.667138" lon="9.4358706"><ele>246.57142857142858</ele><time>2026-04-09T14:52:05.541Z</time></trkpt><trkpt lat="45.6670874" lon="9.4358152"><ele>246.42857142857144</ele><time>2026-04-09T14:52:06.54Z</time></trkpt><trkpt lat="45.6670198" lon="9.4357586"><ele>246.28571428571428</ele><time>2026-04-09T14:52:07.54Z</time></trkpt><trkpt lat="45.6669759" lon="9.435683"><ele>246.14285714285717</ele><time>2026-04-09T14:52:08.541Z</time></trkpt><trkpt lat="45.6669275" lon="9.4356068"><ele>246.00000000000003</ele><time>2026-04-09T14:52:09.541Z</time></trkpt><trkpt lat="45.6668776" lon="9.4355279"><ele>245.60000000000002</ele><time>2026-04-09T14:52:10.54Z</time></trkpt><trkpt lat="45.6668002" lon="9.4354255"><ele>245.20000000000002</ele><time>2026-04-09T14:52:12.541Z</time></trkpt><trkpt lat="45.6667168" lon="9.4353245"><ele>244.79999999999998</ele><time>2026-04-09T14:52:14.541Z</time></trkpt><trkpt lat="45.666641" lon="9.4352193"><ele>244.39999999999998</ele><time>2026-04-09T14:52:16.541Z</time></trkpt><trkpt lat="45.6665435" lon="9.4351272"><ele>244.0</ele><time>2026-04-09T14:52:18.541Z</time></trkpt><trkpt lat="45.6664395" lon="9.4350262"><ele>244.0</ele><time>2026-04-09T14:52:20.541Z</time></trkpt><trkpt lat="45.6663458" lon="9.4348966"><ele>243.99999999999997</ele><time>2026-04-09T14:52:22.54Z</time></trkpt><trkpt lat="45.6662468" lon="9.4348018"><ele>243.99999999999997</ele><time>2026-04-09T14:52:24.541Z</time></trkpt><trkpt lat="45.666219" lon="9.4346812"><ele>244.0</ele><time>2026-04-09T14:52:26.541Z</time></trkpt><trkpt lat="45.6662368" lon="9.4345469"><ele>244.0</ele><time>2026-04-09T14:52:28.54Z</time></trkpt><trkpt lat="45.6662886" lon="9.4344027"><ele>243.66666666666666</ele><time>2026-04-09T14:52:30.54Z</time></trkpt><trkpt lat="45.6663156" lon="9.4343124"><ele>243.33333333333331</ele><time>2026-04-09T14:52:31.541Z</time></trkpt><trkpt lat="45.6663477" lon="9.4342276"><ele>243.0</ele><time>2026-04-09T14:52:32.54Z</time></trkpt><trkpt lat="45.6663784" lon="9.4340784"><ele>242.66666666666669</ele><time>2026-04-09T14:52:34.54Z</time></trkpt><trkpt lat="45.6664277" lon="9.4339915"><ele>242.33333333333334</ele><time>2026-04-09T14:52:35.541Z</time></trkpt><trkpt lat="45.6664566" lon="9.433903"><ele>242.0</ele><time>2026-04-09T14:52:36.54Z</time></trkpt><trkpt lat="45.6664932" lon="9.4338187"><ele>242.00000000000003</ele><time>2026-04-09T14:52:37.54Z</time></trkpt><trkpt lat="45.6665236" lon="9.4337383"><ele>242.0</ele><time>2026-04-09T14:52:38.541Z</time></trkpt><trkpt lat="45.6665601" lon="9.4336374"><ele>242.0</ele><time>2026-04-09T14:52:39.541Z</time></trkpt><trkpt lat="45.6665923" lon="9.4335452"><ele>242.0</ele><time>2026-04-09T14:52:40.541Z</time></trkpt><trkpt lat="45.6666207" lon="9.433455"><ele>242.00000000000003</ele><time>2026-04-09T14:52:41.541Z</time></trkpt><trkpt lat="45.666653" lon="9.4333667"><ele>242.0</ele><time>2026-04-09T14:52:42.541Z</time></trkpt><trkpt lat="45.6667256" lon="9.4332211"><ele>242.0</ele><time>2026-04-09T14:52:44.54Z</time></trkpt><trkpt lat="45.666789" lon="9.4331232"><ele>242.0</ele><time>2026-04-09T14:52:45.541Z</time></trkpt><trkpt lat="45.6668052" lon="9.4330215"><ele>242.0</ele><time>2026-04-09T14:52:46.54Z</time></trkpt><trkpt lat="45.6668624" lon="9.4328415"><ele>242.0</ele><time>2026-04-09T14:52:48.54Z</time></trkpt><trkpt lat="45.6668851" lon="9.4327558"><ele>242.0</ele><time>2026-04-09T14:52:49.541Z</time></trkpt><trkpt lat="45.6669123" lon="9.4326054"><ele>242.2</ele><time>2026-04-09T14:52:51.54Z</time></trkpt><trkpt lat="45.6669203" lon="9.4324451"><ele>242.39999999999998</ele><time>2026-04-09T14:52:53.541Z</time></trkpt><trkpt lat="45.6668789" lon="9.4322968"><ele>242.60000000000002</ele><time>2026-04-09T14:52:55.54Z</time></trkpt><trkpt lat="45.6668224" lon="9.4322005"><ele>242.8</ele><time>2026-04-09T14:52:57.541Z</time></trkpt><trkpt lat="45.666733" lon="9.4321196"><ele>243.0</ele><time>2026-04-09T14:52:59.541Z</time></trkpt><trkpt lat="45.6666361" lon="9.4320193"><ele>242.66666666666666</ele><time>2026-04-09T14:53:01.54Z</time></trkpt><trkpt lat="45.6665524" lon="9.4319196"><ele>242.33333333333331</ele><time>2026-04-09T14:53:03.54Z</time></trkpt><trkpt lat="45.6664923" lon="9.4318415"><ele>242.0</ele><time>2026-04-09T14:53:05.54Z</time></trkpt><trkpt lat="45.6664368" lon="9.4317506"><ele>241.66666666666666</ele><time>2026-04-09T14:53:07.54Z</time></trkpt><trkpt lat="45.6663874" lon="9.4316444"><ele>241.33333333333331</ele><time>2026-04-09T14:53:09.541Z</time></trkpt><trkpt lat="45.6663203" lon="9.4315928"><ele>241.0</ele><time>2026-04-09T14:53:10.54Z</time></trkpt><trkpt lat="45.666274" lon="9.4315289"><ele>241.0</ele><time>2026-04-09T14:53:11.541Z</time></trkpt><trkpt lat="45.6661965" lon="9.4313881"><ele>241.00000000000003</ele><time>2026-04-09T14:53:13.541Z</time></trkpt><trkpt lat="45.6661343" lon="9.4312949"><ele>241.00000000000003</ele><time>2026-04-09T14:53:15.541Z</time></trkpt><trkpt lat="45.6660517" lon="9.4312917"><ele>241.0</ele><time>2026-04-09T14:53:16.54Z</time></trkpt><trkpt lat="45.6659352" lon="9.4312479"><ele>241.0</ele><time>2026-04-09T14:53:18.541Z</time></trkpt><trkpt lat="45.6658758" lon="9.4311834"><ele>241.16666666666666</ele><time>2026-04-09T14:53:19.541Z</time></trkpt><trkpt lat="45.6658117" lon="9.4311364"><ele>241.33333333333331</ele><time>2026-04-09T14:53:20.541Z</time></trkpt><trkpt lat="45.6657534" lon="9.4310749"><ele>241.5</ele><time>2026-04-09T14:53:21.541Z</time></trkpt><trkpt lat="45.665697" lon="9.4310215"><ele>241.66666666666669</ele><time>2026-04-09T14:53:22.541Z</time></trkpt><trkpt lat="45.6656419" lon="9.430977"><ele>241.83333333333334</ele><time>2026-04-09T14:53:23.54Z</time></trkpt><trkpt lat="45.665584" lon="9.4308995"><ele>242.0</ele><time>2026-04-09T14:53:24.54Z</time></trkpt><trkpt lat="45.6654758" lon="9.4307952"><ele>242.0</ele><time>2026-04-09T14:53:26.541Z</time></trkpt><trkpt lat="45.6654142" lon="9.4307346"><ele>241.99999999999997</ele><time>2026-04-09T14:53:27.541Z</time></trkpt><trkpt lat="45.6653538" lon="9.4306877"><ele>242.0</ele><time>2026-04-09T14:53:28.541Z</time></trkpt><trkpt lat="45.6652932" lon="9.4306137"><ele>242.0</ele><time>2026-04-09T14:53:29.54Z</time></trkpt><trkpt lat="45.6652366" lon="9.430565"><ele>241.99999999999997</ele><time>2026-04-09T14:53:30.54Z</time></trkpt><trkpt lat="45.6651755" lon="9.4305081"><ele>242.0</ele><time>2026-04-09T14:53:31.541Z</time></trkpt><trkpt lat="45.6651194" lon="9.4304616"><ele>242.0</ele><time>2026-04-09T14:53:32.541Z</time></trkpt><trkpt lat="45.6650576" lon="9.4304002"><ele>241.85714285714283</ele><time>2026-04-09T14:53:33.54Z</time></trkpt><trkpt lat="45.6650103" lon="9.4303313"><ele>241.7142857142857</ele><time>2026-04-09T14:53:34.541Z</time></trkpt><trkpt lat="45.6649541" lon="9.4302673"><ele>241.57142857142856</ele><time>2026-04-09T14:53:35.541Z</time></trkpt><trkpt lat="45.6648943" lon="9.4301961"><ele>241.42857142857144</ele><time>2026-04-09T14:53:36.54Z</time></trkpt><trkpt lat="45.6648428" lon="9.4301298"><ele>241.2857142857143</ele><time>2026-04-09T14:53:37.54Z</time></trkpt><trkpt lat="45.6647809" lon="9.4300707"><ele>241.14285714285717</ele><time>2026-04-09T14:53:38.54Z</time></trkpt><trkpt lat="45.6647206" lon="9.4300099"><ele>241.0</ele><time>2026-04-09T14:53:39.541Z</time></trkpt><trkpt lat="45.6646587" lon="9.4299446"><ele>241.0</ele><time>2026-04-09T14:53:40.541Z</time></trkpt><trkpt lat="45.6645997" lon="9.4298954"><ele>241.00000000000003</ele><time>2026-04-09T14:53:41.541Z</time></trkpt><trkpt lat="45.6645408" lon="9.4298523"><ele>241.0</ele><time>2026-04-09T14:53:42.54Z</time></trkpt><trkpt lat="45.6644798" lon="9.4297883"><ele>241.0</ele><time>2026-04-09T14:53:43.54Z</time></trkpt><trkpt lat="45.6644242" lon="9.4297355"><ele>241.00000000000003</ele><time>2026-04-09T14:53:44.54Z</time></trkpt><trkpt lat="45.6643582" lon="9.4296595"><ele>241.0</ele><time>2026-04-09T14:53:45.541Z</time></trkpt><trkpt lat="45.6643034" lon="9.4295887"><ele>241.0</ele><time>2026-04-09T14:53:46.541Z</time></trkpt><trkpt lat="45.6642331" lon="9.4295024"><ele>240.49999999999997</ele><time>2026-04-09T14:53:47.54Z</time></trkpt><trkpt lat="45.6641171" lon="9.4294027"><ele>240.0</ele><time>2026-04-09T14:53:49.541Z</time></trkpt><trkpt lat="45.6640522" lon="9.4293356"><ele>239.5</ele><time>2026-04-09T14:53:50.541Z</time></trkpt><trkpt lat="45.663995" lon="9.4292808"><ele>239.0</ele><time>2026-04-09T14:53:51.54Z</time></trkpt><trkpt lat="45.6639335" lon="9.4292292"><ele>238.49999999999997</ele><time>2026-04-09T14:53:52.541Z</time></trkpt><trkpt lat="45.663872" lon="9.4291778"><ele>238.0</ele><time>2026-04-09T14:53:53.54Z</time></trkpt><trkpt lat="45.6638103" lon="9.4291118"><ele>237.99999999999997</ele><time>2026-04-09T14:53:54.54Z</time></trkpt><trkpt lat="45.6637522" lon="9.4290509"><ele>238.0</ele><time>2026-04-09T14:53:55.541Z</time></trkpt><trkpt lat="45.6636926" lon="9.4290195"><ele>238.0</ele><time>2026-04-09T14:53:56.541Z</time></trkpt><trkpt lat="45.6636337" lon="9.4289648"><ele>238.0</ele><time>2026-04-09T14:53:57.541Z</time></trkpt><trkpt lat="45.6635706" lon="9.4289103"><ele>237.99999999999997</ele><time>2026-04-09T14:53:58.54Z</time></trkpt><trkpt lat="45.6635061" lon="9.4288132"><ele>238.0</ele><time>2026-04-09T14:53:59.541Z</time></trkpt><trkpt lat="45.6633947" lon="9.4287222"><ele>238.16666666666666</ele><time>2026-04-09T14:54:01.541Z</time></trkpt><trkpt lat="45.6633358" lon="9.4286798"><ele>238.33333333333331</ele><time>2026-04-09T14:54:02.541Z</time></trkpt><trkpt lat="45.6632259" lon="9.4286136"><ele>238.5</ele><time>2026-04-09T14:54:04.541Z</time></trkpt><trkpt lat="45.6631401" lon="9.4285019"><ele>238.66666666666669</ele><time>2026-04-09T14:54:06.541Z</time></trkpt><trkpt lat="45.6631139" lon="9.4284193"><ele>238.83333333333334</ele><time>2026-04-09T14:54:07.54Z</time></trkpt><trkpt lat="45.6631016" lon="9.4283269"><ele>239.0</ele><time>2026-04-09T14:54:08.541Z</time></trkpt><trkpt lat="45.6631014" lon="9.4281383"><ele>239.00000000000003</ele><time>2026-04-09T14:54:10.541Z</time></trkpt><trkpt lat="45.6630983" lon="9.4280387"><ele>239.0</ele><time>2026-04-09T14:54:11.54Z</time></trkpt><trkpt lat="45.663104" lon="9.4279449"><ele>239.0</ele><time>2026-04-09T14:54:12.541Z</time></trkpt><trkpt lat="45.6631155" lon="9.4278442"><ele>239.0</ele><time>2026-04-09T14:54:13.54Z</time></trkpt><trkpt lat="45.663113" lon="9.4276703"><ele>239.00000000000003</ele><time>2026-04-09T14:54:15.541Z</time></trkpt><trkpt lat="45.6631154" lon="9.4275792"><ele>239.0</ele><time>2026-04-09T14:54:16.541Z</time></trkpt><trkpt lat="45.6631203" lon="9.4274848"><ele>239.2</ele><time>2026-04-09T14:54:17.541Z</time></trkpt><trkpt lat="45.66314" lon="9.4273158"><ele>239.39999999999998</ele><time>2026-04-09T14:54:19.541Z</time></trkpt><trkpt lat="45.6631432" lon="9.4271496"><ele>239.6</ele><time>2026-04-09T14:54:21.54Z</time></trkpt><trkpt lat="45.6631322" lon="9.42698"><ele>239.8</ele><time>2026-04-09T14:54:23.541Z</time></trkpt><trkpt lat="45.6630428" lon="9.4269566"><ele>240.0</ele><time>2026-04-09T14:54:24.54Z</time></trkpt><trkpt lat="45.66297" lon="9.4268651"><ele>240.33333333333334</ele><time>2026-04-09T14:54:26.541Z</time></trkpt><trkpt lat="45.6629239" lon="9.4267845"><ele>240.66666666666669</ele><time>2026-04-09T14:54:27.541Z</time></trkpt><trkpt lat="45.6628721" lon="9.4267233"><ele>241.0</ele><time>2026-04-09T14:54:28.54Z</time></trkpt><trkpt lat="45.6628116" lon="9.4266791"><ele>241.33333333333334</ele><time>2026-04-09T14:54:29.541Z</time></trkpt><trkpt lat="45.6627092" lon="9.4265946"><ele>241.66666666666669</ele><time>2026-04-09T14:54:31.541Z</time></trkpt><trkpt lat="45.6626526" lon="9.4265376"><ele>242.0</ele><time>2026-04-09T14:54:32.541Z</time></trkpt><trkpt lat="45.6625938" lon="9.4264936"><ele>241.16666666666669</ele><time>2026-04-09T14:54:33.54Z</time></trkpt><trkpt lat="45.6625415" lon="9.4264411"><ele>240.33333333333334</ele><time>2026-04-09T14:54:34.54Z</time></trkpt><trkpt lat="45.6624834" lon="9.4264041"><ele>239.5</ele><time>2026-04-09T14:54:35.541Z</time></trkpt><trkpt lat="45.6624256" lon="9.4263576"><ele>238.66666666666669</ele><time>2026-04-09T14:54:36.541Z</time></trkpt><trkpt lat="45.6623631" lon="9.4262903"><ele>237.83333333333334</ele><time>2026-04-09T14:54:37.54Z</time></trkpt><trkpt lat="45.6622959" lon="9.4262375"><ele>237.0</ele><time>2026-04-09T14:54:38.541Z</time></trkpt><trkpt lat="45.6621861" lon="9.42614"><ele>237.0</ele><time>2026-04-09T14:54:40.541Z</time></trkpt><trkpt lat="45.6620757" lon="9.4260476"><ele>237.0</ele><time>2026-04-09T14:54:42.541Z</time></trkpt><trkpt lat="45.6619824" lon="9.4259275"><ele>237.0</ele><time>2026-04-09T14:54:44.541Z</time></trkpt><trkpt lat="45.6619287" lon="9.4258406"><ele>237.0</ele><time>2026-04-09T14:54:45.54Z</time></trkpt><trkpt lat="45.6618621" lon="9.4257779"><ele>237.0</ele><time>2026-04-09T14:54:46.541Z</time></trkpt><trkpt lat="45.6617997" lon="9.4257029"><ele>237.4285714285714</ele><time>2026-04-09T14:54:47.541Z</time></trkpt><trkpt lat="45.6617315" lon="9.4256532"><ele>237.85714285714283</ele><time>2026-04-09T14:54:48.54Z</time></trkpt><trkpt lat="45.6616703" lon="9.4256052"><ele>238.28571428571428</ele><time>2026-04-09T14:54:49.54Z</time></trkpt><trkpt lat="45.6616186" lon="9.4255494"><ele>238.7142857142857</ele><time>2026-04-09T14:54:50.54Z</time></trkpt><trkpt lat="45.6615498" lon="9.4254799"><ele>239.1428571428571</ele><time>2026-04-09T14:54:51.541Z</time></trkpt><trkpt lat="45.6614879" lon="9.4254347"><ele>239.57142857142858</ele><time>2026-04-09T14:54:52.541Z</time></trkpt><trkpt lat="45.6614327" lon="9.4253636"><ele>240.0</ele><time>2026-04-09T14:54:53.54Z</time></trkpt><trkpt lat="45.6613681" lon="9.4253067"><ele>240.0</ele><time>2026-04-09T14:54:54.541Z</time></trkpt><trkpt lat="45.661304" lon="9.4252419"><ele>240.0</ele><time>2026-04-09T14:54:55.54Z</time></trkpt><trkpt lat="45.6612413" lon="9.4251988"><ele>240.0</ele><time>2026-04-09T14:54:56.541Z</time></trkpt><trkpt lat="45.6611779" lon="9.4251532"><ele>240.0</ele><time>2026-04-09T14:54:57.541Z</time></trkpt><trkpt lat="45.6611179" lon="9.4250996"><ele>240.0</ele><time>2026-04-09T14:54:58.541Z</time></trkpt><trkpt lat="45.6610563" lon="9.425037"><ele>240.0</ele><time>2026-04-09T14:54:59.541Z</time></trkpt><trkpt lat="45.6610001" lon="9.4249803"><ele>240.0</ele><time>2026-04-09T14:55:00.541Z</time></trkpt><trkpt lat="45.6609426" lon="9.4249325"><ele>240.16666666666666</ele><time>2026-04-09T14:55:01.541Z</time></trkpt><trkpt lat="45.6608816" lon="9.424882"><ele>240.33333333333331</ele><time>2026-04-09T14:55:02.541Z</time></trkpt><trkpt lat="45.6608272" lon="9.424834"><ele>240.5</ele><time>2026-04-09T14:55:03.541Z</time></trkpt><trkpt lat="45.660711" lon="9.4247031"><ele>240.66666666666666</ele><time>2026-04-09T14:55:05.541Z</time></trkpt><trkpt lat="45.6606557" lon="9.4246594"><ele>240.83333333333331</ele><time>2026-04-09T14:55:06.54Z</time></trkpt><trkpt lat="45.6605824" lon="9.4245817"><ele>241.0</ele><time>2026-04-09T14:55:07.541Z</time></trkpt><trkpt lat="45.6605292" lon="9.4245082"><ele>240.99999999999997</ele><time>2026-04-09T14:55:08.54Z</time></trkpt><trkpt lat="45.6604684" lon="9.4244569"><ele>241.0</ele><time>2026-04-09T14:55:09.541Z</time></trkpt><trkpt lat="45.6604119" lon="9.4244065"><ele>241.0</ele><time>2026-04-09T14:55:10.54Z</time></trkpt><trkpt lat="45.6603524" lon="9.4243492"><ele>241.0</ele><time>2026-04-09T14:55:11.541Z</time></trkpt><trkpt lat="45.6602979" lon="9.4243031"><ele>240.99999999999997</ele><time>2026-04-09T14:55:12.541Z</time></trkpt><trkpt lat="45.6601944" lon="9.4242156"><ele>241.0</ele><time>2026-04-09T14:55:14.54Z</time></trkpt><trkpt lat="45.6600754" lon="9.4241049"><ele>240.85714285714286</ele><time>2026-04-09T14:55:16.54Z</time></trkpt><trkpt lat="45.6600086" lon="9.4240432"><ele>240.71428571428572</ele><time>2026-04-09T14:55:17.541Z</time></trkpt><trkpt lat="45.6599495" lon="9.423991"><ele>240.57142857142858</ele><time>2026-04-09T14:55:18.541Z</time></trkpt><trkpt lat="45.6598871" lon="9.4239477"><ele>240.42857142857144</ele><time>2026-04-09T14:55:19.541Z</time></trkpt><trkpt lat="45.6598232" lon="9.423895"><ele>240.28571428571428</ele><time>2026-04-09T14:55:20.541Z</time></trkpt><trkpt lat="45.6597601" lon="9.4238449"><ele>240.14285714285717</ele><time>2026-04-09T14:55:21.541Z</time></trkpt><trkpt lat="45.6596958" lon="9.423815"><ele>240.0</ele><time>2026-04-09T14:55:22.541Z</time></trkpt><trkpt lat="45.659569" lon="9.4237757"><ele>239.6</ele><time>2026-04-09T14:55:24.54Z</time></trkpt><trkpt lat="45.6595141" lon="9.4238341"><ele>239.2</ele><time>2026-04-09T14:55:25.541Z</time></trkpt><trkpt lat="45.6594073" lon="9.4239214"><ele>238.8</ele><time>2026-04-09T14:55:27.541Z</time></trkpt><trkpt lat="45.6593667" lon="9.4239961"><ele>238.4</ele><time>2026-04-09T14:55:28.541Z</time></trkpt><trkpt lat="45.6592647" lon="9.4240984"><ele>238.0</ele><time>2026-04-09T14:55:30.541Z</time></trkpt><trkpt lat="45.6591585" lon="9.4241074"><ele>237.4</ele><time>2026-04-09T14:55:32.54Z</time></trkpt><trkpt lat="45.659064" lon="9.4240105"><ele>236.8</ele><time>2026-04-09T14:55:34.54Z</time></trkpt><trkpt lat="45.6590138" lon="9.4239546"><ele>236.2</ele><time>2026-04-09T14:55:35.541Z</time></trkpt><trkpt lat="45.6589212" lon="9.4238581"><ele>235.6</ele><time>2026-04-09T14:55:37.541Z</time></trkpt><trkpt lat="45.6588685" lon="9.4238033"><ele>235.0</ele><time>2026-04-09T14:55:38.54Z</time></trkpt><trkpt lat="45.6587592" lon="9.4237044"><ele>234.99999999999997</ele><time>2026-04-09T14:55:40.541Z</time></trkpt><trkpt lat="45.6587017" lon="9.4236491"><ele>235.0</ele><time>2026-04-09T14:55:41.54Z</time></trkpt><trkpt lat="45.6585826" lon="9.4235468"><ele>235.0</ele><time>2026-04-09T14:55:43.54Z</time></trkpt><trkpt lat="45.6585228" lon="9.4234876"><ele>235.0</ele><time>2026-04-09T14:55:44.54Z</time></trkpt><trkpt lat="45.6584595" lon="9.423429"><ele>234.99999999999997</ele><time>2026-04-09T14:55:45.541Z</time></trkpt><trkpt lat="45.6583988" lon="9.4233771"><ele>235.0</ele><time>2026-04-09T14:55:46.541Z</time></trkpt><trkpt lat="45.658338" lon="9.4233219"><ele>235.0</ele><time>2026-04-09T14:55:47.54Z</time></trkpt><trkpt lat="45.6582795" lon="9.4232731"><ele>234.99999999999997</ele><time>2026-04-09T14:55:48.541Z</time></trkpt><trkpt lat="45.6582202" lon="9.4232385"><ele>235.0</ele><time>2026-04-09T14:55:49.54Z</time></trkpt><trkpt lat="45.6581638" lon="9.4231953"><ele>235.0</ele><time>2026-04-09T14:55:50.54Z</time></trkpt><trkpt lat="45.6580997" lon="9.4231706"><ele>234.99999999999997</ele><time>2026-04-09T14:55:51.54Z</time></trkpt><trkpt lat="45.6580371" lon="9.4231347"><ele>235.0</ele><time>2026-04-09T14:55:52.541Z</time></trkpt><trkpt lat="45.6579666" lon="9.4230938"><ele>235.0</ele><time>2026-04-09T14:55:53.54Z</time></trkpt><trkpt lat="45.6578493" lon="9.4230651"><ele>235.2</ele><time>2026-04-09T14:55:55.541Z</time></trkpt><trkpt lat="45.6577347" lon="9.423035"><ele>235.4</ele><time>2026-04-09T14:55:57.541Z</time></trkpt><trkpt lat="45.6576597" lon="9.423025"><ele>235.60000000000002</ele><time>2026-04-09T14:55:58.541Z</time></trkpt><trkpt lat="45.6575938" lon="9.4230212"><ele>235.8</ele><time>2026-04-09T14:55:59.54Z</time></trkpt><trkpt lat="45.6575266" lon="9.4230187"><ele>236.0</ele><time>2026-04-09T14:56:00.541Z</time></trkpt><trkpt lat="45.657402" lon="9.4229918"><ele>236.0</ele><time>2026-04-09T14:56:02.541Z</time></trkpt><trkpt lat="45.6572896" lon="9.4229323"><ele>236.00000000000003</ele><time>2026-04-09T14:56:04.54Z</time></trkpt><trkpt lat="45.6572197" lon="9.4228895"><ele>236.00000000000003</ele><time>2026-04-09T14:56:05.541Z</time></trkpt><trkpt lat="45.6570904" lon="9.4228581"><ele>236.0</ele><time>2026-04-09T14:56:07.54Z</time></trkpt><trkpt lat="45.6570192" lon="9.4228429"><ele>236.0</ele><time>2026-04-09T14:56:08.541Z</time></trkpt><trkpt lat="45.6568904" lon="9.4228114"><ele>236.00000000000003</ele><time>2026-04-09T14:56:10.541Z</time></trkpt><trkpt lat="45.6567891" lon="9.4227649"><ele>236.0</ele><time>2026-04-09T14:56:12.541Z</time></trkpt><trkpt lat="45.6566862" lon="9.422709"><ele>236.0</ele><time>2026-04-09T14:56:14.54Z</time></trkpt><trkpt lat="45.6566154" lon="9.4227001"><ele>236.0</ele><time>2026-04-09T14:56:15.541Z</time></trkpt><trkpt lat="45.6565502" lon="9.4226716"><ele>236.00000000000003</ele><time>2026-04-09T14:56:16.541Z</time></trkpt><trkpt lat="45.6564824" lon="9.4226123"><ele>236.0</ele><time>2026-04-09T14:56:17.54Z</time></trkpt><trkpt lat="45.6563606" lon="9.4225463"><ele>236.00000000000003</ele><time>2026-04-09T14:56:19.54Z</time></trkpt><trkpt lat="45.6562936" lon="9.4225198"><ele>236.0</ele><time>2026-04-09T14:56:20.54Z</time></trkpt><trkpt lat="45.6562201" lon="9.4224831"><ele>236.0</ele><time>2026-04-09T14:56:21.541Z</time></trkpt><trkpt lat="45.6561481" lon="9.4224585"><ele>236.0</ele><time>2026-04-09T14:56:22.541Z</time></trkpt><trkpt lat="45.6560842" lon="9.4224346"><ele>236.00000000000003</ele><time>2026-04-09T14:56:23.54Z</time></trkpt><trkpt lat="45.656014" lon="9.42241"><ele>236.0</ele><time>2026-04-09T14:56:24.54Z</time></trkpt><trkpt lat="45.6558945" lon="9.4223389"><ele>235.83333333333334</ele><time>2026-04-09T14:56:26.54Z</time></trkpt><trkpt lat="45.6558301" lon="9.4222929"><ele>235.66666666666669</ele><time>2026-04-09T14:56:27.54Z</time></trkpt><trkpt lat="45.6557656" lon="9.4222482"><ele>235.5</ele><time>2026-04-09T14:56:28.541Z</time></trkpt><trkpt lat="45.6557116" lon="9.4221885"><ele>235.33333333333331</ele><time>2026-04-09T14:56:29.541Z</time></trkpt><trkpt lat="45.6556582" lon="9.4221338"><ele>235.16666666666666</ele><time>2026-04-09T14:56:30.54Z</time></trkpt><trkpt lat="45.6555435" lon="9.4220232"><ele>235.0</ele><time>2026-04-09T14:56:32.541Z</time></trkpt><trkpt lat="45.6554298" lon="9.4219433"><ele>235.16666666666666</ele><time>2026-04-09T14:56:34.541Z</time></trkpt><trkpt lat="45.6553654" lon="9.4218934"><ele>235.33333333333331</ele><time>2026-04-09T14:56:35.541Z</time></trkpt><trkpt lat="45.6553112" lon="9.42184"><ele>235.5</ele><time>2026-04-09T14:56:36.541Z</time></trkpt><trkpt lat="45.6552375" lon="9.4218148"><ele>235.66666666666669</ele><time>2026-04-09T14:56:37.541Z</time></trkpt><trkpt lat="45.6551084" lon="9.4217723"><ele>235.83333333333334</ele><time>2026-04-09T14:56:39.541Z</time></trkpt><trkpt lat="45.6550407" lon="9.421765"><ele>236.0</ele><time>2026-04-09T14:56:40.541Z</time></trkpt><trkpt lat="45.6549746" lon="9.4217286"><ele>236.00000000000003</ele><time>2026-04-09T14:56:41.541Z</time></trkpt><trkpt lat="45.6549072" lon="9.4217173"><ele>236.0</ele><time>2026-04-09T14:56:42.54Z</time></trkpt><trkpt lat="45.6548079" lon="9.4216774"><ele>236.0</ele><time>2026-04-09T14:56:43.54Z</time></trkpt><trkpt lat="45.6547378" lon="9.4216551"><ele>236.0</ele><time>2026-04-09T14:56:44.54Z</time></trkpt><trkpt lat="45.6546161" lon="9.4216044"><ele>236.00000000000003</ele><time>2026-04-09T14:56:46.541Z</time></trkpt><trkpt lat="45.6545508" lon="9.4216224"><ele>236.0</ele><time>2026-04-09T14:56:47.54Z</time></trkpt><trkpt lat="45.6544477" lon="9.4216359"><ele>235.83333333333334</ele><time>2026-04-09T14:56:49.541Z</time></trkpt><trkpt lat="45.6543563" lon="9.4216547"><ele>235.66666666666669</ele><time>2026-04-09T14:56:51.541Z</time></trkpt><trkpt lat="45.654293" lon="9.4216654"><ele>235.5</ele><time>2026-04-09T14:56:52.54Z</time></trkpt><trkpt lat="45.6542266" lon="9.4216498"><ele>235.33333333333331</ele><time>2026-04-09T14:56:53.54Z</time></trkpt><trkpt lat="45.6541128" lon="9.4216885"><ele>235.16666666666666</ele><time>2026-04-09T14:56:55.54Z</time></trkpt><trkpt lat="45.6540492" lon="9.4217457"><ele>235.0</ele><time>2026-04-09T14:56:56.54Z</time></trkpt><trkpt lat="45.6539745" lon="9.4217764"><ele>234.99999999999997</ele><time>2026-04-09T14:56:57.541Z</time></trkpt><trkpt lat="45.6538678" lon="9.4218008"><ele>235.0</ele><time>2026-04-09T14:56:59.541Z</time></trkpt><trkpt lat="45.6537926" lon="9.4218271"><ele>235.0</ele><time>2026-04-09T14:57:00.541Z</time></trkpt><trkpt lat="45.6537243" lon="9.4218351"><ele>235.0</ele><time>2026-04-09T14:57:01.54Z</time></trkpt><trkpt lat="45.6536592" lon="9.4218467"><ele>234.99999999999997</ele><time>2026-04-09T14:57:02.54Z</time></trkpt><trkpt lat="45.653582" lon="9.42186"><ele>235.0</ele><time>2026-04-09T14:57:03.541Z</time></trkpt><trkpt lat="45.6534999" lon="9.4218465"><ele>235.4</ele><time>2026-04-09T14:57:04.541Z</time></trkpt><trkpt lat="45.6534333" lon="9.4218678"><ele>235.8</ele><time>2026-04-09T14:57:05.541Z</time></trkpt><trkpt lat="45.6533129" lon="9.4218972"><ele>236.2</ele><time>2026-04-09T14:57:07.541Z</time></trkpt><trkpt lat="45.6532187" lon="9.4219125"><ele>236.6</ele><time>2026-04-09T14:57:09.54Z</time></trkpt><trkpt lat="45.6531061" lon="9.4219158"><ele>237.0</ele><time>2026-04-09T14:57:11.54Z</time></trkpt><trkpt lat="45.653043" lon="9.4219082"><ele>237.0</ele><time>2026-04-09T14:57:12.541Z</time></trkpt><trkpt lat="45.6529738" lon="9.4219062"><ele>237.0</ele><time>2026-04-09T14:57:13.54Z</time></trkpt><trkpt lat="45.6529089" lon="9.4218964"><ele>237.0</ele><time>2026-04-09T14:57:14.541Z</time></trkpt><trkpt lat="45.652803" lon="9.4218922"><ele>237.0</ele><time>2026-04-09T14:57:16.541Z</time></trkpt><trkpt lat="45.6526782" lon="9.4218661"><ele>237.0</ele><time>2026-04-09T14:57:18.541Z</time></trkpt><trkpt lat="45.6525986" lon="9.4218515"><ele>237.0</ele><time>2026-04-09T14:57:19.54Z</time></trkpt><trkpt lat="45.6525173" lon="9.4218235"><ele>237.2</ele><time>2026-04-09T14:57:20.541Z</time></trkpt><trkpt lat="45.6523902" lon="9.4217968"><ele>237.39999999999998</ele><time>2026-04-09T14:57:22.54Z</time></trkpt><trkpt lat="45.6523283" lon="9.4217668"><ele>237.60000000000002</ele><time>2026-04-09T14:57:23.54Z</time></trkpt><trkpt lat="45.6522617" lon="9.4217497"><ele>237.8</ele><time>2026-04-09T14:57:24.54Z</time></trkpt><trkpt lat="45.6521219" lon="9.4217058"><ele>238.0</ele><time>2026-04-09T14:57:26.541Z</time></trkpt><trkpt lat="45.6520512" lon="9.4216855"><ele>237.99999999999997</ele><time>2026-04-09T14:57:27.541Z</time></trkpt><trkpt lat="45.6519785" lon="9.4216537"><ele>238.0</ele><time>2026-04-09T14:57:28.54Z</time></trkpt><trkpt lat="45.6519118" lon="9.4216368"><ele>238.0</ele><time>2026-04-09T14:57:29.54Z</time></trkpt><trkpt lat="45.6518374" lon="9.4216016"><ele>238.0</ele><time>2026-04-09T14:57:30.541Z</time></trkpt><trkpt lat="45.6517338" lon="9.4215648"><ele>237.99999999999997</ele><time>2026-04-09T14:57:32.541Z</time></trkpt><trkpt lat="45.6516624" lon="9.421587"><ele>238.0</ele><time>2026-04-09T14:57:34.541Z</time></trkpt><trkpt lat="45.6516218" lon="9.4216945"><ele>237.60000000000002</ele><time>2026-04-09T14:57:36.541Z</time></trkpt><trkpt lat="45.651601" lon="9.4217966"><ele>237.20000000000002</ele><time>2026-04-09T14:57:38.54Z</time></trkpt><trkpt lat="45.6515776" lon="9.4219244"><ele>236.8</ele><time>2026-04-09T14:57:40.541Z</time></trkpt><trkpt lat="45.65157" lon="9.4220571"><ele>236.4</ele><time>2026-04-09T14:57:42.54Z</time></trkpt><trkpt lat="45.6516032" lon="9.4222294"><ele>236.0</ele><time>2026-04-09T14:57:44.54Z</time></trkpt><trkpt lat="45.651595" lon="9.4223252"><ele>235.57142857142856</ele><time>2026-04-09T14:57:45.54Z</time></trkpt><trkpt lat="45.6515687" lon="9.4224165"><ele>235.14285714285717</ele><time>2026-04-09T14:57:46.541Z</time></trkpt><trkpt lat="45.6515193" lon="9.4224801"><ele>234.71428571428572</ele><time>2026-04-09T14:57:48.541Z</time></trkpt><trkpt lat="45.6514482" lon="9.4225"><ele>234.28571428571428</ele><time>2026-04-09T14:57:50.54Z</time></trkpt><trkpt lat="45.6513527" lon="9.4224887"><ele>233.85714285714283</ele><time>2026-04-09T14:57:52.541Z</time></trkpt><trkpt lat="45.6512749" lon="9.4224805"><ele>233.42857142857144</ele><time>2026-04-09T14:57:54.541Z</time></trkpt><trkpt lat="45.6512095" lon="9.4224718"><ele>233.0</ele><time>2026-04-09T14:57:55.541Z</time></trkpt><trkpt lat="45.6511088" lon="9.422459"><ele>233.0</ele><time>2026-04-09T14:57:57.54Z</time></trkpt><trkpt lat="45.6510447" lon="9.4224521"><ele>233.0</ele><time>2026-04-09T14:57:58.541Z</time></trkpt><trkpt lat="45.6509282" lon="9.4224112"><ele>233.0</ele><time>2026-04-09T14:58:00.54Z</time></trkpt><trkpt lat="45.650859" lon="9.4224049"><ele>233.0</ele><time>2026-04-09T14:58:01.54Z</time></trkpt><trkpt lat="45.650792" lon="9.4223795"><ele>233.0</ele><time>2026-04-09T14:58:02.541Z</time></trkpt><trkpt lat="45.6506657" lon="9.4223648"><ele>233.0</ele><time>2026-04-09T14:58:04.54Z</time></trkpt><trkpt lat="45.6506022" lon="9.4223423"><ele>233.0</ele><time>2026-04-09T14:58:05.541Z</time></trkpt><trkpt lat="45.6505379" lon="9.4223358"><ele>233.0</ele><time>2026-04-09T14:58:06.54Z</time></trkpt><trkpt lat="45.6504169" lon="9.4223909"><ele>233.0</ele><time>2026-04-09T14:58:08.541Z</time></trkpt><trkpt lat="45.6503334" lon="9.4224294"><ele>233.0</ele><time>2026-04-09T14:58:10.54Z</time></trkpt><trkpt lat="45.6502252" lon="9.4224276"><ele>233.25</ele><time>2026-04-09T14:58:12.541Z</time></trkpt><trkpt lat="45.650121" lon="9.4224013"><ele>233.5</ele><time>2026-04-09T14:58:14.541Z</time></trkpt><trkpt lat="45.6500169" lon="9.4223774"><ele>233.75</ele><time>2026-04-09T14:58:16.541Z</time></trkpt><trkpt lat="45.6498946" lon="9.4223489"><ele>234.0</ele><time>2026-04-09T14:58:18.54Z</time></trkpt><trkpt lat="45.64977" lon="9.4223015"><ele>234.0</ele><time>2026-04-09T14:58:20.541Z</time></trkpt><trkpt lat="45.6496967" lon="9.4222848"><ele>234.0</ele><time>2026-04-09T14:58:21.54Z</time></trkpt><trkpt lat="45.6496209" lon="9.4222682"><ele>234.0</ele><time>2026-04-09T14:58:22.541Z</time></trkpt><trkpt lat="45.6495397" lon="9.4222561"><ele>234.0</ele><time>2026-04-09T14:58:23.541Z</time></trkpt><trkpt lat="45.6494719" lon="9.4222411"><ele>234.0</ele><time>2026-04-09T14:58:24.54Z</time></trkpt><trkpt lat="45.6493486" lon="9.4222444"><ele>234.0</ele><time>2026-04-09T14:58:26.541Z</time></trkpt><trkpt lat="45.6492792" lon="9.4222467"><ele>233.66666666666666</ele><time>2026-04-09T14:58:27.541Z</time></trkpt><trkpt lat="45.6492068" lon="9.4222376"><ele>233.33333333333331</ele><time>2026-04-09T14:58:28.54Z</time></trkpt><trkpt lat="45.6491414" lon="9.4222385"><ele>233.0</ele><time>2026-04-09T14:58:29.541Z</time></trkpt><trkpt lat="45.6490687" lon="9.4222276"><ele>232.66666666666666</ele><time>2026-04-09T14:58:30.541Z</time></trkpt><trkpt lat="45.6489692" lon="9.4222721"><ele>232.33333333333331</ele><time>2026-04-09T14:58:32.54Z</time></trkpt><trkpt lat="45.6489302" lon="9.4223951"><ele>232.0</ele><time>2026-04-09T14:58:34.541Z</time></trkpt><trkpt lat="45.6489238" lon="9.4225097"><ele>231.99999999999997</ele><time>2026-04-09T14:58:36.54Z</time></trkpt><trkpt lat="45.6489123" lon="9.4226272"><ele>232.0</ele><time>2026-04-09T14:58:38.541Z</time></trkpt><trkpt lat="45.6489171" lon="9.4227469"><ele>232.0</ele><time>2026-04-09T14:58:40.54Z</time></trkpt><trkpt lat="45.6489244" lon="9.4228701"><ele>232.0</ele><time>2026-04-09T14:58:42.541Z</time></trkpt><trkpt lat="45.6489276" lon="9.42299"><ele>231.99999999999997</ele><time>2026-04-09T14:58:44.54Z</time></trkpt><trkpt lat="45.6489358" lon="9.4231142"><ele>232.0</ele><time>2026-04-09T14:58:46.541Z</time></trkpt><trkpt lat="45.6489436" lon="9.4232361"><ele>233.0</ele><time>2026-04-09T14:58:48.541Z</time></trkpt><trkpt lat="45.6489427" lon="9.4233365"><ele>234.0</ele><time>2026-04-09T14:58:50.54Z</time></trkpt><trkpt lat="45.6488896" lon="9.4234153"><ele>235.0</ele><time>2026-04-09T14:58:52.541Z</time></trkpt><trkpt lat="45.6487793" lon="9.4234386"><ele>236.0</ele><time>2026-04-09T14:58:54.54Z</time></trkpt><trkpt lat="45.6486569" lon="9.423437"><ele>237.0</ele><time>2026-04-09T14:58:56.541Z</time></trkpt><trkpt lat="45.6485325" lon="9.4234367"><ele>237.0</ele><time>2026-04-09T14:58:58.541Z</time></trkpt><trkpt lat="45.6484087" lon="9.4234391"><ele>237.0</ele><time>2026-04-09T14:59:00.54Z</time></trkpt><trkpt lat="45.6482695" lon="9.4234425"><ele>237.0</ele><time>2026-04-09T14:59:02.54Z</time></trkpt><trkpt lat="45.6481565" lon="9.4234588"><ele>237.0</ele><time>2026-04-09T14:59:04.54Z</time></trkpt><trkpt lat="45.6480355" lon="9.4234559"><ele>237.0</ele><time>2026-04-09T14:59:06.54Z</time></trkpt><trkpt lat="45.647971" lon="9.4234597"><ele>237.0</ele><time>2026-04-09T14:59:07.54Z</time></trkpt><trkpt lat="45.6479068" lon="9.4234523"><ele>237.0</ele><time>2026-04-09T14:59:08.54Z</time></trkpt><trkpt lat="45.647786" lon="9.4234461"><ele>237.0</ele><time>2026-04-09T14:59:10.541Z</time></trkpt><trkpt lat="45.6476771" lon="9.4234664"><ele>237.0</ele><time>2026-04-09T14:59:12.54Z</time></trkpt><trkpt lat="45.6475601" lon="9.4234933"><ele>237.2</ele><time>2026-04-09T14:59:14.54Z</time></trkpt><trkpt lat="45.647451" lon="9.4234918"><ele>237.39999999999998</ele><time>2026-04-09T14:59:16.54Z</time></trkpt><trkpt lat="45.6473396" lon="9.4234918"><ele>237.60000000000002</ele><time>2026-04-09T14:59:18.541Z</time></trkpt><trkpt lat="45.6472708" lon="9.4234645"><ele>237.8</ele><time>2026-04-09T14:59:19.541Z</time></trkpt><trkpt lat="45.6471628" lon="9.4234608"><ele>238.0</ele><time>2026-04-09T14:59:21.54Z</time></trkpt><trkpt lat="45.6470585" lon="9.4234139"><ele>238.25</ele><time>2026-04-09T14:59:23.54Z</time></trkpt><trkpt lat="45.6469467" lon="9.4233496"><ele>238.5</ele><time>2026-04-09T14:59:25.541Z</time></trkpt><trkpt lat="45.6468474" lon="9.423258"><ele>238.75</ele><time>2026-04-09T14:59:27.54Z</time></trkpt><trkpt lat="45.6467523" lon="9.4231553"><ele>239.0</ele><time>2026-04-09T14:59:29.541Z</time></trkpt><trkpt lat="45.6466511" lon="9.4230901"><ele>239.0</ele><time>2026-04-09T14:59:31.541Z</time></trkpt><trkpt lat="45.6465534" lon="9.4230262"><ele>238.99999999999997</ele><time>2026-04-09T14:59:33.541Z</time></trkpt><trkpt lat="45.6464516" lon="9.4229499"><ele>238.99999999999997</ele><time>2026-04-09T14:59:35.541Z</time></trkpt><trkpt lat="45.646359" lon="9.4228703"><ele>239.0</ele><time>2026-04-09T14:59:37.54Z</time></trkpt><trkpt lat="45.6462684" lon="9.4227881"><ele>239.0</ele><time>2026-04-09T14:59:39.541Z</time></trkpt><trkpt lat="45.646165" lon="9.4227185"><ele>239.2</ele><time>2026-04-09T14:59:41.54Z</time></trkpt><trkpt lat="45.6460801" lon="9.4226432"><ele>239.39999999999998</ele><time>2026-04-09T14:59:43.541Z</time></trkpt><trkpt lat="45.646032" lon="9.4225826"><ele>239.6</ele><time>2026-04-09T14:59:44.541Z</time></trkpt><trkpt lat="45.6459773" lon="9.4225354"><ele>239.8</ele><time>2026-04-09T14:59:45.54Z</time></trkpt><trkpt lat="45.6458757" lon="9.4224681"><ele>240.0</ele><time>2026-04-09T14:59:47.54Z</time></trkpt><trkpt lat="45.6457677" lon="9.422388"><ele>240.0</ele><time>2026-04-09T14:59:49.541Z</time></trkpt><trkpt lat="45.6456206" lon="9.4222363"><ele>240.0</ele><time>2026-04-09T14:59:52.541Z</time></trkpt><trkpt lat="45.6455715" lon="9.4221751"><ele>240.0</ele><time>2026-04-09T14:59:53.54Z</time></trkpt><trkpt lat="45.6455251" lon="9.4221048"><ele>240.0</ele><time>2026-04-09T14:59:54.541Z</time></trkpt><trkpt lat="45.6454821" lon="9.422039"><ele>240.0</ele><time>2026-04-09T14:59:55.541Z</time></trkpt><trkpt lat="45.6454462" lon="9.4219645"><ele>240.0</ele><time>2026-04-09T14:59:56.541Z</time></trkpt><trkpt lat="45.645411" lon="9.4218818"><ele>239.71428571428572</ele><time>2026-04-09T14:59:57.541Z</time></trkpt><trkpt lat="45.6453761" lon="9.4217976"><ele>239.42857142857142</ele><time>2026-04-09T14:59:58.541Z</time></trkpt><trkpt lat="45.645345" lon="9.4217088"><ele>239.14285714285714</ele><time>2026-04-09T14:59:59.541Z</time></trkpt><trkpt lat="45.6453107" lon="9.421617"><ele>238.85714285714286</ele><time>2026-04-09T15:00:00.541Z</time></trkpt><trkpt lat="45.6452812" lon="9.4215319"><ele>238.57142857142856</ele><time>2026-04-09T15:00:01.54Z</time></trkpt><trkpt lat="45.6452534" lon="9.4214432"><ele>238.28571428571428</ele><time>2026-04-09T15:00:02.541Z</time></trkpt><trkpt lat="45.6452236" lon="9.4213523"><ele>238.0</ele><time>2026-04-09T15:00:03.54Z</time></trkpt><trkpt lat="45.6451894" lon="9.4212697"><ele>237.83333333333331</ele><time>2026-04-09T15:00:04.541Z</time></trkpt><trkpt lat="45.6451568" lon="9.4211753"><ele>237.66666666666666</ele><time>2026-04-09T15:00:05.541Z</time></trkpt><trkpt lat="45.6451206" lon="9.4210834"><ele>237.5</ele><time>2026-04-09T15:00:06.54Z</time></trkpt><trkpt lat="45.6450811" lon="9.4209895"><ele>237.33333333333331</ele><time>2026-04-09T15:00:07.541Z</time></trkpt><trkpt lat="45.6450368" lon="9.4208951"><ele>237.16666666666666</ele><time>2026-04-09T15:00:08.541Z</time></trkpt><trkpt lat="45.6449941" lon="9.4207923"><ele>237.0</ele><time>2026-04-09T15:00:09.541Z</time></trkpt><trkpt lat="45.644949" lon="9.4206791"><ele>237.0</ele><time>2026-04-09T15:00:10.541Z</time></trkpt><trkpt lat="45.6449094" lon="9.4205727"><ele>237.0</ele><time>2026-04-09T15:00:11.541Z</time></trkpt><trkpt lat="45.6448656" lon="9.4204639"><ele>237.0</ele><time>2026-04-09T15:00:12.541Z</time></trkpt><trkpt lat="45.6448267" lon="9.4203451"><ele>237.0</ele><time>2026-04-09T15:00:13.54Z</time></trkpt><trkpt lat="45.6447923" lon="9.420236"><ele>237.0</ele><time>2026-04-09T15:00:14.54Z</time></trkpt><trkpt lat="45.6447464" lon="9.4201296"><ele>237.0</ele><time>2026-04-09T15:00:15.541Z</time></trkpt><trkpt lat="45.6447016" lon="9.4200147"><ele>236.33333333333334</ele><time>2026-04-09T15:00:16.54Z</time></trkpt><trkpt lat="45.6446592" lon="9.4198959"><ele>235.66666666666669</ele><time>2026-04-09T15:00:17.541Z</time></trkpt><trkpt lat="45.6446167" lon="9.4197938"><ele>235.0</ele><time>2026-04-09T15:00:18.54Z</time></trkpt><trkpt lat="45.6445847" lon="9.4196834"><ele>234.33333333333334</ele><time>2026-04-09T15:00:19.541Z</time></trkpt><trkpt lat="45.6445511" lon="9.4195613"><ele>233.66666666666669</ele><time>2026-04-09T15:00:20.54Z</time></trkpt><trkpt lat="45.6445176" lon="9.4194577"><ele>233.0</ele><time>2026-04-09T15:00:21.54Z</time></trkpt><trkpt lat="45.6444825" lon="9.419348"><ele>232.50000000000003</ele><time>2026-04-09T15:00:22.541Z</time></trkpt><trkpt lat="45.6444467" lon="9.4192543"><ele>232.0</ele><time>2026-04-09T15:00:23.54Z</time></trkpt><trkpt lat="45.6444144" lon="9.4191459"><ele>231.5</ele><time>2026-04-09T15:00:24.54Z</time></trkpt><trkpt lat="45.6443822" lon="9.4190368"><ele>231.0</ele><time>2026-04-09T15:00:25.541Z</time></trkpt><trkpt lat="45.6443417" lon="9.4189327"><ele>230.50000000000003</ele><time>2026-04-09T15:00:26.541Z</time></trkpt><trkpt lat="45.6443066" lon="9.4188324"><ele>230.0</ele><time>2026-04-09T15:00:27.541Z</time></trkpt><trkpt lat="45.6442752" lon="9.4187364"><ele>229.71428571428567</ele><time>2026-04-09T15:00:28.541Z</time></trkpt><trkpt lat="45.6442452" lon="9.418631"><ele>229.42857142857142</ele><time>2026-04-09T15:00:29.541Z</time></trkpt><trkpt lat="45.6442132" lon="9.4185374"><ele>229.1428571428571</ele><time>2026-04-09T15:00:30.541Z</time></trkpt><trkpt lat="45.6441783" lon="9.4184457"><ele>228.85714285714283</ele><time>2026-04-09T15:00:31.541Z</time></trkpt><trkpt lat="45.6441415" lon="9.418352"><ele>228.57142857142856</ele><time>2026-04-09T15:00:32.54Z</time></trkpt><trkpt lat="45.6440995" lon="9.4182727"><ele>228.28571428571428</ele><time>2026-04-09T15:00:33.54Z</time></trkpt><trkpt lat="45.6440515" lon="9.4181946"><ele>228.0</ele><time>2026-04-09T15:00:34.54Z</time></trkpt><trkpt lat="45.6440029" lon="9.4181334"><ele>228.0</ele><time>2026-04-09T15:00:35.541Z</time></trkpt><trkpt lat="45.6439452" lon="9.4180747"><ele>228.0</ele><time>2026-04-09T15:00:36.54Z</time></trkpt><trkpt lat="45.6438799" lon="9.4180298"><ele>228.0</ele><time>2026-04-09T15:00:37.541Z</time></trkpt><trkpt lat="45.6438123" lon="9.417976"><ele>228.0</ele><time>2026-04-09T15:00:38.54Z</time></trkpt><trkpt lat="45.6437451" lon="9.4179266"><ele>228.0</ele><time>2026-04-09T15:00:39.541Z</time></trkpt><trkpt lat="45.6436726" lon="9.4178645"><ele>228.0</ele><time>2026-04-09T15:00:40.54Z</time></trkpt><trkpt lat="45.6436054" lon="9.4178217"><ele>228.16666666666666</ele><time>2026-04-09T15:00:41.541Z</time></trkpt><trkpt lat="45.6435443" lon="9.4177525"><ele>228.33333333333331</ele><time>2026-04-09T15:00:42.541Z</time></trkpt><trkpt lat="45.6434739" lon="9.4176993"><ele>228.5</ele><time>2026-04-09T15:00:43.541Z</time></trkpt><trkpt lat="45.6433972" lon="9.4176606"><ele>228.66666666666666</ele><time>2026-04-09T15:00:44.54Z</time></trkpt><trkpt lat="45.6433243" lon="9.4176208"><ele>228.83333333333331</ele><time>2026-04-09T15:00:45.54Z</time></trkpt><trkpt lat="45.6432648" lon="9.4175762"><ele>229.0</ele><time>2026-04-09T15:00:46.541Z</time></trkpt><trkpt lat="45.6431948" lon="9.4175266"><ele>228.99999999999997</ele><time>2026-04-09T15:00:47.541Z</time></trkpt><trkpt lat="45.6431229" lon="9.4174821"><ele>229.0</ele><time>2026-04-09T15:00:48.54Z</time></trkpt><trkpt lat="45.6430535" lon="9.4174417"><ele>229.0</ele><time>2026-04-09T15:00:49.541Z</time></trkpt><trkpt lat="45.642985" lon="9.417383"><ele>229.0</ele><time>2026-04-09T15:00:50.54Z</time></trkpt><trkpt lat="45.642924" lon="9.4173489"><ele>228.99999999999997</ele><time>2026-04-09T15:00:51.541Z</time></trkpt><trkpt lat="45.6428546" lon="9.4173026"><ele>229.0</ele><time>2026-04-09T15:00:52.541Z</time></trkpt><trkpt lat="45.6427858" lon="9.4172386"><ele>228.99999999999997</ele><time>2026-04-09T15:00:53.54Z</time></trkpt><trkpt lat="45.6427125" lon="9.4171903"><ele>229.0</ele><time>2026-04-09T15:00:54.541Z</time></trkpt><trkpt lat="45.6426434" lon="9.4171378"><ele>229.0</ele><time>2026-04-09T15:00:55.541Z</time></trkpt><trkpt lat="45.6425702" lon="9.4170998"><ele>229.0</ele><time>2026-04-09T15:00:56.54Z</time></trkpt><trkpt lat="45.6425045" lon="9.4170684"><ele>228.99999999999997</ele><time>2026-04-09T15:00:57.54Z</time></trkpt><trkpt lat="45.6424233" lon="9.4170171"><ele>229.0</ele><time>2026-04-09T15:00:58.541Z</time></trkpt><trkpt lat="45.6423628" lon="9.4169814"><ele>228.99999999999997</ele><time>2026-04-09T15:00:59.54Z</time></trkpt><trkpt lat="45.6423059" lon="9.4169357"><ele>229.0</ele><time>2026-04-09T15:01:00.541Z</time></trkpt><trkpt lat="45.6422262" lon="9.4168972"><ele>229.0</ele><time>2026-04-09T15:01:01.541Z</time></trkpt><trkpt lat="45.6421537" lon="9.4168484"><ele>229.0</ele><time>2026-04-09T15:01:02.541Z</time></trkpt><trkpt lat="45.6420893" lon="9.4168032"><ele>228.99999999999997</ele><time>2026-04-09T15:01:03.541Z</time></trkpt><trkpt lat="45.6420247" lon="9.4167434"><ele>229.0</ele><time>2026-04-09T15:01:04.541Z</time></trkpt><trkpt lat="45.6418972" lon="9.4166604"><ele>229.0</ele><time>2026-04-09T15:01:06.541Z</time></trkpt><trkpt lat="45.6418365" lon="9.4166033"><ele>229.0</ele><time>2026-04-09T15:01:07.541Z</time></trkpt><trkpt lat="45.6417615" lon="9.4165539"><ele>229.0</ele><time>2026-04-09T15:01:08.541Z</time></trkpt><trkpt lat="45.6416971" lon="9.4165218"><ele>229.0</ele><time>2026-04-09T15:01:09.541Z</time></trkpt><trkpt lat="45.641632" lon="9.4164837"><ele>229.0</ele><time>2026-04-09T15:01:10.541Z</time></trkpt><trkpt lat="45.6415685" lon="9.4164177"><ele>229.0</ele><time>2026-04-09T15:01:11.541Z</time></trkpt><trkpt lat="45.6415007" lon="9.41637"><ele>229.0</ele><time>2026-04-09T15:01:12.54Z</time></trkpt><trkpt lat="45.6414375" lon="9.4163289"><ele>229.0</ele><time>2026-04-09T15:01:13.541Z</time></trkpt><trkpt lat="45.6413275" lon="9.4162522"><ele>228.99999999999997</ele><time>2026-04-09T15:01:15.541Z</time></trkpt><trkpt lat="45.6412625" lon="9.4162565"><ele>228.99999999999997</ele><time>2026-04-09T15:01:16.541Z</time></trkpt><trkpt lat="45.6412219" lon="9.4163831"><ele>229.0</ele><time>2026-04-09T15:01:18.541Z</time></trkpt><trkpt lat="45.6411852" lon="9.4164649"><ele>229.0</ele><time>2026-04-09T15:01:19.54Z</time></trkpt><trkpt lat="45.6411429" lon="9.4166141"><ele>229.0</ele><time>2026-04-09T15:01:21.541Z</time></trkpt><trkpt lat="45.6411074" lon="9.4167705"><ele>228.99999999999997</ele><time>2026-04-09T15:01:23.54Z</time></trkpt><trkpt lat="45.6410619" lon="9.416917"><ele>228.99999999999997</ele><time>2026-04-09T15:01:25.54Z</time></trkpt><trkpt lat="45.6410383" lon="9.417009"><ele>229.0</ele><time>2026-04-09T15:01:26.54Z</time></trkpt><trkpt lat="45.6409884" lon="9.4171756"><ele>229.0</ele><time>2026-04-09T15:01:28.54Z</time></trkpt><trkpt lat="45.6409384" lon="9.4173316"><ele>229.0</ele><time>2026-04-09T15:01:30.541Z</time></trkpt><trkpt lat="45.6408736" lon="9.4174851"><ele>229.0</ele><time>2026-04-09T15:01:32.54Z</time></trkpt><trkpt lat="45.6408235" lon="9.4176496"><ele>229.0</ele><time>2026-04-09T15:01:34.541Z</time></trkpt><trkpt lat="45.6407943" lon="9.417736"><ele>229.0</ele><time>2026-04-09T15:01:35.541Z</time></trkpt><trkpt lat="45.6407121" lon="9.4178878"><ele>229.0</ele><time>2026-04-09T15:01:37.541Z</time></trkpt><trkpt lat="45.6406267" lon="9.4180247"><ele>228.99999999999997</ele><time>2026-04-09T15:01:39.54Z</time></trkpt><trkpt lat="45.6405736" lon="9.4180752"><ele>228.99999999999997</ele><time>2026-04-09T15:01:40.541Z</time></trkpt><trkpt lat="45.6404711" lon="9.4181608"><ele>229.0</ele><time>2026-04-09T15:01:42.541Z</time></trkpt><trkpt lat="45.640406" lon="9.4182016"><ele>229.0</ele><time>2026-04-09T15:01:43.541Z</time></trkpt><trkpt lat="45.6402828" lon="9.4182512"><ele>229.0</ele><time>2026-04-09T15:01:45.54Z</time></trkpt><trkpt lat="45.6402172" lon="9.4182619"><ele>229.0</ele><time>2026-04-09T15:01:46.541Z</time></trkpt><trkpt lat="45.640144" lon="9.4182759"><ele>229.0</ele><time>2026-04-09T15:01:47.541Z</time></trkpt><trkpt lat="45.6400747" lon="9.4182848"><ele>229.0</ele><time>2026-04-09T15:01:48.54Z</time></trkpt><trkpt lat="45.6399951" lon="9.4182754"><ele>229.0</ele><time>2026-04-09T15:01:49.54Z</time></trkpt><trkpt lat="45.6399256" lon="9.4182673"><ele>229.0</ele><time>2026-04-09T15:01:50.541Z</time></trkpt><trkpt lat="45.6398489" lon="9.4182476"><ele>229.0</ele><time>2026-04-09T15:01:51.54Z</time></trkpt><trkpt lat="45.6397778" lon="9.4182348"><ele>229.0</ele><time>2026-04-09T15:01:52.54Z</time></trkpt><trkpt lat="45.6397001" lon="9.4182236"><ele>229.0</ele><time>2026-04-09T15:01:53.54Z</time></trkpt><trkpt lat="45.6396312" lon="9.4182209"><ele>229.0</ele><time>2026-04-09T15:01:54.541Z</time></trkpt><trkpt lat="45.6395538" lon="9.4182171"><ele>229.0</ele><time>2026-04-09T15:01:55.541Z</time></trkpt><trkpt lat="45.6394857" lon="9.4182009"><ele>229.0</ele><time>2026-04-09T15:01:56.541Z</time></trkpt><trkpt lat="45.6394114" lon="9.4181795"><ele>229.0</ele><time>2026-04-09T15:01:57.541Z</time></trkpt><trkpt lat="45.6393407" lon="9.4181636"><ele>229.0</ele><time>2026-04-09T15:01:58.54Z</time></trkpt><trkpt lat="45.6392615" lon="9.4181469"><ele>228.71428571428572</ele><time>2026-04-09T15:01:59.541Z</time></trkpt><trkpt lat="45.6391937" lon="9.4181352"><ele>228.42857142857144</ele><time>2026-04-09T15:02:00.54Z</time></trkpt><trkpt lat="45.6391162" lon="9.41811"><ele>228.14285714285717</ele><time>2026-04-09T15:02:01.54Z</time></trkpt><trkpt lat="45.6390438" lon="9.4180942"><ele>227.85714285714286</ele><time>2026-04-09T15:02:02.541Z</time></trkpt><trkpt lat="45.6389719" lon="9.4180894"><ele>227.5714285714286</ele><time>2026-04-09T15:02:03.54Z</time></trkpt><trkpt lat="45.6389057" lon="9.4180779"><ele>227.2857142857143</ele><time>2026-04-09T15:02:04.541Z</time></trkpt><trkpt lat="45.638835" lon="9.418057"><ele>227.0</ele><time>2026-04-09T15:02:05.54Z</time></trkpt><trkpt lat="45.6387714" lon="9.4180411"><ele>227.00000000000003</ele><time>2026-04-09T15:02:06.541Z</time></trkpt><trkpt lat="45.638705" lon="9.4180317"><ele>227.0</ele><time>2026-04-09T15:02:07.541Z</time></trkpt><trkpt lat="45.6386162" lon="9.4179841"><ele>227.0</ele><time>2026-04-09T15:02:09.541Z</time></trkpt><trkpt lat="45.6385399" lon="9.4179779"><ele>227.0</ele><time>2026-04-09T15:02:11.541Z</time></trkpt><trkpt lat="45.6384628" lon="9.4180443"><ele>227.00000000000003</ele><time>2026-04-09T15:02:13.54Z</time></trkpt><trkpt lat="45.6383593" lon="9.418102"><ele>227.0</ele><time>2026-04-09T15:02:15.54Z</time></trkpt><trkpt lat="45.6382953" lon="9.4181219"><ele>226.50000000000003</ele><time>2026-04-09T15:02:16.541Z</time></trkpt><trkpt lat="45.6381863" lon="9.4181269"><ele>226.0</ele><time>2026-04-09T15:02:18.541Z</time></trkpt><trkpt lat="45.6381217" lon="9.4181281"><ele>225.5</ele><time>2026-04-09T15:02:19.54Z</time></trkpt><trkpt lat="45.6380526" lon="9.4181183"><ele>225.0</ele><time>2026-04-09T15:02:20.541Z</time></trkpt><trkpt lat="45.6379808" lon="9.4181018"><ele>224.50000000000003</ele><time>2026-04-09T15:02:21.54Z</time></trkpt><trkpt lat="45.6379091" lon="9.4180853"><ele>224.0</ele><time>2026-04-09T15:02:22.541Z</time></trkpt><trkpt lat="45.637782" lon="9.4180403"><ele>224.00000000000003</ele><time>2026-04-09T15:02:24.541Z</time></trkpt><trkpt lat="45.6377123" lon="9.4180273"><ele>224.0</ele><time>2026-04-09T15:02:25.541Z</time></trkpt><trkpt lat="45.6376471" lon="9.4180048"><ele>224.0</ele><time>2026-04-09T15:02:26.541Z</time></trkpt><trkpt lat="45.6375804" lon="9.4179892"><ele>224.0</ele><time>2026-04-09T15:02:27.541Z</time></trkpt><trkpt lat="45.6375096" lon="9.41797"><ele>224.00000000000003</ele><time>2026-04-09T15:02:28.541Z</time></trkpt><trkpt lat="45.6373832" lon="9.4179324"><ele>224.0</ele><time>2026-04-09T15:02:30.541Z</time></trkpt><trkpt lat="45.6373201" lon="9.4179232"><ele>224.0</ele><time>2026-04-09T15:02:31.541Z</time></trkpt><trkpt lat="45.6372542" lon="9.4178953"><ele>223.99999999999997</ele><time>2026-04-09T15:02:32.541Z</time></trkpt><trkpt lat="45.63719" lon="9.4178919"><ele>223.99999999999997</ele><time>2026-04-09T15:02:33.541Z</time></trkpt><trkpt lat="45.6370724" lon="9.4178831"><ele>224.0</ele><time>2026-04-09T15:02:35.541Z</time></trkpt><trkpt lat="45.6369537" lon="9.4178464"><ele>224.0</ele><time>2026-04-09T15:02:37.54Z</time></trkpt><trkpt lat="45.6368339" lon="9.4177788"><ele>223.79999999999998</ele><time>2026-04-09T15:02:39.541Z</time></trkpt><trkpt lat="45.6367688" lon="9.4177504"><ele>223.59999999999997</ele><time>2026-04-09T15:02:40.54Z</time></trkpt><trkpt lat="45.636652" lon="9.4176912"><ele>223.4</ele><time>2026-04-09T15:02:42.54Z</time></trkpt><trkpt lat="45.6365907" lon="9.4176599"><ele>223.2</ele><time>2026-04-09T15:02:43.541Z</time></trkpt><trkpt lat="45.6364724" lon="9.4175952"><ele>223.0</ele><time>2026-04-09T15:02:45.54Z</time></trkpt><trkpt lat="45.636353" lon="9.417561"><ele>223.0</ele><time>2026-04-09T15:02:47.54Z</time></trkpt><trkpt lat="45.6362615" lon="9.417586"><ele>223.0</ele><time>2026-04-09T15:02:49.541Z</time></trkpt><trkpt lat="45.6362107" lon="9.4176967"><ele>223.0</ele><time>2026-04-09T15:02:51.541Z</time></trkpt><trkpt lat="45.6361596" lon="9.4178289"><ele>223.0</ele><time>2026-04-09T15:02:53.541Z</time></trkpt><trkpt lat="45.6361045" lon="9.4179649"><ele>223.0</ele><time>2026-04-09T15:02:55.541Z</time></trkpt><trkpt lat="45.6360438" lon="9.4181208"><ele>223.5</ele><time>2026-04-09T15:02:57.54Z</time></trkpt><trkpt lat="45.6359749" lon="9.4182619"><ele>224.0</ele><time>2026-04-09T15:02:59.54Z</time></trkpt><trkpt lat="45.6359182" lon="9.4184043"><ele>224.5</ele><time>2026-04-09T15:03:01.541Z</time></trkpt><trkpt lat="45.6358543" lon="9.4185505"><ele>225.0</ele><time>2026-04-09T15:03:03.541Z</time></trkpt><trkpt lat="45.6357877" lon="9.418652"><ele>225.0</ele><time>2026-04-09T15:03:05.54Z</time></trkpt><trkpt lat="45.6357528" lon="9.4187617"><ele>225.0</ele><time>2026-04-09T15:03:07.54Z</time></trkpt><trkpt lat="45.6357179" lon="9.4188737"><ele>225.0</ele><time>2026-04-09T15:03:09.54Z</time></trkpt><trkpt lat="45.6356881" lon="9.4189812"><ele>225.0</ele><time>2026-04-09T15:03:11.541Z</time></trkpt><trkpt lat="45.6356261" lon="9.4190803"><ele>225.0</ele><time>2026-04-09T15:03:13.541Z</time></trkpt><trkpt lat="45.6355803" lon="9.4191775"><ele>225.0</ele><time>2026-04-09T15:03:15.541Z</time></trkpt><trkpt lat="45.6355609" lon="9.4192808"><ele>225.33333333333334</ele><time>2026-04-09T15:03:17.54Z</time></trkpt><trkpt lat="45.6355331" lon="9.419398"><ele>225.66666666666669</ele><time>2026-04-09T15:03:20.541Z</time></trkpt><trkpt lat="45.6354634" lon="9.4194103"><ele>226.0</ele><time>2026-04-09T15:03:22.54Z</time></trkpt><trkpt lat="45.6353674" lon="9.4193486"><ele>226.33333333333334</ele><time>2026-04-09T15:03:24.541Z</time></trkpt><trkpt lat="45.6352613" lon="9.4192849"><ele>226.66666666666669</ele><time>2026-04-09T15:03:26.54Z</time></trkpt><trkpt lat="45.6352001" lon="9.4192525"><ele>227.0</ele><time>2026-04-09T15:03:27.541Z</time></trkpt><trkpt lat="45.6351393" lon="9.4192209"><ele>227.33333333333334</ele><time>2026-04-09T15:03:28.541Z</time></trkpt><trkpt lat="45.6350749" lon="9.4191878"><ele>227.66666666666669</ele><time>2026-04-09T15:03:29.541Z</time></trkpt><trkpt lat="45.6350102" lon="9.4191527"><ele>228.0</ele><time>2026-04-09T15:03:30.541Z</time></trkpt><trkpt lat="45.6349255" lon="9.4191132"><ele>228.33333333333331</ele><time>2026-04-09T15:03:31.54Z</time></trkpt><trkpt lat="45.634849" lon="9.4190824"><ele>228.66666666666666</ele><time>2026-04-09T15:03:32.541Z</time></trkpt><trkpt lat="45.6347281" lon="9.4190154"><ele>229.0</ele><time>2026-04-09T15:03:34.541Z</time></trkpt><trkpt lat="45.6346652" lon="9.418964"><ele>229.0</ele><time>2026-04-09T15:03:35.541Z</time></trkpt><trkpt lat="45.634604" lon="9.4189197"><ele>229.0</ele><time>2026-04-09T15:03:36.541Z</time></trkpt><trkpt lat="45.6345393" lon="9.4188809"><ele>229.0</ele><time>2026-04-09T15:03:37.541Z</time></trkpt><trkpt lat="45.6344744" lon="9.4188428"><ele>229.0</ele><time>2026-04-09T15:03:38.54Z</time></trkpt><trkpt lat="45.6344093" lon="9.4188236"><ele>229.0</ele><time>2026-04-09T15:03:39.54Z</time></trkpt><trkpt lat="45.6343454" lon="9.4187901"><ele>229.0</ele><time>2026-04-09T15:03:40.541Z</time></trkpt><trkpt lat="45.6342712" lon="9.4187774"><ele>229.0</ele><time>2026-04-09T15:03:41.541Z</time></trkpt><trkpt lat="45.634207" lon="9.4187644"><ele>228.16666666666666</ele><time>2026-04-09T15:03:42.54Z</time></trkpt><trkpt lat="45.6341408" lon="9.4187247"><ele>227.33333333333331</ele><time>2026-04-09T15:03:43.541Z</time></trkpt><trkpt lat="45.6340745" lon="9.418715"><ele>226.5</ele><time>2026-04-09T15:03:44.541Z</time></trkpt><trkpt lat="45.6340002" lon="9.4186996"><ele>225.66666666666669</ele><time>2026-04-09T15:03:45.541Z</time></trkpt><trkpt lat="45.6339353" lon="9.4186794"><ele>224.83333333333334</ele><time>2026-04-09T15:03:46.54Z</time></trkpt><trkpt lat="45.6338683" lon="9.4186598"><ele>224.0</ele><time>2026-04-09T15:03:47.541Z</time></trkpt><trkpt lat="45.6337441" lon="9.4186261"><ele>224.0</ele><time>2026-04-09T15:03:49.541Z</time></trkpt><trkpt lat="45.633673" lon="9.418621"><ele>224.0</ele><time>2026-04-09T15:03:50.541Z</time></trkpt><trkpt lat="45.6336086" lon="9.4186043"><ele>224.0</ele><time>2026-04-09T15:03:51.541Z</time></trkpt><trkpt lat="45.633543" lon="9.418591"><ele>224.0</ele><time>2026-04-09T15:03:52.541Z</time></trkpt><trkpt lat="45.6334734" lon="9.4185638"><ele>224.0</ele><time>2026-04-09T15:03:53.54Z</time></trkpt><trkpt lat="45.6333993" lon="9.4185417"><ele>224.0</ele><time>2026-04-09T15:03:54.54Z</time></trkpt><trkpt lat="45.6333235" lon="9.4185327"><ele>224.0</ele><time>2026-04-09T15:03:55.54Z</time></trkpt><trkpt lat="45.6332528" lon="9.4185075"><ele>224.0</ele><time>2026-04-09T15:03:56.541Z</time></trkpt><trkpt lat="45.6331829" lon="9.418507"><ele>224.0</ele><time>2026-04-09T15:03:57.541Z</time></trkpt><trkpt lat="45.6331134" lon="9.4184993"><ele>224.0</ele><time>2026-04-09T15:03:58.541Z</time></trkpt><trkpt lat="45.6330345" lon="9.4185001"><ele>224.0</ele><time>2026-04-09T15:03:59.541Z</time></trkpt><trkpt lat="45.6329663" lon="9.418489"><ele>224.0</ele><time>2026-04-09T15:04:00.54Z</time></trkpt><trkpt lat="45.6328937" lon="9.418473"><ele>224.0</ele><time>2026-04-09T15:04:01.54Z</time></trkpt><trkpt lat="45.6328194" lon="9.4184563"><ele>224.0</ele><time>2026-04-09T15:04:02.541Z</time></trkpt><trkpt lat="45.6327484" lon="9.4184477"><ele>224.0</ele><time>2026-04-09T15:04:03.541Z</time></trkpt><trkpt lat="45.6326807" lon="9.4184251"><ele>224.0</ele><time>2026-04-09T15:04:04.54Z</time></trkpt><trkpt lat="45.6326089" lon="9.4184079"><ele>224.0</ele><time>2026-04-09T15:04:05.54Z</time></trkpt><trkpt lat="45.6325454" lon="9.4184032"><ele>224.0</ele><time>2026-04-09T15:04:06.54Z</time></trkpt><trkpt lat="45.6324702" lon="9.4183898"><ele>224.0</ele><time>2026-04-09T15:04:07.541Z</time></trkpt><trkpt lat="45.6323823" lon="9.4183671"><ele>224.0</ele><time>2026-04-09T15:04:08.541Z</time></trkpt><trkpt lat="45.6323177" lon="9.4183533"><ele>224.0</ele><time>2026-04-09T15:04:09.54Z</time></trkpt><trkpt lat="45.6322413" lon="9.41833"><ele>224.00000000000003</ele><time>2026-04-09T15:04:10.541Z</time></trkpt><trkpt lat="45.6321662" lon="9.4183118"><ele>224.0</ele><time>2026-04-09T15:04:11.541Z</time></trkpt><trkpt lat="45.6320886" lon="9.4182978"><ele>224.0</ele><time>2026-04-09T15:04:12.54Z</time></trkpt><trkpt lat="45.6320219" lon="9.4182614"><ele>224.0</ele><time>2026-04-09T15:04:13.541Z</time></trkpt><trkpt lat="45.6319483" lon="9.4182505"><ele>224.00000000000003</ele><time>2026-04-09T15:04:14.54Z</time></trkpt><trkpt lat="45.6318782" lon="9.4182427"><ele>224.0</ele><time>2026-04-09T15:04:15.541Z</time></trkpt><trkpt lat="45.6317498" lon="9.4182197"><ele>223.79999999999998</ele><time>2026-04-09T15:04:17.541Z</time></trkpt><trkpt lat="45.6316839" lon="9.4182108"><ele>223.59999999999997</ele><time>2026-04-09T15:04:18.541Z</time></trkpt><trkpt lat="45.6315885" lon="9.41817"><ele>223.4</ele><time>2026-04-09T15:04:20.541Z</time></trkpt><trkpt lat="45.6315185" lon="9.4181629"><ele>223.2</ele><time>2026-04-09T15:04:21.541Z</time></trkpt><trkpt lat="45.6314091" lon="9.4181475"><ele>223.0</ele><time>2026-04-09T15:04:23.54Z</time></trkpt><trkpt lat="45.6312881" lon="9.4181372"><ele>223.0</ele><time>2026-04-09T15:04:25.541Z</time></trkpt><trkpt lat="45.6311607" lon="9.4181211"><ele>223.0</ele><time>2026-04-09T15:04:27.541Z</time></trkpt><trkpt lat="45.6310678" lon="9.4181314"><ele>223.0</ele><time>2026-04-09T15:04:28.541Z</time></trkpt><trkpt lat="45.6309509" lon="9.418088"><ele>223.0</ele><time>2026-04-09T15:04:30.54Z</time></trkpt><trkpt lat="45.6308278" lon="9.41809"><ele>223.28571428571428</ele><time>2026-04-09T15:04:32.541Z</time></trkpt><trkpt lat="45.6307624" lon="9.4180754"><ele>223.57142857142856</ele><time>2026-04-09T15:04:33.54Z</time></trkpt><trkpt lat="45.6306946" lon="9.418079"><ele>223.8571428571429</ele><time>2026-04-09T15:04:34.541Z</time></trkpt><trkpt lat="45.6306221" lon="9.4180782"><ele>224.14285714285717</ele><time>2026-04-09T15:04:35.54Z</time></trkpt><trkpt lat="45.6305505" lon="9.4180839"><ele>224.42857142857144</ele><time>2026-04-09T15:04:36.541Z</time></trkpt><trkpt lat="45.6304805" lon="9.4180872"><ele>224.71428571428575</ele><time>2026-04-09T15:04:37.541Z</time></trkpt><trkpt lat="45.6304036" lon="9.4181012"><ele>225.00000000000003</ele><time>2026-04-09T15:04:38.541Z</time></trkpt><trkpt lat="45.6303374" lon="9.4181215"><ele>224.33333333333334</ele><time>2026-04-09T15:04:39.541Z</time></trkpt><trkpt lat="45.6302616" lon="9.4181318"><ele>223.66666666666669</ele><time>2026-04-09T15:04:40.54Z</time></trkpt><trkpt lat="45.6301868" lon="9.4181161"><ele>223.0</ele><time>2026-04-09T15:04:41.541Z</time></trkpt><trkpt lat="45.630117" lon="9.4181216"><ele>222.33333333333334</ele><time>2026-04-09T15:04:42.541Z</time></trkpt><trkpt lat="45.6300339" lon="9.4181085"><ele>221.66666666666669</ele><time>2026-04-09T15:04:43.541Z</time></trkpt><trkpt lat="45.6299558" lon="9.4181072"><ele>221.0</ele><time>2026-04-09T15:04:44.541Z</time></trkpt><trkpt lat="45.629866" lon="9.4180901"><ele>221.00000000000003</ele><time>2026-04-09T15:04:45.54Z</time></trkpt><trkpt lat="45.6297903" lon="9.4180771"><ele>221.0</ele><time>2026-04-09T15:04:46.54Z</time></trkpt><trkpt lat="45.6297253" lon="9.4180829"><ele>221.0</ele><time>2026-04-09T15:04:47.54Z</time></trkpt><trkpt lat="45.6296609" lon="9.4181268"><ele>221.0</ele><time>2026-04-09T15:04:48.54Z</time></trkpt><trkpt lat="45.6296018" lon="9.4181768"><ele>221.0</ele><time>2026-04-09T15:04:49.541Z</time></trkpt><trkpt lat="45.6295397" lon="9.418215"><ele>221.00000000000003</ele><time>2026-04-09T15:04:50.541Z</time></trkpt><trkpt lat="45.6294674" lon="9.4182489"><ele>221.0</ele><time>2026-04-09T15:04:51.54Z</time></trkpt><trkpt lat="45.6294046" lon="9.4182654"><ele>220.60000000000002</ele><time>2026-04-09T15:04:52.541Z</time></trkpt><trkpt lat="45.6293137" lon="9.4182804"><ele>220.20000000000002</ele><time>2026-04-09T15:04:53.541Z</time></trkpt><trkpt lat="45.6292499" lon="9.4182941"><ele>219.79999999999998</ele><time>2026-04-09T15:04:54.541Z</time></trkpt><trkpt lat="45.629112" lon="9.4183065"><ele>219.39999999999998</ele><time>2026-04-09T15:04:56.541Z</time></trkpt><trkpt lat="45.6290353" lon="9.4183229"><ele>219.0</ele><time>2026-04-09T15:04:57.54Z</time></trkpt><trkpt lat="45.6289495" lon="9.418341"><ele>219.0</ele><time>2026-04-09T15:04:58.54Z</time></trkpt><trkpt lat="45.6288765" lon="9.4183506"><ele>219.0</ele><time>2026-04-09T15:04:59.541Z</time></trkpt><trkpt lat="45.6288083" lon="9.4183618"><ele>219.0</ele><time>2026-04-09T15:05:00.54Z</time></trkpt><trkpt lat="45.6287249" lon="9.4183697"><ele>219.0</ele><time>2026-04-09T15:05:01.541Z</time></trkpt><trkpt lat="45.6286437" lon="9.4183823"><ele>219.0</ele><time>2026-04-09T15:05:02.541Z</time></trkpt><trkpt lat="45.6285654" lon="9.4183905"><ele>219.0</ele><time>2026-04-09T15:05:03.541Z</time></trkpt><trkpt lat="45.6284854" lon="9.4183959"><ele>218.33333333333334</ele><time>2026-04-09T15:05:04.541Z</time></trkpt><trkpt lat="45.6284008" lon="9.4183989"><ele>217.66666666666669</ele><time>2026-04-09T15:05:05.541Z</time></trkpt><trkpt lat="45.6283177" lon="9.4183907"><ele>217.0</ele><time>2026-04-09T15:05:06.541Z</time></trkpt><trkpt lat="45.6282431" lon="9.4183766"><ele>216.33333333333334</ele><time>2026-04-09T15:05:07.54Z</time></trkpt><trkpt lat="45.628166" lon="9.4183673"><ele>215.66666666666669</ele><time>2026-04-09T15:05:08.54Z</time></trkpt><trkpt lat="45.6280852" lon="9.4183591"><ele>215.0</ele><time>2026-04-09T15:05:09.541Z</time></trkpt><trkpt lat="45.6280069" lon="9.4183587"><ele>215.00000000000003</ele><time>2026-04-09T15:05:10.541Z</time></trkpt><trkpt lat="45.6279323" lon="9.4183536"><ele>215.0</ele><time>2026-04-09T15:05:11.541Z</time></trkpt><trkpt lat="45.6278453" lon="9.4183581"><ele>215.0</ele><time>2026-04-09T15:05:12.541Z</time></trkpt><trkpt lat="45.6277676" lon="9.4183603"><ele>215.0</ele><time>2026-04-09T15:05:13.541Z</time></trkpt><trkpt lat="45.6276869" lon="9.4183449"><ele>215.00000000000003</ele><time>2026-04-09T15:05:14.541Z</time></trkpt><trkpt lat="45.6276108" lon="9.4183423"><ele>215.0</ele><time>2026-04-09T15:05:15.541Z</time></trkpt><trkpt lat="45.6275312" lon="9.4183416"><ele>215.00000000000003</ele><time>2026-04-09T15:05:16.54Z</time></trkpt><trkpt lat="45.6274406" lon="9.4183338"><ele>215.0</ele><time>2026-04-09T15:05:17.541Z</time></trkpt><trkpt lat="45.6273675" lon="9.4183264"><ele>215.0</ele><time>2026-04-09T15:05:18.541Z</time></trkpt><trkpt lat="45.627294" lon="9.4183113"><ele>215.0</ele><time>2026-04-09T15:05:19.54Z</time></trkpt><trkpt lat="45.6272123" lon="9.41831"><ele>215.00000000000003</ele><time>2026-04-09T15:05:20.541Z</time></trkpt><trkpt lat="45.6271394" lon="9.418303"><ele>215.0</ele><time>2026-04-09T15:05:21.541Z</time></trkpt><trkpt lat="45.6270541" lon="9.4182986"><ele>215.16666666666669</ele><time>2026-04-09T15:05:22.54Z</time></trkpt><trkpt lat="45.6269714" lon="9.4182958"><ele>215.33333333333334</ele><time>2026-04-09T15:05:23.54Z</time></trkpt><trkpt lat="45.6268904" lon="9.4182992"><ele>215.5</ele><time>2026-04-09T15:05:24.541Z</time></trkpt><trkpt lat="45.6268079" lon="9.4182974"><ele>215.66666666666669</ele><time>2026-04-09T15:05:25.541Z</time></trkpt><trkpt lat="45.6267242" lon="9.4182884"><ele>215.83333333333334</ele><time>2026-04-09T15:05:26.541Z</time></trkpt><trkpt lat="45.6266419" lon="9.4182667"><ele>216.0</ele><time>2026-04-09T15:05:27.541Z</time></trkpt><trkpt lat="45.6265614" lon="9.4182513"><ele>216.0</ele><time>2026-04-09T15:05:28.541Z</time></trkpt><trkpt lat="45.6264845" lon="9.4182271"><ele>216.0</ele><time>2026-04-09T15:05:29.541Z</time></trkpt><trkpt lat="45.6263997" lon="9.418221"><ele>216.0</ele><time>2026-04-09T15:05:30.541Z</time></trkpt><trkpt lat="45.6263145" lon="9.4182125"><ele>216.0</ele><time>2026-04-09T15:05:31.541Z</time></trkpt><trkpt lat="45.6262284" lon="9.4181997"><ele>216.0</ele><time>2026-04-09T15:05:32.54Z</time></trkpt><trkpt lat="45.6261443" lon="9.418177"><ele>216.0</ele><time>2026-04-09T15:05:33.54Z</time></trkpt><trkpt lat="45.6260688" lon="9.4181574"><ele>215.66666666666666</ele><time>2026-04-09T15:05:34.54Z</time></trkpt><trkpt lat="45.6259875" lon="9.4181507"><ele>215.33333333333331</ele><time>2026-04-09T15:05:35.541Z</time></trkpt><trkpt lat="45.6258997" lon="9.4181405"><ele>215.0</ele><time>2026-04-09T15:05:36.541Z</time></trkpt><trkpt lat="45.6258182" lon="9.4181351"><ele>214.66666666666666</ele><time>2026-04-09T15:05:37.54Z</time></trkpt><trkpt lat="45.6257443" lon="9.4181207"><ele>214.33333333333331</ele><time>2026-04-09T15:05:38.541Z</time></trkpt><trkpt lat="45.6256645" lon="9.4181213"><ele>214.0</ele><time>2026-04-09T15:05:39.54Z</time></trkpt><trkpt lat="45.6255901" lon="9.4181127"><ele>213.99999999999997</ele><time>2026-04-09T15:05:40.54Z</time></trkpt><trkpt lat="45.625514" lon="9.418091"><ele>214.0</ele><time>2026-04-09T15:05:41.54Z</time></trkpt><trkpt lat="45.6254375" lon="9.4180846"><ele>214.0</ele><time>2026-04-09T15:05:42.541Z</time></trkpt><trkpt lat="45.6253622" lon="9.4180723"><ele>214.0</ele><time>2026-04-09T15:05:43.54Z</time></trkpt><trkpt lat="45.6253004" lon="9.418037"><ele>213.99999999999997</ele><time>2026-04-09T15:05:44.541Z</time></trkpt><trkpt lat="45.6252314" lon="9.4179778"><ele>214.0</ele><time>2026-04-09T15:05:45.541Z</time></trkpt><trkpt lat="45.625145" lon="9.4178626"><ele>213.79999999999998</ele><time>2026-04-09T15:05:47.541Z</time></trkpt><trkpt lat="45.6250664" lon="9.4177865"><ele>213.59999999999997</ele><time>2026-04-09T15:05:49.541Z</time></trkpt><trkpt lat="45.6249876" lon="9.4177386"><ele>213.4</ele><time>2026-04-09T15:06:00.541Z</time></trkpt><trkpt lat="45.6248998" lon="9.417765"><ele>213.2</ele><time>2026-04-09T15:06:02.54Z</time></trkpt><trkpt lat="45.6248328" lon="9.4178253"><ele>213.0</ele><time>2026-04-09T15:06:04.541Z</time></trkpt><trkpt lat="45.6247513" lon="9.4179276"><ele>213.0</ele><time>2026-04-09T15:06:06.541Z</time></trkpt><trkpt lat="45.6246694" lon="9.4179959"><ele>213.0</ele><time>2026-04-09T15:06:08.541Z</time></trkpt><trkpt lat="45.6245626" lon="9.4179798"><ele>213.0</ele><time>2026-04-09T15:06:10.541Z</time></trkpt><trkpt lat="45.6244527" lon="9.4179655"><ele>213.0</ele><time>2026-04-09T15:06:12.54Z</time></trkpt><trkpt lat="45.6243373" lon="9.417964"><ele>213.0</ele><time>2026-04-09T15:06:14.54Z</time></trkpt><trkpt lat="45.6242654" lon="9.4179551"><ele>213.60000000000002</ele><time>2026-04-09T15:06:15.54Z</time></trkpt><trkpt lat="45.6241471" lon="9.4179072"><ele>214.20000000000002</ele><time>2026-04-09T15:06:17.54Z</time></trkpt><trkpt lat="45.6240289" lon="9.4178615"><ele>214.8</ele><time>2026-04-09T15:06:19.54Z</time></trkpt><trkpt lat="45.623963" lon="9.4178489"><ele>215.4</ele><time>2026-04-09T15:06:20.541Z</time></trkpt><trkpt lat="45.6238432" lon="9.4178371"><ele>216.0</ele><time>2026-04-09T15:06:22.541Z</time></trkpt><trkpt lat="45.6237689" lon="9.4178209"><ele>216.0</ele><time>2026-04-09T15:06:23.541Z</time></trkpt><trkpt lat="45.6237051" lon="9.4178154"><ele>216.00000000000003</ele><time>2026-04-09T15:06:24.541Z</time></trkpt><trkpt lat="45.6236342" lon="9.4177939"><ele>216.00000000000003</ele><time>2026-04-09T15:06:25.541Z</time></trkpt><trkpt lat="45.6235028" lon="9.4177679"><ele>216.0</ele><time>2026-04-09T15:06:27.541Z</time></trkpt><trkpt lat="45.623381" lon="9.4177742"><ele>216.0</ele><time>2026-04-09T15:06:29.54Z</time></trkpt><trkpt lat="45.6232603" lon="9.4177523"><ele>215.83333333333334</ele><time>2026-04-09T15:06:31.54Z</time></trkpt><trkpt lat="45.6231526" lon="9.4177622"><ele>215.66666666666669</ele><time>2026-04-09T15:06:33.541Z</time></trkpt><trkpt lat="45.6230858" lon="9.4177616"><ele>215.5</ele><time>2026-04-09T15:06:34.54Z</time></trkpt><trkpt lat="45.6229724" lon="9.4177557"><ele>215.33333333333334</ele><time>2026-04-09T15:06:36.54Z</time></trkpt><trkpt lat="45.6229081" lon="9.4177457"><ele>215.16666666666669</ele><time>2026-04-09T15:06:37.54Z</time></trkpt><trkpt lat="45.6228405" lon="9.4177278"><ele>215.0</ele><time>2026-04-09T15:06:38.54Z</time></trkpt><trkpt lat="45.6227346" lon="9.4176979"><ele>214.8</ele><time>2026-04-09T15:06:40.541Z</time></trkpt><trkpt lat="45.6226598" lon="9.417672"><ele>214.6</ele><time>2026-04-09T15:06:41.541Z</time></trkpt><trkpt lat="45.6225273" lon="9.4176865"><ele>214.39999999999998</ele><time>2026-04-09T15:06:43.54Z</time></trkpt><trkpt lat="45.6224739" lon="9.41775"><ele>214.2</ele><time>2026-04-09T15:06:44.54Z</time></trkpt><trkpt lat="45.6224157" lon="9.4178911"><ele>214.0</ele><time>2026-04-09T15:06:46.541Z</time></trkpt><trkpt lat="45.6223206" lon="9.4179927"><ele>214.0</ele><time>2026-04-09T15:06:48.54Z</time></trkpt><trkpt lat="45.6222431" lon="9.4180558"><ele>213.99999999999997</ele><time>2026-04-09T15:06:50.541Z</time></trkpt><trkpt lat="45.6221525" lon="9.4180718"><ele>213.99999999999997</ele><time>2026-04-09T15:06:52.541Z</time></trkpt><trkpt lat="45.6220765" lon="9.4180878"><ele>214.0</ele><time>2026-04-09T15:06:54.54Z</time></trkpt><trkpt lat="45.6219479" lon="9.418068"><ele>214.0</ele><time>2026-04-09T15:06:56.54Z</time></trkpt><trkpt lat="45.6218381" lon="9.4180662"><ele>213.75</ele><time>2026-04-09T15:06:58.54Z</time></trkpt><trkpt lat="45.6216916" lon="9.4180556"><ele>213.5</ele><time>2026-04-09T15:07:00.541Z</time></trkpt><trkpt lat="45.6215831" lon="9.4180568"><ele>213.25</ele><time>2026-04-09T15:07:01.541Z</time></trkpt><trkpt lat="45.6214348" lon="9.4181336"><ele>213.0</ele><time>2026-04-09T15:07:03.541Z</time></trkpt><trkpt lat="45.6213762" lon="9.4181704"><ele>213.0</ele><time>2026-04-09T15:07:04.54Z</time></trkpt><trkpt lat="45.6213072" lon="9.4182089"><ele>213.0</ele><time>2026-04-09T15:07:05.541Z</time></trkpt><trkpt lat="45.6212294" lon="9.4182158"><ele>213.0</ele><time>2026-04-09T15:07:06.54Z</time></trkpt><trkpt lat="45.6211603" lon="9.4182423"><ele>213.0</ele><time>2026-04-09T15:07:07.541Z</time></trkpt><trkpt lat="45.6210941" lon="9.4182524"><ele>213.0</ele><time>2026-04-09T15:07:08.541Z</time></trkpt><trkpt lat="45.6210326" lon="9.4182724"><ele>213.0</ele><time>2026-04-09T15:07:09.54Z</time></trkpt><trkpt lat="45.6209159" lon="9.4183157"><ele>212.8</ele><time>2026-04-09T15:07:11.541Z</time></trkpt><trkpt lat="45.6207974" lon="9.4183498"><ele>212.60000000000002</ele><time>2026-04-09T15:07:13.54Z</time></trkpt><trkpt lat="45.6207633" lon="9.4184318"><ele>212.39999999999998</ele><time>2026-04-09T15:07:15.54Z</time></trkpt><trkpt lat="45.6206964" lon="9.4185553"><ele>212.2</ele><time>2026-04-09T15:07:17.541Z</time></trkpt><trkpt lat="45.6206705" lon="9.4186726"><ele>212.0</ele><time>2026-04-09T15:07:19.541Z</time></trkpt><trkpt lat="45.6206842" lon="9.4188266"><ele>211.6</ele><time>2026-04-09T15:07:21.541Z</time></trkpt><trkpt lat="45.6206861" lon="9.4189749"><ele>211.2</ele><time>2026-04-09T15:07:23.541Z</time></trkpt><trkpt lat="45.6206935" lon="9.4191368"><ele>210.8</ele><time>2026-04-09T15:07:25.54Z</time></trkpt><trkpt lat="45.6207099" lon="9.4192998"><ele>210.4</ele><time>2026-04-09T15:07:27.54Z</time></trkpt><trkpt lat="45.620727" lon="9.4194533"><ele>210.0</ele><time>2026-04-09T15:07:29.541Z</time></trkpt><trkpt lat="45.6207413" lon="9.4196019"><ele>210.0</ele><time>2026-04-09T15:07:31.541Z</time></trkpt><trkpt lat="45.6207353" lon="9.4197093"><ele>210.0</ele><time>2026-04-09T15:07:33.541Z</time></trkpt><trkpt lat="45.620676" lon="9.41974"><ele>210.0</ele><time>2026-04-09T15:07:34.541Z</time></trkpt><trkpt lat="45.6205778" lon="9.419819"><ele>210.0</ele><time>2026-04-09T15:07:36.54Z</time></trkpt><trkpt lat="45.6204581" lon="9.4198013"><ele>210.0</ele><time>2026-04-09T15:07:38.541Z</time></trkpt><trkpt lat="45.620334" lon="9.4197977"><ele>209.6</ele><time>2026-04-09T15:07:40.54Z</time></trkpt><trkpt lat="45.6202047" lon="9.4197988"><ele>209.2</ele><time>2026-04-09T15:07:42.541Z</time></trkpt><trkpt lat="45.6200729" lon="9.4198151"><ele>208.8</ele><time>2026-04-09T15:07:44.541Z</time></trkpt><trkpt lat="45.6200094" lon="9.4198299"><ele>208.4</ele><time>2026-04-09T15:07:45.54Z</time></trkpt><trkpt lat="45.6199273" lon="9.4198359"><ele>208.0</ele><time>2026-04-09T15:07:46.541Z</time></trkpt><trkpt lat="45.6198146" lon="9.4198415"><ele>208.0</ele><time>2026-04-09T15:07:48.54Z</time></trkpt><trkpt lat="45.6197059" lon="9.4198747"><ele>208.0</ele><time>2026-04-09T15:07:50.54Z</time></trkpt><trkpt lat="45.6197014" lon="9.419969"><ele>208.0</ele><time>2026-04-09T15:07:51.541Z</time></trkpt><trkpt lat="45.6196889" lon="9.4200853"><ele>208.0</ele><time>2026-04-09T15:07:53.541Z</time></trkpt><trkpt lat="45.6196608" lon="9.4202248"><ele>208.0</ele><time>2026-04-09T15:07:55.541Z</time></trkpt><trkpt lat="45.6196376" lon="9.4203712"><ele>208.25</ele><time>2026-04-09T15:07:57.541Z</time></trkpt><trkpt lat="45.6196374" lon="9.420522"><ele>208.5</ele><time>2026-04-09T15:07:59.54Z</time></trkpt><trkpt lat="45.6196264" lon="9.4206938"><ele>208.75</ele><time>2026-04-09T15:08:01.541Z</time></trkpt><trkpt lat="45.6196265" lon="9.4208392"><ele>209.0</ele><time>2026-04-09T15:08:03.541Z</time></trkpt><trkpt lat="45.6196223" lon="9.421017"><ele>209.0</ele><time>2026-04-09T15:08:05.541Z</time></trkpt><trkpt lat="45.6196178" lon="9.4211825"><ele>209.0</ele><time>2026-04-09T15:08:07.54Z</time></trkpt><trkpt lat="45.6196128" lon="9.4212855"><ele>209.0</ele><time>2026-04-09T15:08:08.541Z</time></trkpt><trkpt lat="45.6196088" lon="9.4214566"><ele>209.0</ele><time>2026-04-09T15:08:10.54Z</time></trkpt><trkpt lat="45.6196062" lon="9.4215518"><ele>209.0</ele><time>2026-04-09T15:08:11.541Z</time></trkpt><trkpt lat="45.6195847" lon="9.4217349"><ele>209.16666666666669</ele><time>2026-04-09T15:08:13.541Z</time></trkpt><trkpt lat="45.6195782" lon="9.4218267"><ele>209.33333333333334</ele><time>2026-04-09T15:08:14.54Z</time></trkpt><trkpt lat="45.6195749" lon="9.421918"><ele>209.5</ele><time>2026-04-09T15:08:15.54Z</time></trkpt><trkpt lat="45.6195678" lon="9.4220145"><ele>209.66666666666669</ele><time>2026-04-09T15:08:16.54Z</time></trkpt><trkpt lat="45.6195611" lon="9.4221041"><ele>209.83333333333334</ele><time>2026-04-09T15:08:17.541Z</time></trkpt><trkpt lat="45.6195568" lon="9.4222908"><ele>210.0</ele><time>2026-04-09T15:08:19.541Z</time></trkpt><trkpt lat="45.6195526" lon="9.4224611"><ele>210.0</ele><time>2026-04-09T15:08:21.541Z</time></trkpt><trkpt lat="45.6195495" lon="9.4225663"><ele>210.0</ele><time>2026-04-09T15:08:22.541Z</time></trkpt><trkpt lat="45.6195417" lon="9.4227377"><ele>210.0</ele><time>2026-04-09T15:08:24.54Z</time></trkpt><trkpt lat="45.6195399" lon="9.4228934"><ele>210.0</ele><time>2026-04-09T15:08:26.541Z</time></trkpt><trkpt lat="45.6195354" lon="9.4229874"><ele>210.0</ele><time>2026-04-09T15:08:27.541Z</time></trkpt><trkpt lat="45.6195093" lon="9.4231742"><ele>210.0</ele><time>2026-04-09T15:08:29.541Z</time></trkpt><trkpt lat="45.6195052" lon="9.423266"><ele>210.0</ele><time>2026-04-09T15:08:30.541Z</time></trkpt><trkpt lat="45.6195004" lon="9.4233673"><ele>210.0</ele><time>2026-04-09T15:08:31.54Z</time></trkpt><trkpt lat="45.6195019" lon="9.4234664"><ele>210.0</ele><time>2026-04-09T15:08:32.541Z</time></trkpt><trkpt lat="45.619503" lon="9.423588"><ele>210.0</ele><time>2026-04-09T15:08:33.54Z</time></trkpt><trkpt lat="45.6195068" lon="9.4236872"><ele>210.0</ele><time>2026-04-09T15:08:34.541Z</time></trkpt><trkpt lat="45.6195059" lon="9.423786"><ele>210.0</ele><time>2026-04-09T15:08:35.54Z</time></trkpt><trkpt lat="45.6195111" lon="9.4238818"><ele>209.8</ele><time>2026-04-09T15:08:36.54Z</time></trkpt><trkpt lat="45.6195054" lon="9.4239825"><ele>209.6</ele><time>2026-04-09T15:08:37.54Z</time></trkpt><trkpt lat="45.6194884" lon="9.4240945"><ele>209.39999999999998</ele><time>2026-04-09T15:08:38.54Z</time></trkpt><trkpt lat="45.619493" lon="9.4241906"><ele>209.2</ele><time>2026-04-09T15:08:39.541Z</time></trkpt><trkpt lat="45.6194953" lon="9.4243786"><ele>209.0</ele><time>2026-04-09T15:08:41.54Z</time></trkpt><trkpt lat="45.6194931" lon="9.4245452"><ele>209.0</ele><time>2026-04-09T15:08:43.541Z</time></trkpt><trkpt lat="45.6194928" lon="9.4246402"><ele>209.0</ele><time>2026-04-09T15:08:44.54Z</time></trkpt><trkpt lat="45.6194767" lon="9.4248134"><ele>209.0</ele><time>2026-04-09T15:08:46.541Z</time></trkpt><trkpt lat="45.6194664" lon="9.4249923"><ele>209.0</ele><time>2026-04-09T15:08:48.541Z</time></trkpt><trkpt lat="45.6194533" lon="9.4251758"><ele>209.0</ele><time>2026-04-09T15:08:50.54Z</time></trkpt><trkpt lat="45.6194494" lon="9.4252707"><ele>209.00000000000003</ele><time>2026-04-09T15:08:51.54Z</time></trkpt><trkpt lat="45.6194374" lon="9.4253753"><ele>209.0</ele><time>2026-04-09T15:08:52.54Z</time></trkpt><trkpt lat="45.6194285" lon="9.425471"><ele>209.0</ele><time>2026-04-09T15:08:53.54Z</time></trkpt><trkpt lat="45.6194262" lon="9.4255623"><ele>209.0</ele><time>2026-04-09T15:08:54.541Z</time></trkpt><trkpt lat="45.6194234" lon="9.4257279"><ele>209.00000000000003</ele><time>2026-04-09T15:08:56.54Z</time></trkpt><trkpt lat="45.6194185" lon="9.4258964"><ele>209.0</ele><time>2026-04-09T15:08:58.54Z</time></trkpt><trkpt lat="45.6194067" lon="9.4260448"><ele>209.0</ele><time>2026-04-09T15:09:00.541Z</time></trkpt><trkpt lat="45.6193958" lon="9.4262141"><ele>209.0</ele><time>2026-04-09T15:09:02.541Z</time></trkpt><trkpt lat="45.6194055" lon="9.4263931"><ele>209.0</ele><time>2026-04-09T15:09:04.54Z</time></trkpt><trkpt lat="45.6194329" lon="9.42657"><ele>209.0</ele><time>2026-04-09T15:09:06.54Z</time></trkpt><trkpt lat="45.619439" lon="9.4267295"><ele>209.00000000000003</ele><time>2026-04-09T15:09:08.54Z</time></trkpt><trkpt lat="45.6194257" lon="9.4268358"><ele>209.0</ele><time>2026-04-09T15:09:09.541Z</time></trkpt><trkpt lat="45.6194322" lon="9.4269287"><ele>209.0</ele><time>2026-04-09T15:09:10.54Z</time></trkpt><trkpt lat="45.6194426" lon="9.4270238"><ele>209.0</ele><time>2026-04-09T15:09:11.541Z</time></trkpt><trkpt lat="45.6194572" lon="9.4271823"><ele>209.00000000000003</ele><time>2026-04-09T15:09:13.541Z</time></trkpt><trkpt lat="45.6194428" lon="9.4273196"><ele>209.0</ele><time>2026-04-09T15:09:15.54Z</time></trkpt><trkpt lat="45.6194197" lon="9.4274692"><ele>209.00000000000003</ele><time>2026-04-09T15:09:17.541Z</time></trkpt><trkpt lat="45.6194589" lon="9.4275802"><ele>209.0</ele><time>2026-04-09T15:09:19.541Z</time></trkpt><trkpt lat="45.6195112" lon="9.4276677"><ele>209.0</ele><time>2026-04-09T15:09:21.541Z</time></trkpt><trkpt lat="45.6195784" lon="9.4277636"><ele>209.0</ele><time>2026-04-09T15:09:23.541Z</time></trkpt><trkpt lat="45.6196414" lon="9.4278561"><ele>209.00000000000003</ele><time>2026-04-09T15:09:25.54Z</time></trkpt><trkpt lat="45.6197046" lon="9.4279544"><ele>209.0</ele><time>2026-04-09T15:09:27.54Z</time></trkpt><trkpt lat="45.6197764" lon="9.4280614"><ele>208.85714285714286</ele><time>2026-04-09T15:09:29.541Z</time></trkpt><trkpt lat="45.6198313" lon="9.4281828"><ele>208.71428571428572</ele><time>2026-04-09T15:09:31.54Z</time></trkpt><trkpt lat="45.6198714" lon="9.4282595"><ele>208.57142857142856</ele><time>2026-04-09T15:09:32.54Z</time></trkpt><trkpt lat="45.6199082" lon="9.428336"><ele>208.42857142857144</ele><time>2026-04-09T15:09:33.541Z</time></trkpt><trkpt lat="45.6199443" lon="9.4284383"><ele>208.2857142857143</ele><time>2026-04-09T15:09:34.54Z</time></trkpt><trkpt lat="45.6199379" lon="9.4285308"><ele>208.14285714285714</ele><time>2026-04-09T15:09:35.541Z</time></trkpt><trkpt lat="45.6199223" lon="9.4286285"><ele>208.0</ele><time>2026-04-09T15:09:36.541Z</time></trkpt><trkpt lat="45.6199005" lon="9.4287957"><ele>208.0</ele><time>2026-04-09T15:09:38.54Z</time></trkpt><trkpt lat="45.6198825" lon="9.4288929"><ele>208.0</ele><time>2026-04-09T15:09:39.541Z</time></trkpt><trkpt lat="45.6198511" lon="9.4290793"><ele>208.0</ele><time>2026-04-09T15:09:41.541Z</time></trkpt><trkpt lat="45.6198134" lon="9.4292521"><ele>208.0</ele><time>2026-04-09T15:09:43.54Z</time></trkpt><trkpt lat="45.6197882" lon="9.4293356"><ele>208.0</ele><time>2026-04-09T15:09:44.541Z</time></trkpt><trkpt lat="45.619773" lon="9.4294403"><ele>208.0</ele><time>2026-04-09T15:09:45.541Z</time></trkpt><trkpt lat="45.619758" lon="9.4295278"><ele>208.0</ele><time>2026-04-09T15:09:46.54Z</time></trkpt><trkpt lat="45.6197393" lon="9.4296215"><ele>208.0</ele><time>2026-04-09T15:09:47.54Z</time></trkpt><trkpt lat="45.6197157" lon="9.4297176"><ele>208.0</ele><time>2026-04-09T15:09:48.541Z</time></trkpt><trkpt lat="45.6196969" lon="9.4298064"><ele>208.0</ele><time>2026-04-09T15:09:49.541Z</time></trkpt><trkpt lat="45.6196668" lon="9.4298918"><ele>208.0</ele><time>2026-04-09T15:09:50.54Z</time></trkpt><trkpt lat="45.6196219" lon="9.429959"><ele>208.0</ele><time>2026-04-09T15:09:51.54Z</time></trkpt><trkpt lat="45.619571" lon="9.4300162"><ele>207.99999999999997</ele><time>2026-04-09T15:09:52.541Z</time></trkpt><trkpt lat="45.6195145" lon="9.4300696"><ele>208.0</ele><time>2026-04-09T15:09:53.541Z</time></trkpt><trkpt lat="45.6194559" lon="9.430119"><ele>208.0</ele><time>2026-04-09T15:09:54.541Z</time></trkpt><trkpt lat="45.6193931" lon="9.4301652"><ele>208.0</ele><time>2026-04-09T15:09:55.541Z</time></trkpt><trkpt lat="45.6193357" lon="9.4302069"><ele>207.99999999999997</ele><time>2026-04-09T15:09:56.54Z</time></trkpt><trkpt lat="45.6192217" lon="9.4302817"><ele>208.0</ele><time>2026-04-09T15:09:58.54Z</time></trkpt><trkpt lat="45.6191587" lon="9.4303162"><ele>208.0</ele><time>2026-04-09T15:09:59.541Z</time></trkpt><trkpt lat="45.6190944" lon="9.4303422"><ele>208.0</ele><time>2026-04-09T15:10:00.54Z</time></trkpt><trkpt lat="45.6190293" lon="9.4303734"><ele>208.0</ele><time>2026-04-09T15:10:01.541Z</time></trkpt><trkpt lat="45.6189675" lon="9.4303984"><ele>208.0</ele><time>2026-04-09T15:10:02.541Z</time></trkpt><trkpt lat="45.6188928" lon="9.4304285"><ele>208.0</ele><time>2026-04-09T15:10:03.541Z</time></trkpt><trkpt lat="45.6188158" lon="9.430459"><ele>208.0</ele><time>2026-04-09T15:10:04.54Z</time></trkpt><trkpt lat="45.6187543" lon="9.4304849"><ele>208.0</ele><time>2026-04-09T15:10:05.541Z</time></trkpt><trkpt lat="45.6186856" lon="9.430512"><ele>208.0</ele><time>2026-04-09T15:10:06.54Z</time></trkpt><trkpt lat="45.6186171" lon="9.4305463"><ele>208.0</ele><time>2026-04-09T15:10:07.541Z</time></trkpt><trkpt lat="45.6185472" lon="9.4305733"><ele>208.0</ele><time>2026-04-09T15:10:08.541Z</time></trkpt><trkpt lat="45.6184808" lon="9.430605"><ele>208.0</ele><time>2026-04-09T15:10:09.541Z</time></trkpt><trkpt lat="45.618406" lon="9.4306374"><ele>208.0</ele><time>2026-04-09T15:10:10.541Z</time></trkpt><trkpt lat="45.6183413" lon="9.4306802"><ele>208.0</ele><time>2026-04-09T15:10:11.541Z</time></trkpt><trkpt lat="45.6182784" lon="9.4307294"><ele>208.0</ele><time>2026-04-09T15:10:12.541Z</time></trkpt><trkpt lat="45.6182242" lon="9.4307836"><ele>208.0</ele><time>2026-04-09T15:10:13.54Z</time></trkpt><trkpt lat="45.6181749" lon="9.4308434"><ele>208.0</ele><time>2026-04-09T15:10:14.54Z</time></trkpt><trkpt lat="45.6181323" lon="9.4309144"><ele>208.0</ele><time>2026-04-09T15:10:15.541Z</time></trkpt><trkpt lat="45.6180881" lon="9.4309945"><ele>208.0</ele><time>2026-04-09T15:10:16.541Z</time></trkpt><trkpt lat="45.6180384" lon="9.4310733"><ele>208.0</ele><time>2026-04-09T15:10:17.54Z</time></trkpt><trkpt lat="45.6180113" lon="9.4311594"><ele>208.0</ele><time>2026-04-09T15:10:18.541Z</time></trkpt><trkpt lat="45.6179814" lon="9.4312428"><ele>208.0</ele><time>2026-04-09T15:10:19.541Z</time></trkpt><trkpt lat="45.6179596" lon="9.4313315"><ele>207.85714285714286</ele><time>2026-04-09T15:10:20.541Z</time></trkpt><trkpt lat="45.6179285" lon="9.4314234"><ele>207.71428571428572</ele><time>2026-04-09T15:10:21.54Z</time></trkpt><trkpt lat="45.6179088" lon="9.4315134"><ele>207.57142857142858</ele><time>2026-04-09T15:10:22.54Z</time></trkpt><trkpt lat="45.6178823" lon="9.4315968"><ele>207.42857142857144</ele><time>2026-04-09T15:10:23.541Z</time></trkpt><trkpt lat="45.6178515" lon="9.4316801"><ele>207.28571428571428</ele><time>2026-04-09T15:10:24.541Z</time></trkpt><trkpt lat="45.617825" lon="9.4317626"><ele>207.14285714285717</ele><time>2026-04-09T15:10:25.541Z</time></trkpt><trkpt lat="45.6177901" lon="9.4318434"><ele>207.0</ele><time>2026-04-09T15:10:26.54Z</time></trkpt><trkpt lat="45.6177629" lon="9.4319285"><ele>206.85714285714286</ele><time>2026-04-09T15:10:27.541Z</time></trkpt><trkpt lat="45.6177366" lon="9.4320134"><ele>206.71428571428572</ele><time>2026-04-09T15:10:28.541Z</time></trkpt><trkpt lat="45.6177162" lon="9.4320992"><ele>206.57142857142856</ele><time>2026-04-09T15:10:29.541Z</time></trkpt><trkpt lat="45.6176817" lon="9.4321932"><ele>206.42857142857144</ele><time>2026-04-09T15:10:30.54Z</time></trkpt><trkpt lat="45.6176481" lon="9.432278"><ele>206.28571428571428</ele><time>2026-04-09T15:10:31.541Z</time></trkpt><trkpt lat="45.6176192" lon="9.4323614"><ele>206.14285714285714</ele><time>2026-04-09T15:10:32.541Z</time></trkpt><trkpt lat="45.6175788" lon="9.4324412"><ele>206.0</ele><time>2026-04-09T15:10:33.54Z</time></trkpt><trkpt lat="45.617543" lon="9.4325353"><ele>206.00000000000003</ele><time>2026-04-09T15:10:34.541Z</time></trkpt><trkpt lat="45.6174714" lon="9.4326945"><ele>206.0</ele><time>2026-04-09T15:10:36.541Z</time></trkpt><trkpt lat="45.6174221" lon="9.4327704"><ele>206.0</ele><time>2026-04-09T15:10:37.541Z</time></trkpt><trkpt lat="45.6173821" lon="9.4328425"><ele>206.0</ele><time>2026-04-09T15:10:38.541Z</time></trkpt><trkpt lat="45.6173341" lon="9.432915"><ele>206.00000000000003</ele><time>2026-04-09T15:10:39.54Z</time></trkpt><trkpt lat="45.6172851" lon="9.4329824"><ele>206.0</ele><time>2026-04-09T15:10:40.54Z</time></trkpt><trkpt lat="45.6172431" lon="9.4330568"><ele>205.99999999999997</ele><time>2026-04-09T15:10:41.541Z</time></trkpt><trkpt lat="45.617194" lon="9.4331321"><ele>206.0</ele><time>2026-04-09T15:10:42.541Z</time></trkpt><trkpt lat="45.6171519" lon="9.4332123"><ele>206.0</ele><time>2026-04-09T15:10:43.541Z</time></trkpt><trkpt lat="45.617103" lon="9.4332871"><ele>206.0</ele><time>2026-04-09T15:10:44.54Z</time></trkpt><trkpt lat="45.617059" lon="9.4333671"><ele>206.0</ele><time>2026-04-09T15:10:45.541Z</time></trkpt><trkpt lat="45.6170129" lon="9.4334382"><ele>205.99999999999997</ele><time>2026-04-09T15:10:46.541Z</time></trkpt><trkpt lat="45.6169577" lon="9.4335091"><ele>206.0</ele><time>2026-04-09T15:10:47.541Z</time></trkpt><trkpt lat="45.6169102" lon="9.4335809"><ele>206.0</ele><time>2026-04-09T15:10:48.54Z</time></trkpt><trkpt lat="45.6168268" lon="9.4337112"><ele>206.0</ele><time>2026-04-09T15:10:50.541Z</time></trkpt><trkpt lat="45.6167371" lon="9.4338401"><ele>206.0</ele><time>2026-04-09T15:10:52.54Z</time></trkpt><trkpt lat="45.6166831" lon="9.4338894"><ele>206.0</ele><time>2026-04-09T15:10:53.541Z</time></trkpt><trkpt lat="45.6165707" lon="9.4339166"><ele>206.0</ele><time>2026-04-09T15:10:55.54Z</time></trkpt><trkpt lat="45.6164716" lon="9.4338472"><ele>205.83333333333334</ele><time>2026-04-09T15:10:57.54Z</time></trkpt><trkpt lat="45.6163868" lon="9.433721"><ele>205.66666666666669</ele><time>2026-04-09T15:10:59.54Z</time></trkpt><trkpt lat="45.6163491" lon="9.4336449"><ele>205.5</ele><time>2026-04-09T15:11:00.541Z</time></trkpt><trkpt lat="45.6163217" lon="9.4335562"><ele>205.33333333333331</ele><time>2026-04-09T15:11:01.54Z</time></trkpt><trkpt lat="45.6162694" lon="9.4333918"><ele>205.16666666666666</ele><time>2026-04-09T15:11:03.54Z</time></trkpt><trkpt lat="45.6162531" lon="9.433303"><ele>205.0</ele><time>2026-04-09T15:11:04.54Z</time></trkpt><trkpt lat="45.6162285" lon="9.433134"><ele>205.0</ele><time>2026-04-09T15:11:06.54Z</time></trkpt><trkpt lat="45.6162124" lon="9.4329642"><ele>205.0</ele><time>2026-04-09T15:11:08.541Z</time></trkpt><trkpt lat="45.6161997" lon="9.4327874"><ele>205.0</ele><time>2026-04-09T15:11:10.541Z</time></trkpt><trkpt lat="45.6161787" lon="9.4326161"><ele>205.0</ele><time>2026-04-09T15:11:12.541Z</time></trkpt><trkpt lat="45.6161652" lon="9.4324536"><ele>204.99999999999997</ele><time>2026-04-09T15:11:14.54Z</time></trkpt><trkpt lat="45.6161616" lon="9.4322944"><ele>205.0</ele><time>2026-04-09T15:11:16.541Z</time></trkpt><trkpt lat="45.6161549" lon="9.4321429"><ele>205.0</ele><time>2026-04-09T15:11:18.541Z</time></trkpt><trkpt lat="45.6161222" lon="9.4320456"><ele>205.0</ele><time>2026-04-09T15:11:20.54Z</time></trkpt><trkpt lat="45.6160576" lon="9.4320025"><ele>204.99999999999997</ele><time>2026-04-09T15:11:22.541Z</time></trkpt><trkpt lat="45.6159982" lon="9.4320335"><ele>205.0</ele><time>2026-04-09T15:11:24.541Z</time></trkpt><trkpt lat="45.6159848" lon="9.4321239"><ele>204.8</ele><time>2026-04-09T15:11:26.541Z</time></trkpt><trkpt lat="45.6159727" lon="9.4322484"><ele>204.6</ele><time>2026-04-09T15:11:28.541Z</time></trkpt><trkpt lat="45.6159463" lon="9.432405"><ele>204.39999999999998</ele><time>2026-04-09T15:11:30.541Z</time></trkpt><trkpt lat="45.6159379" lon="9.4324985"><ele>204.2</ele><time>2026-04-09T15:11:31.54Z</time></trkpt><trkpt lat="45.6159193" lon="9.4326507"><ele>204.0</ele><time>2026-04-09T15:11:33.541Z</time></trkpt><trkpt lat="45.615905" lon="9.4327592"><ele>204.0</ele><time>2026-04-09T15:11:35.541Z</time></trkpt><trkpt lat="45.615877" lon="9.4328801"><ele>204.0</ele><time>2026-04-09T15:11:37.541Z</time></trkpt><trkpt lat="45.6157407" lon="9.4332535"><ele>204.0</ele><time>2026-04-09T15:11:43.532Z</time></trkpt><trkpt lat="45.6156916" lon="9.4333452"><ele>204.0</ele><time>2026-04-09T15:11:46.543Z</time></trkpt><trkpt lat="45.6156376" lon="9.4334677"><ele>204.0</ele><time>2026-04-09T15:11:48.54Z</time></trkpt><trkpt lat="45.6155737" lon="9.4335455"><ele>204.0</ele><time>2026-04-09T15:11:50.54Z</time></trkpt><trkpt lat="45.6154966" lon="9.4335443"><ele>204.0</ele><time>2026-04-09T15:11:52.54Z</time></trkpt><trkpt lat="45.6154087" lon="9.4334998"><ele>204.0</ele><time>2026-04-09T15:11:54.54Z</time></trkpt><trkpt lat="45.6153175" lon="9.4334348"><ele>204.25</ele><time>2026-04-09T15:11:56.539Z</time></trkpt><trkpt lat="45.6152012" lon="9.4333805"><ele>204.5</ele><time>2026-04-09T15:11:58.539Z</time></trkpt><trkpt lat="45.6150872" lon="9.433335"><ele>204.75</ele><time>2026-04-09T15:12:00.539Z</time></trkpt><trkpt lat="45.6149773" lon="9.4332787"><ele>205.0</ele><time>2026-04-09T15:12:02.54Z</time></trkpt><trkpt lat="45.6148721" lon="9.4332156"><ele>205.0</ele><time>2026-04-09T15:12:04.539Z</time></trkpt><trkpt lat="45.6147564" lon="9.4331603"><ele>205.0</ele><time>2026-04-09T15:12:06.54Z</time></trkpt><trkpt lat="45.6146966" lon="9.4331294"><ele>205.0</ele><time>2026-04-09T15:12:07.54Z</time></trkpt><trkpt lat="45.6145814" lon="9.4330745"><ele>205.0</ele><time>2026-04-09T15:12:09.54Z</time></trkpt><trkpt lat="45.614521" lon="9.4330363"><ele>205.0</ele><time>2026-04-09T15:12:10.54Z</time></trkpt><trkpt lat="45.6144221" lon="9.4329869"><ele>204.6</ele><time>2026-04-09T15:12:12.54Z</time></trkpt><trkpt lat="45.6143352" lon="9.4329437"><ele>204.2</ele><time>2026-04-09T15:12:14.539Z</time></trkpt><trkpt lat="45.6142236" lon="9.4328924"><ele>203.8</ele><time>2026-04-09T15:12:16.54Z</time></trkpt><trkpt lat="45.6141461" lon="9.4328627"><ele>203.4</ele><time>2026-04-09T15:12:17.539Z</time></trkpt><trkpt lat="45.6140814" lon="9.4328405"><ele>203.0</ele><time>2026-04-09T15:12:18.539Z</time></trkpt><trkpt lat="45.6139808" lon="9.4328084"><ele>203.00000000000003</ele><time>2026-04-09T15:12:20.539Z</time></trkpt><trkpt lat="45.6138858" lon="9.4328677"><ele>203.0</ele><time>2026-04-09T15:12:22.54Z</time></trkpt><trkpt lat="45.6137719" lon="9.4329009"><ele>203.0</ele><time>2026-04-09T15:12:24.539Z</time></trkpt><trkpt lat="45.6137072" lon="9.4328837"><ele>203.0</ele><time>2026-04-09T15:12:25.54Z</time></trkpt><trkpt lat="45.6136342" lon="9.4328696"><ele>203.00000000000003</ele><time>2026-04-09T15:12:26.54Z</time></trkpt><trkpt lat="45.6135701" lon="9.4328389"><ele>203.0</ele><time>2026-04-09T15:12:27.539Z</time></trkpt><trkpt lat="45.613494" lon="9.4328053"><ele>203.00000000000003</ele><time>2026-04-09T15:12:28.539Z</time></trkpt><trkpt lat="45.6134246" lon="9.4327831"><ele>203.0</ele><time>2026-04-09T15:12:29.54Z</time></trkpt><trkpt lat="45.6133663" lon="9.4327456"><ele>203.0</ele><time>2026-04-09T15:12:30.54Z</time></trkpt><trkpt lat="45.6132993" lon="9.432719"><ele>203.0</ele><time>2026-04-09T15:12:31.539Z</time></trkpt><trkpt lat="45.613196" lon="9.4326535"><ele>203.00000000000003</ele><time>2026-04-09T15:12:33.54Z</time></trkpt><trkpt lat="45.6131362" lon="9.4326198"><ele>203.0</ele><time>2026-04-09T15:12:34.54Z</time></trkpt><trkpt lat="45.613019" lon="9.4325732"><ele>203.0</ele><time>2026-04-09T15:12:36.539Z</time></trkpt><trkpt lat="45.612897" lon="9.4325183"><ele>203.0</ele><time>2026-04-09T15:12:38.539Z</time></trkpt><trkpt lat="45.6127888" lon="9.432459"><ele>203.0</ele><time>2026-04-09T15:12:40.54Z</time></trkpt><trkpt lat="45.612726" lon="9.4323582"><ele>203.0</ele><time>2026-04-09T15:12:42.539Z</time></trkpt><trkpt lat="45.612735" lon="9.4322107"><ele>203.0</ele><time>2026-04-09T15:12:44.54Z</time></trkpt><trkpt lat="45.612762" lon="9.4320414"><ele>202.83333333333334</ele><time>2026-04-09T15:12:46.54Z</time></trkpt><trkpt lat="45.6127888" lon="9.4318878"><ele>202.66666666666669</ele><time>2026-04-09T15:12:48.539Z</time></trkpt><trkpt lat="45.6128001" lon="9.4317977"><ele>202.5</ele><time>2026-04-09T15:12:49.54Z</time></trkpt><trkpt lat="45.612822" lon="9.431631"><ele>202.33333333333331</ele><time>2026-04-09T15:12:51.54Z</time></trkpt><trkpt lat="45.6128372" lon="9.431538"><ele>202.16666666666666</ele><time>2026-04-09T15:12:52.539Z</time></trkpt><trkpt lat="45.6128482" lon="9.431449"><ele>202.0</ele><time>2026-04-09T15:12:53.539Z</time></trkpt><trkpt lat="45.6128579" lon="9.4313588"><ele>202.16666666666666</ele><time>2026-04-09T15:12:54.54Z</time></trkpt><trkpt lat="45.612866" lon="9.4312635"><ele>202.33333333333331</ele><time>2026-04-09T15:12:55.54Z</time></trkpt><trkpt lat="45.6128747" lon="9.4311697"><ele>202.5</ele><time>2026-04-09T15:12:56.539Z</time></trkpt><trkpt lat="45.6128889" lon="9.4310784"><ele>202.66666666666669</ele><time>2026-04-09T15:12:57.54Z</time></trkpt><trkpt lat="45.6128942" lon="9.4309874"><ele>202.83333333333334</ele><time>2026-04-09T15:12:58.539Z</time></trkpt><trkpt lat="45.6129145" lon="9.4308028"><ele>203.0</ele><time>2026-04-09T15:13:00.54Z</time></trkpt><trkpt lat="45.6129273" lon="9.4307032"><ele>203.00000000000003</ele><time>2026-04-09T15:13:01.539Z</time></trkpt><trkpt lat="45.6129384" lon="9.4305297"><ele>203.0</ele><time>2026-04-09T15:13:03.54Z</time></trkpt><trkpt lat="45.6129504" lon="9.4304333"><ele>203.0</ele><time>2026-04-09T15:13:04.54Z</time></trkpt><trkpt lat="45.6129611" lon="9.4303391"><ele>203.0</ele><time>2026-04-09T15:13:05.54Z</time></trkpt><trkpt lat="45.6129647" lon="9.4301649"><ele>203.00000000000003</ele><time>2026-04-09T15:13:07.539Z</time></trkpt><trkpt lat="45.6129699" lon="9.4300672"><ele>203.0</ele><time>2026-04-09T15:13:08.539Z</time></trkpt><trkpt lat="45.61296" lon="9.4298835"><ele>202.83333333333334</ele><time>2026-04-09T15:13:10.539Z</time></trkpt><trkpt lat="45.6129424" lon="9.429795"><ele>202.66666666666669</ele><time>2026-04-09T15:13:11.54Z</time></trkpt><trkpt lat="45.6129198" lon="9.4296995"><ele>202.5</ele><time>2026-04-09T15:13:12.54Z</time></trkpt><trkpt lat="45.6128801" lon="9.4296247"><ele>202.33333333333331</ele><time>2026-04-09T15:13:13.539Z</time></trkpt><trkpt lat="45.6128325" lon="9.4295591"><ele>202.16666666666666</ele><time>2026-04-09T15:13:14.54Z</time></trkpt><trkpt lat="45.6127877" lon="9.4294856"><ele>202.0</ele><time>2026-04-09T15:13:15.539Z</time></trkpt><trkpt lat="45.6127282" lon="9.4293226"><ele>201.99999999999997</ele><time>2026-04-09T15:13:17.54Z</time></trkpt><trkpt lat="45.6127261" lon="9.4291595"><ele>202.0</ele><time>2026-04-09T15:13:19.54Z</time></trkpt><trkpt lat="45.6127523" lon="9.4289933"><ele>202.0</ele><time>2026-04-09T15:13:21.539Z</time></trkpt><trkpt lat="45.6127684" lon="9.4289035"><ele>202.0</ele><time>2026-04-09T15:13:22.54Z</time></trkpt><trkpt lat="45.6127819" lon="9.4288133"><ele>201.99999999999997</ele><time>2026-04-09T15:13:23.54Z</time></trkpt><trkpt lat="45.6127947" lon="9.4287247"><ele>202.0</ele><time>2026-04-09T15:13:24.54Z</time></trkpt><trkpt lat="45.6128165" lon="9.4286297"><ele>202.0</ele><time>2026-04-09T15:13:25.539Z</time></trkpt><trkpt lat="45.6128364" lon="9.4285387"><ele>202.0</ele><time>2026-04-09T15:13:26.54Z</time></trkpt><trkpt lat="45.6128544" lon="9.4284489"><ele>202.0</ele><time>2026-04-09T15:13:27.539Z</time></trkpt><trkpt lat="45.6128695" lon="9.4283551"><ele>202.0</ele><time>2026-04-09T15:13:28.54Z</time></trkpt><trkpt lat="45.6128889" lon="9.4282548"><ele>202.0</ele><time>2026-04-09T15:13:29.54Z</time></trkpt><trkpt lat="45.6129081" lon="9.4281602"><ele>202.0</ele><time>2026-04-09T15:13:30.54Z</time></trkpt><trkpt lat="45.6129231" lon="9.4280638"><ele>202.0</ele><time>2026-04-09T15:13:31.54Z</time></trkpt><trkpt lat="45.6129429" lon="9.4279716"><ele>202.0</ele><time>2026-04-09T15:13:32.54Z</time></trkpt><trkpt lat="45.6129607" lon="9.4278777"><ele>202.0</ele><time>2026-04-09T15:13:33.539Z</time></trkpt><trkpt lat="45.6129805" lon="9.4277774"><ele>202.0</ele><time>2026-04-09T15:13:34.539Z</time></trkpt><trkpt lat="45.612995" lon="9.4276866"><ele>202.0</ele><time>2026-04-09T15:13:35.539Z</time></trkpt><trkpt lat="45.6130111" lon="9.427595"><ele>202.0</ele><time>2026-04-09T15:13:36.54Z</time></trkpt><trkpt lat="45.6130274" lon="9.4275016"><ele>202.0</ele><time>2026-04-09T15:13:37.539Z</time></trkpt><trkpt lat="45.613044" lon="9.4274065"><ele>202.0</ele><time>2026-04-09T15:13:38.54Z</time></trkpt><trkpt lat="45.6130623" lon="9.4273175"><ele>202.0</ele><time>2026-04-09T15:13:39.54Z</time></trkpt><trkpt lat="45.613075" lon="9.4272221"><ele>202.0</ele><time>2026-04-09T15:13:40.54Z</time></trkpt><trkpt lat="45.6130863" lon="9.427131"><ele>202.0</ele><time>2026-04-09T15:13:41.54Z</time></trkpt><trkpt lat="45.6130915" lon="9.4270361"><ele>202.0</ele><time>2026-04-09T15:13:42.54Z</time></trkpt><trkpt lat="45.613093" lon="9.4269431"><ele>202.0</ele><time>2026-04-09T15:13:43.539Z</time></trkpt><trkpt lat="45.6130857" lon="9.4268524"><ele>202.0</ele><time>2026-04-09T15:13:44.54Z</time></trkpt><trkpt lat="45.6130172" lon="9.4267247"><ele>202.0</ele><time>2026-04-09T15:13:46.54Z</time></trkpt><trkpt lat="45.6129076" lon="9.4266808"><ele>202.0</ele><time>2026-04-09T15:13:48.539Z</time></trkpt><trkpt lat="45.6127928" lon="9.426641"><ele>202.0</ele><time>2026-04-09T15:13:50.539Z</time></trkpt><trkpt lat="45.6127297" lon="9.4266147"><ele>202.0</ele><time>2026-04-09T15:13:51.54Z</time></trkpt><trkpt lat="45.6126066" lon="9.4265778"><ele>202.0</ele><time>2026-04-09T15:13:53.539Z</time></trkpt><trkpt lat="45.6125475" lon="9.4265442"><ele>202.0</ele><time>2026-04-09T15:13:54.54Z</time></trkpt><trkpt lat="45.612448" lon="9.4264306"><ele>202.0</ele><time>2026-04-09T15:13:56.539Z</time></trkpt><trkpt lat="45.6123424" lon="9.4263546"><ele>202.0</ele><time>2026-04-09T15:13:58.54Z</time></trkpt><trkpt lat="45.612279" lon="9.4263299"><ele>202.0</ele><time>2026-04-09T15:13:59.539Z</time></trkpt><trkpt lat="45.6121604" lon="9.4262845"><ele>202.0</ele><time>2026-04-09T15:14:01.54Z</time></trkpt><trkpt lat="45.6120554" lon="9.4261905"><ele>202.0</ele><time>2026-04-09T15:14:03.539Z</time></trkpt><trkpt lat="45.6119963" lon="9.4261399"><ele>201.42857142857142</ele><time>2026-04-09T15:14:04.54Z</time></trkpt><trkpt lat="45.6119355" lon="9.4261072"><ele>200.85714285714283</ele><time>2026-04-09T15:14:05.539Z</time></trkpt><trkpt lat="45.6118709" lon="9.4260801"><ele>200.28571428571428</ele><time>2026-04-09T15:14:06.54Z</time></trkpt><trkpt lat="45.6118034" lon="9.4260766"><ele>199.71428571428572</ele><time>2026-04-09T15:14:07.54Z</time></trkpt><trkpt lat="45.6117322" lon="9.4260589"><ele>199.14285714285714</ele><time>2026-04-09T15:14:08.539Z</time></trkpt><trkpt lat="45.6116625" lon="9.4260622"><ele>198.57142857142858</ele><time>2026-04-09T15:14:09.54Z</time></trkpt><trkpt lat="45.6115946" lon="9.4260665"><ele>198.0</ele><time>2026-04-09T15:14:10.54Z</time></trkpt><trkpt lat="45.6115317" lon="9.4260743"><ele>198.0</ele><time>2026-04-09T15:14:11.54Z</time></trkpt><trkpt lat="45.6114655" lon="9.42608"><ele>198.0</ele><time>2026-04-09T15:14:12.54Z</time></trkpt><trkpt lat="45.6113498" lon="9.4260585"><ele>198.0</ele><time>2026-04-09T15:14:14.54Z</time></trkpt><trkpt lat="45.6112875" lon="9.4260343"><ele>198.0</ele><time>2026-04-09T15:14:15.539Z</time></trkpt><trkpt lat="45.6112246" lon="9.4260241"><ele>198.0</ele><time>2026-04-09T15:14:16.54Z</time></trkpt><trkpt lat="45.611097" lon="9.4259866"><ele>198.0</ele><time>2026-04-09T15:14:18.54Z</time></trkpt><trkpt lat="45.6109857" lon="9.4259511"><ele>198.66666666666666</ele><time>2026-04-09T15:14:20.539Z</time></trkpt><trkpt lat="45.6109173" lon="9.4259116"><ele>199.33333333333331</ele><time>2026-04-09T15:14:22.54Z</time></trkpt><trkpt lat="45.6108438" lon="9.4258869"><ele>200.0</ele><time>2026-04-09T15:14:27.54Z</time></trkpt><trkpt lat="45.6108013" lon="9.4258156"><ele>200.66666666666666</ele><time>2026-04-09T15:14:29.539Z</time></trkpt><trkpt lat="45.6107706" lon="9.425715"><ele>201.33333333333331</ele><time>2026-04-09T15:14:31.54Z</time></trkpt><trkpt lat="45.6107648" lon="9.4256022"><ele>202.0</ele><time>2026-04-09T15:14:33.54Z</time></trkpt><trkpt lat="45.6107002" lon="9.4255191"><ele>202.0</ele><time>2026-04-09T15:14:36.54Z</time></trkpt><trkpt lat="45.6106085" lon="9.425508"><ele>202.0</ele><time>2026-04-09T15:14:38.539Z</time></trkpt><trkpt lat="45.6105182" lon="9.4255485"><ele>202.0</ele><time>2026-04-09T15:14:39.539Z</time></trkpt><trkpt lat="45.6104406" lon="9.4254815"><ele>202.0</ele><time>2026-04-09T15:14:41.539Z</time></trkpt><trkpt lat="45.6103615" lon="9.4254308"><ele>202.0</ele><time>2026-04-09T15:14:43.54Z</time></trkpt><trkpt lat="45.6102467" lon="9.4253975"><ele>201.0</ele><time>2026-04-09T15:14:45.539Z</time></trkpt><trkpt lat="45.6101453" lon="9.4253618"><ele>200.0</ele><time>2026-04-09T15:14:47.539Z</time></trkpt><trkpt lat="45.6100501" lon="9.4253222"><ele>199.0</ele><time>2026-04-09T15:14:49.539Z</time></trkpt><trkpt lat="45.6099557" lon="9.4252844"><ele>198.0</ele><time>2026-04-09T15:14:51.54Z</time></trkpt><trkpt lat="45.6098602" lon="9.4252613"><ele>197.0</ele><time>2026-04-09T15:14:53.539Z</time></trkpt><trkpt lat="45.6097661" lon="9.425247"><ele>197.0</ele><time>2026-04-09T15:14:55.54Z</time></trkpt><trkpt lat="45.6096791" lon="9.4252838"><ele>197.0</ele><time>2026-04-09T15:14:57.539Z</time></trkpt><trkpt lat="45.6096132" lon="9.4253771"><ele>197.0</ele><time>2026-04-09T15:14:59.54Z</time></trkpt><trkpt lat="45.6095609" lon="9.4254859"><ele>197.0</ele><time>2026-04-09T15:15:01.54Z</time></trkpt><trkpt lat="45.6095302" lon="9.4255982"><ele>197.0</ele><time>2026-04-09T15:15:03.54Z</time></trkpt><trkpt lat="45.6095161" lon="9.4257309"><ele>197.83333333333334</ele><time>2026-04-09T15:15:05.54Z</time></trkpt><trkpt lat="45.6095088" lon="9.4258639"><ele>198.66666666666669</ele><time>2026-04-09T15:15:07.539Z</time></trkpt><trkpt lat="45.6095185" lon="9.4259839"><ele>199.5</ele><time>2026-04-09T15:15:09.54Z</time></trkpt><trkpt lat="45.6095771" lon="9.4260386"><ele>200.33333333333331</ele><time>2026-04-09T15:15:11.54Z</time></trkpt><trkpt lat="45.6096427" lon="9.4259628"><ele>201.16666666666666</ele><time>2026-04-09T15:15:21.54Z</time></trkpt><trkpt lat="45.609663" lon="9.4260654"><ele>202.0</ele><time>2026-04-09T15:16:01.54Z</time></trkpt><trkpt lat="45.6096503" lon="9.426172"><ele>202.0</ele><time>2026-04-09T15:16:03.54Z</time></trkpt><trkpt lat="45.6096416" lon="9.4263023"><ele>202.0</ele><time>2026-04-09T15:16:05.539Z</time></trkpt><trkpt lat="45.6096358" lon="9.4264426"><ele>202.0</ele><time>2026-04-09T15:16:07.539Z</time></trkpt><trkpt lat="45.6096301" lon="9.4265814"><ele>202.0</ele><time>2026-04-09T15:16:09.54Z</time></trkpt><trkpt lat="45.6096287" lon="9.4267126"><ele>202.0</ele><time>2026-04-09T15:16:11.539Z</time></trkpt><trkpt lat="45.6096316" lon="9.4268356"><ele>202.0</ele><time>2026-04-09T15:16:13.54Z</time></trkpt><trkpt lat="45.609625" lon="9.4269264"><ele>202.0</ele><time>2026-04-09T15:16:15.54Z</time></trkpt><trkpt lat="45.6095964" lon="9.427098"><ele>202.0</ele><time>2026-04-09T15:16:17.539Z</time></trkpt><trkpt lat="45.609594" lon="9.4271909"><ele>202.0</ele><time>2026-04-09T15:16:19.539Z</time></trkpt><trkpt lat="45.6101433" lon="9.4272063"><ele>201.66666666666666</ele><time>2026-04-09T15:19:11.04Z</time></trkpt><trkpt lat="45.6100505" lon="9.4271897"><ele>201.33333333333331</ele><time>2026-04-09T15:19:48.537Z</time></trkpt><trkpt lat="45.6099519" lon="9.4271483"><ele>201.0</ele><time>2026-04-09T15:19:51.531Z</time></trkpt><trkpt lat="45.6100127" lon="9.4271899"><ele>200.66666666666669</ele><time>2026-04-09T15:20:28.532Z</time></trkpt><trkpt lat="45.6100252" lon="9.4272942"><ele>200.33333333333334</ele><time>2026-04-09T15:20:33.532Z</time></trkpt><trkpt lat="45.6100512" lon="9.4272042"><ele>200.0</ele><time>2026-04-09T15:20:51.532Z</time></trkpt><trkpt lat="45.6100171" lon="9.4272842"><ele>200.0</ele><time>2026-04-09T15:23:29.532Z</time></trkpt><trkpt lat="45.6099671" lon="9.4274195"><ele>200.0</ele><time>2026-04-09T15:23:36.529Z</time></trkpt><trkpt lat="45.6099731" lon="9.4272923"><ele>200.0</ele><time>2026-04-09T15:24:16.534Z</time></trkpt><trkpt lat="45.6099876" lon="9.4274131"><ele>200.0</ele><time>2026-04-09T15:24:30.536Z</time></trkpt><trkpt lat="45.609996" lon="9.427504"><ele>200.0</ele><time>2026-04-09T15:24:35.537Z</time></trkpt></trkseg></trk></gpx>